<?xml version='1.0' encoding='UTF-8'?><gpx version="1.1" creator="JPX - https://github.com/jenetics/jpx" xmlns="http://www.topografix.com/GPX/1/1"><trk><trkseg><trkpt lat="43.39529859845465" lon="13.56370043322595"><ele>182.33333333333331</ele><time>2026-05-02T12:51:49.999Z</time></trkpt><trkpt lat="43.39532882494494" lon="13.563608519272238"><ele>182.66666666666666</ele><time>2026-05-02T12:51:52.999Z</time></trkpt><trkpt lat="43.395343522333064" lon="13.563521916649396"><ele>183.0</ele><time>2026-05-02T12:51:56.999Z</time></trkpt><trkpt lat="43.395379872217866" lon="13.563430702258138"><ele>183.33333333333334</ele><time>2026-05-02T12:51:59.999Z</time></trkpt><trkpt lat="43.39542125286403" lon="13.56331288040328"><ele>183.66666666666669</ele><time>2026-05-02T12:52:02.999Z</time></trkpt><trkpt lat="43.39544965895365" lon="13.563212577863759"><ele>184.0</ele><time>2026-05-02T12:52:04.999Z</time></trkpt><trkpt lat="43.395489837126796" lon="13.563116246672648"><ele>184.2857142857143</ele><time>2026-05-02T12:52:06.999Z</time></trkpt><trkpt lat="43.395531358069746" lon="13.563034265338242"><ele>184.57142857142856</ele><time>2026-05-02T12:52:08.999Z</time></trkpt><trkpt lat="43.395575656555664" lon="13.562959173442536"><ele>184.85714285714286</ele><time>2026-05-02T12:52:10.999Z</time></trkpt><trkpt lat="43.39562213044057" lon="13.56289201489302"><ele>185.14285714285717</ele><time>2026-05-02T12:52:12.999Z</time></trkpt><trkpt lat="43.39567315908753" lon="13.562828791531269"><ele>185.42857142857144</ele><time>2026-05-02T12:52:14.999Z</time></trkpt><trkpt lat="43.39572749323397" lon="13.562767824941318"><ele>185.71428571428572</ele><time>2026-05-02T12:52:16.999Z</time></trkpt><trkpt lat="43.39579941851245" lon="13.562696583805078"><ele>186.0</ele><time>2026-05-02T12:52:19.999Z</time></trkpt><trkpt lat="43.39587597505754" lon="13.562623795846958"><ele>187.5</ele><time>2026-05-02T12:52:22.999Z</time></trkpt><trkpt lat="43.395938491102605" lon="13.562583551659694"><ele>189.0</ele><time>2026-05-02T12:52:24.999Z</time></trkpt><trkpt lat="43.39600558152919" lon="13.562556688447623"><ele>190.5</ele><time>2026-05-02T12:52:26.999Z</time></trkpt><trkpt lat="43.396085073345034" lon="13.562555723365346"><ele>192.0</ele><time>2026-05-02T12:52:28.999Z</time></trkpt><trkpt lat="43.39616108168002" lon="13.562570531656188"><ele>193.5</ele><time>2026-05-02T12:52:30.999Z</time></trkpt><trkpt lat="43.39624910536191" lon="13.562538105287722"><ele>195.0</ele><time>2026-05-02T12:52:32.999Z</time></trkpt><trkpt lat="43.39629178224641" lon="13.562411106190421"><ele>195.0</ele><time>2026-05-02T12:52:34.999Z</time></trkpt><trkpt lat="43.39627173978918" lon="13.56229223974373"><ele>195.0</ele><time>2026-05-02T12:52:36.999Z</time></trkpt><trkpt lat="43.39630409982254" lon="13.562207325608012"><ele>195.0</ele><time>2026-05-02T12:52:38.999Z</time></trkpt><trkpt lat="43.39634951757936" lon="13.562136719716325"><ele>195.0</ele><time>2026-05-02T12:52:40.999Z</time></trkpt><trkpt lat="43.396410424517526" lon="13.562085957696604"><ele>195.0</ele><time>2026-05-02T12:52:42.999Z</time></trkpt><trkpt lat="43.39647754463463" lon="13.56203000547059"><ele>195.0</ele><time>2026-05-02T12:52:44.999Z</time></trkpt><trkpt lat="43.39654012450503" lon="13.561977194910115"><ele>196.83333333333334</ele><time>2026-05-02T12:52:46.998Z</time></trkpt><trkpt lat="43.39660504080768" lon="13.561916863909268"><ele>198.66666666666669</ele><time>2026-05-02T12:52:48.998Z</time></trkpt><trkpt lat="43.396663782799074" lon="13.561859944837137"><ele>200.5</ele><time>2026-05-02T12:52:50.998Z</time></trkpt><trkpt lat="43.396722655333186" lon="13.56179913580305"><ele>202.33333333333334</ele><time>2026-05-02T12:52:52.998Z</time></trkpt><trkpt lat="43.396783265876664" lon="13.561738062583029"><ele>204.16666666666669</ele><time>2026-05-02T12:52:54.998Z</time></trkpt><trkpt lat="43.39684916100899" lon="13.561674563495318"><ele>206.0</ele><time>2026-05-02T12:52:56.998Z</time></trkpt><trkpt lat="43.39690800294967" lon="13.561615773197373"><ele>205.99999999999997</ele><time>2026-05-02T12:52:58.998Z</time></trkpt><trkpt lat="43.39695948685266" lon="13.561555820679489"><ele>206.0</ele><time>2026-05-02T12:53:00.998Z</time></trkpt><trkpt lat="43.397010114145736" lon="13.56148502121679"><ele>206.0</ele><time>2026-05-02T12:53:02.998Z</time></trkpt><trkpt lat="43.39705944417881" lon="13.561412016723006"><ele>206.0</ele><time>2026-05-02T12:53:04.998Z</time></trkpt><trkpt lat="43.39709971537448" lon="13.56133183965112"><ele>206.0</ele><time>2026-05-02T12:53:06.998Z</time></trkpt><trkpt lat="43.397129323909006" lon="13.561250181796066"><ele>205.99999999999997</ele><time>2026-05-02T12:53:08.998Z</time></trkpt><trkpt lat="43.39713984128035" lon="13.56114970705597"><ele>206.0</ele><time>2026-05-02T12:53:10.998Z</time></trkpt><trkpt lat="43.397147917464316" lon="13.561057456079626"><ele>206.99999999999997</ele><time>2026-05-02T12:53:12.998Z</time></trkpt><trkpt lat="43.397138276193125" lon="13.560971102760243"><ele>208.0</ele><time>2026-05-02T12:53:14.998Z</time></trkpt><trkpt lat="43.397136336376214" lon="13.56087314463476"><ele>209.0</ele><time>2026-05-02T12:53:16.998Z</time></trkpt><trkpt lat="43.39712918636029" lon="13.560770901155648"><ele>210.0</ele><time>2026-05-02T12:53:18.998Z</time></trkpt><trkpt lat="43.397132048151285" lon="13.560677639573134"><ele>211.0</ele><time>2026-05-02T12:53:20.998Z</time></trkpt><trkpt lat="43.39712366322848" lon="13.56059013284769"><ele>211.99999999999997</ele><time>2026-05-02T12:53:23Z</time></trkpt><trkpt lat="43.39711747125125" lon="13.560493252377155"><ele>213.0</ele><time>2026-05-02T12:53:25Z</time></trkpt><trkpt lat="43.39711775723674" lon="13.560402120126641"><ele>213.57142857142856</ele><time>2026-05-02T12:53:27Z</time></trkpt><trkpt lat="43.39711042604252" lon="13.560304843452103"><ele>214.14285714285714</ele><time>2026-05-02T12:53:29Z</time></trkpt><trkpt lat="43.397108220767265" lon="13.560216325911998"><ele>214.71428571428572</ele><time>2026-05-02T12:53:31Z</time></trkpt><trkpt lat="43.39710996831527" lon="13.560119170021713"><ele>215.28571428571428</ele><time>2026-05-02T12:53:33Z</time></trkpt><trkpt lat="43.39711756005749" lon="13.56001492874194"><ele>215.85714285714286</ele><time>2026-05-02T12:53:35Z</time></trkpt><trkpt lat="43.397129762049914" lon="13.559916976858934"><ele>216.42857142857142</ele><time>2026-05-02T12:53:37Z</time></trkpt><trkpt lat="43.39713877067043" lon="13.559817712449632"><ele>217.0</ele><time>2026-05-02T12:53:39Z</time></trkpt><trkpt lat="43.39715599480355" lon="13.559720354311752"><ele>217.28571428571428</ele><time>2026-05-02T12:53:41Z</time></trkpt><trkpt lat="43.39717042143694" lon="13.559616308702465"><ele>217.57142857142856</ele><time>2026-05-02T12:53:43Z</time></trkpt><trkpt lat="43.397177467107895" lon="13.559515217163847"><ele>217.85714285714286</ele><time>2026-05-02T12:53:45Z</time></trkpt><trkpt lat="43.397190924809" lon="13.559421972732247"><ele>218.14285714285714</ele><time>2026-05-02T12:53:47Z</time></trkpt><trkpt lat="43.39720633558553" lon="13.559318872522834"><ele>218.42857142857142</ele><time>2026-05-02T12:53:49Z</time></trkpt><trkpt lat="43.397213077758515" lon="13.559208921633005"><ele>218.71428571428572</ele><time>2026-05-02T12:53:51Z</time></trkpt><trkpt lat="43.39722205627673" lon="13.559110978276195"><ele>219.0</ele><time>2026-05-02T12:53:52.999Z</time></trkpt><trkpt lat="43.39723780722359" lon="13.5590102391823"><ele>219.85714285714286</ele><time>2026-05-02T12:53:54.999Z</time></trkpt><trkpt lat="43.397252367598064" lon="13.558908471849154"><ele>220.71428571428572</ele><time>2026-05-02T12:53:56.999Z</time></trkpt><trkpt lat="43.3972649157287" lon="13.558804936623353"><ele>221.57142857142858</ele><time>2026-05-02T12:53:58.999Z</time></trkpt><trkpt lat="43.39727722034821" lon="13.55870580270979"><ele>222.42857142857144</ele><time>2026-05-02T12:54:00.999Z</time></trkpt><trkpt lat="43.39729009422908" lon="13.558613548334183"><ele>223.28571428571428</ele><time>2026-05-02T12:54:02.999Z</time></trkpt><trkpt lat="43.39730609606265" lon="13.5585120366734"><ele>224.14285714285717</ele><time>2026-05-02T12:54:04.999Z</time></trkpt><trkpt lat="43.39731352306567" lon="13.558410400390295"><ele>225.00000000000003</ele><time>2026-05-02T12:54:06.999Z</time></trkpt><trkpt lat="43.397322672165615" lon="13.55829766427472"><ele>225.83333333333334</ele><time>2026-05-02T12:54:08.999Z</time></trkpt><trkpt lat="43.397340842600975" lon="13.558193960468836"><ele>226.66666666666669</ele><time>2026-05-02T12:54:10.999Z</time></trkpt><trkpt lat="43.39734743234248" lon="13.558085331557379"><ele>227.5</ele><time>2026-05-02T12:54:12.999Z</time></trkpt><trkpt lat="43.39736463770681" lon="13.5579836045748"><ele>228.33333333333334</ele><time>2026-05-02T12:54:14.999Z</time></trkpt><trkpt lat="43.397379753024644" lon="13.557887363770298"><ele>229.16666666666669</ele><time>2026-05-02T12:54:16.999Z</time></trkpt><trkpt lat="43.397391218961616" lon="13.55778401540721"><ele>230.0</ele><time>2026-05-02T12:54:18.999Z</time></trkpt><trkpt lat="43.397398923554285" lon="13.557683237733867"><ele>230.85714285714283</ele><time>2026-05-02T12:54:20.999Z</time></trkpt><trkpt lat="43.397413368710154" lon="13.557583087591098"><ele>231.71428571428572</ele><time>2026-05-02T12:54:22.999Z</time></trkpt><trkpt lat="43.397434604401774" lon="13.557474972848441"><ele>232.57142857142856</ele><time>2026-05-02T12:54:24.999Z</time></trkpt><trkpt lat="43.39744676996435" lon="13.557380167525157"><ele>233.42857142857142</ele><time>2026-05-02T12:54:26.999Z</time></trkpt><trkpt lat="43.397451880396765" lon="13.557283424888087"><ele>234.28571428571428</ele><time>2026-05-02T12:54:28.999Z</time></trkpt><trkpt lat="43.39746251847422" lon="13.557179304103144"><ele>235.14285714285714</ele><time>2026-05-02T12:54:30.999Z</time></trkpt><trkpt lat="43.39747581427044" lon="13.557082183361912"><ele>236.0</ele><time>2026-05-02T12:54:32.999Z</time></trkpt><trkpt lat="43.397487619910514" lon="13.556979096570215"><ele>236.42857142857142</ele><time>2026-05-02T12:54:34.999Z</time></trkpt><trkpt lat="43.39749155489498" lon="13.556883218476454"><ele>236.8571428571429</ele><time>2026-05-02T12:54:36.999Z</time></trkpt><trkpt lat="43.39750928451462" lon="13.556782958730215"><ele>237.2857142857143</ele><time>2026-05-02T12:54:38.999Z</time></trkpt><trkpt lat="43.39751270121639" lon="13.556686021618772"><ele>237.71428571428572</ele><time>2026-05-02T12:54:40.999Z</time></trkpt><trkpt lat="43.39752925473277" lon="13.55657830867646"><ele>238.14285714285717</ele><time>2026-05-02T12:54:42.999Z</time></trkpt><trkpt lat="43.39754024848467" lon="13.556485304900846"><ele>238.5714285714286</ele><time>2026-05-02T12:54:44.999Z</time></trkpt><trkpt lat="43.39756225875749" lon="13.556382472110487"><ele>239.00000000000003</ele><time>2026-05-02T12:54:46.999Z</time></trkpt><trkpt lat="43.397595897346655" lon="13.5562968405042"><ele>239.00000000000003</ele><time>2026-05-02T12:54:48.999Z</time></trkpt><trkpt lat="43.397651853374114" lon="13.556236719758335"><ele>239.0</ele><time>2026-05-02T12:54:50.999Z</time></trkpt><trkpt lat="43.3977191968497" lon="13.556206266149902"><ele>239.0</ele><time>2026-05-02T12:54:52.999Z</time></trkpt><trkpt lat="43.397792946420154" lon="13.556203026381969"><ele>239.0</ele><time>2026-05-02T12:54:54.999Z</time></trkpt><trkpt lat="43.39787016712483" lon="13.556246970744164"><ele>239.00000000000003</ele><time>2026-05-02T12:54:56.998Z</time></trkpt><trkpt lat="43.39794362292255" lon="13.556325984503998"><ele>239.0</ele><time>2026-05-02T12:54:58.998Z</time></trkpt><trkpt lat="43.398024474937365" lon="13.55642491333422"><ele>239.66666666666669</ele><time>2026-05-02T12:55:00.998Z</time></trkpt><trkpt lat="43.39811901907766" lon="13.556522227401679"><ele>240.33333333333334</ele><time>2026-05-02T12:55:02.998Z</time></trkpt><trkpt lat="43.398175461234715" lon="13.556564645216424"><ele>241.0</ele><time>2026-05-02T12:55:03.998Z</time></trkpt><trkpt lat="43.39823002480084" lon="13.55660892570965"><ele>241.66666666666669</ele><time>2026-05-02T12:55:04.998Z</time></trkpt><trkpt lat="43.39828497042352" lon="13.556658155757516"><ele>242.33333333333334</ele><time>2026-05-02T12:55:05.998Z</time></trkpt><trkpt lat="43.39840871624057" lon="13.556705364703554"><ele>243.0</ele><time>2026-05-02T12:55:07.998Z</time></trkpt><trkpt lat="43.39847899243471" lon="13.556726481376378"><ele>243.0</ele><time>2026-05-02T12:55:08.998Z</time></trkpt><trkpt lat="43.39855183307371" lon="13.55673888355264"><ele>243.0</ele><time>2026-05-02T12:55:09.998Z</time></trkpt><trkpt lat="43.398617639771416" lon="13.556750275661827"><ele>243.0</ele><time>2026-05-02T12:55:10.998Z</time></trkpt><trkpt lat="43.398683424756506" lon="13.556751283512877"><ele>243.0</ele><time>2026-05-02T12:55:11.998Z</time></trkpt><trkpt lat="43.3987535074111" lon="13.556747123424527"><ele>243.0</ele><time>2026-05-02T12:55:12.998Z</time></trkpt><trkpt lat="43.39882204134815" lon="13.5567522155537"><ele>243.0</ele><time>2026-05-02T12:55:13.998Z</time></trkpt><trkpt lat="43.398894784409926" lon="13.556771160092602"><ele>243.0</ele><time>2026-05-02T12:55:14.998Z</time></trkpt><trkpt lat="43.39896592171654" lon="13.55677954342219"><ele>243.14285714285714</ele><time>2026-05-02T12:55:15.998Z</time></trkpt><trkpt lat="43.39903791074415" lon="13.556783728008575"><ele>243.28571428571428</ele><time>2026-05-02T12:55:16.998Z</time></trkpt><trkpt lat="43.39910985563993" lon="13.556802166400741"><ele>243.42857142857142</ele><time>2026-05-02T12:55:17.998Z</time></trkpt><trkpt lat="43.399179037790724" lon="13.55683579199168"><ele>243.57142857142856</ele><time>2026-05-02T12:55:18.998Z</time></trkpt><trkpt lat="43.399250663477595" lon="13.556875576442646"><ele>243.71428571428572</ele><time>2026-05-02T12:55:19.998Z</time></trkpt><trkpt lat="43.399311690794804" lon="13.556924158123534"><ele>243.85714285714283</ele><time>2026-05-02T12:55:20.998Z</time></trkpt><trkpt lat="43.399376964020014" lon="13.556987706296528"><ele>243.99999999999997</ele><time>2026-05-02T12:55:21.998Z</time></trkpt><trkpt lat="43.39943852726367" lon="13.557056207387797"><ele>242.49999999999997</ele><time>2026-05-02T12:55:22.998Z</time></trkpt><trkpt lat="43.39949791823528" lon="13.557129557871892"><ele>241.0</ele><time>2026-05-02T12:55:23.998Z</time></trkpt><trkpt lat="43.39955225906533" lon="13.557204773844246"><ele>239.5</ele><time>2026-05-02T12:55:24.998Z</time></trkpt><trkpt lat="43.399600528323454" lon="13.557283306970595"><ele>238.0</ele><time>2026-05-02T12:55:25.998Z</time></trkpt><trkpt lat="43.39965241938281" lon="13.557353000363193"><ele>236.49999999999997</ele><time>2026-05-02T12:55:26.998Z</time></trkpt><trkpt lat="43.39971329627725" lon="13.557408815115004"><ele>235.0</ele><time>2026-05-02T12:55:28Z</time></trkpt><trkpt lat="43.39977673849004" lon="13.557457543105162"><ele>235.0</ele><time>2026-05-02T12:55:29Z</time></trkpt><trkpt lat="43.39983758061126" lon="13.557501107247976"><ele>234.99999999999997</ele><time>2026-05-02T12:55:30Z</time></trkpt><trkpt lat="43.399902975737575" lon="13.557538739633072"><ele>235.0</ele><time>2026-05-02T12:55:31Z</time></trkpt><trkpt lat="43.39996263705673" lon="13.557585006400569"><ele>235.0</ele><time>2026-05-02T12:55:32Z</time></trkpt><trkpt lat="43.40002898066216" lon="13.557640644839918"><ele>234.99999999999997</ele><time>2026-05-02T12:55:33Z</time></trkpt><trkpt lat="43.40009404643627" lon="13.557682903525302"><ele>235.0</ele><time>2026-05-02T12:55:34Z</time></trkpt><trkpt lat="43.400164020370866" lon="13.55772308954476"><ele>235.0</ele><time>2026-05-02T12:55:35Z</time></trkpt><trkpt lat="43.40023109304256" lon="13.557767549907043"><ele>234.99999999999997</ele><time>2026-05-02T12:55:36Z</time></trkpt><trkpt lat="43.40029830173911" lon="13.55781232446993"><ele>235.0</ele><time>2026-05-02T12:55:37Z</time></trkpt><trkpt lat="43.40036966285968" lon="13.557855873043314"><ele>235.0</ele><time>2026-05-02T12:55:38Z</time></trkpt><trkpt lat="43.40044064004524" lon="13.557898015871821"><ele>235.0</ele><time>2026-05-02T12:55:39Z</time></trkpt><trkpt lat="43.400507790253926" lon="13.557934818355266"><ele>234.99999999999997</ele><time>2026-05-02T12:55:40Z</time></trkpt><trkpt lat="43.40058249882934" lon="13.557972367309914"><ele>235.0</ele><time>2026-05-02T12:55:41Z</time></trkpt><trkpt lat="43.40065836322633" lon="13.55801224881312"><ele>233.99999999999997</ele><time>2026-05-02T12:55:42Z</time></trkpt><trkpt lat="43.400731046893476" lon="13.558050246937373"><ele>233.0</ele><time>2026-05-02T12:55:43Z</time></trkpt><trkpt lat="43.40080803526027" lon="13.558101424471767"><ele>232.0</ele><time>2026-05-02T12:55:44Z</time></trkpt><trkpt lat="43.40087579146093" lon="13.558148288665603"><ele>231.0</ele><time>2026-05-02T12:55:45Z</time></trkpt><trkpt lat="43.40094386679912" lon="13.558208797319821"><ele>229.99999999999997</ele><time>2026-05-02T12:55:46Z</time></trkpt><trkpt lat="43.401014120180584" lon="13.55825979327564"><ele>229.0</ele><time>2026-05-02T12:55:47Z</time></trkpt><trkpt lat="43.40107656156253" lon="13.558313993940406"><ele>229.0</ele><time>2026-05-02T12:55:48Z</time></trkpt><trkpt lat="43.401142070978764" lon="13.558352408388005"><ele>229.0</ele><time>2026-05-02T12:55:49Z</time></trkpt><trkpt lat="43.401207610241634" lon="13.558401591053302"><ele>229.0</ele><time>2026-05-02T12:55:50Z</time></trkpt><trkpt lat="43.40126865017761" lon="13.558470531668112"><ele>229.0</ele><time>2026-05-02T12:55:51Z</time></trkpt><trkpt lat="43.401320837721066" lon="13.558534958593697"><ele>229.0</ele><time>2026-05-02T12:55:52Z</time></trkpt><trkpt lat="43.40138692876796" lon="13.558574987714502"><ele>229.0</ele><time>2026-05-02T12:55:53Z</time></trkpt><trkpt lat="43.40145176111167" lon="13.55860947222546"><ele>229.0</ele><time>2026-05-02T12:55:54Z</time></trkpt><trkpt lat="43.4015041733441" lon="13.558679065690974"><ele>228.33333333333331</ele><time>2026-05-02T12:55:55Z</time></trkpt><trkpt lat="43.40158710525087" lon="13.558833327517648"><ele>227.66666666666666</ele><time>2026-05-02T12:55:57Z</time></trkpt><trkpt lat="43.40162244516752" lon="13.558912470848187"><ele>227.0</ele><time>2026-05-02T12:55:58Z</time></trkpt><trkpt lat="43.40166891064827" lon="13.558998921697865"><ele>226.33333333333331</ele><time>2026-05-02T12:55:59Z</time></trkpt><trkpt lat="43.401707387648564" lon="13.559073237864157"><ele>225.66666666666666</ele><time>2026-05-02T12:55:59.999Z</time></trkpt><trkpt lat="43.401748378465946" lon="13.5591537047238"><ele>225.0</ele><time>2026-05-02T12:56:00.999Z</time></trkpt><trkpt lat="43.40178418271408" lon="13.559226655935483"><ele>225.0</ele><time>2026-05-02T12:56:01.999Z</time></trkpt><trkpt lat="43.40182423902744" lon="13.559299397277325"><ele>225.0</ele><time>2026-05-02T12:56:02.999Z</time></trkpt><trkpt lat="43.401859780230716" lon="13.559372020517234"><ele>225.0</ele><time>2026-05-02T12:56:03.999Z</time></trkpt><trkpt lat="43.40189461384005" lon="13.559451000839818"><ele>225.0</ele><time>2026-05-02T12:56:04.999Z</time></trkpt><trkpt lat="43.40193376192961" lon="13.559528539223274"><ele>225.0</ele><time>2026-05-02T12:56:05.999Z</time></trkpt><trkpt lat="43.4019735390652" lon="13.559603055128012"><ele>225.0</ele><time>2026-05-02T12:56:06.999Z</time></trkpt><trkpt lat="43.40203963113275" lon="13.559752683967329"><ele>225.4</ele><time>2026-05-02T12:56:08.999Z</time></trkpt><trkpt lat="43.40208679789577" lon="13.559824744000325"><ele>225.8</ele><time>2026-05-02T12:56:09.999Z</time></trkpt><trkpt lat="43.402130824223356" lon="13.559895636029857"><ele>226.2</ele><time>2026-05-02T12:56:10.999Z</time></trkpt><trkpt lat="43.40219861770032" lon="13.5600447445513"><ele>226.6</ele><time>2026-05-02T12:56:12.999Z</time></trkpt><trkpt lat="43.402232636794835" lon="13.560126113726673"><ele>227.0</ele><time>2026-05-02T12:56:13.999Z</time></trkpt><trkpt lat="43.40230663657883" lon="13.560270862254"><ele>227.00000000000003</ele><time>2026-05-02T12:56:15.999Z</time></trkpt><trkpt lat="43.402344237345154" lon="13.56034463781435"><ele>227.0</ele><time>2026-05-02T12:56:16.999Z</time></trkpt><trkpt lat="43.402381868367094" lon="13.56041771790086"><ele>227.0</ele><time>2026-05-02T12:56:17.999Z</time></trkpt><trkpt lat="43.40246488059614" lon="13.560553075889091"><ele>227.0</ele><time>2026-05-02T12:56:19.999Z</time></trkpt><trkpt lat="43.402514664726745" lon="13.560608312328371"><ele>227.00000000000003</ele><time>2026-05-02T12:56:20.999Z</time></trkpt><trkpt lat="43.40256781764821" lon="13.560657471472002"><ele>227.0</ele><time>2026-05-02T12:56:21.999Z</time></trkpt><trkpt lat="43.40267928128009" lon="13.560757919937531"><ele>226.83333333333334</ele><time>2026-05-02T12:56:23.999Z</time></trkpt><trkpt lat="43.402802639774535" lon="13.560827897101428"><ele>226.66666666666669</ele><time>2026-05-02T12:56:25.999Z</time></trkpt><trkpt lat="43.40286408398004" lon="13.560871168378563"><ele>226.5</ele><time>2026-05-02T12:56:26.999Z</time></trkpt><trkpt lat="43.40292370283426" lon="13.560912295293273"><ele>226.33333333333331</ele><time>2026-05-02T12:56:27.999Z</time></trkpt><trkpt lat="43.402992176092155" lon="13.560972941341085"><ele>226.16666666666666</ele><time>2026-05-02T12:56:28.999Z</time></trkpt><trkpt lat="43.40305524252315" lon="13.56102379957142"><ele>226.0</ele><time>2026-05-02T12:56:29.999Z</time></trkpt><trkpt lat="43.403117817136085" lon="13.561085027490437"><ele>225.99999999999997</ele><time>2026-05-02T12:56:30.999Z</time></trkpt><trkpt lat="43.40317718069808" lon="13.561158751686104"><ele>226.0</ele><time>2026-05-02T12:56:31.999Z</time></trkpt><trkpt lat="43.40322884913713" lon="13.561245887020645"><ele>226.0</ele><time>2026-05-02T12:56:32.999Z</time></trkpt><trkpt lat="43.40327331011927" lon="13.561336227378613"><ele>226.0</ele><time>2026-05-02T12:56:33.999Z</time></trkpt><trkpt lat="43.40331187836781" lon="13.561426438735147"><ele>225.99999999999997</ele><time>2026-05-02T12:56:34.999Z</time></trkpt><trkpt lat="43.40333521931821" lon="13.561524629082548"><ele>226.0</ele><time>2026-05-02T12:56:35.999Z</time></trkpt><trkpt lat="43.403359825325516" lon="13.56162225622154"><ele>225.14285714285714</ele><time>2026-05-02T12:56:36.999Z</time></trkpt><trkpt lat="43.403383366630706" lon="13.561715774852626"><ele>224.28571428571428</ele><time>2026-05-02T12:56:37.999Z</time></trkpt><trkpt lat="43.40340307493791" lon="13.561816218330469"><ele>223.42857142857142</ele><time>2026-05-02T12:56:38.999Z</time></trkpt><trkpt lat="43.40342324507958" lon="13.561914632548913"><ele>222.57142857142856</ele><time>2026-05-02T12:56:39.999Z</time></trkpt><trkpt lat="43.4034423496374" lon="13.562015991935546"><ele>221.71428571428572</ele><time>2026-05-02T12:56:40.999Z</time></trkpt><trkpt lat="43.40345478575162" lon="13.562118201636464"><ele>220.85714285714283</ele><time>2026-05-02T12:56:41.999Z</time></trkpt><trkpt lat="43.403469947460295" lon="13.562219133151157"><ele>220.0</ele><time>2026-05-02T12:56:42.999Z</time></trkpt><trkpt lat="43.403493249870955" lon="13.56232394937251"><ele>218.99999999999997</ele><time>2026-05-02T12:56:43.999Z</time></trkpt><trkpt lat="43.40351382239475" lon="13.562419796735385"><ele>218.0</ele><time>2026-05-02T12:56:44.999Z</time></trkpt><trkpt lat="43.40353055339569" lon="13.56253329582039"><ele>217.0</ele><time>2026-05-02T12:56:45.999Z</time></trkpt><trkpt lat="43.40354654227607" lon="13.562618378378614"><ele>216.0</ele><time>2026-05-02T12:56:46.999Z</time></trkpt><trkpt lat="43.403573180574604" lon="13.5627319740842"><ele>214.99999999999997</ele><time>2026-05-02T12:56:47.999Z</time></trkpt><trkpt lat="43.4035906597747" lon="13.562831609057548"><ele>214.0</ele><time>2026-05-02T12:56:48.999Z</time></trkpt><trkpt lat="43.403605075284474" lon="13.562934345082303"><ele>212.99999999999997</ele><time>2026-05-02T12:56:49.999Z</time></trkpt><trkpt lat="43.40362954409983" lon="13.563037755147553"><ele>212.0</ele><time>2026-05-02T12:56:50.999Z</time></trkpt><trkpt lat="43.40365860796083" lon="13.563140023589328"><ele>211.0</ele><time>2026-05-02T12:56:51.999Z</time></trkpt><trkpt lat="43.40367789434515" lon="13.563242402828942"><ele>210.0</ele><time>2026-05-02T12:56:52.999Z</time></trkpt><trkpt lat="43.40368917487389" lon="13.56334774054009"><ele>208.99999999999997</ele><time>2026-05-02T12:56:53.999Z</time></trkpt><trkpt lat="43.403701036383595" lon="13.563452251515914"><ele>208.0</ele><time>2026-05-02T12:56:54.999Z</time></trkpt><trkpt lat="43.403720338932004" lon="13.563556186956458"><ele>207.99999999999997</ele><time>2026-05-02T12:56:55.999Z</time></trkpt><trkpt lat="43.40374104760516" lon="13.563660734019706"><ele>208.0</ele><time>2026-05-02T12:56:56.999Z</time></trkpt><trkpt lat="43.403758794649136" lon="13.563764982414861"><ele>208.0</ele><time>2026-05-02T12:56:57.999Z</time></trkpt><trkpt lat="43.40376622768289" lon="13.563872576426036"><ele>208.0</ele><time>2026-05-02T12:56:58.999Z</time></trkpt><trkpt lat="43.40377027384874" lon="13.563981174705736"><ele>207.99999999999997</ele><time>2026-05-02T12:56:59.999Z</time></trkpt><trkpt lat="43.403771744463334" lon="13.56408910579464"><ele>208.0</ele><time>2026-05-02T12:57:00.999Z</time></trkpt><trkpt lat="43.40376857493283" lon="13.564192129687475"><ele>207.99999999999997</ele><time>2026-05-02T12:57:01.999Z</time></trkpt><trkpt lat="43.40375872779607" lon="13.564298044077765"><ele>208.0</ele><time>2026-05-02T12:57:02.999Z</time></trkpt><trkpt lat="43.403745702596225" lon="13.564400415920717"><ele>208.0</ele><time>2026-05-02T12:57:03.999Z</time></trkpt><trkpt lat="43.40372569116735" lon="13.564499595062061"><ele>208.0</ele><time>2026-05-02T12:57:04.999Z</time></trkpt><trkpt lat="43.40370578055062" lon="13.564599680684074"><ele>207.99999999999997</ele><time>2026-05-02T12:57:05.999Z</time></trkpt><trkpt lat="43.403690646456056" lon="13.564700237711053"><ele>208.0</ele><time>2026-05-02T12:57:06.998Z</time></trkpt><trkpt lat="43.403677111054414" lon="13.564802474294506"><ele>207.42857142857142</ele><time>2026-05-02T12:57:07.998Z</time></trkpt><trkpt lat="43.403655915817644" lon="13.564899298192064"><ele>206.85714285714286</ele><time>2026-05-02T12:57:08.998Z</time></trkpt><trkpt lat="43.40363415143376" lon="13.564989929963819"><ele>206.28571428571428</ele><time>2026-05-02T12:57:09.998Z</time></trkpt><trkpt lat="43.4036131871387" lon="13.565085338974471"><ele>205.71428571428572</ele><time>2026-05-02T12:57:10.998Z</time></trkpt><trkpt lat="43.40359234945861" lon="13.565182702102405"><ele>205.14285714285717</ele><time>2026-05-02T12:57:11.998Z</time></trkpt><trkpt lat="43.40356428031407" lon="13.56527452716557"><ele>204.57142857142858</ele><time>2026-05-02T12:57:12.998Z</time></trkpt><trkpt lat="43.40354988523325" lon="13.565379424511079"><ele>204.0</ele><time>2026-05-02T12:57:13.998Z</time></trkpt><trkpt lat="43.40353383892803" lon="13.56548105018349"><ele>203.83333333333334</ele><time>2026-05-02T12:57:14.998Z</time></trkpt><trkpt lat="43.40351368634187" lon="13.565582503712696"><ele>203.66666666666669</ele><time>2026-05-02T12:57:15.998Z</time></trkpt><trkpt lat="43.40348668393399" lon="13.565681062119452"><ele>203.5</ele><time>2026-05-02T12:57:16.998Z</time></trkpt><trkpt lat="43.403464861417696" lon="13.565781297334768"><ele>203.33333333333334</ele><time>2026-05-02T12:57:17.998Z</time></trkpt><trkpt lat="43.40344827118394" lon="13.565888295035222"><ele>203.16666666666669</ele><time>2026-05-02T12:57:18.998Z</time></trkpt><trkpt lat="43.40342569138895" lon="13.565991477433155"><ele>203.0</ele><time>2026-05-02T12:57:19.998Z</time></trkpt><trkpt lat="43.40339992944114" lon="13.566092180368308"><ele>202.33333333333334</ele><time>2026-05-02T12:57:20.998Z</time></trkpt><trkpt lat="43.40338026410976" lon="13.56619558883738"><ele>201.66666666666669</ele><time>2026-05-02T12:57:21.998Z</time></trkpt><trkpt lat="43.40337036257819" lon="13.566303934115687"><ele>201.0</ele><time>2026-05-02T12:57:22.998Z</time></trkpt><trkpt lat="43.40335723237409" lon="13.566409518486676"><ele>200.33333333333331</ele><time>2026-05-02T12:57:23.998Z</time></trkpt><trkpt lat="43.403350210617056" lon="13.566504730756726"><ele>199.66666666666666</ele><time>2026-05-02T12:57:24.998Z</time></trkpt><trkpt lat="43.40334498978192" lon="13.56660894215542"><ele>199.0</ele><time>2026-05-02T12:57:25.998Z</time></trkpt><trkpt lat="43.403350558428855" lon="13.566720639256209"><ele>198.99999999999997</ele><time>2026-05-02T12:57:26.998Z</time></trkpt><trkpt lat="43.403372566536696" lon="13.566826403871227"><ele>199.0</ele><time>2026-05-02T12:57:27.998Z</time></trkpt><trkpt lat="43.403399451865816" lon="13.566925414410173"><ele>199.0</ele><time>2026-05-02T12:57:28.998Z</time></trkpt><trkpt lat="43.403433679950616" lon="13.567022657855574"><ele>199.0</ele><time>2026-05-02T12:57:29.998Z</time></trkpt><trkpt lat="43.40347295631508" lon="13.567113030263725"><ele>198.99999999999997</ele><time>2026-05-02T12:57:30.998Z</time></trkpt><trkpt lat="43.403514531563374" lon="13.567209329707255"><ele>199.0</ele><time>2026-05-02T12:57:31.998Z</time></trkpt><trkpt lat="43.403565112509604" lon="13.567288384633835"><ele>199.33333333333331</ele><time>2026-05-02T12:57:32.998Z</time></trkpt><trkpt lat="43.40361089266638" lon="13.567380806692091"><ele>199.66666666666666</ele><time>2026-05-02T12:57:34Z</time></trkpt><trkpt lat="43.403657144039755" lon="13.567464310119483"><ele>200.0</ele><time>2026-05-02T12:57:35Z</time></trkpt><trkpt lat="43.40370559761764" lon="13.567549198216687"><ele>200.33333333333331</ele><time>2026-05-02T12:57:36Z</time></trkpt><trkpt lat="43.40375066936033" lon="13.567633490819183"><ele>200.66666666666666</ele><time>2026-05-02T12:57:37Z</time></trkpt><trkpt lat="43.403797389198765" lon="13.567734506428717"><ele>201.0</ele><time>2026-05-02T12:57:38Z</time></trkpt><trkpt lat="43.40383754358733" lon="13.567811961742741"><ele>199.5</ele><time>2026-05-02T12:57:39Z</time></trkpt><trkpt lat="43.40388722093045" lon="13.567889695928736"><ele>198.0</ele><time>2026-05-02T12:57:40Z</time></trkpt><trkpt lat="43.403927846258966" lon="13.567985736141022"><ele>196.5</ele><time>2026-05-02T12:57:41Z</time></trkpt><trkpt lat="43.40398101453441" lon="13.568080891150345"><ele>195.0</ele><time>2026-05-02T12:57:42Z</time></trkpt><trkpt lat="43.40402906534696" lon="13.5681751897494"><ele>193.5</ele><time>2026-05-02T12:57:43Z</time></trkpt><trkpt lat="43.40407612289099" lon="13.568272662376918"><ele>192.0</ele><time>2026-05-02T12:57:44Z</time></trkpt><trkpt lat="43.404133154224134" lon="13.568372309940417"><ele>191.99999999999997</ele><time>2026-05-02T12:57:45Z</time></trkpt><trkpt lat="43.40417965556728" lon="13.568465962595942"><ele>192.0</ele><time>2026-05-02T12:57:46Z</time></trkpt><trkpt lat="43.40422304725027" lon="13.568568478266855"><ele>192.0</ele><time>2026-05-02T12:57:47Z</time></trkpt><trkpt lat="43.40426235419657" lon="13.568655813228649"><ele>192.0</ele><time>2026-05-02T12:57:48Z</time></trkpt><trkpt lat="43.404290353965145" lon="13.568734275723685"><ele>192.0</ele><time>2026-05-02T12:57:49Z</time></trkpt><trkpt lat="43.40432847518398" lon="13.568810436896012"><ele>191.99999999999997</ele><time>2026-05-02T12:57:50Z</time></trkpt><trkpt lat="43.40436255830836" lon="13.568894967492113"><ele>192.0</ele><time>2026-05-02T12:57:51Z</time></trkpt><trkpt lat="43.404403696221934" lon="13.568978487909128"><ele>191.28571428571428</ele><time>2026-05-02T12:57:52Z</time></trkpt><trkpt lat="43.4044467814978" lon="13.569060405198712"><ele>190.57142857142856</ele><time>2026-05-02T12:57:53Z</time></trkpt><trkpt lat="43.40448445092297" lon="13.569145816909916"><ele>189.85714285714283</ele><time>2026-05-02T12:57:54Z</time></trkpt><trkpt lat="43.40452578673207" lon="13.569225025177735"><ele>189.14285714285714</ele><time>2026-05-02T12:57:55Z</time></trkpt><trkpt lat="43.40456819660883" lon="13.569313702200601"><ele>188.42857142857144</ele><time>2026-05-02T12:57:56Z</time></trkpt><trkpt lat="43.404600565474965" lon="13.569392585493022"><ele>187.7142857142857</ele><time>2026-05-02T12:57:57Z</time></trkpt><trkpt lat="43.4046443158538" lon="13.569477024023499"><ele>187.0</ele><time>2026-05-02T12:57:58Z</time></trkpt><trkpt lat="43.40468362330099" lon="13.569545547624292"><ele>187.0</ele><time>2026-05-02T12:57:59Z</time></trkpt><trkpt lat="43.40473383268015" lon="13.569613579063057"><ele>187.0</ele><time>2026-05-02T12:58:00Z</time></trkpt><trkpt lat="43.4047850076827" lon="13.569678054370302"><ele>187.0</ele><time>2026-05-02T12:58:01Z</time></trkpt><trkpt lat="43.40483311425796" lon="13.569741532332316"><ele>187.0</ele><time>2026-05-02T12:58:02Z</time></trkpt><trkpt lat="43.4048912056042" lon="13.569802589922007"><ele>187.0</ele><time>2026-05-02T12:58:03Z</time></trkpt><trkpt lat="43.40495657537492" lon="13.569853460776413"><ele>187.0</ele><time>2026-05-02T12:58:04Z</time></trkpt><trkpt lat="43.405024886482174" lon="13.569890612172875"><ele>187.0</ele><time>2026-05-02T12:58:05Z</time></trkpt><trkpt lat="43.405091632814326" lon="13.569910006089636"><ele>187.0</ele><time>2026-05-02T12:58:06Z</time></trkpt><trkpt lat="43.40515918755312" lon="13.569917197046522"><ele>187.0</ele><time>2026-05-02T12:58:07Z</time></trkpt><trkpt lat="43.40523457356555" lon="13.569928332180606"><ele>187.0</ele><time>2026-05-02T12:58:08Z</time></trkpt><trkpt lat="43.40531356339216" lon="13.569928316217384"><ele>187.0</ele><time>2026-05-02T12:58:09Z</time></trkpt><trkpt lat="43.40538823180587" lon="13.569916257176777"><ele>187.0</ele><time>2026-05-02T12:58:10Z</time></trkpt><trkpt lat="43.40546834343512" lon="13.56989220026979"><ele>187.0</ele><time>2026-05-02T12:58:11Z</time></trkpt><trkpt lat="43.40554538391102" lon="13.56986145567364"><ele>187.0</ele><time>2026-05-02T12:58:12Z</time></trkpt><trkpt lat="43.405618405362695" lon="13.569815640558444"><ele>187.0</ele><time>2026-05-02T12:58:13Z</time></trkpt><trkpt lat="43.405692857582004" lon="13.569760936770626"><ele>187.0</ele><time>2026-05-02T12:58:13.999Z</time></trkpt><trkpt lat="43.40576813534179" lon="13.569699760119695"><ele>187.0</ele><time>2026-05-02T12:58:14.999Z</time></trkpt><trkpt lat="43.40584456644302" lon="13.569642711210443"><ele>187.0</ele><time>2026-05-02T12:58:15.999Z</time></trkpt><trkpt lat="43.405926504346404" lon="13.569581765579048"><ele>187.0</ele><time>2026-05-02T12:58:16.999Z</time></trkpt><trkpt lat="43.40600240789381" lon="13.569521499314739"><ele>187.0</ele><time>2026-05-02T12:58:17.999Z</time></trkpt><trkpt lat="43.40608065113818" lon="13.569454508653333"><ele>187.0</ele><time>2026-05-02T12:58:18.999Z</time></trkpt><trkpt lat="43.40616133388833" lon="13.569393064859986"><ele>187.0</ele><time>2026-05-02T12:58:19.999Z</time></trkpt><trkpt lat="43.40623737317633" lon="13.569331654039232"><ele>187.0</ele><time>2026-05-02T12:58:20.999Z</time></trkpt><trkpt lat="43.40631256918117" lon="13.569271801601927"><ele>187.0</ele><time>2026-05-02T12:58:21.999Z</time></trkpt><trkpt lat="43.406386310942835" lon="13.569219890182575"><ele>187.0</ele><time>2026-05-02T12:58:22.999Z</time></trkpt><trkpt lat="43.40646534448851" lon="13.569168482881615"><ele>185.83333333333334</ele><time>2026-05-02T12:58:23.999Z</time></trkpt><trkpt lat="43.40655116540375" lon="13.569135562428903"><ele>184.66666666666669</ele><time>2026-05-02T12:58:24.999Z</time></trkpt><trkpt lat="43.40663011570968" lon="13.569102173974604"><ele>183.5</ele><time>2026-05-02T12:58:25.999Z</time></trkpt><trkpt lat="43.40671584325794" lon="13.56908493503844"><ele>182.33333333333334</ele><time>2026-05-02T12:58:26.999Z</time></trkpt><trkpt lat="43.40679778561749" lon="13.56907961171065"><ele>181.16666666666666</ele><time>2026-05-02T12:58:27.999Z</time></trkpt><trkpt lat="43.40688776822188" lon="13.569070606938118"><ele>180.0</ele><time>2026-05-02T12:58:28.999Z</time></trkpt><trkpt lat="43.40697457721324" lon="13.569071007256774"><ele>180.0</ele><time>2026-05-02T12:58:29.999Z</time></trkpt><trkpt lat="43.407065250479235" lon="13.56908240827802"><ele>180.0</ele><time>2026-05-02T12:58:30.999Z</time></trkpt><trkpt lat="43.4071483975475" lon="13.569105269909956"><ele>180.0</ele><time>2026-05-02T12:58:31.999Z</time></trkpt><trkpt lat="43.40724125260322" lon="13.569128216897976"><ele>180.0</ele><time>2026-05-02T12:58:32.999Z</time></trkpt><trkpt lat="43.40732591030367" lon="13.569161549270033"><ele>180.0</ele><time>2026-05-02T12:58:33.999Z</time></trkpt><trkpt lat="43.40740824278462" lon="13.569200003114325"><ele>180.0</ele><time>2026-05-02T12:58:34.999Z</time></trkpt><trkpt lat="43.40748886900395" lon="13.569235747715528"><ele>179.83333333333334</ele><time>2026-05-02T12:58:35.999Z</time></trkpt><trkpt lat="43.407572399349334" lon="13.569265962063078"><ele>179.66666666666666</ele><time>2026-05-02T12:58:36.999Z</time></trkpt><trkpt lat="43.40764940575845" lon="13.569303095933666"><ele>179.5</ele><time>2026-05-02T12:58:37.999Z</time></trkpt><trkpt lat="43.40773309056479" lon="13.569329371713419"><ele>179.33333333333331</ele><time>2026-05-02T12:58:38.999Z</time></trkpt><trkpt lat="43.407811939372635" lon="13.569361365764781"><ele>179.16666666666666</ele><time>2026-05-02T12:58:39.999Z</time></trkpt><trkpt lat="43.40789659449879" lon="13.569406003121022"><ele>179.0</ele><time>2026-05-02T12:58:40.999Z</time></trkpt><trkpt lat="43.40797896048129" lon="13.569422996518547"><ele>178.66666666666666</ele><time>2026-05-02T12:58:41.999Z</time></trkpt><trkpt lat="43.40804545203238" lon="13.569450336186279"><ele>178.33333333333331</ele><time>2026-05-02T12:58:42.999Z</time></trkpt><trkpt lat="43.40812091705837" lon="13.569475787421114"><ele>178.0</ele><time>2026-05-02T12:58:43.999Z</time></trkpt><trkpt lat="43.40818869280784" lon="13.569495774626196"><ele>177.66666666666666</ele><time>2026-05-02T12:58:44.999Z</time></trkpt><trkpt lat="43.40827466969509" lon="13.569525312266906"><ele>177.33333333333334</ele><time>2026-05-02T12:58:45.999Z</time></trkpt><trkpt lat="43.40836766408007" lon="13.569535510683318"><ele>177.0</ele><time>2026-05-02T12:58:46.999Z</time></trkpt><trkpt lat="43.40845124690843" lon="13.569549212032031"><ele>175.5</ele><time>2026-05-02T12:58:47.999Z</time></trkpt><trkpt lat="43.40852900822968" lon="13.569560395493253"><ele>174.0</ele><time>2026-05-02T12:58:48.999Z</time></trkpt><trkpt lat="43.40860986679003" lon="13.569579202599064"><ele>172.5</ele><time>2026-05-02T12:58:49.999Z</time></trkpt><trkpt lat="43.408695326718544" lon="13.569584849458067"><ele>171.0</ele><time>2026-05-02T12:58:50.999Z</time></trkpt><trkpt lat="43.40877896822306" lon="13.569598893893145"><ele>169.5</ele><time>2026-05-02T12:58:51.999Z</time></trkpt><trkpt lat="43.4088590502596" lon="13.569611434826536"><ele>168.0</ele><time>2026-05-02T12:58:52.999Z</time></trkpt><trkpt lat="43.40894436330911" lon="13.569628746447156"><ele>167.66666666666666</ele><time>2026-05-02T12:58:53.999Z</time></trkpt><trkpt lat="43.409024916379934" lon="13.569635935250552"><ele>167.33333333333334</ele><time>2026-05-02T12:58:54.999Z</time></trkpt><trkpt lat="43.40911491375435" lon="13.569645901367643"><ele>167.0</ele><time>2026-05-02T12:58:55.999Z</time></trkpt><trkpt lat="43.40920062572401" lon="13.569660439848336"><ele>166.66666666666669</ele><time>2026-05-02T12:58:56.999Z</time></trkpt><trkpt lat="43.40928513025593" lon="13.569672579445799"><ele>166.33333333333334</ele><time>2026-05-02T12:58:57.999Z</time></trkpt><trkpt lat="43.40937302228707" lon="13.569683306438058"><ele>166.0</ele><time>2026-05-02T12:58:58.999Z</time></trkpt><trkpt lat="43.409463574331134" lon="13.569702321050494"><ele>166.0</ele><time>2026-05-02T12:58:59.999Z</time></trkpt><trkpt lat="43.40955429785041" lon="13.569715315279565"><ele>166.0</ele><time>2026-05-02T12:59:00.999Z</time></trkpt><trkpt lat="43.40964549569026" lon="13.569717155114342"><ele>166.0</ele><time>2026-05-02T12:59:01.999Z</time></trkpt><trkpt lat="43.40972350502219" lon="13.569738844238401"><ele>166.0</ele><time>2026-05-02T12:59:02.999Z</time></trkpt><trkpt lat="43.409805655882316" lon="13.569754507308303"><ele>166.0</ele><time>2026-05-02T12:59:03.999Z</time></trkpt><trkpt lat="43.40990247187718" lon="13.569775669576241"><ele>166.0</ele><time>2026-05-02T12:59:04.999Z</time></trkpt><trkpt lat="43.40999212745924" lon="13.569787768469709"><ele>165.60000000000002</ele><time>2026-05-02T12:59:05.999Z</time></trkpt><trkpt lat="43.41008057370229" lon="13.56978989367946"><ele>165.2</ele><time>2026-05-02T12:59:06.999Z</time></trkpt><trkpt lat="43.4101718341751" lon="13.569801526531284"><ele>164.8</ele><time>2026-05-02T12:59:07.999Z</time></trkpt><trkpt lat="43.41025965143834" lon="13.569842390687526"><ele>164.39999999999998</ele><time>2026-05-02T12:59:08.999Z</time></trkpt><trkpt lat="43.41035269814552" lon="13.569842011064853"><ele>164.0</ele><time>2026-05-02T12:59:09.999Z</time></trkpt><trkpt lat="43.41044066393513" lon="13.569849506928348"><ele>163.2</ele><time>2026-05-02T12:59:10.999Z</time></trkpt><trkpt lat="43.41053347503535" lon="13.569886634925297"><ele>162.39999999999998</ele><time>2026-05-02T12:59:11.999Z</time></trkpt><trkpt lat="43.41062141733863" lon="13.569914796643303"><ele>161.6</ele><time>2026-05-02T12:59:12.999Z</time></trkpt><trkpt lat="43.410704429440415" lon="13.569961719570898"><ele>160.8</ele><time>2026-05-02T12:59:13.999Z</time></trkpt><trkpt lat="43.410786895879326" lon="13.57001343489897"><ele>160.0</ele><time>2026-05-02T12:59:14.999Z</time></trkpt><trkpt lat="43.41086878185195" lon="13.570067429033175"><ele>160.0</ele><time>2026-05-02T12:59:15.999Z</time></trkpt><trkpt lat="43.4109530533784" lon="13.570129620827329"><ele>160.0</ele><time>2026-05-02T12:59:16.999Z</time></trkpt><trkpt lat="43.41102822629728" lon="13.570194446107351"><ele>160.0</ele><time>2026-05-02T12:59:17.999Z</time></trkpt><trkpt lat="43.41109710511522" lon="13.570270097117609"><ele>160.0</ele><time>2026-05-02T12:59:18.999Z</time></trkpt><trkpt lat="43.41117573542384" lon="13.570335824058372"><ele>160.0</ele><time>2026-05-02T12:59:19.999Z</time></trkpt><trkpt lat="43.41124936295239" lon="13.570406054277031"><ele>159.16666666666669</ele><time>2026-05-02T12:59:20.999Z</time></trkpt><trkpt lat="43.41132707535889" lon="13.570485056052213"><ele>158.33333333333334</ele><time>2026-05-02T12:59:21.999Z</time></trkpt><trkpt lat="43.4113824922215" lon="13.570561149590011"><ele>157.5</ele><time>2026-05-02T12:59:22.998Z</time></trkpt><trkpt lat="43.411446487196486" lon="13.570629971625428"><ele>156.66666666666666</ele><time>2026-05-02T12:59:23.998Z</time></trkpt><trkpt lat="43.411528964380736" lon="13.57069040035637"><ele>155.83333333333331</ele><time>2026-05-02T12:59:24.998Z</time></trkpt><trkpt lat="43.41159751696474" lon="13.570752405176435"><ele>155.0</ele><time>2026-05-02T12:59:25.998Z</time></trkpt><trkpt lat="43.411661216888305" lon="13.570815077855501"><ele>155.0</ele><time>2026-05-02T12:59:26.998Z</time></trkpt><trkpt lat="43.411723188416154" lon="13.570882306776703"><ele>155.0</ele><time>2026-05-02T12:59:27.998Z</time></trkpt><trkpt lat="43.41178981791591" lon="13.570947929454022"><ele>155.0</ele><time>2026-05-02T12:59:28.998Z</time></trkpt><trkpt lat="43.41185498082698" lon="13.571001895727965"><ele>155.0</ele><time>2026-05-02T12:59:29.998Z</time></trkpt><trkpt lat="43.411913718202776" lon="13.571067602112665"><ele>155.0</ele><time>2026-05-02T12:59:30.998Z</time></trkpt><trkpt lat="43.41197423563503" lon="13.57112819715183"><ele>155.0</ele><time>2026-05-02T12:59:31.998Z</time></trkpt><trkpt lat="43.412030966774715" lon="13.571188909005542"><ele>154.71428571428572</ele><time>2026-05-02T12:59:32.998Z</time></trkpt><trkpt lat="43.41208818363522" lon="13.571250281553812"><ele>154.42857142857142</ele><time>2026-05-02T12:59:33.998Z</time></trkpt><trkpt lat="43.41214525512845" lon="13.571303974711329"><ele>154.14285714285714</ele><time>2026-05-02T12:59:34.998Z</time></trkpt><trkpt lat="43.41220824418306" lon="13.571351380280795"><ele>153.85714285714286</ele><time>2026-05-02T12:59:35.998Z</time></trkpt><trkpt lat="43.4122648369759" lon="13.571421135025657"><ele>153.57142857142858</ele><time>2026-05-02T12:59:36.998Z</time></trkpt><trkpt lat="43.41232461340257" lon="13.571483769376341"><ele>153.28571428571428</ele><time>2026-05-02T12:59:37.998Z</time></trkpt><trkpt lat="43.41238181876789" lon="13.571536295846908"><ele>153.0</ele><time>2026-05-02T12:59:38.998Z</time></trkpt><trkpt lat="43.4124331914718" lon="13.571597903654029"><ele>153.0</ele><time>2026-05-02T12:59:40Z</time></trkpt><trkpt lat="43.412486849700834" lon="13.571667769190862"><ele>153.0</ele><time>2026-05-02T12:59:41Z</time></trkpt><trkpt lat="43.41253535268597" lon="13.571731791972354"><ele>153.0</ele><time>2026-05-02T12:59:42Z</time></trkpt><trkpt lat="43.4125910994417" lon="13.571788800517274"><ele>153.0</ele><time>2026-05-02T12:59:43Z</time></trkpt><trkpt lat="43.41264472397739" lon="13.571854829719484"><ele>153.0</ele><time>2026-05-02T12:59:44Z</time></trkpt><trkpt lat="43.41268845701415" lon="13.571923290741394"><ele>153.0</ele><time>2026-05-02T12:59:45Z</time></trkpt><trkpt lat="43.41273282392882" lon="13.571993794297985"><ele>153.0</ele><time>2026-05-02T12:59:46Z</time></trkpt><trkpt lat="43.41278592658228" lon="13.572063254422801"><ele>152.71428571428572</ele><time>2026-05-02T12:59:47Z</time></trkpt><trkpt lat="43.412834842753014" lon="13.572133100840926"><ele>152.42857142857144</ele><time>2026-05-02T12:59:48Z</time></trkpt><trkpt lat="43.41288210079294" lon="13.57221017228745"><ele>152.14285714285717</ele><time>2026-05-02T12:59:49Z</time></trkpt><trkpt lat="43.41292944407518" lon="13.572285984129147"><ele>151.85714285714286</ele><time>2026-05-02T12:59:50Z</time></trkpt><trkpt lat="43.41297564221431" lon="13.572362615073597"><ele>151.57142857142858</ele><time>2026-05-02T12:59:51Z</time></trkpt><trkpt lat="43.41301760615783" lon="13.57243620451889"><ele>151.2857142857143</ele><time>2026-05-02T12:59:52Z</time></trkpt><trkpt lat="43.413069556211454" lon="13.572509206072917"><ele>151.0</ele><time>2026-05-02T12:59:53Z</time></trkpt><trkpt lat="43.41312370857332" lon="13.572605143554414"><ele>150.5</ele><time>2026-05-02T12:59:54Z</time></trkpt><trkpt lat="43.413218418659405" lon="13.572741120953404"><ele>150.0</ele><time>2026-05-02T12:59:56Z</time></trkpt><trkpt lat="43.41327007519573" lon="13.572824659475055"><ele>149.5</ele><time>2026-05-02T12:59:57Z</time></trkpt><trkpt lat="43.41332034319828" lon="13.57289761900374"><ele>149.0</ele><time>2026-05-02T12:59:58Z</time></trkpt><trkpt lat="43.4133726689577" lon="13.572980538730878"><ele>148.5</ele><time>2026-05-02T12:59:59Z</time></trkpt><trkpt lat="43.413424469896086" lon="13.57306271682582"><ele>148.0</ele><time>2026-05-02T13:00:00Z</time></trkpt><trkpt lat="43.4134734890171" lon="13.573135121763281"><ele>147.66666666666669</ele><time>2026-05-02T13:00:01Z</time></trkpt><trkpt lat="43.41352933767457" lon="13.573218373925439"><ele>147.33333333333334</ele><time>2026-05-02T13:00:02Z</time></trkpt><trkpt lat="43.413576934119355" lon="13.573295638851503"><ele>147.0</ele><time>2026-05-02T13:00:03Z</time></trkpt><trkpt lat="43.41362805296217" lon="13.573381391116298"><ele>146.66666666666666</ele><time>2026-05-02T13:00:04Z</time></trkpt><trkpt lat="43.41367998415606" lon="13.57346392573987"><ele>146.33333333333331</ele><time>2026-05-02T13:00:05Z</time></trkpt><trkpt lat="43.4137304602601" lon="13.573546969462289"><ele>146.0</ele><time>2026-05-02T13:00:06Z</time></trkpt><trkpt lat="43.413778807106375" lon="13.573630498865352"><ele>145.33333333333331</ele><time>2026-05-02T13:00:07Z</time></trkpt><trkpt lat="43.41382483159222" lon="13.573712660248807"><ele>144.66666666666666</ele><time>2026-05-02T13:00:08Z</time></trkpt><trkpt lat="43.41387524967095" lon="13.573797951286007"><ele>144.0</ele><time>2026-05-02T13:00:09Z</time></trkpt><trkpt lat="43.413923414593334" lon="13.573884670913637"><ele>143.33333333333334</ele><time>2026-05-02T13:00:10Z</time></trkpt><trkpt lat="43.41397719042776" lon="13.573975062641502"><ele>142.66666666666669</ele><time>2026-05-02T13:00:11Z</time></trkpt><trkpt lat="43.41402823270742" lon="13.574067321950997"><ele>142.0</ele><time>2026-05-02T13:00:12Z</time></trkpt><trkpt lat="43.41407773639835" lon="13.57415962348175"><ele>142.0</ele><time>2026-05-02T13:00:13Z</time></trkpt><trkpt lat="43.41412981336497" lon="13.574250622222864"><ele>142.0</ele><time>2026-05-02T13:00:14Z</time></trkpt><trkpt lat="43.41417845086394" lon="13.574340501238238"><ele>142.0</ele><time>2026-05-02T13:00:15Z</time></trkpt><trkpt lat="43.41422843472364" lon="13.574427885307253"><ele>142.0</ele><time>2026-05-02T13:00:16Z</time></trkpt><trkpt lat="43.414277893228736" lon="13.574510645807942"><ele>142.0</ele><time>2026-05-02T13:00:17Z</time></trkpt><trkpt lat="43.414327310610304" lon="13.57459597108281"><ele>142.0</ele><time>2026-05-02T13:00:18Z</time></trkpt><trkpt lat="43.41437514981869" lon="13.5746782070207"><ele>141.5</ele><time>2026-05-02T13:00:19Z</time></trkpt><trkpt lat="43.414423320383406" lon="13.574762694034991"><ele>141.0</ele><time>2026-05-02T13:00:20Z</time></trkpt><trkpt lat="43.4144736387353" lon="13.574845457618121"><ele>140.5</ele><time>2026-05-02T13:00:21Z</time></trkpt><trkpt lat="43.41452406537197" lon="13.574930890232388"><ele>140.0</ele><time>2026-05-02T13:00:22Z</time></trkpt><trkpt lat="43.41456916645084" lon="13.575015465602485"><ele>139.5</ele><time>2026-05-02T13:00:23Z</time></trkpt><trkpt lat="43.41461729052156" lon="13.575101595215315"><ele>139.0</ele><time>2026-05-02T13:00:24Z</time></trkpt><trkpt lat="43.41466484346546" lon="13.575177885520912"><ele>139.0</ele><time>2026-05-02T13:00:25Z</time></trkpt><trkpt lat="43.414710408521216" lon="13.575263683035905"><ele>139.0</ele><time>2026-05-02T13:00:26Z</time></trkpt><trkpt lat="43.41476011972156" lon="13.575343618443126"><ele>139.0</ele><time>2026-05-02T13:00:27Z</time></trkpt><trkpt lat="43.41481185095281" lon="13.575421620997732"><ele>139.0</ele><time>2026-05-02T13:00:27.999Z</time></trkpt><trkpt lat="43.414852575543264" lon="13.57550641862625"><ele>139.0</ele><time>2026-05-02T13:00:28.999Z</time></trkpt><trkpt lat="43.414897750118335" lon="13.575586841997039"><ele>139.0</ele><time>2026-05-02T13:00:29.999Z</time></trkpt><trkpt lat="43.41495025652186" lon="13.57566710206737"><ele>138.57142857142856</ele><time>2026-05-02T13:00:30.999Z</time></trkpt><trkpt lat="43.41498706651774" lon="13.575741831026884"><ele>138.14285714285714</ele><time>2026-05-02T13:00:31.999Z</time></trkpt><trkpt lat="43.41503115667142" lon="13.575831730721802"><ele>137.71428571428572</ele><time>2026-05-02T13:00:32.999Z</time></trkpt><trkpt lat="43.41507583036085" lon="13.575908673191798"><ele>137.28571428571428</ele><time>2026-05-02T13:00:33.999Z</time></trkpt><trkpt lat="43.415125407816" lon="13.575979375695482"><ele>136.85714285714286</ele><time>2026-05-02T13:00:34.999Z</time></trkpt><trkpt lat="43.415176757290126" lon="13.576051146481495"><ele>136.42857142857142</ele><time>2026-05-02T13:00:35.999Z</time></trkpt><trkpt lat="43.41521417292629" lon="13.576124828704838"><ele>136.0</ele><time>2026-05-02T13:00:36.999Z</time></trkpt><trkpt lat="43.41525281751639" lon="13.576196954905116"><ele>135.66666666666669</ele><time>2026-05-02T13:00:37.999Z</time></trkpt><trkpt lat="43.415295253653" lon="13.57626803590857"><ele>135.33333333333334</ele><time>2026-05-02T13:00:38.999Z</time></trkpt><trkpt lat="43.415341491930135" lon="13.576332689317905"><ele>135.0</ele><time>2026-05-02T13:00:39.999Z</time></trkpt><trkpt lat="43.41538077917455" lon="13.57640079380799"><ele>134.66666666666666</ele><time>2026-05-02T13:00:40.999Z</time></trkpt><trkpt lat="43.41542087168898" lon="13.576469259488738"><ele>134.33333333333331</ele><time>2026-05-02T13:00:41.999Z</time></trkpt><trkpt lat="43.41549996079227" lon="13.57660101372425"><ele>134.0</ele><time>2026-05-02T13:00:43.999Z</time></trkpt><trkpt lat="43.4155729825021" lon="13.576724764984666"><ele>136.0</ele><time>2026-05-02T13:00:45.999Z</time></trkpt><trkpt lat="43.41565144241982" lon="13.576854522084957"><ele>138.0</ele><time>2026-05-02T13:00:47.999Z</time></trkpt><trkpt lat="43.41572913599575" lon="13.57698141075636"><ele>140.0</ele><time>2026-05-02T13:00:49.999Z</time></trkpt><trkpt lat="43.4158014706067" lon="13.57711468453587"><ele>142.0</ele><time>2026-05-02T13:00:51.999Z</time></trkpt><trkpt lat="43.41587932268373" lon="13.577240170615477"><ele>142.0</ele><time>2026-05-02T13:00:53.999Z</time></trkpt><trkpt lat="43.41595060145055" lon="13.57735861451697"><ele>142.0</ele><time>2026-05-02T13:00:55.999Z</time></trkpt><trkpt lat="43.4160185091788" lon="13.577474858777371"><ele>142.0</ele><time>2026-05-02T13:00:57.999Z</time></trkpt><trkpt lat="43.41608438602295" lon="13.577591407331946"><ele>142.0</ele><time>2026-05-02T13:00:59.999Z</time></trkpt><trkpt lat="43.41615129556539" lon="13.577695116152801"><ele>142.0</ele><time>2026-05-02T13:01:01.999Z</time></trkpt><trkpt lat="43.416226300034985" lon="13.577796613379542"><ele>141.5</ele><time>2026-05-02T13:01:03.999Z</time></trkpt><trkpt lat="43.41630108781154" lon="13.577906397205776"><ele>141.0</ele><time>2026-05-02T13:01:05.999Z</time></trkpt><trkpt lat="43.4163923694026" lon="13.57802174428308"><ele>140.5</ele><time>2026-05-02T13:01:07.999Z</time></trkpt><trkpt lat="43.41644117623176" lon="13.578079730406873"><ele>140.0</ele><time>2026-05-02T13:01:08.999Z</time></trkpt><trkpt lat="43.416491089006385" lon="13.578142301835014"><ele>139.5</ele><time>2026-05-02T13:01:09.999Z</time></trkpt><trkpt lat="43.41654418124548" lon="13.578205738844519"><ele>139.0</ele><time>2026-05-02T13:01:10.999Z</time></trkpt><trkpt lat="43.4165971138803" lon="13.57826881644407"><ele>139.0</ele><time>2026-05-02T13:01:11.999Z</time></trkpt><trkpt lat="43.4166486894626" lon="13.578334105797149"><ele>139.0</ele><time>2026-05-02T13:01:12.999Z</time></trkpt><trkpt lat="43.41670258098651" lon="13.578403914608154"><ele>139.0</ele><time>2026-05-02T13:01:13.999Z</time></trkpt><trkpt lat="43.416756015411686" lon="13.578471033861247"><ele>139.0</ele><time>2026-05-02T13:01:14.999Z</time></trkpt><trkpt lat="43.4168129917684" lon="13.578538501339988"><ele>139.0</ele><time>2026-05-02T13:01:15.999Z</time></trkpt><trkpt lat="43.41687014415263" lon="13.578609563064422"><ele>139.0</ele><time>2026-05-02T13:01:16.999Z</time></trkpt><trkpt lat="43.41692933567546" lon="13.578679815099914"><ele>139.0</ele><time>2026-05-02T13:01:17.999Z</time></trkpt><trkpt lat="43.41698751427938" lon="13.578751466863135"><ele>138.5</ele><time>2026-05-02T13:01:18.999Z</time></trkpt><trkpt lat="43.417044721042224" lon="13.578822708486477"><ele>138.0</ele><time>2026-05-02T13:01:19.999Z</time></trkpt><trkpt lat="43.41710304193769" lon="13.578893525366972"><ele>137.5</ele><time>2026-05-02T13:01:20.999Z</time></trkpt><trkpt lat="43.41715777394603" lon="13.578965226247915"><ele>137.0</ele><time>2026-05-02T13:01:21.999Z</time></trkpt><trkpt lat="43.417210098112186" lon="13.579039138531686"><ele>136.5</ele><time>2026-05-02T13:01:22.999Z</time></trkpt><trkpt lat="43.41726436066127" lon="13.579111792400916"><ele>136.0</ele><time>2026-05-02T13:01:23.999Z</time></trkpt><trkpt lat="43.4173186655042" lon="13.579181462459122"><ele>136.0</ele><time>2026-05-02T13:01:24.999Z</time></trkpt><trkpt lat="43.41737423684067" lon="13.579251352614214"><ele>136.0</ele><time>2026-05-02T13:01:25.999Z</time></trkpt><trkpt lat="43.41742909704231" lon="13.57932131398723"><ele>136.0</ele><time>2026-05-02T13:01:26.999Z</time></trkpt><trkpt lat="43.41748176058737" lon="13.579395571846792"><ele>136.0</ele><time>2026-05-02T13:01:27.999Z</time></trkpt><trkpt lat="43.41753468390755" lon="13.579472668929952"><ele>136.0</ele><time>2026-05-02T13:01:28.999Z</time></trkpt><trkpt lat="43.417586099237745" lon="13.579552456024414"><ele>136.0</ele><time>2026-05-02T13:01:29.999Z</time></trkpt><trkpt lat="43.41763747819492" lon="13.579634277177348"><ele>135.16666666666669</ele><time>2026-05-02T13:01:30.999Z</time></trkpt><trkpt lat="43.41768870071211" lon="13.579718298093873"><ele>134.33333333333334</ele><time>2026-05-02T13:01:31.999Z</time></trkpt><trkpt lat="43.41773694725907" lon="13.57980746974931"><ele>133.5</ele><time>2026-05-02T13:01:32.999Z</time></trkpt><trkpt lat="43.41778748413588" lon="13.579896626672872"><ele>132.66666666666666</ele><time>2026-05-02T13:01:33.999Z</time></trkpt><trkpt lat="43.41783802477366" lon="13.579991330039922"><ele>131.83333333333331</ele><time>2026-05-02T13:01:34.998Z</time></trkpt><trkpt lat="43.41788843056679" lon="13.580086511455463"><ele>131.0</ele><time>2026-05-02T13:01:35.998Z</time></trkpt><trkpt lat="43.41793791905698" lon="13.580187271074339"><ele>130.4</ele><time>2026-05-02T13:01:36.998Z</time></trkpt><trkpt lat="43.41799096592656" lon="13.580286683960967"><ele>129.8</ele><time>2026-05-02T13:01:37.998Z</time></trkpt><trkpt lat="43.41804309383742" lon="13.580385234956909"><ele>129.20000000000002</ele><time>2026-05-02T13:01:38.998Z</time></trkpt><trkpt lat="43.418091861997816" lon="13.580490420486726"><ele>128.6</ele><time>2026-05-02T13:01:39.998Z</time></trkpt><trkpt lat="43.418140091402684" lon="13.580602041390389"><ele>128.0</ele><time>2026-05-02T13:01:40.998Z</time></trkpt><trkpt lat="43.41819062432256" lon="13.580712391729035"><ele>127.60000000000001</ele><time>2026-05-02T13:01:41.998Z</time></trkpt><trkpt lat="43.41824130253159" lon="13.580824647733401"><ele>127.20000000000002</ele><time>2026-05-02T13:01:42.998Z</time></trkpt><trkpt lat="43.418290187592945" lon="13.580943916729401"><ele>126.8</ele><time>2026-05-02T13:01:43.998Z</time></trkpt><trkpt lat="43.418337289287614" lon="13.581065876935181"><ele>126.4</ele><time>2026-05-02T13:01:44.998Z</time></trkpt><trkpt lat="43.418395658495484" lon="13.581191035882203"><ele>126.0</ele><time>2026-05-02T13:01:46Z</time></trkpt><trkpt lat="43.418453968076804" lon="13.581318308638794"><ele>126.0</ele><time>2026-05-02T13:01:47Z</time></trkpt><trkpt lat="43.41850794437392" lon="13.581448083796408"><ele>126.0</ele><time>2026-05-02T13:01:48Z</time></trkpt><trkpt lat="43.41855710576894" lon="13.58157900290457"><ele>126.0</ele><time>2026-05-02T13:01:49Z</time></trkpt><trkpt lat="43.41861230719" lon="13.581706688959299"><ele>126.0</ele><time>2026-05-02T13:01:50Z</time></trkpt><trkpt lat="43.418661151216135" lon="13.581837420758717"><ele>126.0</ele><time>2026-05-02T13:01:51Z</time></trkpt><trkpt lat="43.418710901253" lon="13.581960103672928"><ele>126.19999999999999</ele><time>2026-05-02T13:01:52Z</time></trkpt><trkpt lat="43.41876252445008" lon="13.582083395255664"><ele>126.39999999999999</ele><time>2026-05-02T13:01:53Z</time></trkpt><trkpt lat="43.41881745552093" lon="13.582203679250428"><ele>126.6</ele><time>2026-05-02T13:01:54Z</time></trkpt><trkpt lat="43.41887192379236" lon="13.582323357920178"><ele>126.8</ele><time>2026-05-02T13:01:55Z</time></trkpt><trkpt lat="43.41894777774518" lon="13.582418732587376"><ele>127.0</ele><time>2026-05-02T13:01:56Z</time></trkpt><trkpt lat="43.41903401371252" lon="13.582505600802923"><ele>126.19999999999999</ele><time>2026-05-02T13:01:57Z</time></trkpt><trkpt lat="43.41912024967611" lon="13.582590400244046"><ele>125.39999999999999</ele><time>2026-05-02T13:01:58Z</time></trkpt><trkpt lat="43.41920817804138" lon="13.582675808206794"><ele>124.60000000000001</ele><time>2026-05-02T13:01:59Z</time></trkpt><trkpt lat="43.41929784527849" lon="13.582759198231255"><ele>123.80000000000001</ele><time>2026-05-02T13:02:00Z</time></trkpt><trkpt lat="43.41938495643484" lon="13.58284123606641"><ele>123.0</ele><time>2026-05-02T13:02:01Z</time></trkpt><trkpt lat="43.41947854696745" lon="13.582921470881095"><ele>123.0</ele><time>2026-05-02T13:02:02Z</time></trkpt><trkpt lat="43.41957217844312" lon="13.583004340737613"><ele>123.00000000000001</ele><time>2026-05-02T13:02:03Z</time></trkpt><trkpt lat="43.419664279215546" lon="13.5830910267555"><ele>123.00000000000001</ele><time>2026-05-02T13:02:04Z</time></trkpt><trkpt lat="43.41975366499357" lon="13.583184835074993"><ele>123.0</ele><time>2026-05-02T13:02:05Z</time></trkpt><trkpt lat="43.41984578898929" lon="13.583275920885688"><ele>123.0</ele><time>2026-05-02T13:02:06Z</time></trkpt><trkpt lat="43.41994298848726" lon="13.583358579927285"><ele>120.5</ele><time>2026-05-02T13:02:07Z</time></trkpt><trkpt lat="43.420046544686016" lon="13.583415129353073"><ele>118.0</ele><time>2026-05-02T13:02:08Z</time></trkpt><trkpt lat="43.42016177285699" lon="13.583425497236385"><ele>115.5</ele><time>2026-05-02T13:02:09Z</time></trkpt><trkpt lat="43.4202761579535" lon="13.583374263249612"><ele>113.0</ele><time>2026-05-02T13:02:10Z</time></trkpt><trkpt lat="43.42037509389572" lon="13.583284563304083"><ele>113.0</ele><time>2026-05-02T13:02:11Z</time></trkpt><trkpt lat="43.420459771242406" lon="13.583173462694452"><ele>113.0</ele><time>2026-05-02T13:02:12Z</time></trkpt><trkpt lat="43.42052025056378" lon="13.583039267765784"><ele>113.0</ele><time>2026-05-02T13:02:13Z</time></trkpt><trkpt lat="43.42057022606347" lon="13.582904321343115"><ele>113.0</ele><time>2026-05-02T13:02:14Z</time></trkpt><trkpt lat="43.42061794393876" lon="13.58277022958576"><ele>111.2</ele><time>2026-05-02T13:02:15Z</time></trkpt><trkpt lat="43.42067418564775" lon="13.58264353662702"><ele>109.4</ele><time>2026-05-02T13:02:16Z</time></trkpt><trkpt lat="43.42073318323584" lon="13.582514643873571"><ele>107.60000000000001</ele><time>2026-05-02T13:02:17Z</time></trkpt><trkpt lat="43.42078779840172" lon="13.58239104852513"><ele>105.80000000000001</ele><time>2026-05-02T13:02:18Z</time></trkpt><trkpt lat="43.42085232935955" lon="13.58227231915981"><ele>104.0</ele><time>2026-05-02T13:02:19Z</time></trkpt><trkpt lat="43.420915001066966" lon="13.582150551871846"><ele>104.0</ele><time>2026-05-02T13:02:20Z</time></trkpt><trkpt lat="43.42098339665585" lon="13.582030501457004"><ele>104.0</ele><time>2026-05-02T13:02:21Z</time></trkpt><trkpt lat="43.42105615542704" lon="13.5819157967319"><ele>104.0</ele><time>2026-05-02T13:02:22Z</time></trkpt><trkpt lat="43.42114027408193" lon="13.581808323109916"><ele>104.0</ele><time>2026-05-02T13:02:23Z</time></trkpt><trkpt lat="43.42122235215584" lon="13.581698415458575"><ele>101.25</ele><time>2026-05-02T13:02:24Z</time></trkpt><trkpt lat="43.42131110354161" lon="13.581592749846902"><ele>98.5</ele><time>2026-05-02T13:02:25Z</time></trkpt><trkpt lat="43.42141780364413" lon="13.5815124926848"><ele>95.75</ele><time>2026-05-02T13:02:26Z</time></trkpt><trkpt lat="43.421532495458656" lon="13.581443659506617"><ele>93.0</ele><time>2026-05-02T13:02:27Z</time></trkpt><trkpt lat="43.42164427627689" lon="13.58137367707972"><ele>93.0</ele><time>2026-05-02T13:02:28Z</time></trkpt><trkpt lat="43.42175731903076" lon="13.5813040846175"><ele>93.0</ele><time>2026-05-02T13:02:29Z</time></trkpt><trkpt lat="43.421872095899616" lon="13.581249377856597"><ele>93.0</ele><time>2026-05-02T13:02:30Z</time></trkpt><trkpt lat="43.42198836913339" lon="13.581192128003714"><ele>93.0</ele><time>2026-05-02T13:02:31Z</time></trkpt><trkpt lat="43.42210476875711" lon="13.581145829704141"><ele>91.25</ele><time>2026-05-02T13:02:32Z</time></trkpt><trkpt lat="43.422232710267934" lon="13.581140651778524"><ele>89.5</ele><time>2026-05-02T13:02:33Z</time></trkpt><trkpt lat="43.422358214510105" lon="13.581160661060753"><ele>87.75</ele><time>2026-05-02T13:02:34Z</time></trkpt><trkpt lat="43.42248506222988" lon="13.581203493458673"><ele>86.0</ele><time>2026-05-02T13:02:35Z</time></trkpt><trkpt lat="43.422606571090036" lon="13.58126121883706"><ele>86.0</ele><time>2026-05-02T13:02:36Z</time></trkpt><trkpt lat="43.42273244597738" lon="13.581324629343609"><ele>86.0</ele><time>2026-05-02T13:02:37Z</time></trkpt><trkpt lat="43.422849183046644" lon="13.581405877586342"><ele>86.0</ele><time>2026-05-02T13:02:38Z</time></trkpt><trkpt lat="43.42296616186868" lon="13.581504283007657"><ele>86.0</ele><time>2026-05-02T13:02:38.999Z</time></trkpt><trkpt lat="43.4230765841276" lon="13.581605007292918"><ele>83.25</ele><time>2026-05-02T13:02:39.999Z</time></trkpt><trkpt lat="43.423187976744536" lon="13.58172673659491"><ele>80.5</ele><time>2026-05-02T13:02:40.999Z</time></trkpt><trkpt lat="43.42328779156013" lon="13.581856180909757"><ele>77.75</ele><time>2026-05-02T13:02:41.999Z</time></trkpt><trkpt lat="43.42338283483698" lon="13.58198506477444"><ele>75.0</ele><time>2026-05-02T13:02:42.999Z</time></trkpt><trkpt lat="43.42347579522904" lon="13.582116452772866"><ele>75.0</ele><time>2026-05-02T13:02:43.999Z</time></trkpt><trkpt lat="43.42356471843399" lon="13.58224769325808"><ele>75.0</ele><time>2026-05-02T13:02:44.999Z</time></trkpt><trkpt lat="43.423653423488105" lon="13.582371285291668"><ele>75.0</ele><time>2026-05-02T13:02:45.999Z</time></trkpt><trkpt lat="43.42373937199503" lon="13.582488336502069"><ele>75.0</ele><time>2026-05-02T13:02:46.999Z</time></trkpt><trkpt lat="43.4238222059638" lon="13.582609589578006"><ele>72.5</ele><time>2026-05-02T13:02:47.999Z</time></trkpt><trkpt lat="43.42390404179257" lon="13.58272625487881"><ele>70.0</ele><time>2026-05-02T13:02:48.999Z</time></trkpt><trkpt lat="43.42398770609222" lon="13.582838501077472"><ele>67.5</ele><time>2026-05-02T13:02:49.999Z</time></trkpt><trkpt lat="43.42406734777162" lon="13.58294732847798"><ele>65.0</ele><time>2026-05-02T13:02:50.999Z</time></trkpt><trkpt lat="43.42413887709869" lon="13.583056395091765"><ele>65.0</ele><time>2026-05-02T13:02:51.999Z</time></trkpt><trkpt lat="43.42421325742764" lon="13.583159652309627"><ele>65.0</ele><time>2026-05-02T13:02:52.999Z</time></trkpt><trkpt lat="43.424285473037386" lon="13.583261799984319"><ele>65.0</ele><time>2026-05-02T13:02:53.999Z</time></trkpt><trkpt lat="43.424357554806704" lon="13.583362151012862"><ele>65.0</ele><time>2026-05-02T13:02:54.999Z</time></trkpt><trkpt lat="43.424429111936625" lon="13.583456090930728"><ele>65.0</ele><time>2026-05-02T13:02:55.999Z</time></trkpt><trkpt lat="43.424501025055626" lon="13.583546794215492"><ele>65.0</ele><time>2026-05-02T13:02:56.999Z</time></trkpt><trkpt lat="43.42456396537061" lon="13.58364206843039"><ele>65.0</ele><time>2026-05-02T13:02:57.999Z</time></trkpt><trkpt lat="43.42462810178737" lon="13.583724186155933"><ele>65.0</ele><time>2026-05-02T13:02:58.999Z</time></trkpt><trkpt lat="43.424690806917724" lon="13.58380200545985"><ele>65.0</ele><time>2026-05-02T13:02:59.999Z</time></trkpt><trkpt lat="43.424754224895" lon="13.583887690237907"><ele>65.0</ele><time>2026-05-02T13:03:00.999Z</time></trkpt><trkpt lat="43.42487506684993" lon="13.584030511581167"><ele>64.5</ele><time>2026-05-02T13:03:02.999Z</time></trkpt><trkpt lat="43.424934547354916" lon="13.584098763591484"><ele>64.0</ele><time>2026-05-02T13:03:03.999Z</time></trkpt><trkpt lat="43.42498808502955" lon="13.58416883383683"><ele>63.5</ele><time>2026-05-02T13:03:04.999Z</time></trkpt><trkpt lat="43.425060740060474" lon="13.584205713059212"><ele>63.0</ele><time>2026-05-02T13:03:05.999Z</time></trkpt><trkpt lat="43.42513627388156" lon="13.584162563415324"><ele>62.50000000000001</ele><time>2026-05-02T13:03:06.999Z</time></trkpt><trkpt lat="43.42520542039762" lon="13.58412330983885"><ele>62.0</ele><time>2026-05-02T13:03:07.999Z</time></trkpt><trkpt lat="43.42527745569919" lon="13.584065261889087"><ele>62.0</ele><time>2026-05-02T13:03:08.999Z</time></trkpt><trkpt lat="43.42536425459352" lon="13.584009524096352"><ele>62.0</ele><time>2026-05-02T13:03:09.999Z</time></trkpt><trkpt lat="43.42545768999876" lon="13.583957327571296"><ele>62.0</ele><time>2026-05-02T13:03:10.999Z</time></trkpt><trkpt lat="43.42555609198708" lon="13.583903197176122"><ele>62.0</ele><time>2026-05-02T13:03:11.999Z</time></trkpt><trkpt lat="43.425669691395534" lon="13.583851534008076"><ele>62.0</ele><time>2026-05-02T13:03:12.999Z</time></trkpt><trkpt lat="43.42578404991509" lon="13.58381542284871"><ele>60.75</ele><time>2026-05-02T13:03:13.999Z</time></trkpt><trkpt lat="43.42590750597342" lon="13.583783153386188"><ele>59.5</ele><time>2026-05-02T13:03:14.999Z</time></trkpt><trkpt lat="43.426033201902555" lon="13.583760919901916"><ele>58.25</ele><time>2026-05-02T13:03:15.999Z</time></trkpt><trkpt lat="43.42616974267382" lon="13.58374082091729"><ele>57.0</ele><time>2026-05-02T13:03:16.999Z</time></trkpt><trkpt lat="43.42630545419881" lon="13.583731359153601"><ele>55.5</ele><time>2026-05-02T13:03:17.999Z</time></trkpt><trkpt lat="43.42644481319539" lon="13.583731444765265"><ele>54.0</ele><time>2026-05-02T13:03:18.999Z</time></trkpt><trkpt lat="43.42658300747304" lon="13.583743723005377"><ele>52.5</ele><time>2026-05-02T13:03:19.999Z</time></trkpt><trkpt lat="43.42671713322643" lon="13.583762781567794"><ele>51.0</ele><time>2026-05-02T13:03:20.999Z</time></trkpt><trkpt lat="43.42684933929239" lon="13.58378025692988"><ele>51.0</ele><time>2026-05-02T13:03:21.999Z</time></trkpt><trkpt lat="43.426981450490295" lon="13.58379163534677"><ele>51.0</ele><time>2026-05-02T13:03:22.999Z</time></trkpt><trkpt lat="43.42711725703757" lon="13.583805526868714"><ele>51.0</ele><time>2026-05-02T13:03:23.999Z</time></trkpt><trkpt lat="43.42724140934727" lon="13.58381614211596"><ele>51.0</ele><time>2026-05-02T13:03:24.999Z</time></trkpt><trkpt lat="43.427366944222726" lon="13.58383188953847"><ele>48.5</ele><time>2026-05-02T13:03:25.999Z</time></trkpt><trkpt lat="43.42749183534147" lon="13.583829974880535"><ele>46.0</ele><time>2026-05-02T13:03:26.999Z</time></trkpt><trkpt lat="43.42761244643163" lon="13.583808958393709"><ele>43.5</ele><time>2026-05-02T13:03:27.999Z</time></trkpt><trkpt lat="43.42773218692729" lon="13.583784855706611"><ele>41.0</ele><time>2026-05-02T13:03:28.999Z</time></trkpt><trkpt lat="43.42783306468206" lon="13.583744307659083"><ele>39.5</ele><time>2026-05-02T13:03:29.999Z</time></trkpt><trkpt lat="43.427925685034324" lon="13.583668467149614"><ele>38.0</ele><time>2026-05-02T13:03:30.999Z</time></trkpt><trkpt lat="43.42801521011789" lon="13.583620704882511"><ele>36.5</ele><time>2026-05-02T13:03:31.999Z</time></trkpt><trkpt lat="43.42807761383933" lon="13.583583046583497"><ele>35.0</ele><time>2026-05-02T13:03:32.999Z</time></trkpt><trkpt lat="43.428129496917755" lon="13.5835269313538"><ele>33.5</ele><time>2026-05-02T13:03:33.999Z</time></trkpt><trkpt lat="43.42813760453971" lon="13.583389441793454"><ele>32.0</ele><time>2026-05-02T13:03:34.999Z</time></trkpt><trkpt lat="43.42810047150452" lon="13.583271683166075"><ele>31.666666666666664</ele><time>2026-05-02T13:03:35.999Z</time></trkpt><trkpt lat="43.428071020724744" lon="13.583160669025775"><ele>31.333333333333332</ele><time>2026-05-02T13:03:36.999Z</time></trkpt><trkpt lat="43.42806446360484" lon="13.583056424341382"><ele>31.0</ele><time>2026-05-02T13:03:37.999Z</time></trkpt><trkpt lat="43.42804942118125" lon="13.582943062912506"><ele>30.666666666666664</ele><time>2026-05-02T13:03:38.999Z</time></trkpt><trkpt lat="43.42801731097226" lon="13.582839462927744"><ele>30.333333333333332</ele><time>2026-05-02T13:03:39.999Z</time></trkpt><trkpt lat="43.4279797691169" lon="13.582742934672845"><ele>30.0</ele><time>2026-05-02T13:03:40.999Z</time></trkpt><trkpt lat="43.42794071896565" lon="13.582643242420907"><ele>30.0</ele><time>2026-05-02T13:03:41.999Z</time></trkpt><trkpt lat="43.42789846006198" lon="13.582535637751143"><ele>30.0</ele><time>2026-05-02T13:03:42.999Z</time></trkpt><trkpt lat="43.42785361145388" lon="13.582435250246332"><ele>30.0</ele><time>2026-05-02T13:03:43.999Z</time></trkpt><trkpt lat="43.4278060991437" lon="13.582331423038404"><ele>30.0</ele><time>2026-05-02T13:03:44.998Z</time></trkpt><trkpt lat="43.42776233049957" lon="13.5822185377318"><ele>30.0</ele><time>2026-05-02T13:03:45.998Z</time></trkpt><trkpt lat="43.427716973199225" lon="13.582103671476405"><ele>29.833333333333332</ele><time>2026-05-02T13:03:46.998Z</time></trkpt><trkpt lat="43.42767107720253" lon="13.581995937410765"><ele>29.666666666666664</ele><time>2026-05-02T13:03:47.998Z</time></trkpt><trkpt lat="43.427624619856374" lon="13.581889633457552"><ele>29.5</ele><time>2026-05-02T13:03:48.998Z</time></trkpt><trkpt lat="43.427582963574125" lon="13.58178379637993"><ele>29.333333333333332</ele><time>2026-05-02T13:03:49.998Z</time></trkpt><trkpt lat="43.427547047837784" lon="13.581676814316312"><ele>29.166666666666664</ele><time>2026-05-02T13:03:50.998Z</time></trkpt><trkpt lat="43.42751275251644" lon="13.581572104135692"><ele>29.0</ele><time>2026-05-02T13:03:52Z</time></trkpt><trkpt lat="43.427480580175" lon="13.581472715910072"><ele>28.999999999999996</ele><time>2026-05-02T13:03:53Z</time></trkpt><trkpt lat="43.42745944399978" lon="13.58138455655802"><ele>29.0</ele><time>2026-05-02T13:03:54Z</time></trkpt><trkpt lat="43.42743272250914" lon="13.58129400129962"><ele>29.0</ele><time>2026-05-02T13:03:55Z</time></trkpt><trkpt lat="43.42740079332735" lon="13.58121126361652"><ele>29.0</ele><time>2026-05-02T13:03:56Z</time></trkpt><trkpt lat="43.42737485711078" lon="13.581125039690313"><ele>28.999999999999996</ele><time>2026-05-02T13:03:57Z</time></trkpt><trkpt lat="43.42734348895229" lon="13.581048195081827"><ele>29.0</ele><time>2026-05-02T13:03:58Z</time></trkpt><trkpt lat="43.427305300896265" lon="13.580901844592029"><ele>29.166666666666664</ele><time>2026-05-02T13:04:00Z</time></trkpt><trkpt lat="43.42725959176916" lon="13.580771119911427"><ele>29.333333333333332</ele><time>2026-05-02T13:04:02Z</time></trkpt><trkpt lat="43.42722797567783" lon="13.580655619716829"><ele>29.5</ele><time>2026-05-02T13:04:04Z</time></trkpt><trkpt lat="43.42719475301657" lon="13.580566011302261"><ele>29.666666666666664</ele><time>2026-05-02T13:04:06Z</time></trkpt><trkpt lat="43.427147885407244" lon="13.580461543644313"><ele>29.833333333333332</ele><time>2026-05-02T13:04:08Z</time></trkpt><trkpt lat="43.42710120278385" lon="13.58036373389595"><ele>30.0</ele><time>2026-05-02T13:04:10Z</time></trkpt><trkpt lat="43.4270542514303" lon="13.580274112200108"><ele>30.833333333333332</ele><time>2026-05-02T13:04:12Z</time></trkpt><trkpt lat="43.42700970387202" lon="13.580188817838026"><ele>31.666666666666664</ele><time>2026-05-02T13:04:14Z</time></trkpt><trkpt lat="43.426965613966075" lon="13.580102727797525"><ele>32.5</ele><time>2026-05-02T13:04:16Z</time></trkpt><trkpt lat="43.42691815064703" lon="13.580008228030213"><ele>33.33333333333333</ele><time>2026-05-02T13:04:18Z</time></trkpt><trkpt lat="43.426871105556046" lon="13.57991601159631"><ele>34.166666666666664</ele><time>2026-05-02T13:04:20Z</time></trkpt><trkpt lat="43.42684178809083" lon="13.5798075562355"><ele>35.0</ele><time>2026-05-02T13:04:22Z</time></trkpt><trkpt lat="43.42686947431621" lon="13.579680298438234"><ele>35.0</ele><time>2026-05-02T13:04:24Z</time></trkpt><trkpt lat="43.426970455259735" lon="13.5795757791775"><ele>35.0</ele><time>2026-05-02T13:04:26Z</time></trkpt><trkpt lat="43.42704013175408" lon="13.579553993188865"><ele>35.0</ele><time>2026-05-02T13:04:27Z</time></trkpt><trkpt lat="43.42712019955887" lon="13.579537098534047"><ele>35.0</ele><time>2026-05-02T13:04:28Z</time></trkpt><trkpt lat="43.427199466261605" lon="13.579516639317568"><ele>35.0</ele><time>2026-05-02T13:04:29Z</time></trkpt><trkpt lat="43.427284011008794" lon="13.57949530212258"><ele>35.0</ele><time>2026-05-02T13:04:30Z</time></trkpt><trkpt lat="43.427370039537784" lon="13.579479534387078"><ele>33.666666666666664</ele><time>2026-05-02T13:04:31Z</time></trkpt><trkpt lat="43.4274560186343" lon="13.579465629993917"><ele>32.33333333333333</ele><time>2026-05-02T13:04:32Z</time></trkpt><trkpt lat="43.42754507971042" lon="13.57944990887453"><ele>31.0</ele><time>2026-05-02T13:04:33Z</time></trkpt><trkpt lat="43.42763139216015" lon="13.579428102362856"><ele>29.666666666666664</ele><time>2026-05-02T13:04:34Z</time></trkpt><trkpt lat="43.427717393103045" lon="13.579414980421822"><ele>28.333333333333332</ele><time>2026-05-02T13:04:35Z</time></trkpt><trkpt lat="43.42780463542308" lon="13.579400672181656"><ele>27.0</ele><time>2026-05-02T13:04:36Z</time></trkpt><trkpt lat="43.427891745610154" lon="13.579385703226327"><ele>26.833333333333332</ele><time>2026-05-02T13:04:37Z</time></trkpt><trkpt lat="43.4279773849124" lon="13.579368114137036"><ele>26.666666666666664</ele><time>2026-05-02T13:04:38Z</time></trkpt><trkpt lat="43.42805343447034" lon="13.579357573709107"><ele>26.5</ele><time>2026-05-02T13:04:39Z</time></trkpt><trkpt lat="43.42814328681656" lon="13.579345231819234"><ele>26.333333333333332</ele><time>2026-05-02T13:04:40Z</time></trkpt><trkpt lat="43.428215987101005" lon="13.579329603081403"><ele>26.166666666666664</ele><time>2026-05-02T13:04:41Z</time></trkpt><trkpt lat="43.428295049239196" lon="13.579324128201344"><ele>26.0</ele><time>2026-05-02T13:04:42Z</time></trkpt><trkpt lat="43.42836143930143" lon="13.579298818054891"><ele>25.999999999999996</ele><time>2026-05-02T13:04:43Z</time></trkpt><trkpt lat="43.42843979857928" lon="13.579282280602827"><ele>26.0</ele><time>2026-05-02T13:04:43.999Z</time></trkpt><trkpt lat="43.42851945927254" lon="13.57926829904053"><ele>26.0</ele><time>2026-05-02T13:04:44.999Z</time></trkpt><trkpt lat="43.428594480872306" lon="13.579262395260121"><ele>26.0</ele><time>2026-05-02T13:04:45.999Z</time></trkpt><trkpt lat="43.42866384162241" lon="13.579242233694611"><ele>25.999999999999996</ele><time>2026-05-02T13:04:46.999Z</time></trkpt><trkpt lat="43.428737416629616" lon="13.579226058589002"><ele>26.0</ele><time>2026-05-02T13:04:47.999Z</time></trkpt><trkpt lat="43.42880788613887" lon="13.579209500647385"><ele>25.71428571428571</ele><time>2026-05-02T13:04:48.999Z</time></trkpt><trkpt lat="43.42888123079754" lon="13.579188456104092"><ele>25.42857142857143</ele><time>2026-05-02T13:04:49.999Z</time></trkpt><trkpt lat="43.428951262527775" lon="13.579164294814767"><ele>25.142857142857142</ele><time>2026-05-02T13:04:50.999Z</time></trkpt><trkpt lat="43.42902232487103" lon="13.579134095778773"><ele>24.857142857142854</ele><time>2026-05-02T13:04:51.999Z</time></trkpt><trkpt lat="43.42908659315715" lon="13.579096073366985"><ele>24.57142857142857</ele><time>2026-05-02T13:04:52.999Z</time></trkpt><trkpt lat="43.429155406584236" lon="13.579050441613612"><ele>24.285714285714285</ele><time>2026-05-02T13:04:53.999Z</time></trkpt><trkpt lat="43.4292259955065" lon="13.579003347936649"><ele>24.0</ele><time>2026-05-02T13:04:54.999Z</time></trkpt><trkpt lat="43.429290462968446" lon="13.57895736800174"><ele>23.999999999999996</ele><time>2026-05-02T13:04:55.999Z</time></trkpt><trkpt lat="43.42935272854686" lon="13.578908483724081"><ele>24.0</ele><time>2026-05-02T13:04:56.999Z</time></trkpt><trkpt lat="43.429418024031015" lon="13.578862997330162"><ele>24.0</ele><time>2026-05-02T13:04:57.999Z</time></trkpt><trkpt lat="43.42948495055795" lon="13.578815682695591"><ele>24.0</ele><time>2026-05-02T13:04:58.999Z</time></trkpt><trkpt lat="43.429551371839175" lon="13.578767484556085"><ele>24.0</ele><time>2026-05-02T13:04:59.999Z</time></trkpt><trkpt lat="43.42961930037743" lon="13.578720088708396"><ele>23.999999999999996</ele><time>2026-05-02T13:05:00.999Z</time></trkpt><trkpt lat="43.429681309927176" lon="13.57867430738475"><ele>24.0</ele><time>2026-05-02T13:05:01.999Z</time></trkpt><trkpt lat="43.429747853390936" lon="13.578622558403028"><ele>23.71428571428571</ele><time>2026-05-02T13:05:02.999Z</time></trkpt><trkpt lat="43.42981229816895" lon="13.578576735844713"><ele>23.428571428571427</ele><time>2026-05-02T13:05:03.999Z</time></trkpt><trkpt lat="43.42987646417802" lon="13.57852939263933"><ele>23.142857142857142</ele><time>2026-05-02T13:05:04.999Z</time></trkpt><trkpt lat="43.42994096442454" lon="13.578475123969234"><ele>22.857142857142854</ele><time>2026-05-02T13:05:05.999Z</time></trkpt><trkpt lat="43.430003022684716" lon="13.578425320334961"><ele>22.57142857142857</ele><time>2026-05-02T13:05:06.999Z</time></trkpt><trkpt lat="43.43006854491671" lon="13.578382839794712"><ele>22.285714285714285</ele><time>2026-05-02T13:05:07.999Z</time></trkpt><trkpt lat="43.43013525512049" lon="13.578326788429465"><ele>22.0</ele><time>2026-05-02T13:05:08.999Z</time></trkpt><trkpt lat="43.4301994878139" lon="13.57828364725571"><ele>22.0</ele><time>2026-05-02T13:05:09.999Z</time></trkpt><trkpt lat="43.430269701745964" lon="13.57824609386572"><ele>22.0</ele><time>2026-05-02T13:05:10.999Z</time></trkpt><trkpt lat="43.43034068616278" lon="13.57820178529866"><ele>22.0</ele><time>2026-05-02T13:05:11.999Z</time></trkpt><trkpt lat="43.430411351878455" lon="13.578145599457805"><ele>22.0</ele><time>2026-05-02T13:05:12.999Z</time></trkpt><trkpt lat="43.43047366844065" lon="13.578096790459632"><ele>22.0</ele><time>2026-05-02T13:05:13.999Z</time></trkpt><trkpt lat="43.430548154053966" lon="13.578049905158256"><ele>22.0</ele><time>2026-05-02T13:05:14.999Z</time></trkpt><trkpt lat="43.430620979340354" lon="13.578008547815772"><ele>21.8</ele><time>2026-05-02T13:05:15.999Z</time></trkpt><trkpt lat="43.43069750388366" lon="13.57796927664692"><ele>21.6</ele><time>2026-05-02T13:05:16.999Z</time></trkpt><trkpt lat="43.43085301500371" lon="13.577903820405858"><ele>21.400000000000002</ele><time>2026-05-02T13:05:18.999Z</time></trkpt><trkpt lat="43.43092963143868" lon="13.577874049296195"><ele>21.200000000000003</ele><time>2026-05-02T13:05:19.999Z</time></trkpt><trkpt lat="43.43100748677771" lon="13.577841009286566"><ele>21.0</ele><time>2026-05-02T13:05:20.999Z</time></trkpt><trkpt lat="43.431079362513216" lon="13.577814413422779"><ele>21.0</ele><time>2026-05-02T13:05:21.999Z</time></trkpt><trkpt lat="43.431152607319945" lon="13.577784215020861"><ele>21.0</ele><time>2026-05-02T13:05:22.999Z</time></trkpt><trkpt lat="43.43122482828903" lon="13.577754547360405"><ele>21.0</ele><time>2026-05-02T13:05:23.999Z</time></trkpt><trkpt lat="43.43129860330949" lon="13.577735762620936"><ele>21.0</ele><time>2026-05-02T13:05:24.999Z</time></trkpt><trkpt lat="43.4313600514544" lon="13.577709105639762"><ele>21.0</ele><time>2026-05-02T13:05:25.999Z</time></trkpt><trkpt lat="43.43142807928123" lon="13.577681582061413"><ele>21.0</ele><time>2026-05-02T13:05:26.999Z</time></trkpt><trkpt lat="43.43149981773664" lon="13.577654328570958"><ele>21.0</ele><time>2026-05-02T13:05:27.999Z</time></trkpt><trkpt lat="43.43162392001571" lon="13.577606991616506"><ele>20.285714285714285</ele><time>2026-05-02T13:05:29.999Z</time></trkpt><trkpt lat="43.43168855554016" lon="13.57758424830347"><ele>19.57142857142857</ele><time>2026-05-02T13:05:30.999Z</time></trkpt><trkpt lat="43.43175259390234" lon="13.57755802806582"><ele>18.857142857142858</ele><time>2026-05-02T13:05:31.999Z</time></trkpt><trkpt lat="43.43181451129015" lon="13.577539106709324"><ele>18.142857142857142</ele><time>2026-05-02T13:05:32.999Z</time></trkpt><trkpt lat="43.431879708438714" lon="13.577514783312807"><ele>17.428571428571427</ele><time>2026-05-02T13:05:33.999Z</time></trkpt><trkpt lat="43.43194469127856" lon="13.577490859614338"><ele>16.714285714285715</ele><time>2026-05-02T13:05:34.999Z</time></trkpt><trkpt lat="43.43200667802754" lon="13.577470960155273"><ele>16.0</ele><time>2026-05-02T13:05:35.999Z</time></trkpt><trkpt lat="43.43206833711198" lon="13.577448183632542"><ele>15.999999999999998</ele><time>2026-05-02T13:05:36.999Z</time></trkpt><trkpt lat="43.432131456130655" lon="13.577420877345157"><ele>16.0</ele><time>2026-05-02T13:05:37.999Z</time></trkpt><trkpt lat="43.43225251723645" lon="13.577377377864035"><ele>16.0</ele><time>2026-05-02T13:05:39.999Z</time></trkpt><trkpt lat="43.432318436802205" lon="13.577357690243348"><ele>16.0</ele><time>2026-05-02T13:05:40.999Z</time></trkpt><trkpt lat="43.43243489334441" lon="13.577309170946508"><ele>15.999999999999998</ele><time>2026-05-02T13:05:42.999Z</time></trkpt><trkpt lat="43.43249781695462" lon="13.577282512766407"><ele>16.0</ele><time>2026-05-02T13:05:43.999Z</time></trkpt><trkpt lat="43.432596459492444" lon="13.577253542807028"><ele>16.400000000000002</ele><time>2026-05-02T13:05:45.999Z</time></trkpt><trkpt lat="43.43252925121038" lon="13.577291987910517"><ele>16.8</ele><time>2026-05-02T13:05:49.998Z</time></trkpt><trkpt lat="43.43259663789696" lon="13.577364116017879"><ele>17.200000000000003</ele><time>2026-05-02T13:05:50.998Z</time></trkpt><trkpt lat="43.432471395240206" lon="13.57743833471832"><ele>17.6</ele><time>2026-05-02T13:05:51.998Z</time></trkpt><trkpt lat="43.43238271197723" lon="13.577480170710562"><ele>18.0</ele><time>2026-05-02T13:05:53.998Z</time></trkpt><trkpt lat="43.43229802569172" lon="13.577517916010343"><ele>18.0</ele><time>2026-05-02T13:05:55.998Z</time></trkpt><trkpt lat="43.432218002169215" lon="13.577554563547029"><ele>18.0</ele><time>2026-05-02T13:05:58Z</time></trkpt><trkpt lat="43.43214682051034" lon="13.577587244916723"><ele>18.0</ele><time>2026-05-02T13:06:00Z</time></trkpt><trkpt lat="43.43208490746662" lon="13.577639764038038"><ele>18.0</ele><time>2026-05-02T13:06:03Z</time></trkpt><trkpt lat="43.43219854897049" lon="13.577678734048131"><ele>18.0</ele><time>2026-05-02T13:06:04Z</time></trkpt><trkpt lat="43.432225302530156" lon="13.57779341113028"><ele>18.0</ele><time>2026-05-02T13:06:06Z</time></trkpt><trkpt lat="43.432258654839" lon="13.577928738590959"><ele>17.8</ele><time>2026-05-02T13:06:08Z</time></trkpt><trkpt lat="43.43218041781759" lon="13.578054557715731"><ele>17.6</ele><time>2026-05-02T13:06:10Z</time></trkpt><trkpt lat="43.43221851743932" lon="13.578172754222901"><ele>17.4</ele><time>2026-05-02T13:06:12Z</time></trkpt><trkpt lat="43.43233418061229" lon="13.578225594074725"><ele>17.2</ele><time>2026-05-02T13:06:14Z</time></trkpt><trkpt lat="43.43231228294324" lon="13.578112625416418"><ele>17.0</ele><time>2026-05-02T13:06:15Z</time></trkpt><trkpt lat="43.4323960971379" lon="13.578072662673238"><ele>17.0</ele><time>2026-05-02T13:06:17Z</time></trkpt><trkpt lat="43.432480475861965" lon="13.578032263024259"><ele>17.0</ele><time>2026-05-02T13:06:19Z</time></trkpt><trkpt lat="43.432563442332544" lon="13.577992043609749"><ele>17.0</ele><time>2026-05-02T13:06:21Z</time></trkpt><trkpt lat="43.432690836311" lon="13.57826376859824"><ele>17.0</ele><time>2026-05-02T13:06:24Z</time></trkpt><trkpt lat="43.432741602056815" lon="13.578360109988738"><ele>17.0</ele><time>2026-05-02T13:06:26Z</time></trkpt><trkpt lat="43.43280752953441" lon="13.578434783903722"><ele>17.0</ele><time>2026-05-02T13:06:28Z</time></trkpt><trkpt lat="43.43287223049332" lon="13.57852644938652"><ele>17.0</ele><time>2026-05-02T13:06:30Z</time></trkpt><trkpt lat="43.43293308711243" lon="13.578625468287504"><ele>17.0</ele><time>2026-05-02T13:06:32Z</time></trkpt><trkpt lat="43.432988533989814" lon="13.578736941601845"><ele>17.0</ele><time>2026-05-02T13:06:34Z</time></trkpt><trkpt lat="43.43307218798628" lon="13.57880651106164"><ele>17.166666666666668</ele><time>2026-05-02T13:06:36Z</time></trkpt><trkpt lat="43.433132341413184" lon="13.578852103760441"><ele>17.333333333333336</ele><time>2026-05-02T13:06:38Z</time></trkpt><trkpt lat="43.433178171455765" lon="13.578934872449114"><ele>17.5</ele><time>2026-05-02T13:06:40Z</time></trkpt><trkpt lat="43.43323461833059" lon="13.57899897350885"><ele>17.666666666666668</ele><time>2026-05-02T13:06:42Z</time></trkpt><trkpt lat="43.43328374586271" lon="13.579058137919505"><ele>17.833333333333332</ele><time>2026-05-02T13:06:45Z</time></trkpt><trkpt lat="43.433362526167016" lon="13.57908105479398"><ele>18.0</ele><time>2026-05-02T13:06:46.999Z</time></trkpt><trkpt lat="43.43343714396996" lon="13.579155156462424"><ele>18.0</ele><time>2026-05-02T13:06:48.999Z</time></trkpt><trkpt lat="43.433470932464886" lon="13.57927061800244"><ele>18.0</ele><time>2026-05-02T13:06:50.999Z</time></trkpt><trkpt lat="43.43350225529093" lon="13.579389635936232"><ele>18.0</ele><time>2026-05-02T13:06:52.999Z</time></trkpt><trkpt lat="43.43352942776279" lon="13.579513820437803"><ele>18.0</ele><time>2026-05-02T13:06:54.999Z</time></trkpt><trkpt lat="43.43356476484001" lon="13.579632065586464"><ele>18.0</ele><time>2026-05-02T13:06:56.999Z</time></trkpt><trkpt lat="43.43359476530095" lon="13.579756804528694"><ele>17.8</ele><time>2026-05-02T13:06:58.999Z</time></trkpt><trkpt lat="43.4336203162583" lon="13.57988362902998"><ele>17.6</ele><time>2026-05-02T13:07:00.999Z</time></trkpt><trkpt lat="43.4336627500746" lon="13.579998787609059"><ele>17.4</ele><time>2026-05-02T13:07:02.999Z</time></trkpt><trkpt lat="43.433669987440304" lon="13.5801189961595"><ele>17.2</ele><time>2026-05-02T13:07:04.999Z</time></trkpt><trkpt lat="43.43370181607971" lon="13.580235787475484"><ele>17.0</ele><time>2026-05-02T13:07:06.999Z</time></trkpt><trkpt lat="43.433735539282374" lon="13.580354804745904"><ele>17.2</ele><time>2026-05-02T13:07:08.999Z</time></trkpt><trkpt lat="43.43378649684086" lon="13.580458998760575"><ele>17.4</ele><time>2026-05-02T13:07:10.999Z</time></trkpt><trkpt lat="43.43384057501687" lon="13.580566329760801"><ele>17.6</ele><time>2026-05-02T13:07:12.999Z</time></trkpt><trkpt lat="43.43389115871225" lon="13.580671179340266"><ele>17.8</ele><time>2026-05-02T13:07:14.999Z</time></trkpt><trkpt lat="43.43393289967037" lon="13.580781633485879"><ele>18.0</ele><time>2026-05-02T13:07:16.999Z</time></trkpt><trkpt lat="43.43397251119049" lon="13.580892699191363"><ele>18.0</ele><time>2026-05-02T13:07:18.999Z</time></trkpt><trkpt lat="43.43400234417033" lon="13.581008852831136"><ele>18.0</ele><time>2026-05-02T13:07:20.999Z</time></trkpt><trkpt lat="43.43403061363287" lon="13.581127026921646"><ele>18.0</ele><time>2026-05-02T13:07:22.999Z</time></trkpt><trkpt lat="43.43407893661556" lon="13.581233553713009"><ele>18.0</ele><time>2026-05-02T13:07:24.999Z</time></trkpt><trkpt lat="43.434138453995665" lon="13.581318462148205"><ele>18.0</ele><time>2026-05-02T13:07:26.999Z</time></trkpt><trkpt lat="43.434120820830806" lon="13.581412097507105"><ele>18.0</ele><time>2026-05-02T13:07:27.999Z</time></trkpt><trkpt lat="43.43415743172125" lon="13.581529760395377"><ele>17.6</ele><time>2026-05-02T13:07:29.999Z</time></trkpt><trkpt lat="43.43419695429832" lon="13.581656829940485"><ele>17.200000000000003</ele><time>2026-05-02T13:07:31.999Z</time></trkpt><trkpt lat="43.4342359580807" lon="13.581782231407212"><ele>16.8</ele><time>2026-05-02T13:07:33.999Z</time></trkpt><trkpt lat="43.43427330787492" lon="13.58190231518584"><ele>16.400000000000002</ele><time>2026-05-02T13:07:35.999Z</time></trkpt><trkpt lat="43.43431210687243" lon="13.582008595444636"><ele>16.0</ele><time>2026-05-02T13:07:37.999Z</time></trkpt><trkpt lat="43.43434304102665" lon="13.582120609119746"><ele>15.999999999999998</ele><time>2026-05-02T13:07:39.999Z</time></trkpt><trkpt lat="43.43437611489185" lon="13.58222132196747"><ele>16.0</ele><time>2026-05-02T13:07:41.999Z</time></trkpt><trkpt lat="43.434415387014994" lon="13.582327478232035"><ele>16.0</ele><time>2026-05-02T13:07:43.999Z</time></trkpt><trkpt lat="43.43444427911118" lon="13.582424304585693"><ele>16.0</ele><time>2026-05-02T13:07:45.999Z</time></trkpt><trkpt lat="43.43447848471117" lon="13.582516272124327"><ele>15.999999999999998</ele><time>2026-05-02T13:07:47.999Z</time></trkpt><trkpt lat="43.43449456031932" lon="13.582613098865988"><ele>16.0</ele><time>2026-05-02T13:07:49.998Z</time></trkpt><trkpt lat="43.43452031983234" lon="13.582695762377563"><ele>16.0</ele><time>2026-05-02T13:07:51.998Z</time></trkpt><trkpt lat="43.434540078332645" lon="13.582811600447135"><ele>15.999999999999998</ele><time>2026-05-02T13:07:54.998Z</time></trkpt><trkpt lat="43.43457235414979" lon="13.582914891406244"><ele>16.0</ele><time>2026-05-02T13:07:57.998Z</time></trkpt><trkpt lat="43.43460015203422" lon="13.582996357158395"><ele>16.0</ele><time>2026-05-02T13:09:38.999Z</time></trkpt><trkpt lat="43.434643669467576" lon="13.583084335165168"><ele>15.999999999999998</ele><time>2026-05-02T13:09:43.999Z</time></trkpt><trkpt lat="43.43467334022556" lon="13.583167833717614"><ele>16.0</ele><time>2026-05-02T13:09:46.999Z</time></trkpt><trkpt lat="43.43470183522228" lon="13.583255412587626"><ele>16.0</ele><time>2026-05-02T13:09:48.999Z</time></trkpt><trkpt lat="43.434742165177326" lon="13.583342428016332"><ele>16.2</ele><time>2026-05-02T13:09:50.999Z</time></trkpt><trkpt lat="43.43476537991588" lon="13.583458663664937"><ele>16.400000000000002</ele><time>2026-05-02T13:09:52.998Z</time></trkpt><trkpt lat="43.434805006606716" lon="13.58357748865113"><ele>16.6</ele><time>2026-05-02T13:09:54.998Z</time></trkpt><trkpt lat="43.434843451442354" lon="13.58369844090321"><ele>16.8</ele><time>2026-05-02T13:09:56.998Z</time></trkpt><trkpt lat="43.43488109341342" lon="13.583821065416137"><ele>17.0</ele><time>2026-05-02T13:09:58.998Z</time></trkpt><trkpt lat="43.43493398452235" lon="13.583933085885363"><ele>16.6</ele><time>2026-05-02T13:10:00.998Z</time></trkpt><trkpt lat="43.435015973860686" lon="13.584015319860978"><ele>16.2</ele><time>2026-05-02T13:10:02.998Z</time></trkpt><trkpt lat="43.435122306931085" lon="13.584035901302382"><ele>15.8</ele><time>2026-05-02T13:10:04.998Z</time></trkpt><trkpt lat="43.43522089826077" lon="13.584046398850628"><ele>15.4</ele><time>2026-05-02T13:10:06.998Z</time></trkpt><trkpt lat="43.435319579051914" lon="13.584018037803247"><ele>15.0</ele><time>2026-05-02T13:10:08.998Z</time></trkpt><trkpt lat="43.43542432189994" lon="13.584006026020901"><ele>15.4</ele><time>2026-05-02T13:10:11Z</time></trkpt><trkpt lat="43.43552313055094" lon="13.583983870005605"><ele>15.8</ele><time>2026-05-02T13:10:13Z</time></trkpt><trkpt lat="43.43562070620227" lon="13.583960111124014"><ele>16.2</ele><time>2026-05-02T13:10:15Z</time></trkpt><trkpt lat="43.43571553666241" lon="13.583950906695204"><ele>16.6</ele><time>2026-05-02T13:10:17Z</time></trkpt><trkpt lat="43.435810317237426" lon="13.583934540493672"><ele>17.0</ele><time>2026-05-02T13:10:19Z</time></trkpt><trkpt lat="43.43590555116751" lon="13.583910446896416"><ele>17.0</ele><time>2026-05-02T13:10:21Z</time></trkpt><trkpt lat="43.4360005106463" lon="13.583893546235004"><ele>17.0</ele><time>2026-05-02T13:10:23Z</time></trkpt><trkpt lat="43.436100020950356" lon="13.583876086094783"><ele>17.0</ele><time>2026-05-02T13:10:25Z</time></trkpt><trkpt lat="43.43620675150773" lon="13.583867027992568"><ele>17.0</ele><time>2026-05-02T13:10:27Z</time></trkpt><trkpt lat="43.4363115290497" lon="13.583838958514251"><ele>17.0</ele><time>2026-05-02T13:10:29Z</time></trkpt><trkpt lat="43.436419771868124" lon="13.583823828133749"><ele>17.4</ele><time>2026-05-02T13:10:31Z</time></trkpt><trkpt lat="43.43653030952859" lon="13.583810913802798"><ele>17.799999999999997</ele><time>2026-05-02T13:10:33Z</time></trkpt><trkpt lat="43.43664225179353" lon="13.583812630786868"><ele>18.2</ele><time>2026-05-02T13:10:35Z</time></trkpt><trkpt lat="43.436753307980425" lon="13.583828882149938"><ele>18.599999999999998</ele><time>2026-05-02T13:10:37Z</time></trkpt><trkpt lat="43.43686500743847" lon="13.583839139845438"><ele>19.0</ele><time>2026-05-02T13:10:39Z</time></trkpt><trkpt lat="43.436977583136056" lon="13.583854572450749"><ele>19.0</ele><time>2026-05-02T13:10:41Z</time></trkpt><trkpt lat="43.43709056180436" lon="13.58388074929035"><ele>19.0</ele><time>2026-05-02T13:10:43Z</time></trkpt><trkpt lat="43.43720557390685" lon="13.583904011343794"><ele>19.0</ele><time>2026-05-02T13:10:45Z</time></trkpt><trkpt lat="43.437321799526906" lon="13.58391973433424"><ele>19.0</ele><time>2026-05-02T13:10:47Z</time></trkpt><trkpt lat="43.43743286975425" lon="13.583938940115548"><ele>19.0</ele><time>2026-05-02T13:10:49Z</time></trkpt><trkpt lat="43.43754699321853" lon="13.583944085599015"><ele>19.0</ele><time>2026-05-02T13:10:51Z</time></trkpt><trkpt lat="43.437660532469714" lon="13.583960009865317"><ele>19.0</ele><time>2026-05-02T13:10:53Z</time></trkpt><trkpt lat="43.43776951799143" lon="13.583980864044268"><ele>19.0</ele><time>2026-05-02T13:10:55Z</time></trkpt><trkpt lat="43.43787780947273" lon="13.583995088877654"><ele>19.0</ele><time>2026-05-02T13:10:56.999Z</time></trkpt><trkpt lat="43.437988533114606" lon="13.58400929501351"><ele>18.8</ele><time>2026-05-02T13:10:58.999Z</time></trkpt><trkpt lat="43.43809759266118" lon="13.58402222744861"><ele>18.599999999999998</ele><time>2026-05-02T13:11:00.999Z</time></trkpt><trkpt lat="43.43820130258759" lon="13.584036382531337"><ele>18.4</ele><time>2026-05-02T13:11:02.999Z</time></trkpt><trkpt lat="43.43831355808287" lon="13.584039634948386"><ele>18.2</ele><time>2026-05-02T13:11:04.999Z</time></trkpt><trkpt lat="43.438424225318656" lon="13.584033666192681"><ele>18.0</ele><time>2026-05-02T13:11:06.999Z</time></trkpt><trkpt lat="43.43853468655251" lon="13.584062310931005"><ele>18.0</ele><time>2026-05-02T13:11:08.999Z</time></trkpt><trkpt lat="43.43864859558267" lon="13.584061657977943"><ele>18.0</ele><time>2026-05-02T13:11:10.999Z</time></trkpt><trkpt lat="43.43875903834056" lon="13.58409615809952"><ele>18.0</ele><time>2026-05-02T13:11:12.999Z</time></trkpt><trkpt lat="43.43887042853734" lon="13.584107427591356"><ele>18.0</ele><time>2026-05-02T13:11:14.999Z</time></trkpt><trkpt lat="43.43898224946611" lon="13.58412171401799"><ele>17.75</ele><time>2026-05-02T13:11:16.999Z</time></trkpt><trkpt lat="43.43908782841813" lon="13.584135499669697"><ele>17.5</ele><time>2026-05-02T13:11:18.999Z</time></trkpt><trkpt lat="43.43926156434548" lon="13.584153700760739"><ele>17.25</ele><time>2026-05-02T13:11:21.999Z</time></trkpt><trkpt lat="43.43936043124985" lon="13.584173451181249"><ele>17.0</ele><time>2026-05-02T13:11:23.999Z</time></trkpt><trkpt lat="43.43941205178825" lon="13.58426067210359"><ele>17.0</ele><time>2026-05-02T13:11:24.999Z</time></trkpt><trkpt lat="43.43949614064772" lon="13.58437134622993"><ele>17.0</ele><time>2026-05-02T13:11:26.999Z</time></trkpt><trkpt lat="43.43956650813851" lon="13.584491586540903"><ele>17.0</ele><time>2026-05-02T13:11:28.999Z</time></trkpt><trkpt lat="43.439607833658314" lon="13.584648554508046"><ele>17.0</ele><time>2026-05-02T13:11:30.999Z</time></trkpt><trkpt lat="43.43966668156464" lon="13.584781501714405"><ele>16.75</ele><time>2026-05-02T13:11:32.999Z</time></trkpt><trkpt lat="43.43974117428784" lon="13.584900971187984"><ele>16.5</ele><time>2026-05-02T13:11:34.999Z</time></trkpt><trkpt lat="43.43981522768436" lon="13.58502392725294"><ele>16.25</ele><time>2026-05-02T13:11:36.999Z</time></trkpt><trkpt lat="43.439897956408956" lon="13.585132867519386"><ele>16.0</ele><time>2026-05-02T13:11:38.999Z</time></trkpt><trkpt lat="43.44000147845192" lon="13.585210589905435"><ele>16.0</ele><time>2026-05-02T13:11:40.999Z</time></trkpt><trkpt lat="43.440029199388704" lon="13.585297601245008"><ele>16.0</ele><time>2026-05-02T13:11:41.999Z</time></trkpt><trkpt lat="43.440121866202404" lon="13.585402148005535"><ele>16.0</ele><time>2026-05-02T13:11:43.999Z</time></trkpt><trkpt lat="43.440171757840716" lon="13.585456327332114"><ele>16.0</ele><time>2026-05-02T13:11:44.999Z</time></trkpt><trkpt lat="43.44026763946317" lon="13.585549050447906"><ele>16.0</ele><time>2026-05-02T13:11:46.999Z</time></trkpt><trkpt lat="43.44039138855415" lon="13.585589565112588"><ele>16.400000000000002</ele><time>2026-05-02T13:11:48.999Z</time></trkpt><trkpt lat="43.44048304201867" lon="13.58567969260626"><ele>16.8</ele><time>2026-05-02T13:11:50.999Z</time></trkpt><trkpt lat="43.44050616395736" lon="13.585794354185111"><ele>17.200000000000003</ele><time>2026-05-02T13:11:51.999Z</time></trkpt><trkpt lat="43.44055734783851" lon="13.58584522330753"><ele>17.6</ele><time>2026-05-02T13:11:52.999Z</time></trkpt><trkpt lat="43.44066040688049" lon="13.585925194055122"><ele>18.0</ele><time>2026-05-02T13:11:54.999Z</time></trkpt><trkpt lat="43.44076024810566" lon="13.586020934678187"><ele>18.0</ele><time>2026-05-02T13:11:56.999Z</time></trkpt><trkpt lat="43.44086389067605" lon="13.586107250592416"><ele>18.0</ele><time>2026-05-02T13:11:58.998Z</time></trkpt><trkpt lat="43.44097109673927" lon="13.586187703030685"><ele>18.0</ele><time>2026-05-02T13:12:00.998Z</time></trkpt><trkpt lat="43.441082133527225" lon="13.5862595536569"><ele>18.0</ele><time>2026-05-02T13:12:02.998Z</time></trkpt><trkpt lat="43.44118850892931" lon="13.586342577369713"><ele>18.25</ele><time>2026-05-02T13:12:04.998Z</time></trkpt><trkpt lat="43.44128608387479" lon="13.586442198652177"><ele>18.5</ele><time>2026-05-02T13:12:06.998Z</time></trkpt><trkpt lat="43.44139061224062" lon="13.586529623487277"><ele>18.75</ele><time>2026-05-02T13:12:08.998Z</time></trkpt><trkpt lat="43.44147745200252" lon="13.58662077506449"><ele>19.0</ele><time>2026-05-02T13:12:10.998Z</time></trkpt><trkpt lat="43.44157639552497" lon="13.586712633558857"><ele>18.599999999999998</ele><time>2026-05-02T13:12:12.998Z</time></trkpt><trkpt lat="43.44162982515312" lon="13.586763863786805"><ele>18.2</ele><time>2026-05-02T13:12:13.998Z</time></trkpt><trkpt lat="43.441728452595456" lon="13.58686441015017"><ele>17.799999999999997</ele><time>2026-05-02T13:12:16Z</time></trkpt><trkpt lat="43.44183352840252" lon="13.586959206881428"><ele>17.4</ele><time>2026-05-02T13:12:18Z</time></trkpt><trkpt lat="43.44193628186599" lon="13.587056448151664"><ele>17.0</ele><time>2026-05-02T13:12:20Z</time></trkpt><trkpt lat="43.441990178833905" lon="13.587103389633189"><ele>16.999999999999996</ele><time>2026-05-02T13:12:21Z</time></trkpt><trkpt lat="43.4420436352349" lon="13.587153856732817"><ele>17.0</ele><time>2026-05-02T13:12:22Z</time></trkpt><trkpt lat="43.44210028263438" lon="13.587200937684523"><ele>17.0</ele><time>2026-05-02T13:12:23Z</time></trkpt><trkpt lat="43.44215845276231" lon="13.587237356925025"><ele>17.0</ele><time>2026-05-02T13:12:24Z</time></trkpt><trkpt lat="43.44221733377027" lon="13.58727391240979"><ele>17.0</ele><time>2026-05-02T13:12:25Z</time></trkpt><trkpt lat="43.442263550954365" lon="13.587335578395917"><ele>16.999999999999996</ele><time>2026-05-02T13:12:26Z</time></trkpt><trkpt lat="43.442367800009585" lon="13.587423602641689"><ele>17.0</ele><time>2026-05-02T13:12:28Z</time></trkpt><trkpt lat="43.44246962120165" lon="13.587509576686182"><ele>16.75</ele><time>2026-05-02T13:12:30Z</time></trkpt><trkpt lat="43.442618458535435" lon="13.587447503442187"><ele>16.5</ele><time>2026-05-02T13:12:32Z</time></trkpt><trkpt lat="43.44273886355242" lon="13.587465359899701"><ele>16.25</ele><time>2026-05-02T13:12:34Z</time></trkpt><trkpt lat="43.44286160823222" lon="13.587471024548561"><ele>16.0</ele><time>2026-05-02T13:12:36Z</time></trkpt><trkpt lat="43.44297655835714" lon="13.587468991877563"><ele>16.0</ele><time>2026-05-02T13:12:38Z</time></trkpt><trkpt lat="43.44309273767993" lon="13.587491247518049"><ele>16.0</ele><time>2026-05-02T13:12:40Z</time></trkpt><trkpt lat="43.443201434684404" lon="13.58753838163391"><ele>16.0</ele><time>2026-05-02T13:12:42Z</time></trkpt><trkpt lat="43.44329113319488" lon="13.587602908657374"><ele>16.0</ele><time>2026-05-02T13:12:44Z</time></trkpt><trkpt lat="43.44333285522436" lon="13.587425492009718"><ele>16.0</ele><time>2026-05-02T13:12:48Z</time></trkpt><trkpt lat="43.44328849526214" lon="13.587322865583328"><ele>16.0</ele><time>2026-05-02T13:12:50Z</time></trkpt><trkpt lat="43.44323228890021" lon="13.587215208864487"><ele>16.0</ele><time>2026-05-02T13:12:52Z</time></trkpt><trkpt lat="43.44316509234777" lon="13.587091097206141"><ele>16.0</ele><time>2026-05-02T13:12:53.999Z</time></trkpt><trkpt lat="43.443127908367146" lon="13.587019269950027"><ele>16.0</ele><time>2026-05-02T13:12:54.999Z</time></trkpt><trkpt lat="43.44306338109768" lon="13.586871382219671"><ele>16.0</ele><time>2026-05-02T13:12:56.999Z</time></trkpt><trkpt lat="43.443023281484415" lon="13.58671495461425"><ele>16.0</ele><time>2026-05-02T13:12:58.999Z</time></trkpt><trkpt lat="43.443004548518154" lon="13.586545959035767"><ele>16.0</ele><time>2026-05-02T13:13:00.999Z</time></trkpt><trkpt lat="43.44297275639451" lon="13.586380950291622"><ele>16.0</ele><time>2026-05-02T13:13:02.999Z</time></trkpt><trkpt lat="43.44295665416496" lon="13.586222514007295"><ele>15.8</ele><time>2026-05-02T13:13:04.999Z</time></trkpt><trkpt lat="43.44296671591671" lon="13.586063616661082"><ele>15.600000000000001</ele><time>2026-05-02T13:13:06.999Z</time></trkpt><trkpt lat="43.44299658381214" lon="13.58595388626322"><ele>15.4</ele><time>2026-05-02T13:13:08.999Z</time></trkpt><trkpt lat="43.443085282257734" lon="13.585939467864156"><ele>15.2</ele><time>2026-05-02T13:13:09.999Z</time></trkpt><trkpt lat="43.44318303529497" lon="13.585924058874769"><ele>15.0</ele><time>2026-05-02T13:13:11.999Z</time></trkpt><trkpt lat="43.443286450312975" lon="13.58589219443506"><ele>15.0</ele><time>2026-05-02T13:13:13.999Z</time></trkpt><trkpt lat="43.44340555043814" lon="13.585857310138065"><ele>15.0</ele><time>2026-05-02T13:13:15.999Z</time></trkpt><trkpt lat="43.44347179980572" lon="13.58583888906973"><ele>15.0</ele><time>2026-05-02T13:13:16.999Z</time></trkpt><trkpt lat="43.44354116162801" lon="13.585848361889406"><ele>15.0</ele><time>2026-05-02T13:13:17.999Z</time></trkpt><trkpt lat="43.443660691419126" lon="13.585840337866536"><ele>15.0</ele><time>2026-05-02T13:13:19.999Z</time></trkpt><trkpt lat="43.443765265657845" lon="13.585813009983601"><ele>14.75</ele><time>2026-05-02T13:13:21.999Z</time></trkpt><trkpt lat="43.44379927081412" lon="13.585627753022795"><ele>14.5</ele><time>2026-05-02T13:13:25.999Z</time></trkpt><trkpt lat="43.443829875187234" lon="13.585495965234015"><ele>14.25</ele><time>2026-05-02T13:13:27.999Z</time></trkpt><trkpt lat="43.44385719989307" lon="13.585352610859951"><ele>14.0</ele><time>2026-05-02T13:13:29.999Z</time></trkpt><trkpt lat="43.44389117653036" lon="13.585195716828839"><ele>14.399999999999999</ele><time>2026-05-02T13:13:31.999Z</time></trkpt><trkpt lat="43.4439319143189" lon="13.585068744618606"><ele>14.799999999999999</ele><time>2026-05-02T13:13:33.999Z</time></trkpt><trkpt lat="43.44394466892572" lon="13.584918093702864"><ele>15.200000000000001</ele><time>2026-05-02T13:13:35.999Z</time></trkpt><trkpt lat="43.44397521759672" lon="13.584770661847957"><ele>15.600000000000001</ele><time>2026-05-02T13:13:37.999Z</time></trkpt><trkpt lat="43.44399454013878" lon="13.584610408811502"><ele>16.0</ele><time>2026-05-02T13:13:39.999Z</time></trkpt><trkpt lat="43.44400898002851" lon="13.584452916132012"><ele>16.0</ele><time>2026-05-02T13:13:41.999Z</time></trkpt><trkpt lat="43.4440301827825" lon="13.584296984829393"><ele>16.0</ele><time>2026-05-02T13:13:43.999Z</time></trkpt><trkpt lat="43.44402706071334" lon="13.584141072636797"><ele>16.0</ele><time>2026-05-02T13:13:45.999Z</time></trkpt><trkpt lat="43.444031558227245" lon="13.583985446236456"><ele>16.0</ele><time>2026-05-02T13:13:47.999Z</time></trkpt><trkpt lat="43.44402522010292" lon="13.583832441927354"><ele>16.0</ele><time>2026-05-02T13:13:49.999Z</time></trkpt><trkpt lat="43.44400011811651" lon="13.583688104588832"><ele>16.0</ele><time>2026-05-02T13:13:51.999Z</time></trkpt><trkpt lat="43.44394959822586" lon="13.583552707242758"><ele>16.0</ele><time>2026-05-02T13:13:53.999Z</time></trkpt><trkpt lat="43.44391139261079" lon="13.58341386202445"><ele>16.0</ele><time>2026-05-02T13:13:55.999Z</time></trkpt><trkpt lat="43.443866681984794" lon="13.583264575332093"><ele>16.0</ele><time>2026-05-02T13:13:57.999Z</time></trkpt><trkpt lat="43.44381843664321" lon="13.583118173342166"><ele>16.0</ele><time>2026-05-02T13:13:59.998Z</time></trkpt><trkpt lat="43.44377684288015" lon="13.582966231165097"><ele>16.0</ele><time>2026-05-02T13:14:01.998Z</time></trkpt><trkpt lat="43.443733927717695" lon="13.582821442219492"><ele>16.0</ele><time>2026-05-02T13:14:03.998Z</time></trkpt><trkpt lat="43.44370852497712" lon="13.582741539906408"><ele>16.0</ele><time>2026-05-02T13:14:04.998Z</time></trkpt><trkpt lat="43.44366241836969" lon="13.582593722144402"><ele>16.0</ele><time>2026-05-02T13:14:06.998Z</time></trkpt><trkpt lat="43.4436343398268" lon="13.582438171566867"><ele>15.8</ele><time>2026-05-02T13:14:08.998Z</time></trkpt><trkpt lat="43.44358237807819" lon="13.582291965619115"><ele>15.600000000000001</ele><time>2026-05-02T13:14:10.998Z</time></trkpt><trkpt lat="43.443542160979284" lon="13.58215742531537"><ele>15.4</ele><time>2026-05-02T13:14:12.998Z</time></trkpt><trkpt lat="43.44350880225003" lon="13.582008029519015"><ele>15.2</ele><time>2026-05-02T13:14:14.998Z</time></trkpt><trkpt lat="43.44348183872745" lon="13.581876155568894"><ele>15.0</ele><time>2026-05-02T13:14:16.998Z</time></trkpt><trkpt lat="43.44347005910226" lon="13.581722974479284"><ele>15.0</ele><time>2026-05-02T13:14:18.998Z</time></trkpt><trkpt lat="43.44351630692186" lon="13.581637887382135"><ele>15.0</ele><time>2026-05-02T13:14:20.998Z</time></trkpt><trkpt lat="43.443581232979426" lon="13.581654001728342"><ele>15.0</ele><time>2026-05-02T13:14:22Z</time></trkpt><trkpt lat="43.443681383520335" lon="13.581668535077261"><ele>15.0</ele><time>2026-05-02T13:14:24Z</time></trkpt><trkpt lat="43.44378958727433" lon="13.581665382181846"><ele>15.0</ele><time>2026-05-02T13:14:26Z</time></trkpt><trkpt lat="43.443903284523884" lon="13.581658110214343"><ele>15.4</ele><time>2026-05-02T13:14:28Z</time></trkpt><trkpt lat="43.444010647491424" lon="13.581634794470714"><ele>15.8</ele><time>2026-05-02T13:14:30Z</time></trkpt><trkpt lat="43.44411239029803" lon="13.58158376535392"><ele>16.2</ele><time>2026-05-02T13:14:32Z</time></trkpt><trkpt lat="43.444209244769354" lon="13.581509711306007"><ele>16.6</ele><time>2026-05-02T13:14:34Z</time></trkpt><trkpt lat="43.44430344879063" lon="13.581434678441024"><ele>17.0</ele><time>2026-05-02T13:14:36Z</time></trkpt><trkpt lat="43.444402766367354" lon="13.581357828024924"><ele>17.0</ele><time>2026-05-02T13:14:38Z</time></trkpt><trkpt lat="43.444502513970875" lon="13.581274006939667"><ele>17.0</ele><time>2026-05-02T13:14:40Z</time></trkpt><trkpt lat="43.44460283832024" lon="13.581191249968652"><ele>17.0</ele><time>2026-05-02T13:14:42Z</time></trkpt><trkpt lat="43.44470565788935" lon="13.58110463540637"><ele>17.0</ele><time>2026-05-02T13:14:44Z</time></trkpt><trkpt lat="43.44480869971438" lon="13.58101880762259"><ele>16.25</ele><time>2026-05-02T13:14:46Z</time></trkpt><trkpt lat="43.44491188422419" lon="13.580933442681964"><ele>15.5</ele><time>2026-05-02T13:14:48Z</time></trkpt><trkpt lat="43.44501307998857" lon="13.580849499871135"><ele>14.75</ele><time>2026-05-02T13:14:50Z</time></trkpt><trkpt lat="43.445116960835925" lon="13.580762916835255"><ele>14.0</ele><time>2026-05-02T13:14:52Z</time></trkpt><trkpt lat="43.44521990687743" lon="13.580680524907159"><ele>14.0</ele><time>2026-05-02T13:14:54Z</time></trkpt><trkpt lat="43.44532120131262" lon="13.580596221071984"><ele>14.0</ele><time>2026-05-02T13:14:55.999Z</time></trkpt><trkpt lat="43.445422508747704" lon="13.580514702971755"><ele>14.0</ele><time>2026-05-02T13:14:57.999Z</time></trkpt><trkpt lat="43.445523622353065" lon="13.580440064547286"><ele>14.0</ele><time>2026-05-02T13:14:59.999Z</time></trkpt><trkpt lat="43.445621688442706" lon="13.580362269492754"><ele>14.5</ele><time>2026-05-02T13:15:01.999Z</time></trkpt><trkpt lat="43.4457222519543" lon="13.580276185157572"><ele>15.0</ele><time>2026-05-02T13:15:03.999Z</time></trkpt><trkpt lat="43.44581907106681" lon="13.580196772801903"><ele>15.5</ele><time>2026-05-02T13:15:05.999Z</time></trkpt><trkpt lat="43.44591697708033" lon="13.580116044275202"><ele>16.0</ele><time>2026-05-02T13:15:07.999Z</time></trkpt><trkpt lat="43.44602567600886" lon="13.580045930605898"><ele>16.0</ele><time>2026-05-02T13:15:09.999Z</time></trkpt><trkpt lat="43.44611999130977" lon="13.579950024164196"><ele>16.0</ele><time>2026-05-02T13:15:11.999Z</time></trkpt><trkpt lat="43.446222313546976" lon="13.579867153370873"><ele>16.0</ele><time>2026-05-02T13:15:13.999Z</time></trkpt><trkpt lat="43.44631123753361" lon="13.579792707679777"><ele>16.0</ele><time>2026-05-02T13:15:15.999Z</time></trkpt><trkpt lat="43.44641057321079" lon="13.5797210770865"><ele>15.75</ele><time>2026-05-02T13:15:17.999Z</time></trkpt><trkpt lat="43.44650858212226" lon="13.579641003497764"><ele>15.5</ele><time>2026-05-02T13:15:19.999Z</time></trkpt><trkpt lat="43.44660348927569" lon="13.579563241235709"><ele>15.25</ele><time>2026-05-02T13:15:21.999Z</time></trkpt><trkpt lat="43.44670294478912" lon="13.579482628086604"><ele>15.0</ele><time>2026-05-02T13:15:23.999Z</time></trkpt><trkpt lat="43.44680037912146" lon="13.579399163394774"><ele>15.0</ele><time>2026-05-02T13:15:25.999Z</time></trkpt><trkpt lat="43.44690152025866" lon="13.579319328607415"><ele>15.0</ele><time>2026-05-02T13:15:27.999Z</time></trkpt><trkpt lat="43.44700011458923" lon="13.579240204604998"><ele>15.0</ele><time>2026-05-02T13:15:29.999Z</time></trkpt><trkpt lat="43.447102752228886" lon="13.579145601366681"><ele>15.0</ele><time>2026-05-02T13:15:31.999Z</time></trkpt><trkpt lat="43.44719525960658" lon="13.579062375575825"><ele>15.0</ele><time>2026-05-02T13:15:33.999Z</time></trkpt><trkpt lat="43.4472786843669" lon="13.578979818610184"><ele>15.0</ele><time>2026-05-02T13:15:35.999Z</time></trkpt><trkpt lat="43.44736439322922" lon="13.578931854698139"><ele>15.0</ele><time>2026-05-02T13:15:37.999Z</time></trkpt><trkpt lat="43.44743768744663" lon="13.578869142456686"><ele>15.0</ele><time>2026-05-02T13:15:39.999Z</time></trkpt><trkpt lat="43.447498293515444" lon="13.578817474940491"><ele>15.0</ele><time>2026-05-02T13:15:41.999Z</time></trkpt><trkpt lat="43.447575203811155" lon="13.578751872338923"><ele>15.0</ele><time>2026-05-02T13:15:43.999Z</time></trkpt><trkpt lat="43.447576894335846" lon="13.578625644921521"><ele>15.0</ele><time>2026-05-02T13:15:44.999Z</time></trkpt><trkpt lat="43.44766702372536" lon="13.578551118880728"><ele>15.0</ele><time>2026-05-02T13:15:46.999Z</time></trkpt><trkpt lat="43.44776110155538" lon="13.578464419485146"><ele>15.0</ele><time>2026-05-02T13:15:48.999Z</time></trkpt><trkpt lat="43.447856180089396" lon="13.578386801337507"><ele>15.0</ele><time>2026-05-02T13:15:50.999Z</time></trkpt><trkpt lat="43.4479494247771" lon="13.57830959235001"><ele>15.0</ele><time>2026-05-02T13:15:52.999Z</time></trkpt><trkpt lat="43.448042205346994" lon="13.57823120011774"><ele>15.2</ele><time>2026-05-02T13:15:54.999Z</time></trkpt><trkpt lat="43.44813561613939" lon="13.5781594625656"><ele>15.4</ele><time>2026-05-02T13:15:56.999Z</time></trkpt><trkpt lat="43.44822984673751" lon="13.57808747236687"><ele>15.600000000000001</ele><time>2026-05-02T13:15:58.999Z</time></trkpt><trkpt lat="43.448318272584466" lon="13.578013188825972"><ele>15.8</ele><time>2026-05-02T13:16:00.999Z</time></trkpt><trkpt lat="43.448408916533076" lon="13.577941344926904"><ele>16.0</ele><time>2026-05-02T13:16:02.999Z</time></trkpt><trkpt lat="43.44849682433411" lon="13.57786946738014"><ele>16.6</ele><time>2026-05-02T13:16:04.999Z</time></trkpt><trkpt lat="43.448587057591126" lon="13.577797765551727"><ele>17.200000000000003</ele><time>2026-05-02T13:16:06.998Z</time></trkpt><trkpt lat="43.44867538405976" lon="13.577722819039908"><ele>17.799999999999997</ele><time>2026-05-02T13:16:08.998Z</time></trkpt><trkpt lat="43.44876784170424" lon="13.577648630641091"><ele>18.4</ele><time>2026-05-02T13:16:10.998Z</time></trkpt><trkpt lat="43.44885107399857" lon="13.577563787950726"><ele>19.0</ele><time>2026-05-02T13:16:12.998Z</time></trkpt><trkpt lat="43.44894242145804" lon="13.577495725483216"><ele>19.0</ele><time>2026-05-02T13:16:14.998Z</time></trkpt><trkpt lat="43.44903440793619" lon="13.577424823859825"><ele>19.0</ele><time>2026-05-02T13:16:16.998Z</time></trkpt><trkpt lat="43.44912066317323" lon="13.577345532549613"><ele>19.0</ele><time>2026-05-02T13:16:18.998Z</time></trkpt><trkpt lat="43.44921057791461" lon="13.577269489291917"><ele>19.0</ele><time>2026-05-02T13:16:20.998Z</time></trkpt><trkpt lat="43.44930106410492" lon="13.577193189778242"><ele>19.0</ele><time>2026-05-02T13:16:22.998Z</time></trkpt><trkpt lat="43.44939601336426" lon="13.577117137000235"><ele>19.0</ele><time>2026-05-02T13:16:24.998Z</time></trkpt><trkpt lat="43.44948304894453" lon="13.57704110200329"><ele>19.0</ele><time>2026-05-02T13:16:26.998Z</time></trkpt><trkpt lat="43.44956345063819" lon="13.57697287033552"><ele>19.0</ele><time>2026-05-02T13:16:29Z</time></trkpt><trkpt lat="43.44963668407838" lon="13.576935197203088"><ele>19.0</ele><time>2026-05-02T13:16:31Z</time></trkpt><trkpt lat="43.44969961581836" lon="13.576949585948148"><ele>19.0</ele><time>2026-05-02T13:16:33Z</time></trkpt><trkpt lat="43.449769868605614" lon="13.576975340915459"><ele>19.0</ele><time>2026-05-02T13:16:35Z</time></trkpt><trkpt lat="43.44985861915012" lon="13.576968360024795"><ele>19.4</ele><time>2026-05-02T13:16:37Z</time></trkpt><trkpt lat="43.44994695282114" lon="13.57692609791613"><ele>19.799999999999997</ele><time>2026-05-02T13:16:39Z</time></trkpt><trkpt lat="43.450009868062764" lon="13.576823730552881"><ele>20.200000000000003</ele><time>2026-05-02T13:16:41Z</time></trkpt><trkpt lat="43.45003597961735" lon="13.57668232143921"><ele>20.6</ele><time>2026-05-02T13:16:43Z</time></trkpt><trkpt lat="43.45003798557454" lon="13.576540200448157"><ele>21.0</ele><time>2026-05-02T13:16:45Z</time></trkpt><trkpt lat="43.44998959681478" lon="13.576481175486753"><ele>21.0</ele><time>2026-05-02T13:16:47Z</time></trkpt><trkpt lat="43.45014172174468" lon="13.57640699733575"><ele>21.0</ele><time>2026-05-02T13:16:48Z</time></trkpt><trkpt lat="43.45021792991742" lon="13.57633759785617"><ele>21.0</ele><time>2026-05-02T13:16:50Z</time></trkpt><trkpt lat="43.45028685257672" lon="13.576279701847604"><ele>21.0</ele><time>2026-05-02T13:16:52Z</time></trkpt><trkpt lat="43.45035889641373" lon="13.576219184007394"><ele>21.0</ele><time>2026-05-02T13:16:54Z</time></trkpt><trkpt lat="43.450424313426396" lon="13.576143801164404"><ele>21.833333333333332</ele><time>2026-05-02T13:16:56Z</time></trkpt><trkpt lat="43.45048943267629" lon="13.576084124733798"><ele>22.666666666666664</ele><time>2026-05-02T13:16:58Z</time></trkpt><trkpt lat="43.45055819251252" lon="13.576027716433918"><ele>23.5</ele><time>2026-05-02T13:17:00Z</time></trkpt><trkpt lat="43.45062512424868" lon="13.575975485156889"><ele>24.333333333333332</ele><time>2026-05-02T13:17:02Z</time></trkpt><trkpt lat="43.450690195571326" lon="13.575922162535022"><ele>25.166666666666664</ele><time>2026-05-02T13:17:03.999Z</time></trkpt><trkpt lat="43.45076150724022" lon="13.575886453552254"><ele>26.0</ele><time>2026-05-02T13:17:05.999Z</time></trkpt><trkpt lat="43.45082192932708" lon="13.575835379867033"><ele>26.0</ele><time>2026-05-02T13:17:07.999Z</time></trkpt><trkpt lat="43.45087699486662" lon="13.575767107758743"><ele>26.0</ele><time>2026-05-02T13:17:09.999Z</time></trkpt><trkpt lat="43.450934048657864" lon="13.575723539166178"><ele>26.0</ele><time>2026-05-02T13:17:11.999Z</time></trkpt><trkpt lat="43.45099362264098" lon="13.575673264888371"><ele>26.0</ele><time>2026-05-02T13:17:13.999Z</time></trkpt><trkpt lat="43.451048669555156" lon="13.575623219698285"><ele>26.0</ele><time>2026-05-02T13:17:15.999Z</time></trkpt><trkpt lat="43.45110375814317" lon="13.575578848495052"><ele>26.0</ele><time>2026-05-02T13:17:17.999Z</time></trkpt><trkpt lat="43.451158822609976" lon="13.575533450462489"><ele>26.0</ele><time>2026-05-02T13:17:19.999Z</time></trkpt><trkpt lat="43.451212452238636" lon="13.57548601707786"><ele>26.999999999999996</ele><time>2026-05-02T13:17:21.999Z</time></trkpt><trkpt lat="43.45129577612218" lon="13.575440228749953"><ele>28.0</ele><time>2026-05-02T13:17:24.999Z</time></trkpt><trkpt lat="43.451353272146726" lon="13.575367969522715"><ele>29.0</ele><time>2026-05-02T13:17:27.999Z</time></trkpt><trkpt lat="43.45141203250527" lon="13.575322111746981"><ele>30.0</ele><time>2026-05-02T13:17:30.999Z</time></trkpt><trkpt lat="43.451468947574966" lon="13.575283020480988"><ele>30.999999999999996</ele><time>2026-05-02T13:17:33.999Z</time></trkpt><trkpt lat="43.451555937297606" lon="13.57544887821345"><ele>32.0</ele><time>2026-05-02T13:17:38.999Z</time></trkpt><trkpt lat="43.451589804184124" lon="13.575532852184708"><ele>32.0</ele><time>2026-05-02T13:17:40.999Z</time></trkpt><trkpt lat="43.451632952611725" lon="13.575628857060266"><ele>31.999999999999996</ele><time>2026-05-02T13:17:43.999Z</time></trkpt><trkpt lat="43.45168043569737" lon="13.575717193008419"><ele>32.0</ele><time>2026-05-02T13:17:46.999Z</time></trkpt><trkpt lat="43.45171527369907" lon="13.575789539139919"><ele>32.0</ele><time>2026-05-02T13:17:48.999Z</time></trkpt><trkpt lat="43.45175966701743" lon="13.575866051948136"><ele>31.999999999999996</ele><time>2026-05-02T13:17:50.999Z</time></trkpt><trkpt lat="43.451807833234334" lon="13.575941007443832"><ele>32.0</ele><time>2026-05-02T13:17:52.999Z</time></trkpt><trkpt lat="43.45185333261739" lon="13.576009436700264"><ele>32.0</ele><time>2026-05-02T13:17:54.999Z</time></trkpt><trkpt lat="43.451894270117656" lon="13.576079816367196"><ele>32.0</ele><time>2026-05-02T13:17:56.999Z</time></trkpt><trkpt lat="43.45193774854132" lon="13.57614956704022"><ele>31.999999999999996</ele><time>2026-05-02T13:17:58.999Z</time></trkpt><trkpt lat="43.45197586630957" lon="13.57622357126966"><ele>32.0</ele><time>2026-05-02T13:18:00.999Z</time></trkpt><trkpt lat="43.452017800598064" lon="13.57629021372007"><ele>32.0</ele><time>2026-05-02T13:18:02.999Z</time></trkpt><trkpt lat="43.452076812260536" lon="13.576397866018688"><ele>31.999999999999996</ele><time>2026-05-02T13:18:05.999Z</time></trkpt><trkpt lat="43.45210972944001" lon="13.576473407138083"><ele>32.0</ele><time>2026-05-02T13:18:07.999Z</time></trkpt><trkpt lat="43.45217625620315" lon="13.57648761820488"><ele>32.0</ele><time>2026-05-02T13:18:10.999Z</time></trkpt><trkpt lat="43.45222863258354" lon="13.576400426844257"><ele>32.166666666666664</ele><time>2026-05-02T13:18:13.999Z</time></trkpt><trkpt lat="43.45229489507669" lon="13.576329872615794"><ele>32.33333333333333</ele><time>2026-05-02T13:18:16.998Z</time></trkpt><trkpt lat="43.4523613572558" lon="13.576251748370035"><ele>32.5</ele><time>2026-05-02T13:18:19.998Z</time></trkpt><trkpt lat="43.45242518534948" lon="13.576178730966745"><ele>32.666666666666664</ele><time>2026-05-02T13:18:22.998Z</time></trkpt><trkpt lat="43.45249187111756" lon="13.576104232363969"><ele>32.833333333333336</ele><time>2026-05-02T13:18:25.998Z</time></trkpt><trkpt lat="43.45255531069917" lon="13.576031973142134"><ele>33.0</ele><time>2026-05-02T13:18:28.998Z</time></trkpt><trkpt lat="43.4526154577538" lon="13.57594908113324"><ele>33.666666666666664</ele><time>2026-05-02T13:18:31.998Z</time></trkpt><trkpt lat="43.452683612753326" lon="13.575872122104157"><ele>34.333333333333336</ele><time>2026-05-02T13:18:35Z</time></trkpt><trkpt lat="43.45275044502601" lon="13.575796586758297"><ele>35.0</ele><time>2026-05-02T13:18:38Z</time></trkpt><trkpt lat="43.45281762061282" lon="13.575712748059374"><ele>35.66666666666667</ele><time>2026-05-02T13:18:41Z</time></trkpt><trkpt lat="43.4528797697107" lon="13.575646672924856"><ele>36.333333333333336</ele><time>2026-05-02T13:18:44Z</time></trkpt><trkpt lat="43.45293382116309" lon="13.575570958772328"><ele>37.0</ele><time>2026-05-02T13:18:47Z</time></trkpt><trkpt lat="43.452994831734586" lon="13.575505599303309"><ele>37.833333333333336</ele><time>2026-05-02T13:18:50Z</time></trkpt><trkpt lat="43.453055182440316" lon="13.575439878623126"><ele>38.66666666666667</ele><time>2026-05-02T13:18:53Z</time></trkpt><trkpt lat="43.45311317829565" lon="13.575367280598234"><ele>39.5</ele><time>2026-05-02T13:18:56Z</time></trkpt><trkpt lat="43.45317845229583" lon="13.57529388407388"><ele>40.333333333333336</ele><time>2026-05-02T13:18:59Z</time></trkpt><trkpt lat="43.453234636175544" lon="13.575228974482373"><ele>41.166666666666664</ele><time>2026-05-02T13:19:02Z</time></trkpt><trkpt lat="43.453304475344794" lon="13.575151447484611"><ele>42.0</ele><time>2026-05-02T13:19:05Z</time></trkpt><trkpt lat="43.45336632485755" lon="13.575082901969898"><ele>43.166666666666664</ele><time>2026-05-02T13:19:08Z</time></trkpt><trkpt lat="43.45342998541601" lon="13.575002681727945"><ele>44.33333333333333</ele><time>2026-05-02T13:19:11Z</time></trkpt><trkpt lat="43.453491382941046" lon="13.574928099914347"><ele>45.5</ele><time>2026-05-02T13:19:14Z</time></trkpt><trkpt lat="43.45355709246344" lon="13.57484993517004"><ele>46.666666666666664</ele><time>2026-05-02T13:19:17Z</time></trkpt><trkpt lat="43.45362074600636" lon="13.574776535472797"><ele>47.83333333333333</ele><time>2026-05-02T13:19:19.999Z</time></trkpt><trkpt lat="43.45368071390555" lon="13.57470784949324"><ele>49.0</ele><time>2026-05-02T13:19:22.999Z</time></trkpt><trkpt lat="43.453869399037906" lon="13.574775135129064"><ele>48.99999999999999</ele><time>2026-05-02T13:19:23.999Z</time></trkpt><trkpt lat="43.45379036115841" lon="13.57471407528167"><ele>49.0</ele><time>2026-05-02T13:19:30.999Z</time></trkpt><trkpt lat="43.45375379351033" lon="13.574835530137765"><ele>49.0</ele><time>2026-05-02T13:19:32.999Z</time></trkpt><trkpt lat="43.45371309725427" lon="13.57495253854247"><ele>49.0</ele><time>2026-05-02T13:19:34.999Z</time></trkpt><trkpt lat="43.45367643525502" lon="13.575054981311265"><ele>48.99999999999999</ele><time>2026-05-02T13:19:36.999Z</time></trkpt><trkpt lat="43.453693782502455" lon="13.575145832727245"><ele>49.0</ele><time>2026-05-02T13:19:39.999Z</time></trkpt><trkpt lat="43.45371445274042" lon="13.575278607397063"><ele>49.57142857142857</ele><time>2026-05-02T13:19:42.999Z</time></trkpt><trkpt lat="43.45374475427536" lon="13.575356020015068"><ele>50.14285714285714</ele><time>2026-05-02T13:19:43.999Z</time></trkpt><trkpt lat="43.453783195945746" lon="13.575454228770276"><ele>50.714285714285715</ele><time>2026-05-02T13:19:45.999Z</time></trkpt><trkpt lat="43.453815117908555" lon="13.575535781396514"><ele>51.285714285714285</ele><time>2026-05-02T13:19:47.999Z</time></trkpt><trkpt lat="43.45384641317524" lon="13.575615732944783"><ele>51.857142857142854</ele><time>2026-05-02T13:19:49.999Z</time></trkpt><trkpt lat="43.4538910310867" lon="13.575700134131306"><ele>52.42857142857143</ele><time>2026-05-02T13:19:51.999Z</time></trkpt><trkpt lat="43.453933873281755" lon="13.57579857801744"><ele>53.0</ele><time>2026-05-02T13:19:53.999Z</time></trkpt><trkpt lat="43.453951674763864" lon="13.575899734972158"><ele>53.00000000000001</ele><time>2026-05-02T13:19:55.999Z</time></trkpt><trkpt lat="43.45398490557772" lon="13.575993828161664"><ele>53.0</ele><time>2026-05-02T13:19:57.999Z</time></trkpt><trkpt lat="43.45402172166235" lon="13.576098073056965"><ele>53.0</ele><time>2026-05-02T13:19:59.999Z</time></trkpt><trkpt lat="43.45406859995986" lon="13.576181126397945"><ele>53.0</ele><time>2026-05-02T13:20:01.999Z</time></trkpt><trkpt lat="43.454100791815485" lon="13.576279574782637"><ele>53.00000000000001</ele><time>2026-05-02T13:20:03.999Z</time></trkpt><trkpt lat="43.454136560196375" lon="13.576378908248401"><ele>53.0</ele><time>2026-05-02T13:20:05.999Z</time></trkpt><trkpt lat="43.45417095668936" lon="13.57647875591831"><ele>52.50000000000001</ele><time>2026-05-02T13:20:07.999Z</time></trkpt><trkpt lat="43.45420239526729" lon="13.576574916223317"><ele>52.0</ele><time>2026-05-02T13:20:09.999Z</time></trkpt><trkpt lat="43.45424140668989" lon="13.576676272048969"><ele>51.5</ele><time>2026-05-02T13:20:11.999Z</time></trkpt><trkpt lat="43.45427507093005" lon="13.576763565152026"><ele>51.0</ele><time>2026-05-02T13:20:13.999Z</time></trkpt><trkpt lat="43.45430165492892" lon="13.576881846322697"><ele>50.50000000000001</ele><time>2026-05-02T13:20:15.999Z</time></trkpt><trkpt lat="43.45435393160481" lon="13.576976111490271"><ele>50.0</ele><time>2026-05-02T13:20:17.999Z</time></trkpt><trkpt lat="43.454379192274395" lon="13.577093155536186"><ele>49.50000000000001</ele><time>2026-05-02T13:20:19.999Z</time></trkpt><trkpt lat="43.45441584061189" lon="13.577190429281057"><ele>49.0</ele><time>2026-05-02T13:20:21.999Z</time></trkpt><trkpt lat="43.45446983910668" lon="13.577288148601184"><ele>48.5</ele><time>2026-05-02T13:20:23.999Z</time></trkpt><trkpt lat="43.4545106639294" lon="13.57739357136751"><ele>48.0</ele><time>2026-05-02T13:20:25.999Z</time></trkpt><trkpt lat="43.454552415797416" lon="13.577496315309865"><ele>47.5</ele><time>2026-05-02T13:20:27.999Z</time></trkpt><trkpt lat="43.45460465230718" lon="13.577594243515263"><ele>47.0</ele><time>2026-05-02T13:20:29.999Z</time></trkpt><trkpt lat="43.45465160750792" lon="13.577683140501895"><ele>47.666666666666664</ele><time>2026-05-02T13:20:31.999Z</time></trkpt><trkpt lat="43.45470962751727" lon="13.577771779676228"><ele>48.33333333333333</ele><time>2026-05-02T13:20:33.999Z</time></trkpt><trkpt lat="43.45475910114639" lon="13.577856532162734"><ele>49.0</ele><time>2026-05-02T13:20:35.998Z</time></trkpt><trkpt lat="43.45481754864059" lon="13.577922605492303"><ele>49.666666666666664</ele><time>2026-05-02T13:20:37.998Z</time></trkpt><trkpt lat="43.45487663241361" lon="13.577979927159426"><ele>50.333333333333336</ele><time>2026-05-02T13:20:40Z</time></trkpt><trkpt lat="43.45492969064824" lon="13.57803318649418"><ele>51.0</ele><time>2026-05-02T13:20:42Z</time></trkpt><trkpt lat="43.4550237150682" lon="13.57808650904126"><ele>51.0</ele><time>2026-05-02T13:20:45Z</time></trkpt><trkpt lat="43.45518844626961" lon="13.578608959419478"><ele>51.0</ele><time>2026-05-02T13:20:52Z</time></trkpt><trkpt lat="43.45527847986494" lon="13.578745265029601"><ele>49.714285714285715</ele><time>2026-05-02T13:20:54Z</time></trkpt><trkpt lat="43.45532027831281" lon="13.57881983109061"><ele>48.42857142857143</ele><time>2026-05-02T13:20:55Z</time></trkpt><trkpt lat="43.455354656128804" lon="13.578894728596666"><ele>47.14285714285714</ele><time>2026-05-02T13:20:56Z</time></trkpt><trkpt lat="43.45541967409639" lon="13.578968805721557"><ele>45.85714285714286</ele><time>2026-05-02T13:20:57Z</time></trkpt><trkpt lat="43.455469184890994" lon="13.57904697823491"><ele>44.57142857142857</ele><time>2026-05-02T13:20:58Z</time></trkpt><trkpt lat="43.45553433802173" lon="13.579121428161686"><ele>43.285714285714285</ele><time>2026-05-02T13:20:59Z</time></trkpt><trkpt lat="43.455562909885934" lon="13.579211569696012"><ele>42.0</ele><time>2026-05-02T13:21:00Z</time></trkpt><trkpt lat="43.45561699062107" lon="13.57929314566379"><ele>41.666666666666664</ele><time>2026-05-02T13:21:01Z</time></trkpt><trkpt lat="43.45566922460454" lon="13.579372609923988"><ele>41.333333333333336</ele><time>2026-05-02T13:21:02Z</time></trkpt><trkpt lat="43.455721136654454" lon="13.579449633585114"><ele>41.0</ele><time>2026-05-02T13:21:03Z</time></trkpt><trkpt lat="43.45577051999126" lon="13.579544153149376"><ele>40.66666666666667</ele><time>2026-05-02T13:21:04Z</time></trkpt><trkpt lat="43.45582437671135" lon="13.579629738467759"><ele>40.333333333333336</ele><time>2026-05-02T13:21:05Z</time></trkpt><trkpt lat="43.45587423596383" lon="13.579726172714674"><ele>40.0</ele><time>2026-05-02T13:21:06Z</time></trkpt><trkpt lat="43.45593243103776" lon="13.579810921218881"><ele>39.0</ele><time>2026-05-02T13:21:07Z</time></trkpt><trkpt lat="43.455994839970735" lon="13.579909333493474"><ele>38.0</ele><time>2026-05-02T13:21:08Z</time></trkpt><trkpt lat="43.45606264873697" lon="13.579997420567604"><ele>37.0</ele><time>2026-05-02T13:21:09Z</time></trkpt><trkpt lat="43.45611795312452" lon="13.580103603250235"><ele>36.0</ele><time>2026-05-02T13:21:10Z</time></trkpt><trkpt lat="43.45617399842635" lon="13.580203621275421"><ele>35.0</ele><time>2026-05-02T13:21:11Z</time></trkpt><trkpt lat="43.456238580698106" lon="13.580319570377492"><ele>33.4</ele><time>2026-05-02T13:21:12Z</time></trkpt><trkpt lat="43.45630083603558" lon="13.580420336309942"><ele>31.8</ele><time>2026-05-02T13:21:13Z</time></trkpt><trkpt lat="43.45636996656696" lon="13.580512789869134"><ele>30.200000000000003</ele><time>2026-05-02T13:21:14Z</time></trkpt><trkpt lat="43.45643868343721" lon="13.58062357570402"><ele>28.6</ele><time>2026-05-02T13:21:15Z</time></trkpt><trkpt lat="43.4565005112531" lon="13.580739827158023"><ele>27.0</ele><time>2026-05-02T13:21:16Z</time></trkpt><trkpt lat="43.45657645121093" lon="13.580883603648548"><ele>27.0</ele><time>2026-05-02T13:21:17Z</time></trkpt><trkpt lat="43.45665785037382" lon="13.58100930197251"><ele>27.0</ele><time>2026-05-02T13:21:18Z</time></trkpt><trkpt lat="43.4567402451282" lon="13.581131585580094"><ele>27.0</ele><time>2026-05-02T13:21:20Z</time></trkpt><trkpt lat="43.45681626918068" lon="13.581258420524836"><ele>27.0</ele><time>2026-05-02T13:21:22Z</time></trkpt><trkpt lat="43.45690366559123" lon="13.581460819314438"><ele>26.0</ele><time>2026-05-02T13:21:24Z</time></trkpt><trkpt lat="43.45697047573532" lon="13.581496409557232"><ele>25.0</ele><time>2026-05-02T13:21:25Z</time></trkpt><trkpt lat="43.45704472209659" lon="13.581542698351488"><ele>24.0</ele><time>2026-05-02T13:21:26Z</time></trkpt><trkpt lat="43.457105572002796" lon="13.58158000323655"><ele>23.0</ele><time>2026-05-02T13:21:27Z</time></trkpt><trkpt lat="43.45721092362488" lon="13.581668606497828"><ele>22.0</ele><time>2026-05-02T13:21:29Z</time></trkpt><trkpt lat="43.457264954588695" lon="13.581725700981075"><ele>21.0</ele><time>2026-05-02T13:21:29.999Z</time></trkpt><trkpt lat="43.457351569263075" lon="13.581840059219259"><ele>20.333333333333332</ele><time>2026-05-02T13:21:31.999Z</time></trkpt><trkpt lat="43.45741538916443" lon="13.581926256350133"><ele>19.666666666666668</ele><time>2026-05-02T13:21:33.999Z</time></trkpt><trkpt lat="43.457461584651966" lon="13.582003612649029"><ele>19.0</ele><time>2026-05-02T13:21:36.999Z</time></trkpt><trkpt lat="43.45751198819551" lon="13.582095733187334"><ele>18.333333333333336</ele><time>2026-05-02T13:21:39.999Z</time></trkpt><trkpt lat="43.45756607630233" lon="13.582204617701526"><ele>17.666666666666668</ele><time>2026-05-02T13:21:41.999Z</time></trkpt><trkpt lat="43.45762263274366" lon="13.582325241170428"><ele>17.0</ele><time>2026-05-02T13:21:43.999Z</time></trkpt><trkpt lat="43.45767012260101" lon="13.58245502417961"><ele>16.8</ele><time>2026-05-02T13:21:45.999Z</time></trkpt><trkpt lat="43.4577163942839" lon="13.582583155430237"><ele>16.6</ele><time>2026-05-02T13:21:47.999Z</time></trkpt><trkpt lat="43.45778086041591" lon="13.582701154923498"><ele>16.400000000000002</ele><time>2026-05-02T13:21:49.999Z</time></trkpt><trkpt lat="43.45783376374868" lon="13.582802941861994"><ele>16.2</ele><time>2026-05-02T13:21:51.999Z</time></trkpt><trkpt lat="43.45786367143079" lon="13.582917559604113"><ele>16.0</ele><time>2026-05-02T13:21:53.999Z</time></trkpt><trkpt lat="43.45787834932722" lon="13.583046742805566"><ele>16.0</ele><time>2026-05-02T13:21:55.999Z</time></trkpt><trkpt lat="43.45785794021517" lon="13.58318498689781"><ele>16.0</ele><time>2026-05-02T13:21:57.999Z</time></trkpt><trkpt lat="43.45781596159617" lon="13.58331865733342"><ele>16.0</ele><time>2026-05-02T13:21:59.999Z</time></trkpt><trkpt lat="43.45782068938959" lon="13.583466885269901"><ele>16.0</ele><time>2026-05-02T13:22:01.999Z</time></trkpt><trkpt lat="43.457881530569644" lon="13.583596053565476"><ele>16.0</ele><time>2026-05-02T13:22:03.999Z</time></trkpt><trkpt lat="43.45794652310153" lon="13.58369715307899"><ele>16.2</ele><time>2026-05-02T13:22:05.999Z</time></trkpt><trkpt lat="43.458038245065566" lon="13.58374674413275"><ele>16.400000000000002</ele><time>2026-05-02T13:22:07.999Z</time></trkpt><trkpt lat="43.45812426395717" lon="13.583805374696238"><ele>16.6</ele><time>2026-05-02T13:22:09.999Z</time></trkpt><trkpt lat="43.458191127527556" lon="13.583771248370056"><ele>16.8</ele><time>2026-05-02T13:22:10.999Z</time></trkpt><trkpt lat="43.45828946489703" lon="13.583714745703686"><ele>17.0</ele><time>2026-05-02T13:22:12.999Z</time></trkpt><trkpt lat="43.458373411908326" lon="13.58363064424334"><ele>17.4</ele><time>2026-05-02T13:22:14.999Z</time></trkpt><trkpt lat="43.45843749251685" lon="13.583512670012956"><ele>17.799999999999997</ele><time>2026-05-02T13:22:16.999Z</time></trkpt><trkpt lat="43.45847354015992" lon="13.583386693277678"><ele>18.2</ele><time>2026-05-02T13:22:18.999Z</time></trkpt><trkpt lat="43.45847065799117" lon="13.583246553532726"><ele>18.599999999999998</ele><time>2026-05-02T13:22:20.999Z</time></trkpt><trkpt lat="43.458426485917045" lon="13.583183029323559"><ele>19.0</ele><time>2026-05-02T13:22:21.999Z</time></trkpt><trkpt lat="43.45851463986569" lon="13.58311559686069"><ele>19.0</ele><time>2026-05-02T13:22:22.999Z</time></trkpt><trkpt lat="43.458579145716634" lon="13.583004403444974"><ele>19.0</ele><time>2026-05-02T13:22:24.999Z</time></trkpt><trkpt lat="43.4586538856475" lon="13.582914168209106"><ele>19.0</ele><time>2026-05-02T13:22:26.999Z</time></trkpt><trkpt lat="43.45872769582767" lon="13.582832073797459"><ele>19.0</ele><time>2026-05-02T13:22:28.999Z</time></trkpt><trkpt lat="43.45880467528861" lon="13.582760091776004"><ele>19.0</ele><time>2026-05-02T13:22:30.999Z</time></trkpt><trkpt lat="43.458891639050684" lon="13.582719753608337"><ele>19.4</ele><time>2026-05-02T13:22:32.999Z</time></trkpt><trkpt lat="43.45888560652877" lon="13.582925374221018"><ele>19.799999999999997</ele><time>2026-05-02T13:22:35.999Z</time></trkpt><trkpt lat="43.45888250642342" lon="13.583045864136775"><ele>20.200000000000003</ele><time>2026-05-02T13:22:37.999Z</time></trkpt><trkpt lat="43.458871770130905" lon="13.583188199207456"><ele>20.6</ele><time>2026-05-02T13:22:39.999Z</time></trkpt><trkpt lat="43.45884527226159" lon="13.58332544581688"><ele>21.0</ele><time>2026-05-02T13:22:41.999Z</time></trkpt><trkpt lat="43.458846363232" lon="13.583456370033577"><ele>21.0</ele><time>2026-05-02T13:22:43.999Z</time></trkpt><trkpt lat="43.458824672861546" lon="13.583596645997707"><ele>21.0</ele><time>2026-05-02T13:22:46Z</time></trkpt><trkpt lat="43.45882796475866" lon="13.583749177515436"><ele>21.0</ele><time>2026-05-02T13:22:48Z</time></trkpt><trkpt lat="43.458811363048056" lon="13.583905718587062"><ele>21.0</ele><time>2026-05-02T13:22:50Z</time></trkpt><trkpt lat="43.458776331826066" lon="13.584048161177643"><ele>21.0</ele><time>2026-05-02T13:22:52Z</time></trkpt><trkpt lat="43.45875678616271" lon="13.584192936126968"><ele>20.2</ele><time>2026-05-02T13:22:54Z</time></trkpt><trkpt lat="43.45873900264677" lon="13.58431924857409"><ele>19.400000000000002</ele><time>2026-05-02T13:22:56Z</time></trkpt><trkpt lat="43.458719217715554" lon="13.584452396092214"><ele>18.6</ele><time>2026-05-02T13:22:58Z</time></trkpt><trkpt lat="43.45869849779121" lon="13.584592013579849"><ele>17.8</ele><time>2026-05-02T13:23:00Z</time></trkpt><trkpt lat="43.45869547966186" lon="13.584734746462784"><ele>17.0</ele><time>2026-05-02T13:23:02Z</time></trkpt><trkpt lat="43.45867470664832" lon="13.584880260505814"><ele>16.8</ele><time>2026-05-02T13:23:04Z</time></trkpt><trkpt lat="43.458648588262484" lon="13.585029578551131"><ele>16.6</ele><time>2026-05-02T13:23:06Z</time></trkpt><trkpt lat="43.45863131412797" lon="13.585149217760348"><ele>16.400000000000002</ele><time>2026-05-02T13:23:08Z</time></trkpt><trkpt lat="43.4587424668705" lon="13.585226342903724"><ele>16.2</ele><time>2026-05-02T13:23:10Z</time></trkpt><trkpt lat="43.45883181463827" lon="13.585264770380084"><ele>16.0</ele><time>2026-05-02T13:23:12Z</time></trkpt><trkpt lat="43.45890932581474" lon="13.585278226944615"><ele>16.857142857142858</ele><time>2026-05-02T13:23:14Z</time></trkpt><trkpt lat="43.45898546959349" lon="13.585289594088627"><ele>17.71428571428571</ele><time>2026-05-02T13:23:16Z</time></trkpt><trkpt lat="43.459061982966816" lon="13.585301016405436"><ele>18.57142857142857</ele><time>2026-05-02T13:23:18Z</time></trkpt><trkpt lat="43.45913856249277" lon="13.585314878774073"><ele>19.428571428571427</ele><time>2026-05-02T13:23:20Z</time></trkpt><trkpt lat="43.45921243587913" lon="13.58530552193218"><ele>20.285714285714285</ele><time>2026-05-02T13:23:22Z</time></trkpt><trkpt lat="43.45927777224671" lon="13.585340806695454"><ele>21.142857142857142</ele><time>2026-05-02T13:23:24Z</time></trkpt><trkpt lat="43.459343957751976" lon="13.58535322207524"><ele>22.0</ele><time>2026-05-02T13:23:26Z</time></trkpt><trkpt lat="43.45943703818185" lon="13.585370682532039"><ele>22.0</ele><time>2026-05-02T13:23:29Z</time></trkpt><trkpt lat="43.45952661479642" lon="13.585387485723707"><ele>22.0</ele><time>2026-05-02T13:23:32Z</time></trkpt><trkpt lat="43.45961389161322" lon="13.585381460432474"><ele>22.0</ele><time>2026-05-02T13:23:35Z</time></trkpt><trkpt lat="43.45969700365288" lon="13.585420416333015"><ele>22.0</ele><time>2026-05-02T13:23:38Z</time></trkpt><trkpt lat="43.459774459782516" lon="13.585417556961863"><ele>22.0</ele><time>2026-05-02T13:23:41Z</time></trkpt><trkpt lat="43.45984713892873" lon="13.585432772935935"><ele>22.0</ele><time>2026-05-02T13:23:43.999Z</time></trkpt><trkpt lat="43.45991710876121" lon="13.58544347757155"><ele>23.571428571428573</ele><time>2026-05-02T13:23:46.999Z</time></trkpt><trkpt lat="43.45997911460496" lon="13.585475568638731"><ele>25.142857142857142</ele><time>2026-05-02T13:23:49.999Z</time></trkpt><trkpt lat="43.460049603656536" lon="13.585489107515151"><ele>26.714285714285715</ele><time>2026-05-02T13:23:52.999Z</time></trkpt><trkpt lat="43.460117986836515" lon="13.58548354748072"><ele>28.285714285714285</ele><time>2026-05-02T13:23:55.999Z</time></trkpt><trkpt lat="43.46018008732501" lon="13.585502270112574"><ele>29.857142857142858</ele><time>2026-05-02T13:23:58.999Z</time></trkpt><trkpt lat="43.46024801683537" lon="13.585535833430976"><ele>31.428571428571427</ele><time>2026-05-02T13:24:01.999Z</time></trkpt><trkpt lat="43.46029802484563" lon="13.585602465828277"><ele>33.0</ele><time>2026-05-02T13:24:05.999Z</time></trkpt><trkpt lat="43.46029162789868" lon="13.585709433301629"><ele>33.0</ele><time>2026-05-02T13:24:08.999Z</time></trkpt><trkpt lat="43.46029827548717" lon="13.585807417293836"><ele>33.0</ele><time>2026-05-02T13:24:11.999Z</time></trkpt><trkpt lat="43.46030540840633" lon="13.58590163291569"><ele>33.0</ele><time>2026-05-02T13:24:14.999Z</time></trkpt><trkpt lat="43.460323251969186" lon="13.585987228340507"><ele>33.0</ele><time>2026-05-02T13:24:17.999Z</time></trkpt><trkpt lat="43.460334920371345" lon="13.586081246470556"><ele>33.0</ele><time>2026-05-02T13:24:20.999Z</time></trkpt><trkpt lat="43.46034840114437" lon="13.586179809688039"><ele>33.0</ele><time>2026-05-02T13:24:23.999Z</time></trkpt><trkpt lat="43.46036891148903" lon="13.586269690847395"><ele>33.0</ele><time>2026-05-02T13:24:26.999Z</time></trkpt><trkpt lat="43.46037723569058" lon="13.586372040802093"><ele>33.5</ele><time>2026-05-02T13:24:29.999Z</time></trkpt><trkpt lat="43.46037948991435" lon="13.586477156519425"><ele>34.0</ele><time>2026-05-02T13:24:32.999Z</time></trkpt><trkpt lat="43.4603970960113" lon="13.586581137534372"><ele>34.5</ele><time>2026-05-02T13:24:35.999Z</time></trkpt><trkpt lat="43.4604088338183" lon="13.586676884037717"><ele>35.0</ele><time>2026-05-02T13:24:38.999Z</time></trkpt><trkpt lat="43.460421884675426" lon="13.586785246564986"><ele>35.5</ele><time>2026-05-02T13:24:41.999Z</time></trkpt><trkpt lat="43.46044523423087" lon="13.586884500503903"><ele>36.0</ele><time>2026-05-02T13:24:44.999Z</time></trkpt><trkpt lat="43.46044621408324" lon="13.586998646139085"><ele>37.333333333333336</ele><time>2026-05-02T13:24:47.999Z</time></trkpt><trkpt lat="43.46046054259554" lon="13.58711067032713"><ele>38.666666666666664</ele><time>2026-05-02T13:24:50.999Z</time></trkpt><trkpt lat="43.460489421364564" lon="13.587209805467364"><ele>40.0</ele><time>2026-05-02T13:24:54Z</time></trkpt><trkpt lat="43.46049018323156" lon="13.58731205683967"><ele>41.33333333333333</ele><time>2026-05-02T13:24:57Z</time></trkpt><trkpt lat="43.460619212592" lon="13.587350436242142"><ele>42.666666666666664</ele><time>2026-05-02T13:25:01Z</time></trkpt><trkpt lat="43.4606924962275" lon="13.5873600448614"><ele>44.0</ele><time>2026-05-02T13:25:04Z</time></trkpt><trkpt lat="43.46076920884648" lon="13.58736717274531"><ele>44.0</ele><time>2026-05-02T13:25:07Z</time></trkpt><trkpt lat="43.46084714547757" lon="13.587373506968568"><ele>44.0</ele><time>2026-05-02T13:25:10Z</time></trkpt><trkpt lat="43.46092931411708" lon="13.587380168415619"><ele>44.0</ele><time>2026-05-02T13:25:13Z</time></trkpt><trkpt lat="43.46101014101706" lon="13.587371706395055"><ele>44.0</ele><time>2026-05-02T13:25:16Z</time></trkpt><trkpt lat="43.46108819422836" lon="13.587393708750762"><ele>44.0</ele><time>2026-05-02T13:25:19Z</time></trkpt><trkpt lat="43.4611663238463" lon="13.587400890815312"><ele>44.0</ele><time>2026-05-02T13:25:22Z</time></trkpt><trkpt lat="43.46124491935627" lon="13.587387726545442"><ele>44.666666666666664</ele><time>2026-05-02T13:25:25Z</time></trkpt><trkpt lat="43.46132779091823" lon="13.587416270627049"><ele>45.33333333333333</ele><time>2026-05-02T13:25:28Z</time></trkpt><trkpt lat="43.461407431643416" lon="13.58742527316687"><ele>46.0</ele><time>2026-05-02T13:25:31Z</time></trkpt><trkpt lat="43.461492332030794" lon="13.587434870254201"><ele>46.666666666666664</ele><time>2026-05-02T13:25:34Z</time></trkpt><trkpt lat="43.46157116348903" lon="13.587444184723875"><ele>47.333333333333336</ele><time>2026-05-02T13:25:37Z</time></trkpt><trkpt lat="43.461655686854996" lon="13.587454350558582"><ele>48.0</ele><time>2026-05-02T13:25:40Z</time></trkpt><trkpt lat="43.461731970402006" lon="13.587463525366587"><ele>48.0</ele><time>2026-05-02T13:25:42.999Z</time></trkpt><trkpt lat="43.46181818513934" lon="13.587451585936352"><ele>48.0</ele><time>2026-05-02T13:25:45.999Z</time></trkpt><trkpt lat="43.46189423713769" lon="13.587468297594668"><ele>48.0</ele><time>2026-05-02T13:25:48.999Z</time></trkpt><trkpt lat="43.46197158898525" lon="13.587476775053272"><ele>48.0</ele><time>2026-05-02T13:25:51.999Z</time></trkpt><trkpt lat="43.4620430038947" lon="13.587474629629416"><ele>48.0</ele><time>2026-05-02T13:25:54.999Z</time></trkpt><trkpt lat="43.462099718407714" lon="13.58753779563822"><ele>48.0</ele><time>2026-05-02T13:25:57.999Z</time></trkpt><trkpt lat="43.462097797492326" lon="13.58765403259994"><ele>48.5</ele><time>2026-05-02T13:26:00.999Z</time></trkpt><trkpt lat="43.462120154049636" lon="13.587746944723232"><ele>49.0</ele><time>2026-05-02T13:26:03.999Z</time></trkpt><trkpt lat="43.46214178766883" lon="13.587842060743585"><ele>49.5</ele><time>2026-05-02T13:26:06.999Z</time></trkpt><trkpt lat="43.4621753289291" lon="13.587926192640625"><ele>50.0</ele><time>2026-05-02T13:26:15.999Z</time></trkpt><trkpt lat="43.46230381944572" lon="13.588061849377102"><ele>50.5</ele><time>2026-05-02T13:26:17.999Z</time></trkpt><trkpt lat="43.462360100949425" lon="13.588111321592471"><ele>51.0</ele><time>2026-05-02T13:26:19.999Z</time></trkpt><trkpt lat="43.46241636750021" lon="13.588152361781349"><ele>51.0</ele><time>2026-05-02T13:26:21.999Z</time></trkpt><trkpt lat="43.462477155504125" lon="13.588191256584409"><ele>51.0</ele><time>2026-05-02T13:26:23.999Z</time></trkpt><trkpt lat="43.4625379366186" lon="13.58822949936072"><ele>51.0</ele><time>2026-05-02T13:26:25.999Z</time></trkpt><trkpt lat="43.46261227490488" lon="13.588281005191245"><ele>51.0</ele><time>2026-05-02T13:26:28.999Z</time></trkpt><trkpt lat="43.4626887006901" lon="13.588342219804794"><ele>51.0</ele><time>2026-05-02T13:26:30.999Z</time></trkpt><trkpt lat="43.46276149123362" lon="13.588400522713757"><ele>51.0</ele><time>2026-05-02T13:26:32.999Z</time></trkpt><trkpt lat="43.4628268424768" lon="13.588455316669606"><ele>51.0</ele><time>2026-05-02T13:26:34.999Z</time></trkpt><trkpt lat="43.46288868318863" lon="13.588519275841216"><ele>51.0</ele><time>2026-05-02T13:26:36.999Z</time></trkpt><trkpt lat="43.46295009371653" lon="13.588599595191601"><ele>51.0</ele><time>2026-05-02T13:26:39.999Z</time></trkpt><trkpt lat="43.46299298267755" lon="13.588663736598868"><ele>51.0</ele><time>2026-05-02T13:26:41.999Z</time></trkpt><trkpt lat="43.46304567366796" lon="13.588765433700527"><ele>51.0</ele><time>2026-05-02T13:26:44.999Z</time></trkpt><trkpt lat="43.46308682741412" lon="13.5888497425409"><ele>51.0</ele><time>2026-05-02T13:26:46.999Z</time></trkpt><trkpt lat="43.46312551448054" lon="13.588935546583281"><ele>50.833333333333336</ele><time>2026-05-02T13:26:48.999Z</time></trkpt><trkpt lat="43.46316601380716" lon="13.589031137521289"><ele>50.66666666666667</ele><time>2026-05-02T13:26:50.999Z</time></trkpt><trkpt lat="43.46320832947674" lon="13.589136774739321"><ele>50.5</ele><time>2026-05-02T13:26:52.999Z</time></trkpt><trkpt lat="43.46323718392149" lon="13.58922234548829"><ele>50.333333333333336</ele><time>2026-05-02T13:26:54.999Z</time></trkpt><trkpt lat="43.46327639542505" lon="13.589343474375614"><ele>50.16666666666667</ele><time>2026-05-02T13:26:56.999Z</time></trkpt><trkpt lat="43.463306296020114" lon="13.589466084321126"><ele>50.0</ele><time>2026-05-02T13:26:59Z</time></trkpt><trkpt lat="43.46331797677337" lon="13.589560558622656"><ele>49.5</ele><time>2026-05-02T13:27:01Z</time></trkpt><trkpt lat="43.463687446638104" lon="13.589520537461171"><ele>49.0</ele><time>2026-05-02T13:27:04Z</time></trkpt><trkpt lat="43.463780970533264" lon="13.589532017420309"><ele>50.49999999999999</ele><time>2026-05-02T13:27:07Z</time></trkpt><trkpt lat="43.4638721373683" lon="13.58952779946187"><ele>52.0</ele><time>2026-05-02T13:27:10Z</time></trkpt><trkpt lat="43.463956412384725" lon="13.589522734124373"><ele>53.5</ele><time>2026-05-02T13:27:13Z</time></trkpt><trkpt lat="43.46404599122897" lon="13.589524992403577"><ele>55.0</ele><time>2026-05-02T13:27:16Z</time></trkpt><trkpt lat="43.46412219422795" lon="13.589529596853618"><ele>56.49999999999999</ele><time>2026-05-02T13:27:19Z</time></trkpt><trkpt lat="43.46419771305723" lon="13.589537621763519"><ele>58.0</ele><time>2026-05-02T13:27:22Z</time></trkpt><trkpt lat="43.46426109960493" lon="13.589538089514672"><ele>58.00000000000001</ele><time>2026-05-02T13:27:25Z</time></trkpt><trkpt lat="43.46432887965207" lon="13.589537545426653"><ele>58.0</ele><time>2026-05-02T13:27:28Z</time></trkpt><trkpt lat="43.46441457614483" lon="13.58954132006029"><ele>58.00000000000001</ele><time>2026-05-02T13:27:32Z</time></trkpt><trkpt lat="43.46448072333949" lon="13.589537658037612"><ele>58.00000000000001</ele><time>2026-05-02T13:27:35Z</time></trkpt><trkpt lat="43.464560190878444" lon="13.589554955415004"><ele>58.0</ele><time>2026-05-02T13:27:39Z</time></trkpt><trkpt lat="43.46462352915825" lon="13.5895662783875"><ele>58.00000000000001</ele><time>2026-05-02T13:27:42Z</time></trkpt><trkpt lat="43.46468596256938" lon="13.589579417082371"><ele>58.00000000000001</ele><time>2026-05-02T13:27:45Z</time></trkpt><trkpt lat="43.46469621110626" lon="13.589672552797513"><ele>61.666666666666664</ele><time>2026-05-02T13:27:47.999Z</time></trkpt><trkpt lat="43.46468553895985" lon="13.589783241133548"><ele>65.33333333333333</ele><time>2026-05-02T13:27:50.999Z</time></trkpt><trkpt lat="43.464692779898876" lon="13.58991075565721"><ele>69.0</ele><time>2026-05-02T13:27:53.999Z</time></trkpt><trkpt lat="43.46471122770798" lon="13.590023368003882"><ele>72.66666666666667</ele><time>2026-05-02T13:27:56.999Z</time></trkpt><trkpt lat="43.46471968303543" lon="13.590116506389307"><ele>76.33333333333334</ele><time>2026-05-02T13:27:59.999Z</time></trkpt><trkpt lat="43.464730428819806" lon="13.590225797377851"><ele>80.0</ele><time>2026-05-02T13:28:02.999Z</time></trkpt><trkpt lat="43.46473702614693" lon="13.59031892724427"><ele>80.85714285714286</ele><time>2026-05-02T13:28:05.999Z</time></trkpt><trkpt lat="43.464743457747964" lon="13.590417320243656"><ele>81.71428571428572</ele><time>2026-05-02T13:28:08.999Z</time></trkpt><trkpt lat="43.46475394077092" lon="13.590517448912811"><ele>82.57142857142858</ele><time>2026-05-02T13:28:11.999Z</time></trkpt><trkpt lat="43.46476006468823" lon="13.590618658221315"><ele>83.42857142857143</ele><time>2026-05-02T13:28:14.999Z</time></trkpt><trkpt lat="43.46479580925432" lon="13.5907137161206"><ele>84.28571428571429</ele><time>2026-05-02T13:28:17.999Z</time></trkpt><trkpt lat="43.464823246596765" lon="13.590814528283055"><ele>85.14285714285715</ele><time>2026-05-02T13:28:20.999Z</time></trkpt><trkpt lat="43.464855302686445" lon="13.590906404216858"><ele>86.0</ele><time>2026-05-02T13:28:23.999Z</time></trkpt><trkpt lat="43.46486059589291" lon="13.590997474130363"><ele>86.0</ele><time>2026-05-02T13:28:26.999Z</time></trkpt><trkpt lat="43.46485512890425" lon="13.591121024097614"><ele>86.0</ele><time>2026-05-02T13:28:29.999Z</time></trkpt><trkpt lat="43.46484301339962" lon="13.591229969079565"><ele>86.0</ele><time>2026-05-02T13:28:32.999Z</time></trkpt><trkpt lat="43.464844281555784" lon="13.591324693604202"><ele>86.0</ele><time>2026-05-02T13:28:35.999Z</time></trkpt><trkpt lat="43.46486101937727" lon="13.591420507594568"><ele>86.0</ele><time>2026-05-02T13:28:38.999Z</time></trkpt><trkpt lat="43.46487055940698" lon="13.591524868222175"><ele>86.0</ele><time>2026-05-02T13:28:41.999Z</time></trkpt><trkpt lat="43.46487273088892" lon="13.591626185894023"><ele>86.5</ele><time>2026-05-02T13:28:44.999Z</time></trkpt><trkpt lat="43.464885518013624" lon="13.591738541558815"><ele>87.0</ele><time>2026-05-02T13:28:47.999Z</time></trkpt><trkpt lat="43.46488261940552" lon="13.59185459453633"><ele>87.5</ele><time>2026-05-02T13:28:50.999Z</time></trkpt><trkpt lat="43.46486832268089" lon="13.59197364929742"><ele>88.0</ele><time>2026-05-02T13:28:53.999Z</time></trkpt><trkpt lat="43.46485645134953" lon="13.592069916407478"><ele>88.5</ele><time>2026-05-02T13:28:55.999Z</time></trkpt><trkpt lat="43.464799644526614" lon="13.592139521318089"><ele>89.0</ele><time>2026-05-02T13:28:57.999Z</time></trkpt><trkpt lat="43.464732708608906" lon="13.592219452892477"><ele>89.16666666666667</ele><time>2026-05-02T13:28:59.999Z</time></trkpt><trkpt lat="43.464677248845376" lon="13.59233724709884"><ele>89.33333333333334</ele><time>2026-05-02T13:29:01.999Z</time></trkpt><trkpt lat="43.46468698991694" lon="13.59248491497682"><ele>89.5</ele><time>2026-05-02T13:29:04Z</time></trkpt><trkpt lat="43.46471150828335" lon="13.592592998585147"><ele>89.66666666666667</ele><time>2026-05-02T13:29:07Z</time></trkpt><trkpt lat="43.464719496968605" lon="13.59268348522513"><ele>89.83333333333333</ele><time>2026-05-02T13:29:09Z</time></trkpt><trkpt lat="43.46471617591068" lon="13.5928020340058"><ele>90.0</ele><time>2026-05-02T13:29:12Z</time></trkpt><trkpt lat="43.464734071931055" lon="13.592919672287987"><ele>90.16666666666667</ele><time>2026-05-02T13:29:15Z</time></trkpt><trkpt lat="43.464743740323556" lon="13.593036335918647"><ele>90.33333333333333</ele><time>2026-05-02T13:29:18Z</time></trkpt><trkpt lat="43.46475743496951" lon="13.593147480847499"><ele>90.5</ele><time>2026-05-02T13:29:21Z</time></trkpt><trkpt lat="43.464794987086776" lon="13.593224071656932"><ele>90.66666666666666</ele><time>2026-05-02T13:29:23Z</time></trkpt><trkpt lat="43.464800370124486" lon="13.593318967374573"><ele>90.83333333333333</ele><time>2026-05-02T13:29:26Z</time></trkpt><trkpt lat="43.46479030698268" lon="13.593453013388054"><ele>91.0</ele><time>2026-05-02T13:29:28Z</time></trkpt><trkpt lat="43.46480274954817" lon="13.593539952969925"><ele>91.0</ele><time>2026-05-02T13:29:30Z</time></trkpt><trkpt lat="43.46494802447563" lon="13.593596455093065"><ele>91.0</ele><time>2026-05-02T13:29:32Z</time></trkpt><trkpt lat="43.4649575796867" lon="13.593722638716923"><ele>91.0</ele><time>2026-05-02T13:29:35Z</time></trkpt><trkpt lat="43.464965811372075" lon="13.593824687932837"><ele>91.0</ele><time>2026-05-02T13:29:38Z</time></trkpt><trkpt lat="43.46498581382539" lon="13.593951238291057"><ele>91.0</ele><time>2026-05-02T13:29:42Z</time></trkpt><trkpt lat="43.465005372524224" lon="13.59404755626637"><ele>90.16666666666666</ele><time>2026-05-02T13:29:45Z</time></trkpt><trkpt lat="43.465030918988006" lon="13.594162515389906"><ele>89.33333333333333</ele><time>2026-05-02T13:29:49Z</time></trkpt><trkpt lat="43.465050398347095" lon="13.59425159562877"><ele>88.5</ele><time>2026-05-02T13:29:50.999Z</time></trkpt><trkpt lat="43.46508021874124" lon="13.594391192199794"><ele>87.66666666666667</ele><time>2026-05-02T13:29:53.999Z</time></trkpt><trkpt lat="43.46509714352926" lon="13.59448074841105"><ele>86.83333333333334</ele><time>2026-05-02T13:29:55.999Z</time></trkpt><trkpt lat="43.46511915190046" lon="13.594606355314856"><ele>86.0</ele><time>2026-05-02T13:30:01.999Z</time></trkpt><trkpt lat="43.46513582017069" lon="13.594701829986349"><ele>84.33333333333334</ele><time>2026-05-02T13:30:03.999Z</time></trkpt><trkpt lat="43.465152031936164" lon="13.594794689865354"><ele>82.66666666666667</ele><time>2026-05-02T13:30:05.999Z</time></trkpt><trkpt lat="43.46517632377557" lon="13.594915088822631"><ele>81.0</ele><time>2026-05-02T13:30:08.999Z</time></trkpt><trkpt lat="43.46519803625914" lon="13.595013852979143"><ele>79.33333333333333</ele><time>2026-05-02T13:30:11.999Z</time></trkpt><trkpt lat="43.46522430429356" lon="13.595123998316273"><ele>77.66666666666666</ele><time>2026-05-02T13:30:15.999Z</time></trkpt><trkpt lat="43.46517541779647" lon="13.595212552059602"><ele>76.0</ele><time>2026-05-02T13:30:18.999Z</time></trkpt><trkpt lat="43.464888024850254" lon="13.595455209780118"><ele>74.5</ele><time>2026-05-02T13:30:21.999Z</time></trkpt><trkpt lat="43.464914911234686" lon="13.595570112814185"><ele>73.0</ele><time>2026-05-02T13:30:23.999Z</time></trkpt><trkpt lat="43.464953308738544" lon="13.595668631526499"><ele>71.5</ele><time>2026-05-02T13:30:25.999Z</time></trkpt><trkpt lat="43.46498322603831" lon="13.595774267738333"><ele>70.0</ele><time>2026-05-02T13:30:28.999Z</time></trkpt><trkpt lat="43.46502269348285" lon="13.595887433202615"><ele>68.5</ele><time>2026-05-02T13:30:31.999Z</time></trkpt><trkpt lat="43.465083524344124" lon="13.595932617297585"><ele>67.0</ele><time>2026-05-02T13:30:33.999Z</time></trkpt><trkpt lat="43.46510388910038" lon="13.59602270280089"><ele>67.0</ele><time>2026-05-02T13:30:38.999Z</time></trkpt><trkpt lat="43.46511454441523" lon="13.59612252006518"><ele>67.0</ele><time>2026-05-02T13:30:41.999Z</time></trkpt><trkpt lat="43.46509463032793" lon="13.596240221252229"><ele>67.0</ele><time>2026-05-02T13:30:44.999Z</time></trkpt><trkpt lat="43.46507371092453" lon="13.59634067216934"><ele>67.0</ele><time>2026-05-02T13:30:49.999Z</time></trkpt><trkpt lat="43.46505449367573" lon="13.596434880755552"><ele>67.0</ele><time>2026-05-02T13:30:51.999Z</time></trkpt><trkpt lat="43.4650668870072" lon="13.596550793052186"><ele>67.0</ele><time>2026-05-02T13:30:53.999Z</time></trkpt><trkpt lat="43.465054166107464" lon="13.596655920629573"><ele>65.33333333333333</ele><time>2026-05-02T13:30:55.999Z</time></trkpt><trkpt lat="43.46503193679101" lon="13.59677540071343"><ele>63.666666666666664</ele><time>2026-05-02T13:30:58.999Z</time></trkpt><trkpt lat="43.465009489722085" lon="13.596892375359504"><ele>62.0</ele><time>2026-05-02T13:31:00.999Z</time></trkpt><trkpt lat="43.464988647787024" lon="13.59698173736527"><ele>60.33333333333333</ele><time>2026-05-02T13:31:02.999Z</time></trkpt><trkpt lat="43.46493325109008" lon="13.597059804775412"><ele>58.666666666666664</ele><time>2026-05-02T13:31:06.999Z</time></trkpt><trkpt lat="43.464886477157606" lon="13.597133727251034"><ele>57.0</ele><time>2026-05-02T13:31:08.999Z</time></trkpt><trkpt lat="43.46487941575093" lon="13.597233887766903"><ele>56.0</ele><time>2026-05-02T13:31:11Z</time></trkpt><trkpt lat="43.46486614901365" lon="13.597333837013984"><ele>54.99999999999999</ele><time>2026-05-02T13:31:14Z</time></trkpt><trkpt lat="43.46490278049896" lon="13.59741522788402"><ele>54.0</ele><time>2026-05-02T13:31:17Z</time></trkpt><trkpt lat="43.46494007935787" lon="13.597485920172081"><ele>53.0</ele><time>2026-05-02T13:31:19Z</time></trkpt><trkpt lat="43.465005240506386" lon="13.59753880561802"><ele>52.0</ele><time>2026-05-02T13:31:22Z</time></trkpt><trkpt lat="43.46507262162213" lon="13.597538622064688"><ele>51.0</ele><time>2026-05-02T13:31:24Z</time></trkpt><trkpt lat="43.46513566051869" lon="13.597506201049946"><ele>50.0</ele><time>2026-05-02T13:31:27Z</time></trkpt><trkpt lat="43.46521282286811" lon="13.597489070558144"><ele>50.00000000000001</ele><time>2026-05-02T13:31:30Z</time></trkpt><trkpt lat="43.465289187658115" lon="13.597459364221466"><ele>50.0</ele><time>2026-05-02T13:31:33Z</time></trkpt><trkpt lat="43.46535289260916" lon="13.59741537549682"><ele>50.0</ele><time>2026-05-02T13:31:36Z</time></trkpt><trkpt lat="43.46542043928786" lon="13.597337578043398"><ele>50.0</ele><time>2026-05-02T13:31:39Z</time></trkpt><trkpt lat="43.465484287530614" lon="13.597262913297872"><ele>50.00000000000001</ele><time>2026-05-02T13:31:42Z</time></trkpt><trkpt lat="43.46552809238581" lon="13.597192607543644"><ele>50.0</ele><time>2026-05-02T13:31:44Z</time></trkpt><trkpt lat="43.46554441292245" lon="13.597107620542513"><ele>49.57142857142858</ele><time>2026-05-02T13:31:46Z</time></trkpt><trkpt lat="43.465546100506124" lon="13.59701668907522"><ele>49.142857142857146</ele><time>2026-05-02T13:31:48Z</time></trkpt><trkpt lat="43.4655731528707" lon="13.596910647100295"><ele>48.714285714285715</ele><time>2026-05-02T13:31:51Z</time></trkpt><trkpt lat="43.46560545371687" lon="13.596818633446588"><ele>48.28571428571429</ele><time>2026-05-02T13:31:53Z</time></trkpt><trkpt lat="43.46566973446607" lon="13.596787519132091"><ele>47.857142857142854</ele><time>2026-05-02T13:31:55Z</time></trkpt><trkpt lat="43.46569540338448" lon="13.59669019454122"><ele>47.42857142857143</ele><time>2026-05-02T13:31:59Z</time></trkpt><trkpt lat="43.46566425157202" lon="13.596600188226978"><ele>47.0</ele><time>2026-05-02T13:32:01Z</time></trkpt><trkpt lat="43.46564595776777" lon="13.596508240201999"><ele>48.42857142857143</ele><time>2026-05-02T13:32:04Z</time></trkpt><trkpt lat="43.465612621407836" lon="13.596403747841997"><ele>49.857142857142854</ele><time>2026-05-02T13:32:06.999Z</time></trkpt><trkpt lat="43.465585601256095" lon="13.596305643870233"><ele>51.285714285714285</ele><time>2026-05-02T13:32:09.999Z</time></trkpt><trkpt lat="43.465573100461924" lon="13.596214500876453"><ele>52.71428571428571</ele><time>2026-05-02T13:32:13.999Z</time></trkpt><trkpt lat="43.465545995971596" lon="13.596134868516074"><ele>54.14285714285714</ele><time>2026-05-02T13:32:16.999Z</time></trkpt><trkpt lat="43.46552237475595" lon="13.5960491879393"><ele>55.57142857142857</ele><time>2026-05-02T13:32:20.999Z</time></trkpt><trkpt lat="43.465500712192245" lon="13.595965930596035"><ele>57.0</ele><time>2026-05-02T13:32:24.999Z</time></trkpt><trkpt lat="43.46547262511708" lon="13.595887816395868"><ele>58.42857142857142</ele><time>2026-05-02T13:32:28.999Z</time></trkpt><trkpt lat="43.46545136749327" lon="13.595798786777964"><ele>59.85714285714285</ele><time>2026-05-02T13:32:31.999Z</time></trkpt><trkpt lat="43.46541856781998" lon="13.595717525426753"><ele>61.285714285714285</ele><time>2026-05-02T13:32:35.999Z</time></trkpt><trkpt lat="43.46540252509155" lon="13.595631544895138"><ele>62.71428571428571</ele><time>2026-05-02T13:32:38.999Z</time></trkpt><trkpt lat="43.465373454269226" lon="13.595542350046667"><ele>64.14285714285714</ele><time>2026-05-02T13:32:42.999Z</time></trkpt><trkpt lat="43.46534993528186" lon="13.595447064365864"><ele>65.57142857142857</ele><time>2026-05-02T13:32:46.999Z</time></trkpt><trkpt lat="43.465321242177964" lon="13.595369706144474"><ele>67.0</ele><time>2026-05-02T13:32:49.999Z</time></trkpt><trkpt lat="43.4652775051896" lon="13.595281360588249"><ele>68.5</ele><time>2026-05-02T13:32:53.999Z</time></trkpt><trkpt lat="43.46523948128418" lon="13.595178878843111"><ele>70.0</ele><time>2026-05-02T13:32:57.999Z</time></trkpt><trkpt lat="43.465217356045734" lon="13.595093297933857"><ele>71.5</ele><time>2026-05-02T13:33:00.999Z</time></trkpt><trkpt lat="43.46519406536708" lon="13.594989307072385"><ele>73.0</ele><time>2026-05-02T13:33:04.999Z</time></trkpt><trkpt lat="43.465164743737446" lon="13.594892307847461"><ele>74.5</ele><time>2026-05-02T13:33:08.999Z</time></trkpt><trkpt lat="43.46513325982992" lon="13.594811313217885"><ele>76.0</ele><time>2026-05-02T13:33:12.999Z</time></trkpt><trkpt lat="43.46512066027724" lon="13.594704499297086"><ele>76.0</ele><time>2026-05-02T13:33:17Z</time></trkpt><trkpt lat="43.46511313802441" lon="13.594585634557454"><ele>76.0</ele><time>2026-05-02T13:33:21Z</time></trkpt><trkpt lat="43.465087770299014" lon="13.594474863028088"><ele>76.0</ele><time>2026-05-02T13:33:25Z</time></trkpt><trkpt lat="43.465079269901125" lon="13.59435219386216"><ele>76.0</ele><time>2026-05-02T13:33:29Z</time></trkpt><trkpt lat="43.4650535961519" lon="13.594235073431616"><ele>76.0</ele><time>2026-05-02T13:33:32Z</time></trkpt><trkpt lat="43.465032044316914" lon="13.5941221571596"><ele>76.0</ele><time>2026-05-02T13:33:35Z</time></trkpt><trkpt lat="43.46501861642749" lon="13.594008929743437"><ele>77.66666666666666</ele><time>2026-05-02T13:33:38Z</time></trkpt><trkpt lat="43.46500836674041" lon="13.593900732240831"><ele>79.33333333333333</ele><time>2026-05-02T13:33:41Z</time></trkpt><trkpt lat="43.464999352928736" lon="13.593793461900521"><ele>81.0</ele><time>2026-05-02T13:33:44Z</time></trkpt><trkpt lat="43.4649723733343" lon="13.593693946155785"><ele>82.66666666666667</ele><time>2026-05-02T13:33:46Z</time></trkpt><trkpt lat="43.46496210374775" lon="13.593596550508051"><ele>84.33333333333334</ele><time>2026-05-02T13:33:48Z</time></trkpt><trkpt lat="43.46496862246164" lon="13.593472536117728"><ele>86.0</ele><time>2026-05-02T13:33:50Z</time></trkpt><trkpt lat="43.46495781136949" lon="13.593345331941155"><ele>86.8</ele><time>2026-05-02T13:33:52Z</time></trkpt><trkpt lat="43.46495740787983" lon="13.593212043840849"><ele>87.6</ele><time>2026-05-02T13:33:54Z</time></trkpt><trkpt lat="43.464968609447915" lon="13.593089110442952"><ele>88.4</ele><time>2026-05-02T13:33:56Z</time></trkpt><trkpt lat="43.46499131320709" lon="13.592939229578276"><ele>89.2</ele><time>2026-05-02T13:33:58Z</time></trkpt><trkpt lat="43.46504328867471" lon="13.592805224037207"><ele>90.0</ele><time>2026-05-02T13:34:00Z</time></trkpt><trkpt lat="43.465033851994114" lon="13.592664168973858"><ele>90.0</ele><time>2026-05-02T13:34:02Z</time></trkpt><trkpt lat="43.46503976523717" lon="13.59252949465626"><ele>90.0</ele><time>2026-05-02T13:34:04Z</time></trkpt><trkpt lat="43.46504671321691" lon="13.592384187070303"><ele>90.0</ele><time>2026-05-02T13:34:06Z</time></trkpt><trkpt lat="43.46505673905829" lon="13.592268570694214"><ele>90.0</ele><time>2026-05-02T13:34:08Z</time></trkpt><trkpt lat="43.46507578933442" lon="13.592151232591995"><ele>90.0</ele><time>2026-05-02T13:34:10Z</time></trkpt><trkpt lat="43.46510151582389" lon="13.592021012067748"><ele>89.83333333333333</ele><time>2026-05-02T13:34:12Z</time></trkpt><trkpt lat="43.465113545716356" lon="13.591893374104982"><ele>89.66666666666667</ele><time>2026-05-02T13:34:13.999Z</time></trkpt><trkpt lat="43.46513682141921" lon="13.591756077703833"><ele>89.5</ele><time>2026-05-02T13:34:15.999Z</time></trkpt><trkpt lat="43.46515187524223" lon="13.591608200546005"><ele>89.33333333333334</ele><time>2026-05-02T13:34:17.999Z</time></trkpt><trkpt lat="43.465157121456485" lon="13.591513367568242"><ele>89.16666666666667</ele><time>2026-05-02T13:34:18.999Z</time></trkpt><trkpt lat="43.46516609190092" lon="13.591424455689488"><ele>89.0</ele><time>2026-05-02T13:34:19.999Z</time></trkpt><trkpt lat="43.46519089983716" lon="13.591319733680386"><ele>88.4</ele><time>2026-05-02T13:34:20.999Z</time></trkpt><trkpt lat="43.46520892682944" lon="13.59113986826699"><ele>87.80000000000001</ele><time>2026-05-02T13:34:22.999Z</time></trkpt><trkpt lat="43.46521915383919" lon="13.591012556073437"><ele>87.19999999999999</ele><time>2026-05-02T13:34:23.999Z</time></trkpt><trkpt lat="43.46522451605909" lon="13.590922519860841"><ele>86.6</ele><time>2026-05-02T13:34:24.999Z</time></trkpt><trkpt lat="43.4652287285403" lon="13.590775466023238"><ele>86.0</ele><time>2026-05-02T13:34:26.999Z</time></trkpt><trkpt lat="43.46522817876156" lon="13.59065292261704"><ele>86.0</ele><time>2026-05-02T13:34:28.999Z</time></trkpt><trkpt lat="43.46522544747848" lon="13.590543782282614"><ele>86.0</ele><time>2026-05-02T13:34:30.999Z</time></trkpt><trkpt lat="43.46524897488348" lon="13.59045558410745"><ele>86.0</ele><time>2026-05-02T13:34:32.999Z</time></trkpt><trkpt lat="43.465261244087024" lon="13.590337507765017"><ele>86.0</ele><time>2026-05-02T13:34:34.999Z</time></trkpt><trkpt lat="43.465285266717764" lon="13.590252599014548"><ele>86.0</ele><time>2026-05-02T13:34:36.999Z</time></trkpt><trkpt lat="43.465294390771206" lon="13.59015171664414"><ele>86.0</ele><time>2026-05-02T13:34:38.999Z</time></trkpt><trkpt lat="43.46531205864869" lon="13.590039138982139"><ele>85.0</ele><time>2026-05-02T13:34:40.999Z</time></trkpt><trkpt lat="43.465338854115785" lon="13.589930064555348"><ele>84.0</ele><time>2026-05-02T13:34:42.999Z</time></trkpt><trkpt lat="43.4653687126576" lon="13.58979991365264"><ele>83.0</ele><time>2026-05-02T13:34:44.999Z</time></trkpt><trkpt lat="43.4654032336259" lon="13.589689519140087"><ele>82.0</ele><time>2026-05-02T13:34:46.999Z</time></trkpt><trkpt lat="43.465441567437686" lon="13.589612323466412"><ele>81.0</ele><time>2026-05-02T13:34:48.999Z</time></trkpt><trkpt lat="43.465504143365244" lon="13.58952517998322"><ele>80.0</ele><time>2026-05-02T13:34:51.999Z</time></trkpt><trkpt lat="43.465560974139095" lon="13.589461312796368"><ele>82.83333333333334</ele><time>2026-05-02T13:34:54.999Z</time></trkpt><trkpt lat="43.46560603951301" lon="13.589399787337483"><ele>85.66666666666667</ele><time>2026-05-02T13:34:57.999Z</time></trkpt><trkpt lat="43.465679616155796" lon="13.589363168696133"><ele>88.5</ele><time>2026-05-02T13:35:01.999Z</time></trkpt><trkpt lat="43.465735132604706" lon="13.589297050461303"><ele>91.33333333333334</ele><time>2026-05-02T13:35:05.999Z</time></trkpt><trkpt lat="43.465756725400986" lon="13.58917953090747"><ele>94.16666666666667</ele><time>2026-05-02T13:35:08.999Z</time></trkpt><trkpt lat="43.465745826741795" lon="13.589069562191785"><ele>97.0</ele><time>2026-05-02T13:35:10.999Z</time></trkpt><trkpt lat="43.46575465398281" lon="13.588954753864467"><ele>97.00000000000001</ele><time>2026-05-02T13:35:12.999Z</time></trkpt><trkpt lat="43.4657573286037" lon="13.588818079165288"><ele>97.0</ele><time>2026-05-02T13:35:14.999Z</time></trkpt><trkpt lat="43.46576996435474" lon="13.588696842550018"><ele>97.0</ele><time>2026-05-02T13:35:16.999Z</time></trkpt><trkpt lat="43.46577473135066" lon="13.588573544521514"><ele>97.0</ele><time>2026-05-02T13:35:18.999Z</time></trkpt><trkpt lat="43.465768310666576" lon="13.588463043613968"><ele>97.00000000000001</ele><time>2026-05-02T13:35:20.999Z</time></trkpt><trkpt lat="43.46579267387056" lon="13.588342052641456"><ele>97.0</ele><time>2026-05-02T13:35:23Z</time></trkpt><trkpt lat="43.46579404460114" lon="13.588235772754334"><ele>97.00000000000001</ele><time>2026-05-02T13:35:25Z</time></trkpt><trkpt lat="43.465788484372226" lon="13.58812963986054"><ele>97.0</ele><time>2026-05-02T13:35:27Z</time></trkpt><trkpt lat="43.46583526567098" lon="13.588032962683632"><ele>97.0</ele><time>2026-05-02T13:35:29Z</time></trkpt><trkpt lat="43.465842046511916" lon="13.58793747423727"><ele>97.0</ele><time>2026-05-02T13:35:31Z</time></trkpt><trkpt lat="43.46583500770065" lon="13.58782199418175"><ele>97.00000000000001</ele><time>2026-05-02T13:35:34Z</time></trkpt><trkpt lat="43.465856204124684" lon="13.587738104943524"><ele>97.0</ele><time>2026-05-02T13:35:36Z</time></trkpt><trkpt lat="43.465861987337234" lon="13.587636465486861"><ele>98.00000000000001</ele><time>2026-05-02T13:35:39Z</time></trkpt><trkpt lat="43.46584889838403" lon="13.587518787330886"><ele>99.0</ele><time>2026-05-02T13:35:42Z</time></trkpt><trkpt lat="43.46586646668712" lon="13.587418178639995"><ele>100.0</ele><time>2026-05-02T13:35:45Z</time></trkpt><trkpt lat="43.46584879613141" lon="13.58731499053952"><ele>101.0</ele><time>2026-05-02T13:35:48Z</time></trkpt><trkpt lat="43.465829920074434" lon="13.587204106030173"><ele>102.00000000000001</ele><time>2026-05-02T13:35:51Z</time></trkpt><trkpt lat="43.46583594422087" lon="13.587113199948796"><ele>103.0</ele><time>2026-05-02T13:35:54Z</time></trkpt><trkpt lat="43.4658048830902" lon="13.587032725128676"><ele>103.16666666666667</ele><time>2026-05-02T13:35:56Z</time></trkpt><trkpt lat="43.46580764912872" lon="13.586929990535767"><ele>103.33333333333334</ele><time>2026-05-02T13:35:59Z</time></trkpt><trkpt lat="43.46578560235585" lon="13.586822703820125"><ele>103.5</ele><time>2026-05-02T13:36:02Z</time></trkpt><trkpt lat="43.465801325967185" lon="13.586712330211464"><ele>103.66666666666666</ele><time>2026-05-02T13:36:05Z</time></trkpt><trkpt lat="43.46580241859109" lon="13.58659040032464"><ele>103.83333333333333</ele><time>2026-05-02T13:36:08Z</time></trkpt><trkpt lat="43.46583233048324" lon="13.586480275098609"><ele>104.0</ele><time>2026-05-02T13:36:10Z</time></trkpt><trkpt lat="43.465855641465524" lon="13.586353684957825"><ele>104.0</ele><time>2026-05-02T13:36:12Z</time></trkpt><trkpt lat="43.4658941864161" lon="13.58622653986182"><ele>104.0</ele><time>2026-05-02T13:36:14Z</time></trkpt><trkpt lat="43.46592393717883" lon="13.586071241053357"><ele>104.0</ele><time>2026-05-02T13:36:16Z</time></trkpt><trkpt lat="43.46595969452758" lon="13.585913056626067"><ele>104.0</ele><time>2026-05-02T13:36:18Z</time></trkpt><trkpt lat="43.4659975407186" lon="13.585752511117155"><ele>103.6</ele><time>2026-05-02T13:36:20Z</time></trkpt><trkpt lat="43.46601965409331" lon="13.58566668686658"><ele>103.2</ele><time>2026-05-02T13:36:21Z</time></trkpt><trkpt lat="43.466061172837264" lon="13.58559944848496"><ele>102.8</ele><time>2026-05-02T13:36:22Z</time></trkpt><trkpt lat="43.466092690246526" lon="13.585451895957243"><ele>102.39999999999999</ele><time>2026-05-02T13:36:23.999Z</time></trkpt><trkpt lat="43.46609780310034" lon="13.585302089348449"><ele>102.0</ele><time>2026-05-02T13:36:25.999Z</time></trkpt><trkpt lat="43.466109899310915" lon="13.585154838466485"><ele>102.0</ele><time>2026-05-02T13:36:27.999Z</time></trkpt><trkpt lat="43.466099709402535" lon="13.585026874684221"><ele>102.0</ele><time>2026-05-02T13:36:29.999Z</time></trkpt><trkpt lat="43.46611249408466" lon="13.584926993279042"><ele>102.0</ele><time>2026-05-02T13:36:31.999Z</time></trkpt><trkpt lat="43.466110284207225" lon="13.584795505486191"><ele>102.0</ele><time>2026-05-02T13:36:34.999Z</time></trkpt><trkpt lat="43.466108517897055" lon="13.58469041010076"><ele>102.0</ele><time>2026-05-02T13:36:36.999Z</time></trkpt><trkpt lat="43.466106987891486" lon="13.58459928416849"><ele>102.0</ele><time>2026-05-02T13:36:38.999Z</time></trkpt><trkpt lat="43.46610500263631" lon="13.58447810739613"><ele>102.28571428571429</ele><time>2026-05-02T13:36:40.999Z</time></trkpt><trkpt lat="43.46610332109937" lon="13.584375469009418"><ele>102.57142857142858</ele><time>2026-05-02T13:36:42.999Z</time></trkpt><trkpt lat="43.46610160164198" lon="13.584270515994223"><ele>102.85714285714286</ele><time>2026-05-02T13:36:44.999Z</time></trkpt><trkpt lat="43.46609314270379" lon="13.584175547874969"><ele>103.14285714285714</ele><time>2026-05-02T13:36:46.999Z</time></trkpt><trkpt lat="43.46608987125714" lon="13.584080752346338"><ele>103.42857142857143</ele><time>2026-05-02T13:36:48.999Z</time></trkpt><trkpt lat="43.466088202585276" lon="13.583963753531338"><ele>103.71428571428571</ele><time>2026-05-02T13:36:50.999Z</time></trkpt><trkpt lat="43.466089773882715" lon="13.58387552903938"><ele>104.0</ele><time>2026-05-02T13:36:52.999Z</time></trkpt><trkpt lat="43.46608378800553" lon="13.583782506381334"><ele>104.0</ele><time>2026-05-02T13:36:54.999Z</time></trkpt><trkpt lat="43.466081629912786" lon="13.58368291913123"><ele>104.0</ele><time>2026-05-02T13:36:56.999Z</time></trkpt><trkpt lat="43.46605960270223" lon="13.583593611508334"><ele>104.0</ele><time>2026-05-02T13:36:58.999Z</time></trkpt><trkpt lat="43.466053484907164" lon="13.583505704243306"><ele>104.0</ele><time>2026-05-02T13:37:00.999Z</time></trkpt><trkpt lat="43.46601749165254" lon="13.583405277401113"><ele>104.0</ele><time>2026-05-02T13:37:03.999Z</time></trkpt><trkpt lat="43.4660318237967" lon="13.583316070804798"><ele>104.0</ele><time>2026-05-02T13:37:05.999Z</time></trkpt><trkpt lat="43.466026008998924" lon="13.583209725380698"><ele>104.0</ele><time>2026-05-02T13:37:08.999Z</time></trkpt><trkpt lat="43.465985010310085" lon="13.583134367670441"><ele>105.16666666666666</ele><time>2026-05-02T13:37:10.999Z</time></trkpt><trkpt lat="43.4659690410784" lon="13.583013511695313"><ele>106.33333333333333</ele><time>2026-05-02T13:37:13.999Z</time></trkpt><trkpt lat="43.465960129912354" lon="13.582893339597637"><ele>107.5</ele><time>2026-05-02T13:37:16.999Z</time></trkpt><trkpt lat="43.46593390020037" lon="13.582801735647937"><ele>108.66666666666666</ele><time>2026-05-02T13:37:18.999Z</time></trkpt><trkpt lat="43.46593100676289" lon="13.582710675314058"><ele>109.83333333333333</ele><time>2026-05-02T13:37:20.999Z</time></trkpt><trkpt lat="43.46592878370027" lon="13.582608163135205"><ele>111.0</ele><time>2026-05-02T13:37:22.999Z</time></trkpt><trkpt lat="43.46591627680548" lon="13.582496931647167"><ele>111.33333333333333</ele><time>2026-05-02T13:37:24.999Z</time></trkpt><trkpt lat="43.4659229010035" lon="13.582389065453157"><ele>111.66666666666666</ele><time>2026-05-02T13:37:26.999Z</time></trkpt><trkpt lat="43.465956338830146" lon="13.582286247913695"><ele>112.0</ele><time>2026-05-02T13:37:29Z</time></trkpt><trkpt lat="43.46601941789428" lon="13.582210294148062"><ele>112.33333333333333</ele><time>2026-05-02T13:37:31Z</time></trkpt><trkpt lat="43.466084651936036" lon="13.58214839637386"><ele>112.66666666666666</ele><time>2026-05-02T13:37:33Z</time></trkpt><trkpt lat="43.46614876270167" lon="13.582080378752956"><ele>113.0</ele><time>2026-05-02T13:37:35Z</time></trkpt><trkpt lat="43.46621865602528" lon="13.582031735658036"><ele>112.83333333333333</ele><time>2026-05-02T13:37:37Z</time></trkpt><trkpt lat="43.466265408615925" lon="13.581949676019361"><ele>112.66666666666666</ele><time>2026-05-02T13:37:39Z</time></trkpt><trkpt lat="43.46627916128719" lon="13.581853166084203"><ele>112.5</ele><time>2026-05-02T13:37:41Z</time></trkpt><trkpt lat="43.46629810864146" lon="13.581743588349623"><ele>112.33333333333334</ele><time>2026-05-02T13:37:43Z</time></trkpt><trkpt lat="43.46634351666174" lon="13.581638974231359"><ele>112.16666666666667</ele><time>2026-05-02T13:37:45Z</time></trkpt><trkpt lat="43.46636708040663" lon="13.581499961818432"><ele>112.0</ele><time>2026-05-02T13:37:47Z</time></trkpt><trkpt lat="43.46639420057671" lon="13.581355444758834"><ele>112.0</ele><time>2026-05-02T13:37:49Z</time></trkpt><trkpt lat="43.46642448295277" lon="13.581225221980375"><ele>111.99999999999999</ele><time>2026-05-02T13:37:51Z</time></trkpt><trkpt lat="43.46647011496786" lon="13.581106714229806"><ele>111.99999999999999</ele><time>2026-05-02T13:37:53Z</time></trkpt><trkpt lat="43.46652504396461" lon="13.580994804602087"><ele>112.0</ele><time>2026-05-02T13:37:55Z</time></trkpt><trkpt lat="43.46659263322534" lon="13.580881860194626"><ele>112.0</ele><time>2026-05-02T13:37:57Z</time></trkpt><trkpt lat="43.46667183457683" lon="13.580755552095697"><ele>112.39999999999999</ele><time>2026-05-02T13:37:59Z</time></trkpt><trkpt lat="43.46672906919944" lon="13.5807111632445"><ele>112.79999999999998</ele><time>2026-05-02T13:38:00Z</time></trkpt><trkpt lat="43.46682509525598" lon="13.580602672474116"><ele>113.2</ele><time>2026-05-02T13:38:02Z</time></trkpt><trkpt lat="43.46687310591272" lon="13.580539685533477"><ele>113.6</ele><time>2026-05-02T13:38:03Z</time></trkpt><trkpt lat="43.466959729192105" lon="13.580426370900172"><ele>114.0</ele><time>2026-05-02T13:38:05Z</time></trkpt><trkpt lat="43.467030403513334" lon="13.58030890910777"><ele>114.0</ele><time>2026-05-02T13:38:07Z</time></trkpt><trkpt lat="43.467102034138996" lon="13.58020745605884"><ele>114.0</ele><time>2026-05-02T13:38:09Z</time></trkpt><trkpt lat="43.46716060231502" lon="13.580068034777982"><ele>114.0</ele><time>2026-05-02T13:38:11Z</time></trkpt><trkpt lat="43.46721774374954" lon="13.57990397632048"><ele>114.0</ele><time>2026-05-02T13:38:13Z</time></trkpt><trkpt lat="43.46725140355176" lon="13.579815245893823"><ele>114.0</ele><time>2026-05-02T13:38:14Z</time></trkpt><trkpt lat="43.46729966232686" lon="13.579712575338446"><ele>113.2</ele><time>2026-05-02T13:38:15Z</time></trkpt><trkpt lat="43.467336774244124" lon="13.579595241755928"><ele>112.4</ele><time>2026-05-02T13:38:16Z</time></trkpt><trkpt lat="43.467378356097875" lon="13.579470934204172"><ele>111.6</ele><time>2026-05-02T13:38:17Z</time></trkpt><trkpt lat="43.46741363077269" lon="13.5793474159019"><ele>110.8</ele><time>2026-05-02T13:38:18Z</time></trkpt><trkpt lat="43.46748378980306" lon="13.579214314248569"><ele>110.0</ele><time>2026-05-02T13:38:19Z</time></trkpt><trkpt lat="43.467546137167325" lon="13.579050486346764"><ele>109.0</ele><time>2026-05-02T13:38:20Z</time></trkpt><trkpt lat="43.46761586451185" lon="13.578860772464987"><ele>108.0</ele><time>2026-05-02T13:38:21Z</time></trkpt><trkpt lat="43.46769699892392" lon="13.578643597406003"><ele>107.0</ele><time>2026-05-02T13:38:22Z</time></trkpt><trkpt lat="43.467799456246425" lon="13.578387307978629"><ele>105.0</ele><time>2026-05-02T13:38:23Z</time></trkpt><trkpt lat="43.46786522159914" lon="13.578240336062644"><ele>103.0</ele><time>2026-05-02T13:38:25Z</time></trkpt><trkpt lat="43.46794021166624" lon="13.578066081023428"><ele>101.0</ele><time>2026-05-02T13:38:25.999Z</time></trkpt><trkpt lat="43.468007634126735" lon="13.577940185156201"><ele>99.0</ele><time>2026-05-02T13:38:26.999Z</time></trkpt><trkpt lat="43.4680632175963" lon="13.577812891769652"><ele>98.16666666666667</ele><time>2026-05-02T13:38:27.999Z</time></trkpt><trkpt lat="43.46812348633171" lon="13.577709878253545"><ele>97.33333333333333</ele><time>2026-05-02T13:38:28.999Z</time></trkpt><trkpt lat="43.46816985429742" lon="13.577618777317989"><ele>96.5</ele><time>2026-05-02T13:38:29.999Z</time></trkpt><trkpt lat="43.46821209334908" lon="13.577551467899777"><ele>95.66666666666666</ele><time>2026-05-02T13:38:30.999Z</time></trkpt><trkpt lat="43.46826263407273" lon="13.577472789114351"><ele>94.83333333333333</ele><time>2026-05-02T13:38:32.999Z</time></trkpt><trkpt lat="43.468300176165755" lon="13.577399992023041"><ele>94.0</ele><time>2026-05-02T13:38:34.999Z</time></trkpt><trkpt lat="43.468362593085" lon="13.577325168945949"><ele>94.0</ele><time>2026-05-02T13:38:59.999Z</time></trkpt><trkpt lat="43.46840858160513" lon="13.577250186024619"><ele>94.0</ele><time>2026-05-02T13:39:02.999Z</time></trkpt><trkpt lat="43.46846303566076" lon="13.577173650377116"><ele>94.0</ele><time>2026-05-02T13:39:06.999Z</time></trkpt><trkpt lat="43.468518145364285" lon="13.577087961617528"><ele>94.0</ele><time>2026-05-02T13:39:51Z</time></trkpt><trkpt lat="43.468549902542875" lon="13.576990069482319"><ele>94.0</ele><time>2026-05-02T13:39:54Z</time></trkpt><trkpt lat="43.46860214027121" lon="13.576919677412304"><ele>94.0</ele><time>2026-05-02T13:39:57Z</time></trkpt><trkpt lat="43.4686561483137" lon="13.576858338101117"><ele>94.66666666666666</ele><time>2026-05-02T13:40:00Z</time></trkpt><trkpt lat="43.468714601718496" lon="13.576768736748933"><ele>95.33333333333333</ele><time>2026-05-02T13:40:03Z</time></trkpt><trkpt lat="43.46875932448705" lon="13.576679790374786"><ele>96.0</ele><time>2026-05-02T13:40:05Z</time></trkpt><trkpt lat="43.468811581081795" lon="13.576579507883162"><ele>96.66666666666666</ele><time>2026-05-02T13:40:07Z</time></trkpt><trkpt lat="43.46886582422223" lon="13.576473748162565"><ele>97.33333333333333</ele><time>2026-05-02T13:40:09Z</time></trkpt><trkpt lat="43.468927127257494" lon="13.576366687445976"><ele>98.0</ele><time>2026-05-02T13:40:11Z</time></trkpt><trkpt lat="43.46899459299315" lon="13.576268775590048"><ele>99.2</ele><time>2026-05-02T13:40:13Z</time></trkpt><trkpt lat="43.469053801755955" lon="13.576151754023137"><ele>100.4</ele><time>2026-05-02T13:40:15Z</time></trkpt><trkpt lat="43.4691060067966" lon="13.57601094359481"><ele>101.60000000000001</ele><time>2026-05-02T13:40:17Z</time></trkpt><trkpt lat="43.469159247293355" lon="13.575890574057032"><ele>102.80000000000001</ele><time>2026-05-02T13:40:19Z</time></trkpt><trkpt lat="43.469206938748684" lon="13.575777319953206"><ele>104.0</ele><time>2026-05-02T13:40:21Z</time></trkpt><trkpt lat="43.46926546851667" lon="13.575675197549364"><ele>104.0</ele><time>2026-05-02T13:40:23Z</time></trkpt><trkpt lat="43.46930743427986" lon="13.575588829536763"><ele>104.0</ele><time>2026-05-02T13:40:25Z</time></trkpt><trkpt lat="43.46947268069584" lon="13.575733697616384"><ele>104.0</ele><time>2026-05-02T13:40:29.999Z</time></trkpt><trkpt lat="43.469573411009286" lon="13.575806611151044"><ele>104.0</ele><time>2026-05-02T13:40:31.999Z</time></trkpt><trkpt lat="43.46963225020088" lon="13.575842213268704"><ele>104.0</ele><time>2026-05-02T13:40:32.999Z</time></trkpt><trkpt lat="43.469688616459294" lon="13.575889640802727"><ele>102.66666666666666</ele><time>2026-05-02T13:40:33.999Z</time></trkpt><trkpt lat="43.46974726600425" lon="13.575960032685488"><ele>101.33333333333333</ele><time>2026-05-02T13:40:34.999Z</time></trkpt><trkpt lat="43.46980464942533" lon="13.57601732852137"><ele>100.0</ele><time>2026-05-02T13:40:35.999Z</time></trkpt><trkpt lat="43.46990248027815" lon="13.576100854454548"><ele>98.66666666666666</ele><time>2026-05-02T13:40:37.999Z</time></trkpt><trkpt lat="43.469989264911106" lon="13.57612725613849"><ele>97.33333333333333</ele><time>2026-05-02T13:40:39.999Z</time></trkpt><trkpt lat="43.47004276579537" lon="13.576074469357444"><ele>96.0</ele><time>2026-05-02T13:40:40.999Z</time></trkpt><trkpt lat="43.47006779310116" lon="13.575988862319132"><ele>96.0</ele><time>2026-05-02T13:40:41.999Z</time></trkpt><trkpt lat="43.470092006596715" lon="13.575851395791194"><ele>96.0</ele><time>2026-05-02T13:40:43.999Z</time></trkpt><trkpt lat="43.470150112044834" lon="13.575756581679617"><ele>96.0</ele><time>2026-05-02T13:40:45.999Z</time></trkpt><trkpt lat="43.470185996901485" lon="13.57563830947235"><ele>96.0</ele><time>2026-05-02T13:40:47.999Z</time></trkpt><trkpt lat="43.47022888332807" lon="13.575525451654094"><ele>96.0</ele><time>2026-05-02T13:40:49.999Z</time></trkpt><trkpt lat="43.4702562024999" lon="13.575401509553654"><ele>96.6</ele><time>2026-05-02T13:40:51.999Z</time></trkpt><trkpt lat="43.47028609086189" lon="13.575268784442784"><ele>97.19999999999999</ele><time>2026-05-02T13:40:53.999Z</time></trkpt><trkpt lat="43.47034513435409" lon="13.575147460543315"><ele>97.80000000000001</ele><time>2026-05-02T13:40:55.999Z</time></trkpt><trkpt lat="43.47039460899599" lon="13.575018701359614"><ele>98.4</ele><time>2026-05-02T13:40:57.999Z</time></trkpt><trkpt lat="43.47038288700866" lon="13.574889180922195"><ele>99.0</ele><time>2026-05-02T13:40:59.999Z</time></trkpt><trkpt lat="43.470302454012" lon="13.574850134008651"><ele>99.0</ele><time>2026-05-02T13:41:01.999Z</time></trkpt><trkpt lat="43.47024175593053" lon="13.5748194022284"><ele>99.0</ele><time>2026-05-02T13:41:03.999Z</time></trkpt><trkpt lat="43.47015624649142" lon="13.574803238707858"><ele>99.0</ele><time>2026-05-02T13:41:06.999Z</time></trkpt><trkpt lat="43.470078004386366" lon="13.574783136539784"><ele>99.0</ele><time>2026-05-02T13:41:09.999Z</time></trkpt><trkpt lat="43.470008651830696" lon="13.574726873645375"><ele>99.0</ele><time>2026-05-02T13:41:12.999Z</time></trkpt><trkpt lat="43.46994690833422" lon="13.574704740646448"><ele>99.0</ele><time>2026-05-02T13:41:15.999Z</time></trkpt><trkpt lat="43.46988449059299" lon="13.574670650114667"><ele>99.0</ele><time>2026-05-02T13:41:18.999Z</time></trkpt><trkpt lat="43.469821128620325" lon="13.574678775195768"><ele>99.0</ele><time>2026-05-02T13:41:20.999Z</time></trkpt><trkpt lat="43.469756599097465" lon="13.574594907617637"><ele>99.0</ele><time>2026-05-02T13:41:23.999Z</time></trkpt><trkpt lat="43.46976370149917" lon="13.574494364638138"><ele>99.0</ele><time>2026-05-02T13:41:25.999Z</time></trkpt><trkpt lat="43.469799754878046" lon="13.574381669287442"><ele>99.0</ele><time>2026-05-02T13:41:27.999Z</time></trkpt><trkpt lat="43.4698082776046" lon="13.57424201004104"><ele>99.0</ele><time>2026-05-02T13:41:29.998Z</time></trkpt><trkpt lat="43.46983681045654" lon="13.574089652659204"><ele>98.66666666666667</ele><time>2026-05-02T13:41:31.998Z</time></trkpt><trkpt lat="43.46986553008261" lon="13.5739337768387"><ele>98.33333333333334</ele><time>2026-05-02T13:41:33.998Z</time></trkpt><trkpt lat="43.46987617901067" lon="13.573846356958157"><ele>98.0</ele><time>2026-05-02T13:41:34.998Z</time></trkpt><trkpt lat="43.46989713435578" lon="13.57376049315779"><ele>97.66666666666667</ele><time>2026-05-02T13:41:35.998Z</time></trkpt><trkpt lat="43.46992940423294" lon="13.573675654515043"><ele>97.33333333333334</ele><time>2026-05-02T13:41:36.998Z</time></trkpt><trkpt lat="43.46993023345299" lon="13.573568204392009"><ele>97.0</ele><time>2026-05-02T13:41:37.998Z</time></trkpt><trkpt lat="43.46993336814625" lon="13.57346830730124"><ele>96.39999999999999</ele><time>2026-05-02T13:41:38.998Z</time></trkpt><trkpt lat="43.46996248658071" lon="13.57335549278192"><ele>95.8</ele><time>2026-05-02T13:41:41Z</time></trkpt><trkpt lat="43.470007414523884" lon="13.57328660374392"><ele>95.2</ele><time>2026-05-02T13:41:45Z</time></trkpt><trkpt lat="43.47009605946856" lon="13.573265462266239"><ele>94.6</ele><time>2026-05-02T13:41:47Z</time></trkpt><trkpt lat="43.470172598659964" lon="13.573301490717483"><ele>94.0</ele><time>2026-05-02T13:41:49Z</time></trkpt><trkpt lat="43.47014071978489" lon="13.57349006328716"><ele>94.0</ele><time>2026-05-02T13:41:52Z</time></trkpt><trkpt lat="43.47017214142563" lon="13.573316042031028"><ele>94.0</ele><time>2026-05-02T13:41:59Z</time></trkpt><trkpt lat="43.470248141811965" lon="13.573229424849595"><ele>94.0</ele><time>2026-05-02T13:42:05Z</time></trkpt><trkpt lat="43.47035358178945" lon="13.573230830488496"><ele>94.0</ele><time>2026-05-02T13:42:07Z</time></trkpt><trkpt lat="43.47047671134277" lon="13.573212846171739"><ele>92.6</ele><time>2026-05-02T13:42:09Z</time></trkpt><trkpt lat="43.47053906819128" lon="13.573193245810844"><ele>91.2</ele><time>2026-05-02T13:42:10Z</time></trkpt><trkpt lat="43.470664574834295" lon="13.573225922390343"><ele>89.8</ele><time>2026-05-02T13:42:12Z</time></trkpt><trkpt lat="43.470729903241754" lon="13.573407454877874"><ele>88.39999999999999</ele><time>2026-05-02T13:42:13Z</time></trkpt><trkpt lat="43.47075718432185" lon="13.573495303542085"><ele>87.0</ele><time>2026-05-02T13:42:14Z</time></trkpt><trkpt lat="43.47081716566409" lon="13.573606845499596"><ele>87.33333333333333</ele><time>2026-05-02T13:42:17Z</time></trkpt><trkpt lat="43.47087742542294" lon="13.5737515783162"><ele>87.66666666666667</ele><time>2026-05-02T13:42:19Z</time></trkpt><trkpt lat="43.470941435071566" lon="13.57389951515884"><ele>88.0</ele><time>2026-05-02T13:42:21Z</time></trkpt><trkpt lat="43.47097292479079" lon="13.57397477010203"><ele>88.33333333333334</ele><time>2026-05-02T13:42:22Z</time></trkpt><trkpt lat="43.47100674318394" lon="13.574052281617414"><ele>88.66666666666667</ele><time>2026-05-02T13:42:23Z</time></trkpt><trkpt lat="43.471040200673194" lon="13.574128961250524"><ele>89.0</ele><time>2026-05-02T13:42:24Z</time></trkpt><trkpt lat="43.47107191603996" lon="13.574207093079076"><ele>89.0</ele><time>2026-05-02T13:42:25Z</time></trkpt><trkpt lat="43.4711049963705" lon="13.5742843486168"><ele>89.0</ele><time>2026-05-02T13:42:26Z</time></trkpt><trkpt lat="43.47113862676517" lon="13.574363735635785"><ele>89.0</ele><time>2026-05-02T13:42:27Z</time></trkpt><trkpt lat="43.47114926331979" lon="13.574450326596823"><ele>89.0</ele><time>2026-05-02T13:42:28Z</time></trkpt><trkpt lat="43.47117561581904" lon="13.574618888660385"><ele>89.0</ele><time>2026-05-02T13:42:30Z</time></trkpt><trkpt lat="43.47117926484927" lon="13.574787469646274"><ele>89.0</ele><time>2026-05-02T13:42:31.999Z</time></trkpt><trkpt lat="43.4711963721148" lon="13.57488235196577"><ele>88.75</ele><time>2026-05-02T13:42:32.999Z</time></trkpt><trkpt lat="43.4711759789033" lon="13.57503725748757"><ele>88.5</ele><time>2026-05-02T13:42:34.999Z</time></trkpt><trkpt lat="43.47111484441436" lon="13.575155203056397"><ele>88.25</ele><time>2026-05-02T13:42:36.999Z</time></trkpt><trkpt lat="43.47118545967783" lon="13.575256473423309"><ele>88.0</ele><time>2026-05-02T13:42:38.999Z</time></trkpt><trkpt lat="43.47135627492454" lon="13.57521285035358"><ele>88.0</ele><time>2026-05-02T13:42:40.999Z</time></trkpt><trkpt lat="43.47137224394027" lon="13.57509815577772"><ele>88.0</ele><time>2026-05-02T13:42:41.999Z</time></trkpt><trkpt lat="43.47123895450783" lon="13.574966253333155"><ele>88.0</ele><time>2026-05-02T13:42:42.999Z</time></trkpt><trkpt lat="43.471208514890726" lon="13.5748463624736"><ele>88.0</ele><time>2026-05-02T13:42:44.999Z</time></trkpt><trkpt lat="43.471217102947094" lon="13.57471669667148"><ele>88.0</ele><time>2026-05-02T13:42:46.999Z</time></trkpt><trkpt lat="43.4712072442952" lon="13.574591279119835"><ele>88.2</ele><time>2026-05-02T13:42:48.999Z</time></trkpt><trkpt lat="43.4711877026199" lon="13.57446544150704"><ele>88.4</ele><time>2026-05-02T13:42:50.999Z</time></trkpt><trkpt lat="43.47115353623756" lon="13.574336985131628"><ele>88.60000000000001</ele><time>2026-05-02T13:42:52.999Z</time></trkpt><trkpt lat="43.47111030323491" lon="13.574219553618745"><ele>88.80000000000001</ele><time>2026-05-02T13:42:54.999Z</time></trkpt><trkpt lat="43.47107185557392" lon="13.574112018490146"><ele>89.0</ele><time>2026-05-02T13:42:56.999Z</time></trkpt><trkpt lat="43.47102370276509" lon="13.574003804778775"><ele>89.0</ele><time>2026-05-02T13:42:58.999Z</time></trkpt><trkpt lat="43.47097706831269" lon="13.573904092239607"><ele>89.0</ele><time>2026-05-02T13:43:00.999Z</time></trkpt><trkpt lat="43.47093230204211" lon="13.57380241237606"><ele>89.0</ele><time>2026-05-02T13:43:02.999Z</time></trkpt><trkpt lat="43.47087681750971" lon="13.573708310921408"><ele>89.0</ele><time>2026-05-02T13:43:04.999Z</time></trkpt><trkpt lat="43.4708290751902" lon="13.573605518223694"><ele>89.0</ele><time>2026-05-02T13:43:06.999Z</time></trkpt><trkpt lat="43.47078953518522" lon="13.573498746344084"><ele>89.0</ele><time>2026-05-02T13:43:08.999Z</time></trkpt><trkpt lat="43.47075693422511" lon="13.57339186043462"><ele>88.66666666666667</ele><time>2026-05-02T13:43:10.999Z</time></trkpt><trkpt lat="43.47070742116687" lon="13.57329158341479"><ele>88.33333333333334</ele><time>2026-05-02T13:43:12.999Z</time></trkpt><trkpt lat="43.47071762825512" lon="13.573201950836308"><ele>88.0</ele><time>2026-05-02T13:43:14.999Z</time></trkpt><trkpt lat="43.470842570259364" lon="13.573132976413353"><ele>87.66666666666667</ele><time>2026-05-02T13:43:18.999Z</time></trkpt><trkpt lat="43.47090699183703" lon="13.573127322080373"><ele>87.33333333333333</ele><time>2026-05-02T13:43:19.999Z</time></trkpt><trkpt lat="43.47097245597247" lon="13.573110423111348"><ele>87.0</ele><time>2026-05-02T13:43:20.999Z</time></trkpt><trkpt lat="43.471045563719656" lon="13.573100476264198"><ele>87.0</ele><time>2026-05-02T13:43:21.999Z</time></trkpt><trkpt lat="43.47111552309255" lon="13.573099918357656"><ele>87.0</ele><time>2026-05-02T13:43:22.999Z</time></trkpt><trkpt lat="43.471181473648514" lon="13.573157836116874"><ele>87.0</ele><time>2026-05-02T13:43:23.999Z</time></trkpt><trkpt lat="43.47124280167072" lon="13.573244691654915"><ele>87.0</ele><time>2026-05-02T13:43:24.999Z</time></trkpt><trkpt lat="43.47129047918417" lon="13.573321215478686"><ele>87.0</ele><time>2026-05-02T13:43:25.999Z</time></trkpt><trkpt lat="43.471333791630194" lon="13.573406284966008"><ele>87.0</ele><time>2026-05-02T13:43:26.999Z</time></trkpt><trkpt lat="43.47137698056509" lon="13.573490852947224"><ele>85.71428571428571</ele><time>2026-05-02T13:43:27.999Z</time></trkpt><trkpt lat="43.4714099889188" lon="13.573581153395763"><ele>84.42857142857143</ele><time>2026-05-02T13:43:28.999Z</time></trkpt><trkpt lat="43.47145033840828" lon="13.573662138443323"><ele>83.14285714285714</ele><time>2026-05-02T13:43:29.999Z</time></trkpt><trkpt lat="43.47148806949236" lon="13.573746056373746"><ele>81.85714285714286</ele><time>2026-05-02T13:43:30.999Z</time></trkpt><trkpt lat="43.47153751958144" lon="13.573829195170328"><ele>80.57142857142857</ele><time>2026-05-02T13:43:31.998Z</time></trkpt><trkpt lat="43.47158528038018" lon="13.573915285530598"><ele>79.28571428571429</ele><time>2026-05-02T13:43:32.998Z</time></trkpt><trkpt lat="43.47162535615453" lon="13.57400362233558"><ele>78.0</ele><time>2026-05-02T13:43:33.998Z</time></trkpt><trkpt lat="43.47166483618856" lon="13.57409529990648"><ele>78.0</ele><time>2026-05-02T13:43:34.998Z</time></trkpt><trkpt lat="43.47169547920732" lon="13.574187380282261"><ele>78.0</ele><time>2026-05-02T13:43:35.998Z</time></trkpt><trkpt lat="43.47173088776895" lon="13.57428378297693"><ele>78.0</ele><time>2026-05-02T13:43:36.998Z</time></trkpt><trkpt lat="43.47177405738253" lon="13.574377923707658"><ele>78.0</ele><time>2026-05-02T13:43:37.998Z</time></trkpt><trkpt lat="43.47182305559274" lon="13.574469582945737"><ele>78.0</ele><time>2026-05-02T13:43:38.998Z</time></trkpt><trkpt lat="43.471868669729034" lon="13.574570287953215"><ele>78.0</ele><time>2026-05-02T13:43:39.998Z</time></trkpt><trkpt lat="43.47191751058764" lon="13.574662017942448"><ele>78.16666666666667</ele><time>2026-05-02T13:43:40.998Z</time></trkpt><trkpt lat="43.471952271141454" lon="13.57477078252578"><ele>78.33333333333333</ele><time>2026-05-02T13:43:41.998Z</time></trkpt><trkpt lat="43.47199959622587" lon="13.574870442791765"><ele>78.5</ele><time>2026-05-02T13:43:42.998Z</time></trkpt><trkpt lat="43.472040847820445" lon="13.574974339865149"><ele>78.66666666666666</ele><time>2026-05-02T13:43:43.998Z</time></trkpt><trkpt lat="43.472075708982395" lon="13.575088434005103"><ele>78.83333333333333</ele><time>2026-05-02T13:43:44.998Z</time></trkpt><trkpt lat="43.47210676071751" lon="13.57520026931342"><ele>79.0</ele><time>2026-05-02T13:43:46Z</time></trkpt><trkpt lat="43.47213574519809" lon="13.57531752620644"><ele>76.2</ele><time>2026-05-02T13:43:47Z</time></trkpt><trkpt lat="43.47215170177681" lon="13.575438296878291"><ele>73.4</ele><time>2026-05-02T13:43:48Z</time></trkpt><trkpt lat="43.47216800055842" lon="13.575563402088711"><ele>70.6</ele><time>2026-05-02T13:43:49Z</time></trkpt><trkpt lat="43.472177094298026" lon="13.575695505145129"><ele>67.8</ele><time>2026-05-02T13:43:50Z</time></trkpt><trkpt lat="43.47218726627503" lon="13.575835924192353"><ele>65.0</ele><time>2026-05-02T13:43:51Z</time></trkpt><trkpt lat="43.47219773690983" lon="13.575984839750893"><ele>65.0</ele><time>2026-05-02T13:43:52Z</time></trkpt><trkpt lat="43.4722060903273" lon="13.576136728228056"><ele>65.0</ele><time>2026-05-02T13:43:53Z</time></trkpt><trkpt lat="43.47222581185759" lon="13.57629468523254"><ele>65.0</ele><time>2026-05-02T13:43:54Z</time></trkpt><trkpt lat="43.47224913985057" lon="13.576453825266045"><ele>65.0</ele><time>2026-05-02T13:43:55Z</time></trkpt><trkpt lat="43.47228497631188" lon="13.576615624797597"><ele>63.5</ele><time>2026-05-02T13:43:56Z</time></trkpt><trkpt lat="43.47232409173334" lon="13.576783277160228"><ele>62.0</ele><time>2026-05-02T13:43:57Z</time></trkpt><trkpt lat="43.472363882067555" lon="13.576949878263877"><ele>60.5</ele><time>2026-05-02T13:43:58Z</time></trkpt><trkpt lat="43.47240467266615" lon="13.577129722163596"><ele>59.0</ele><time>2026-05-02T13:43:59Z</time></trkpt><trkpt lat="43.47245063427144" lon="13.577293762791113"><ele>57.25</ele><time>2026-05-02T13:44:00Z</time></trkpt><trkpt lat="43.47249189536526" lon="13.57746633621464"><ele>55.5</ele><time>2026-05-02T13:44:01Z</time></trkpt><trkpt lat="43.47251534428511" lon="13.577641313615922"><ele>53.75</ele><time>2026-05-02T13:44:02Z</time></trkpt><trkpt lat="43.47255309401551" lon="13.577820389305346"><ele>52.0</ele><time>2026-05-02T13:44:03Z</time></trkpt><trkpt lat="43.47258004903689" lon="13.578003438369914"><ele>50.0</ele><time>2026-05-02T13:44:04Z</time></trkpt><trkpt lat="43.47259823714687" lon="13.578192136880496"><ele>48.0</ele><time>2026-05-02T13:44:05Z</time></trkpt><trkpt lat="43.4726118724383" lon="13.578384085544313"><ele>46.0</ele><time>2026-05-02T13:44:06Z</time></trkpt><trkpt lat="43.47262579217175" lon="13.578567910837206"><ele>44.0</ele><time>2026-05-02T13:44:07Z</time></trkpt><trkpt lat="43.47262258027076" lon="13.578767356811621"><ele>42.0</ele><time>2026-05-02T13:44:08Z</time></trkpt><trkpt lat="43.47264926416875" lon="13.578957342972062"><ele>40.0</ele><time>2026-05-02T13:44:09Z</time></trkpt><trkpt lat="43.47266190153315" lon="13.579143200713833"><ele>38.0</ele><time>2026-05-02T13:44:10Z</time></trkpt><trkpt lat="43.47268911368328" lon="13.579321977907634"><ele>36.0</ele><time>2026-05-02T13:44:11Z</time></trkpt><trkpt lat="43.472730182358255" lon="13.579496179554617"><ele>35.0</ele><time>2026-05-02T13:44:12Z</time></trkpt><trkpt lat="43.47276863805794" lon="13.579668450412006"><ele>34.0</ele><time>2026-05-02T13:44:13Z</time></trkpt><trkpt lat="43.4728102901329" lon="13.57982990525327"><ele>33.0</ele><time>2026-05-02T13:44:14Z</time></trkpt><trkpt lat="43.47286029624886" lon="13.579986865681956"><ele>32.0</ele><time>2026-05-02T13:44:15Z</time></trkpt><trkpt lat="43.47292180335527" lon="13.580130487447153"><ele>32.0</ele><time>2026-05-02T13:44:16Z</time></trkpt><trkpt lat="43.472979342860356" lon="13.580275102835516"><ele>32.0</ele><time>2026-05-02T13:44:17Z</time></trkpt><trkpt lat="43.473043377928306" lon="13.580417158719685"><ele>32.0</ele><time>2026-05-02T13:44:18Z</time></trkpt><trkpt lat="43.473108591185586" lon="13.580552878005069"><ele>32.0</ele><time>2026-05-02T13:44:19Z</time></trkpt><trkpt lat="43.47316716700948" lon="13.580711889101996"><ele>30.75</ele><time>2026-05-02T13:44:20Z</time></trkpt><trkpt lat="43.47323173598898" lon="13.580860915265148"><ele>29.5</ele><time>2026-05-02T13:44:21Z</time></trkpt><trkpt lat="43.47330298573732" lon="13.581006176750341"><ele>28.25</ele><time>2026-05-02T13:44:22Z</time></trkpt><trkpt lat="43.4733782166766" lon="13.581151359817701"><ele>27.0</ele><time>2026-05-02T13:44:23Z</time></trkpt><trkpt lat="43.47345413294866" lon="13.581292510556205"><ele>26.5</ele><time>2026-05-02T13:44:24Z</time></trkpt><trkpt lat="43.473537487696255" lon="13.581423024486787"><ele>26.0</ele><time>2026-05-02T13:44:25Z</time></trkpt><trkpt lat="43.47362299378928" lon="13.581545284891163"><ele>25.5</ele><time>2026-05-02T13:44:26Z</time></trkpt><trkpt lat="43.47370381654879" lon="13.58165786821135"><ele>25.0</ele><time>2026-05-02T13:44:27Z</time></trkpt><trkpt lat="43.47379051037896" lon="13.58176701835865"><ele>24.8</ele><time>2026-05-02T13:44:28Z</time></trkpt><trkpt lat="43.473866956950566" lon="13.581874441836725"><ele>24.6</ele><time>2026-05-02T13:44:29Z</time></trkpt><trkpt lat="43.47394070265134" lon="13.581978763213305"><ele>24.4</ele><time>2026-05-02T13:44:30Z</time></trkpt><trkpt lat="43.47401257423289" lon="13.582075956479873"><ele>24.2</ele><time>2026-05-02T13:44:30.999Z</time></trkpt><trkpt lat="43.474085573178066" lon="13.582165144905831"><ele>24.0</ele><time>2026-05-02T13:44:31.999Z</time></trkpt><trkpt lat="43.47416622374058" lon="13.582243813547878"><ele>23.666666666666668</ele><time>2026-05-02T13:44:32.999Z</time></trkpt><trkpt lat="43.474236706473945" lon="13.582318573691344"><ele>23.333333333333332</ele><time>2026-05-02T13:44:33.999Z</time></trkpt><trkpt lat="43.47430512902245" lon="13.582382483474404"><ele>23.0</ele><time>2026-05-02T13:44:34.999Z</time></trkpt><trkpt lat="43.474377989973405" lon="13.582434281317909"><ele>22.666666666666664</ele><time>2026-05-02T13:44:35.999Z</time></trkpt><trkpt lat="43.47444840067679" lon="13.58248205007067"><ele>22.333333333333332</ele><time>2026-05-02T13:44:36.999Z</time></trkpt><trkpt lat="43.47451522233263" lon="13.582526123162854"><ele>22.0</ele><time>2026-05-02T13:44:37.999Z</time></trkpt><trkpt lat="43.4745788833883" lon="13.582563186304228"><ele>22.6</ele><time>2026-05-02T13:44:38.999Z</time></trkpt><trkpt lat="43.47463847296794" lon="13.582593274347605"><ele>23.200000000000003</ele><time>2026-05-02T13:44:39.999Z</time></trkpt><trkpt lat="43.47474714189689" lon="13.582667169582681"><ele>23.8</ele><time>2026-05-02T13:44:41.999Z</time></trkpt><trkpt lat="43.474845499164545" lon="13.582733685571734"><ele>24.4</ele><time>2026-05-02T13:44:43.999Z</time></trkpt><trkpt lat="43.474925142754465" lon="13.582805119798428"><ele>25.0</ele><time>2026-05-02T13:44:45.999Z</time></trkpt><trkpt lat="43.47495819629976" lon="13.582899780988397"><ele>25.000000000000004</ele><time>2026-05-02T13:45:14.999Z</time></trkpt><trkpt lat="43.47501179378589" lon="13.582956155530093"><ele>25.0</ele><time>2026-05-02T13:45:17.999Z</time></trkpt><trkpt lat="43.47507601685723" lon="13.582905539557954"><ele>25.0</ele><time>2026-05-02T13:45:18.999Z</time></trkpt><trkpt lat="43.475139661156504" lon="13.582844536403933"><ele>25.0</ele><time>2026-05-02T13:45:20.999Z</time></trkpt><trkpt lat="43.47520786240279" lon="13.582809174335534"><ele>25.000000000000004</ele><time>2026-05-02T13:45:22.999Z</time></trkpt><trkpt lat="43.47528624466906" lon="13.58279565511193"><ele>25.0</ele><time>2026-05-02T13:45:24.999Z</time></trkpt><trkpt lat="43.47537178004545" lon="13.582780966596674"><ele>25.0</ele><time>2026-05-02T13:45:26.999Z</time></trkpt><trkpt lat="43.47547130109117" lon="13.582774836182631"><ele>25.0</ele><time>2026-05-02T13:45:28.999Z</time></trkpt><trkpt lat="43.475585427906054" lon="13.582801801271083"><ele>25.0</ele><time>2026-05-02T13:45:30.999Z</time></trkpt><trkpt lat="43.475708181782245" lon="13.582826451375976"><ele>25.0</ele><time>2026-05-02T13:45:32.998Z</time></trkpt><trkpt lat="43.47582902743972" lon="13.582879358118348"><ele>25.000000000000004</ele><time>2026-05-02T13:45:34.998Z</time></trkpt><trkpt lat="43.47588477834098" lon="13.582924208992262"><ele>25.0</ele><time>2026-05-02T13:45:35.998Z</time></trkpt><trkpt lat="43.47594601760226" lon="13.582966982923299"><ele>25.0</ele><time>2026-05-02T13:45:36.998Z</time></trkpt><trkpt lat="43.4760061698773" lon="13.583009024788351"><ele>25.0</ele><time>2026-05-02T13:45:37.998Z</time></trkpt><trkpt lat="43.47606211831555" lon="13.583060407278362"><ele>25.0</ele><time>2026-05-02T13:45:38.998Z</time></trkpt><trkpt lat="43.47611735439434" lon="13.58311627494618"><ele>25.000000000000004</ele><time>2026-05-02T13:45:39.998Z</time></trkpt><trkpt lat="43.47617273903118" lon="13.583180647578919"><ele>25.0</ele><time>2026-05-02T13:45:40.998Z</time></trkpt><trkpt lat="43.47621965692616" lon="13.583245502016272"><ele>24.28571428571429</ele><time>2026-05-02T13:45:41.998Z</time></trkpt><trkpt lat="43.47629073956766" lon="13.58330212140071"><ele>23.571428571428573</ele><time>2026-05-02T13:45:42.998Z</time></trkpt><trkpt lat="43.47633129297778" lon="13.583383139056968"><ele>22.857142857142858</ele><time>2026-05-02T13:45:43.998Z</time></trkpt><trkpt lat="43.47636185234481" lon="13.583470749981984"><ele>22.142857142857146</ele><time>2026-05-02T13:45:44.998Z</time></trkpt><trkpt lat="43.47640882502722" lon="13.583545296274336"><ele>21.42857142857143</ele><time>2026-05-02T13:45:45.998Z</time></trkpt><trkpt lat="43.47645553830661" lon="13.583622647224221"><ele>20.714285714285715</ele><time>2026-05-02T13:45:46.998Z</time></trkpt><trkpt lat="43.47650372861835" lon="13.583697168797345"><ele>20.0</ele><time>2026-05-02T13:45:47.998Z</time></trkpt><trkpt lat="43.476552420446026" lon="13.583781948103029"><ele>19.833333333333336</ele><time>2026-05-02T13:45:48.998Z</time></trkpt><trkpt lat="43.47659339389061" lon="13.583880018339732"><ele>19.666666666666668</ele><time>2026-05-02T13:45:49.998Z</time></trkpt><trkpt lat="43.47664519869606" lon="13.583936755764176"><ele>19.5</ele><time>2026-05-02T13:45:50.998Z</time></trkpt><trkpt lat="43.47669163610383" lon="13.58400629604954"><ele>19.333333333333332</ele><time>2026-05-02T13:45:52Z</time></trkpt><trkpt lat="43.47674301875796" lon="13.58408323953175"><ele>19.166666666666664</ele><time>2026-05-02T13:45:53Z</time></trkpt><trkpt lat="43.47672708409003" lon="13.584232780468788"><ele>19.0</ele><time>2026-05-02T13:45:54Z</time></trkpt><trkpt lat="43.476756838270575" lon="13.584328256072528"><ele>19.0</ele><time>2026-05-02T13:45:55Z</time></trkpt><trkpt lat="43.47678501306188" lon="13.584432233011457"><ele>19.0</ele><time>2026-05-02T13:45:56Z</time></trkpt><trkpt lat="43.47681008998264" lon="13.58452093165587"><ele>19.0</ele><time>2026-05-02T13:45:57Z</time></trkpt><trkpt lat="43.47683383681044" lon="13.584623393976013"><ele>19.0</ele><time>2026-05-02T13:45:58Z</time></trkpt><trkpt lat="43.47685803680624" lon="13.584715875985193"><ele>19.0</ele><time>2026-05-02T13:45:59Z</time></trkpt><trkpt lat="43.476881853615005" lon="13.584804540253147"><ele>19.0</ele><time>2026-05-02T13:46:00Z</time></trkpt><trkpt lat="43.47690746101098" lon="13.584899447809322"><ele>19.0</ele><time>2026-05-02T13:46:01Z</time></trkpt><trkpt lat="43.47692926577965" lon="13.584998655843023"><ele>18.857142857142858</ele><time>2026-05-02T13:46:02Z</time></trkpt><trkpt lat="43.476951624113134" lon="13.585102851616185"><ele>18.714285714285715</ele><time>2026-05-02T13:46:03Z</time></trkpt><trkpt lat="43.47696899469386" lon="13.585188684572255"><ele>18.571428571428573</ele><time>2026-05-02T13:46:04Z</time></trkpt><trkpt lat="43.476985111317106" lon="13.585289971754946"><ele>18.42857142857143</ele><time>2026-05-02T13:46:05Z</time></trkpt><trkpt lat="43.4770042165354" lon="13.585397061065617"><ele>18.285714285714285</ele><time>2026-05-02T13:46:06Z</time></trkpt><trkpt lat="43.47701509538977" lon="13.585499532123217"><ele>18.142857142857146</ele><time>2026-05-02T13:46:07Z</time></trkpt><trkpt lat="43.47702481150666" lon="13.585598238427743"><ele>18.0</ele><time>2026-05-02T13:46:08Z</time></trkpt><trkpt lat="43.47703093783522" lon="13.585702677726143"><ele>17.833333333333332</ele><time>2026-05-02T13:46:09Z</time></trkpt><trkpt lat="43.47704226445163" lon="13.585812104026207"><ele>17.666666666666668</ele><time>2026-05-02T13:46:10Z</time></trkpt><trkpt lat="43.47704374382087" lon="13.585913836255603"><ele>17.5</ele><time>2026-05-02T13:46:11Z</time></trkpt><trkpt lat="43.47704652266681" lon="13.586017416630348"><ele>17.333333333333336</ele><time>2026-05-02T13:46:12Z</time></trkpt><trkpt lat="43.477051101853284" lon="13.586122454811706"><ele>17.166666666666668</ele><time>2026-05-02T13:46:13Z</time></trkpt><trkpt lat="43.47704639708073" lon="13.586224845075245"><ele>17.0</ele><time>2026-05-02T13:46:14Z</time></trkpt><trkpt lat="43.47704214639734" lon="13.586325308652889"><ele>16.857142857142854</ele><time>2026-05-02T13:46:15Z</time></trkpt><trkpt lat="43.47703769261186" lon="13.586425873958602"><ele>16.714285714285715</ele><time>2026-05-02T13:46:16Z</time></trkpt><trkpt lat="43.47703570670267" lon="13.586525617541021"><ele>16.57142857142857</ele><time>2026-05-02T13:46:17Z</time></trkpt><trkpt lat="43.47702932020149" lon="13.586623047433463"><ele>16.428571428571427</ele><time>2026-05-02T13:46:18Z</time></trkpt><trkpt lat="43.47701773861119" lon="13.586720493361856"><ele>16.285714285714285</ele><time>2026-05-02T13:46:19Z</time></trkpt><trkpt lat="43.47700226260925" lon="13.586809099661561"><ele>16.142857142857142</ele><time>2026-05-02T13:46:20Z</time></trkpt><trkpt lat="43.47699291489978" lon="13.586901707412327"><ele>16.0</ele><time>2026-05-02T13:46:21Z</time></trkpt><trkpt lat="43.476979103416916" lon="13.58699157964018"><ele>15.714285714285714</ele><time>2026-05-02T13:46:22Z</time></trkpt><trkpt lat="43.47696246524624" lon="13.587078855546611"><ele>15.428571428571427</ele><time>2026-05-02T13:46:23Z</time></trkpt><trkpt lat="43.4769477523765" lon="13.587171313944042"><ele>15.142857142857142</ele><time>2026-05-02T13:46:24Z</time></trkpt><trkpt lat="43.47692598555749" lon="13.587258949667117"><ele>14.857142857142858</ele><time>2026-05-02T13:46:25Z</time></trkpt><trkpt lat="43.47690670351521" lon="13.587341570793562"><ele>14.571428571428571</ele><time>2026-05-02T13:46:26Z</time></trkpt><trkpt lat="43.47688649260658" lon="13.58743000869077"><ele>14.285714285714285</ele><time>2026-05-02T13:46:27Z</time></trkpt><trkpt lat="43.47686198602941" lon="13.587515627287608"><ele>14.0</ele><time>2026-05-02T13:46:28Z</time></trkpt><trkpt lat="43.47683609277389" lon="13.587598069097464"><ele>14.0</ele><time>2026-05-02T13:46:29Z</time></trkpt><trkpt lat="43.476811864128784" lon="13.587679479616444"><ele>14.0</ele><time>2026-05-02T13:46:30Z</time></trkpt><trkpt lat="43.476783951957835" lon="13.587757834879152"><ele>14.0</ele><time>2026-05-02T13:46:31Z</time></trkpt><trkpt lat="43.476757530044765" lon="13.587842251942051"><ele>14.0</ele><time>2026-05-02T13:46:32Z</time></trkpt><trkpt lat="43.476730599644725" lon="13.587922128724944"><ele>14.0</ele><time>2026-05-02T13:46:33Z</time></trkpt><trkpt lat="43.47670178608374" lon="13.588008461103945"><ele>14.0</ele><time>2026-05-02T13:46:33.999Z</time></trkpt><trkpt lat="43.4766717181524" lon="13.58808521236734"><ele>14.0</ele><time>2026-05-02T13:46:34.999Z</time></trkpt><trkpt lat="43.47664240101884" lon="13.588166787543594"><ele>13.500000000000002</ele><time>2026-05-02T13:46:35.999Z</time></trkpt><trkpt lat="43.47661531331938" lon="13.588249623475425"><ele>13.0</ele><time>2026-05-02T13:46:36.999Z</time></trkpt><trkpt lat="43.476588376310225" lon="13.588328565294939"><ele>12.5</ele><time>2026-05-02T13:46:37.999Z</time></trkpt><trkpt lat="43.47656188319477" lon="13.588409099148185"><ele>12.0</ele><time>2026-05-02T13:46:38.999Z</time></trkpt><trkpt lat="43.476533314777846" lon="13.588492377451608"><ele>11.5</ele><time>2026-05-02T13:46:39.999Z</time></trkpt><trkpt lat="43.47647846275655" lon="13.588646935823041"><ele>11.0</ele><time>2026-05-02T13:46:41.999Z</time></trkpt><trkpt lat="43.476453798874346" lon="13.588733784071776"><ele>11.0</ele><time>2026-05-02T13:46:42.999Z</time></trkpt><trkpt lat="43.47640316031388" lon="13.588883861250265"><ele>11.0</ele><time>2026-05-02T13:46:44.999Z</time></trkpt><trkpt lat="43.476348477968" lon="13.589030283890242"><ele>11.0</ele><time>2026-05-02T13:46:46.999Z</time></trkpt><trkpt lat="43.47629975414368" lon="13.589178606955707"><ele>11.0</ele><time>2026-05-02T13:46:48.999Z</time></trkpt><trkpt lat="43.476255052882" lon="13.58930575671066"><ele>12.200000000000001</ele><time>2026-05-02T13:46:50.999Z</time></trkpt><trkpt lat="43.476207946865586" lon="13.589443824830301"><ele>13.4</ele><time>2026-05-02T13:46:52.999Z</time></trkpt><trkpt lat="43.476163596400646" lon="13.589579638090258"><ele>14.6</ele><time>2026-05-02T13:46:54.999Z</time></trkpt><trkpt lat="43.47611920314217" lon="13.58971010772386"><ele>15.8</ele><time>2026-05-02T13:46:56.999Z</time></trkpt><trkpt lat="43.47608681672023" lon="13.589851145473624"><ele>17.0</ele><time>2026-05-02T13:46:58.999Z</time></trkpt><trkpt lat="43.47605468294503" lon="13.589987000037313"><ele>17.0</ele><time>2026-05-02T13:47:00.999Z</time></trkpt><trkpt lat="43.476027395557665" lon="13.59012738372703"><ele>17.0</ele><time>2026-05-02T13:47:02.999Z</time></trkpt><trkpt lat="43.47600354795614" lon="13.590270395895843"><ele>17.0</ele><time>2026-05-02T13:47:04.999Z</time></trkpt><trkpt lat="43.47598383627804" lon="13.590412499479315"><ele>17.0</ele><time>2026-05-02T13:47:06.999Z</time></trkpt><trkpt lat="43.47596518351127" lon="13.590552727812792"><ele>17.0</ele><time>2026-05-02T13:47:08.999Z</time></trkpt><trkpt lat="43.47595459803129" lon="13.590698344918682"><ele>16.0</ele><time>2026-05-02T13:47:10.999Z</time></trkpt><trkpt lat="43.475943923132846" lon="13.590846706311407"><ele>15.0</ele><time>2026-05-02T13:47:12.999Z</time></trkpt><trkpt lat="43.47593265350687" lon="13.59099214014876"><ele>14.0</ele><time>2026-05-02T13:47:14.999Z</time></trkpt><trkpt lat="43.475934385958766" lon="13.591137926444851"><ele>13.0</ele><time>2026-05-02T13:47:16.999Z</time></trkpt><trkpt lat="43.47593489115902" lon="13.59129053903896"><ele>12.0</ele><time>2026-05-02T13:47:18.999Z</time></trkpt><trkpt lat="43.47594246220946" lon="13.591442066502125"><ele>11.5</ele><time>2026-05-02T13:47:20.999Z</time></trkpt><trkpt lat="43.475953285753654" lon="13.591597804256669"><ele>11.0</ele><time>2026-05-02T13:47:22.999Z</time></trkpt><trkpt lat="43.47598079952809" lon="13.591759842719961"><ele>10.5</ele><time>2026-05-02T13:47:24.999Z</time></trkpt><trkpt lat="43.47600115052732" lon="13.591898571717168"><ele>10.0</ele><time>2026-05-02T13:47:26.999Z</time></trkpt><trkpt lat="43.47601915847602" lon="13.592055253172516"><ele>9.75</ele><time>2026-05-02T13:47:28.999Z</time></trkpt><trkpt lat="43.476053550050196" lon="13.592214731997297"><ele>9.5</ele><time>2026-05-02T13:47:30.999Z</time></trkpt><trkpt lat="43.4760881275038" lon="13.592365167342502"><ele>9.25</ele><time>2026-05-02T13:47:32.999Z</time></trkpt><trkpt lat="43.476123372904134" lon="13.592521550420347"><ele>9.0</ele><time>2026-05-02T13:47:34.998Z</time></trkpt><trkpt lat="43.47616297467599" lon="13.592675482511593"><ele>9.0</ele><time>2026-05-02T13:47:36.998Z</time></trkpt><trkpt lat="43.476205025568234" lon="13.592830216346794"><ele>9.0</ele><time>2026-05-02T13:47:38.998Z</time></trkpt><trkpt lat="43.47624622151592" lon="13.592985802927295"><ele>9.0</ele><time>2026-05-02T13:47:40.998Z</time></trkpt><trkpt lat="43.47628486655609" lon="13.59314504642189"><ele>9.0</ele><time>2026-05-02T13:47:42.998Z</time></trkpt><trkpt lat="43.47632267194681" lon="13.593303532505681"><ele>8.6</ele><time>2026-05-02T13:47:44.998Z</time></trkpt><trkpt lat="43.476362028757805" lon="13.59346297651005"><ele>8.2</ele><time>2026-05-02T13:47:46.998Z</time></trkpt><trkpt lat="43.47640043812528" lon="13.593630365728613"><ele>7.799999999999999</ele><time>2026-05-02T13:47:48.998Z</time></trkpt><trkpt lat="43.47644062767993" lon="13.593783802668046"><ele>7.3999999999999995</ele><time>2026-05-02T13:47:50.998Z</time></trkpt><trkpt lat="43.476463212934604" lon="13.593866881746603"><ele>7.0</ele><time>2026-05-02T13:47:51.998Z</time></trkpt><trkpt lat="43.47648502700004" lon="13.593953334995383"><ele>7.000000000000001</ele><time>2026-05-02T13:47:52.998Z</time></trkpt><trkpt lat="43.4765305895739" lon="13.594116139447612"><ele>7.0</ele><time>2026-05-02T13:47:54.998Z</time></trkpt><trkpt lat="43.47655507038427" lon="13.594200632737893"><ele>7.0</ele><time>2026-05-02T13:47:55.998Z</time></trkpt><trkpt lat="43.476582112608625" lon="13.594284233397284"><ele>7.0</ele><time>2026-05-02T13:47:56.998Z</time></trkpt><trkpt lat="43.47660922477469" lon="13.594365090902356"><ele>7.000000000000001</ele><time>2026-05-02T13:47:58Z</time></trkpt><trkpt lat="43.47663807930494" lon="13.594447497548156"><ele>7.0</ele><time>2026-05-02T13:47:59Z</time></trkpt><trkpt lat="43.47666729703597" lon="13.59452766805809"><ele>7.142857142857142</ele><time>2026-05-02T13:48:00Z</time></trkpt><trkpt lat="43.47670049835727" lon="13.594608212525676"><ele>7.285714285714286</ele><time>2026-05-02T13:48:01Z</time></trkpt><trkpt lat="43.47673830829327" lon="13.594686879463147"><ele>7.428571428571429</ele><time>2026-05-02T13:48:02Z</time></trkpt><trkpt lat="43.476772957383155" lon="13.594770596314437"><ele>7.571428571428571</ele><time>2026-05-02T13:48:03Z</time></trkpt><trkpt lat="43.47681455268248" lon="13.59485037793296"><ele>7.7142857142857135</ele><time>2026-05-02T13:48:04Z</time></trkpt><trkpt lat="43.476857851121586" lon="13.59492198827721"><ele>7.857142857142857</ele><time>2026-05-02T13:48:05Z</time></trkpt><trkpt lat="43.47689881222272" lon="13.594998577928697"><ele>8.0</ele><time>2026-05-02T13:48:06Z</time></trkpt><trkpt lat="43.476940258086614" lon="13.595075205304429"><ele>8.0</ele><time>2026-05-02T13:48:07Z</time></trkpt><trkpt lat="43.47698480696831" lon="13.595148329851943"><ele>7.999999999999999</ele><time>2026-05-02T13:48:08Z</time></trkpt><trkpt lat="43.47703046154791" lon="13.595220173330782"><ele>8.0</ele><time>2026-05-02T13:48:09Z</time></trkpt><trkpt lat="43.4770815977007" lon="13.595298560831926"><ele>8.0</ele><time>2026-05-02T13:48:10Z</time></trkpt><trkpt lat="43.47712983833371" lon="13.595377802821373"><ele>7.999999999999999</ele><time>2026-05-02T13:48:11Z</time></trkpt><trkpt lat="43.477184096517156" lon="13.595454026814533"><ele>8.0</ele><time>2026-05-02T13:48:12Z</time></trkpt><trkpt lat="43.47722638594658" lon="13.595540590512536"><ele>8.0</ele><time>2026-05-02T13:48:13Z</time></trkpt><trkpt lat="43.47726378463744" lon="13.59563117365791"><ele>8.0</ele><time>2026-05-02T13:48:14Z</time></trkpt><trkpt lat="43.47731401035175" lon="13.595704739712971"><ele>8.0</ele><time>2026-05-02T13:48:15Z</time></trkpt><trkpt lat="43.47749300136284" lon="13.595655079729125"><ele>8.0</ele><time>2026-05-02T13:48:17Z</time></trkpt><trkpt lat="43.47756362760281" lon="13.595627131919688"><ele>8.0</ele><time>2026-05-02T13:48:18Z</time></trkpt><trkpt lat="43.47763463898686" lon="13.595619296146383"><ele>8.0</ele><time>2026-05-02T13:48:19Z</time></trkpt><trkpt lat="43.47771107252457" lon="13.595645798381504"><ele>8.0</ele><time>2026-05-02T13:48:20Z</time></trkpt><trkpt lat="43.4776890578707" lon="13.595345748162368"><ele>8.0</ele><time>2026-05-02T13:48:21Z</time></trkpt><trkpt lat="43.47785903866675" lon="13.595822643443336"><ele>8.0</ele><time>2026-05-02T13:48:23Z</time></trkpt><trkpt lat="43.47789385907911" lon="13.595895157672375"><ele>8.0</ele><time>2026-05-02T13:48:24Z</time></trkpt><trkpt lat="43.47796561025968" lon="13.596014500447714"><ele>8.0</ele><time>2026-05-02T13:48:26Z</time></trkpt><trkpt lat="43.47804388343126" lon="13.596134853242853"><ele>8.0</ele><time>2026-05-02T13:48:28Z</time></trkpt><trkpt lat="43.478110431572105" lon="13.596261345119673"><ele>8.0</ele><time>2026-05-02T13:48:30Z</time></trkpt><trkpt lat="43.47817531144327" lon="13.596368871204566"><ele>8.0</ele><time>2026-05-02T13:48:32Z</time></trkpt><trkpt lat="43.47824400456526" lon="13.596482718646843"><ele>8.0</ele><time>2026-05-02T13:48:34Z</time></trkpt><trkpt lat="43.478325584306006" lon="13.596574809931603"><ele>8.0</ele><time>2026-05-02T13:48:36Z</time></trkpt><trkpt lat="43.4784093467997" lon="13.596656346498763"><ele>8.0</ele><time>2026-05-02T13:48:37.999Z</time></trkpt><trkpt lat="43.47851237786439" lon="13.596676341924812"><ele>8.0</ele><time>2026-05-02T13:48:39.999Z</time></trkpt><trkpt lat="43.47861100475502" lon="13.596641768532495"><ele>8.0</ele><time>2026-05-02T13:48:41.999Z</time></trkpt><trkpt lat="43.47869972673545" lon="13.59656561552489"><ele>8.0</ele><time>2026-05-02T13:48:43.999Z</time></trkpt><trkpt lat="43.47879340159317" lon="13.596485195087594"><ele>8.0</ele><time>2026-05-02T13:48:45.999Z</time></trkpt><trkpt lat="43.47884524312041" lon="13.596350427449206"><ele>8.0</ele><time>2026-05-02T13:48:47.999Z</time></trkpt><trkpt lat="43.478916544123166" lon="13.596242406548722"><ele>8.0</ele><time>2026-05-02T13:48:49.999Z</time></trkpt><trkpt lat="43.47900473887671" lon="13.596158425764495"><ele>8.0</ele><time>2026-05-02T13:48:51.999Z</time></trkpt><trkpt lat="43.4790816763336" lon="13.596057350059692"><ele>8.0</ele><time>2026-05-02T13:48:53.999Z</time></trkpt><trkpt lat="43.479159766536334" lon="13.595946461395197"><ele>8.0</ele><time>2026-05-02T13:48:55.999Z</time></trkpt><trkpt lat="43.47923272564428" lon="13.595834330689295"><ele>8.0</ele><time>2026-05-02T13:48:57.999Z</time></trkpt><trkpt lat="43.47930565582007" lon="13.595715848811984"><ele>8.0</ele><time>2026-05-02T13:48:59.999Z</time></trkpt><trkpt lat="43.47938149861274" lon="13.595602486911218"><ele>8.0</ele><time>2026-05-02T13:49:01.999Z</time></trkpt><trkpt lat="43.47946173356592" lon="13.595490971492822"><ele>8.0</ele><time>2026-05-02T13:49:03.999Z</time></trkpt><trkpt lat="43.47954066249814" lon="13.59538120183758"><ele>8.0</ele><time>2026-05-02T13:49:05.999Z</time></trkpt><trkpt lat="43.47961692542266" lon="13.595267745768213"><ele>8.0</ele><time>2026-05-02T13:49:07.999Z</time></trkpt><trkpt lat="43.479706584387884" lon="13.595174838767678"><ele>7.800000000000001</ele><time>2026-05-02T13:49:09.999Z</time></trkpt><trkpt lat="43.479791083801224" lon="13.595070718715"><ele>7.6000000000000005</ele><time>2026-05-02T13:49:11.999Z</time></trkpt><trkpt lat="43.479874298870826" lon="13.59497404119858"><ele>7.3999999999999995</ele><time>2026-05-02T13:49:13.999Z</time></trkpt><trkpt lat="43.4799625814558" lon="13.594879090369949"><ele>7.199999999999999</ele><time>2026-05-02T13:49:15.999Z</time></trkpt><trkpt lat="43.480048498818626" lon="13.594785807541871"><ele>7.0</ele><time>2026-05-02T13:49:17.999Z</time></trkpt><trkpt lat="43.48010185372325" lon="13.594731237381554"><ele>7.0</ele><time>2026-05-02T13:49:18.999Z</time></trkpt><trkpt lat="43.48019391119749" lon="13.594643655395354"><ele>6.999999999999999</ele><time>2026-05-02T13:49:20.999Z</time></trkpt><trkpt lat="43.480245372487886" lon="13.594591691800515"><ele>6.999999999999999</ele><time>2026-05-02T13:49:21.999Z</time></trkpt><trkpt lat="43.480338935649314" lon="13.594501176672003"><ele>7.0</ele><time>2026-05-02T13:49:23.999Z</time></trkpt><trkpt lat="43.480440827574355" lon="13.594424379187723"><ele>7.0</ele><time>2026-05-02T13:49:25.999Z</time></trkpt><trkpt lat="43.48052358414611" lon="13.594316531365104"><ele>7.0</ele><time>2026-05-02T13:49:27.999Z</time></trkpt><trkpt lat="43.48062027091936" lon="13.594218780369019"><ele>7.0</ele><time>2026-05-02T13:49:29.999Z</time></trkpt><trkpt lat="43.48071506885628" lon="13.594128827577839"><ele>7.0</ele><time>2026-05-02T13:49:31.999Z</time></trkpt><trkpt lat="43.480812822491856" lon="13.594046325788858"><ele>7.0</ele><time>2026-05-02T13:49:33.999Z</time></trkpt><trkpt lat="43.48090334171731" lon="13.593933786514253"><ele>7.0</ele><time>2026-05-02T13:49:35.999Z</time></trkpt><trkpt lat="43.480986866830236" lon="13.59384619911282"><ele>6.999999999999999</ele><time>2026-05-02T13:49:37.999Z</time></trkpt><trkpt lat="43.481074304549125" lon="13.59375186745972"><ele>6.999999999999999</ele><time>2026-05-02T13:49:39.999Z</time></trkpt><trkpt lat="43.48116023818415" lon="13.593661313050513"><ele>7.0</ele><time>2026-05-02T13:49:41.998Z</time></trkpt><trkpt lat="43.48124836377855" lon="13.593568221340291"><ele>7.0</ele><time>2026-05-02T13:49:43.998Z</time></trkpt><trkpt lat="43.481340701628426" lon="13.59348202812616"><ele>7.0</ele><time>2026-05-02T13:49:45.998Z</time></trkpt><trkpt lat="43.48142798330143" lon="13.593389445673795"><ele>6.999999999999999</ele><time>2026-05-02T13:49:47.998Z</time></trkpt><trkpt lat="43.481527587772135" lon="13.593308114677951"><ele>6.999999999999999</ele><time>2026-05-02T13:49:49.998Z</time></trkpt><trkpt lat="43.48160345897903" lon="13.593211964685144"><ele>7.0</ele><time>2026-05-02T13:49:51.998Z</time></trkpt><trkpt lat="43.48168511283388" lon="13.593147277353173"><ele>7.0</ele><time>2026-05-02T13:49:53.998Z</time></trkpt><trkpt lat="43.481662987118156" lon="13.59295018797698"><ele>6.6</ele><time>2026-05-02T13:49:56.998Z</time></trkpt><trkpt lat="43.481598446168476" lon="13.59283880671678"><ele>6.199999999999999</ele><time>2026-05-02T13:49:58.998Z</time></trkpt><trkpt lat="43.48154378104762" lon="13.592709157016834"><ele>5.8</ele><time>2026-05-02T13:50:00.998Z</time></trkpt><trkpt lat="43.481495499635564" lon="13.592586335885862"><ele>5.4</ele><time>2026-05-02T13:50:02.998Z</time></trkpt><trkpt lat="43.48143940339214" lon="13.59245825057862"><ele>5.0</ele><time>2026-05-02T13:50:05Z</time></trkpt><trkpt lat="43.48138560003321" lon="13.592334509848335"><ele>5.0</ele><time>2026-05-02T13:50:07Z</time></trkpt><trkpt lat="43.48132831476816" lon="13.592195078201136"><ele>5.0</ele><time>2026-05-02T13:50:09Z</time></trkpt><trkpt lat="43.48126796726345" lon="13.592076791074453"><ele>5.0</ele><time>2026-05-02T13:50:11Z</time></trkpt><trkpt lat="43.48122732919932" lon="13.59200633257344"><ele>5.0</ele><time>2026-05-02T13:50:12Z</time></trkpt><trkpt lat="43.48117271519992" lon="13.59187750803757"><ele>5.0</ele><time>2026-05-02T13:50:14Z</time></trkpt><trkpt lat="43.481118403096005" lon="13.591745172658058"><ele>5.0</ele><time>2026-05-02T13:50:16Z</time></trkpt><trkpt lat="43.48106041810281" lon="13.591608936185123"><ele>5.0</ele><time>2026-05-02T13:50:18Z</time></trkpt><trkpt lat="43.48100429064217" lon="13.591487289263851"><ele>5.0</ele><time>2026-05-02T13:50:20Z</time></trkpt><trkpt lat="43.48095369483087" lon="13.591356710171214"><ele>5.0</ele><time>2026-05-02T13:50:22Z</time></trkpt><trkpt lat="43.48089192773099" lon="13.591226165940776"><ele>5.0</ele><time>2026-05-02T13:50:24Z</time></trkpt><trkpt lat="43.4808320178122" lon="13.591086932303357"><ele>5.0</ele><time>2026-05-02T13:50:26Z</time></trkpt><trkpt lat="43.48076963959431" lon="13.590958326542113"><ele>5.0</ele><time>2026-05-02T13:50:28Z</time></trkpt><trkpt lat="43.48072699493976" lon="13.590827767105948"><ele>5.0</ele><time>2026-05-02T13:50:30Z</time></trkpt><trkpt lat="43.48068128932951" lon="13.590688214927257"><ele>5.0</ele><time>2026-05-02T13:50:32Z</time></trkpt><trkpt lat="43.48065498531679" lon="13.59054132504537"><ele>5.0</ele><time>2026-05-02T13:50:34Z</time></trkpt><trkpt lat="43.48068628343227" lon="13.590404433085293"><ele>5.8</ele><time>2026-05-02T13:50:36Z</time></trkpt><trkpt lat="43.48074810835849" lon="13.590291395982433"><ele>6.6</ele><time>2026-05-02T13:50:38Z</time></trkpt><trkpt lat="43.480819284541404" lon="13.590203981029"><ele>7.4</ele><time>2026-05-02T13:50:40Z</time></trkpt><trkpt lat="43.48090930886234" lon="13.590144818454073"><ele>8.2</ele><time>2026-05-02T13:50:42Z</time></trkpt><trkpt lat="43.48101275753302" lon="13.590085829277019"><ele>9.0</ele><time>2026-05-02T13:50:44Z</time></trkpt><trkpt lat="43.48111218946757" lon="13.590016476275656"><ele>9.0</ele><time>2026-05-02T13:50:45.999Z</time></trkpt><trkpt lat="43.48121288482357" lon="13.589958625837914"><ele>9.0</ele><time>2026-05-02T13:50:47.999Z</time></trkpt><trkpt lat="43.48131431702486" lon="13.589897384378169"><ele>9.0</ele><time>2026-05-02T13:50:49.999Z</time></trkpt><trkpt lat="43.48142303668503" lon="13.58982674480851"><ele>9.0</ele><time>2026-05-02T13:50:51.999Z</time></trkpt><trkpt lat="43.48151970454226" lon="13.58976661549086"><ele>9.0</ele><time>2026-05-02T13:50:53.999Z</time></trkpt><trkpt lat="43.481626290059964" lon="13.589701951151595"><ele>9.0</ele><time>2026-05-02T13:50:55.999Z</time></trkpt><trkpt lat="43.48173712996025" lon="13.58963139836229"><ele>9.0</ele><time>2026-05-02T13:50:57.999Z</time></trkpt><trkpt lat="43.48183398731669" lon="13.589579743313898"><ele>9.0</ele><time>2026-05-02T13:50:59.999Z</time></trkpt><trkpt lat="43.481939739411146" lon="13.589513085881133"><ele>9.0</ele><time>2026-05-02T13:51:01.999Z</time></trkpt><trkpt lat="43.48203300336909" lon="13.589437195345996"><ele>9.166666666666666</ele><time>2026-05-02T13:51:03.999Z</time></trkpt><trkpt lat="43.482138392750144" lon="13.58939661937854"><ele>9.333333333333334</ele><time>2026-05-02T13:51:05.999Z</time></trkpt><trkpt lat="43.482251638120786" lon="13.589384363722546"><ele>9.5</ele><time>2026-05-02T13:51:07.999Z</time></trkpt><trkpt lat="43.482315479995265" lon="13.589377874517938"><ele>9.666666666666668</ele><time>2026-05-02T13:51:08.999Z</time></trkpt><trkpt lat="43.48238143601049" lon="13.589370861889963"><ele>9.833333333333334</ele><time>2026-05-02T13:51:09.999Z</time></trkpt><trkpt lat="43.482445985105315" lon="13.589375463695943"><ele>10.0</ele><time>2026-05-02T13:51:10.999Z</time></trkpt><trkpt lat="43.48255992168756" lon="13.589372788337297"><ele>10.0</ele><time>2026-05-02T13:51:12.999Z</time></trkpt><trkpt lat="43.48267124774034" lon="13.589342129264725"><ele>10.0</ele><time>2026-05-02T13:51:14.999Z</time></trkpt><trkpt lat="43.48278194351073" lon="13.589340290822085"><ele>10.0</ele><time>2026-05-02T13:51:16.999Z</time></trkpt><trkpt lat="43.48289463684327" lon="13.589324888811408"><ele>10.0</ele><time>2026-05-02T13:51:18.999Z</time></trkpt><trkpt lat="43.48299863976581" lon="13.589336614029037"><ele>10.0</ele><time>2026-05-02T13:51:20.999Z</time></trkpt><trkpt lat="43.48310608431355" lon="13.589321295565895"><ele>9.8</ele><time>2026-05-02T13:51:22.999Z</time></trkpt><trkpt lat="43.483211350835354" lon="13.589312765229739"><ele>9.6</ele><time>2026-05-02T13:51:24.999Z</time></trkpt><trkpt lat="43.483319395594066" lon="13.589289913337785"><ele>9.4</ele><time>2026-05-02T13:51:26.999Z</time></trkpt><trkpt lat="43.48342047254018" lon="13.589289615981011"><ele>9.2</ele><time>2026-05-02T13:51:28.999Z</time></trkpt><trkpt lat="43.48352308763765" lon="13.58928921290695"><ele>9.0</ele><time>2026-05-02T13:51:30.999Z</time></trkpt><trkpt lat="43.48362029767887" lon="13.589265852767392"><ele>9.0</ele><time>2026-05-02T13:51:32.999Z</time></trkpt><trkpt lat="43.4837231231231" lon="13.589255130782405"><ele>9.0</ele><time>2026-05-02T13:51:34.999Z</time></trkpt><trkpt lat="43.483828000238304" lon="13.589281482645767"><ele>9.0</ele><time>2026-05-02T13:51:36.999Z</time></trkpt><trkpt lat="43.48393532677985" lon="13.589269571578233"><ele>9.0</ele><time>2026-05-02T13:51:38.999Z</time></trkpt><trkpt lat="43.4839996865274" lon="13.589252559038963"><ele>9.0</ele><time>2026-05-02T13:51:39.999Z</time></trkpt><trkpt lat="43.484099919338206" lon="13.589248809561031"><ele>9.0</ele><time>2026-05-02T13:51:41.999Z</time></trkpt><trkpt lat="43.48420438824333" lon="13.589209816550213"><ele>9.0</ele><time>2026-05-02T13:51:43.999Z</time></trkpt><trkpt lat="43.48430555187587" lon="13.589218733372867"><ele>9.0</ele><time>2026-05-02T13:51:45.999Z</time></trkpt><trkpt lat="43.48440812094268" lon="13.589220958876536"><ele>9.0</ele><time>2026-05-02T13:51:47.999Z</time></trkpt><trkpt lat="43.484521936945754" lon="13.589220275518748"><ele>9.0</ele><time>2026-05-02T13:51:49.998Z</time></trkpt><trkpt lat="43.484621121277" lon="13.589218769932318"><ele>9.0</ele><time>2026-05-02T13:51:51.998Z</time></trkpt><trkpt lat="43.48472165945429" lon="13.589212386740083"><ele>9.0</ele><time>2026-05-02T13:51:53.998Z</time></trkpt><trkpt lat="43.48482783673574" lon="13.589210772973436"><ele>9.0</ele><time>2026-05-02T13:51:55.998Z</time></trkpt><trkpt lat="43.48493211121636" lon="13.589208192448162"><ele>9.0</ele><time>2026-05-02T13:51:57.998Z</time></trkpt><trkpt lat="43.48504455341018" lon="13.589199606689009"><ele>9.0</ele><time>2026-05-02T13:51:59.998Z</time></trkpt><trkpt lat="43.485150633405375" lon="13.589194785252618"><ele>9.0</ele><time>2026-05-02T13:52:01.998Z</time></trkpt><trkpt lat="43.48521374177449" lon="13.589186631087353"><ele>9.0</ele><time>2026-05-02T13:52:02.998Z</time></trkpt><trkpt lat="43.48529767327362" lon="13.589194559810856"><ele>9.0</ele><time>2026-05-02T13:52:04.998Z</time></trkpt><trkpt lat="43.485386439012636" lon="13.589203216783192"><ele>9.0</ele><time>2026-05-02T13:52:06.998Z</time></trkpt><trkpt lat="43.48546131371409" lon="13.58921545402335"><ele>9.0</ele><time>2026-05-02T13:52:08.998Z</time></trkpt><trkpt lat="43.485527354984576" lon="13.589203794419179"><ele>9.0</ele><time>2026-05-02T13:52:12Z</time></trkpt><trkpt lat="43.48559108550476" lon="13.589247800475931"><ele>9.0</ele><time>2026-05-02T13:52:28Z</time></trkpt><trkpt lat="43.485681979225426" lon="13.589269980788675"><ele>9.0</ele><time>2026-05-02T13:52:31Z</time></trkpt><trkpt lat="43.48578128317073" lon="13.589296521182595"><ele>9.0</ele><time>2026-05-02T13:52:34Z</time></trkpt><trkpt lat="43.48585831004456" lon="13.589317718864443"><ele>9.0</ele><time>2026-05-02T13:52:36Z</time></trkpt><trkpt lat="43.485937184173395" lon="13.589344990451748"><ele>9.0</ele><time>2026-05-02T13:52:38Z</time></trkpt><trkpt lat="43.486034747888766" lon="13.589378313135391"><ele>9.0</ele><time>2026-05-02T13:52:40Z</time></trkpt><trkpt lat="43.48613677950652" lon="13.589421899511466"><ele>9.0</ele><time>2026-05-02T13:52:42Z</time></trkpt><trkpt lat="43.48623345872492" lon="13.589475939821837"><ele>9.0</ele><time>2026-05-02T13:52:44Z</time></trkpt><trkpt lat="43.48633792878892" lon="13.58950514338466"><ele>9.0</ele><time>2026-05-02T13:52:46Z</time></trkpt><trkpt lat="43.48644105437896" lon="13.589546810532388"><ele>9.0</ele><time>2026-05-02T13:52:48Z</time></trkpt><trkpt lat="43.48655235755287" lon="13.589579056924965"><ele>8.8</ele><time>2026-05-02T13:52:50Z</time></trkpt><trkpt lat="43.486654590948085" lon="13.589611566164288"><ele>8.600000000000001</ele><time>2026-05-02T13:52:52Z</time></trkpt><trkpt lat="43.486745222258854" lon="13.589670596684112"><ele>8.4</ele><time>2026-05-02T13:52:54Z</time></trkpt><trkpt lat="43.486850363376874" lon="13.58969704222671"><ele>8.200000000000001</ele><time>2026-05-02T13:52:56Z</time></trkpt><trkpt lat="43.48693673685952" lon="13.589688605967508"><ele>8.0</ele><time>2026-05-02T13:52:57.999Z</time></trkpt><trkpt lat="43.48699167465985" lon="13.58961555205861"><ele>8.0</ele><time>2026-05-02T13:52:59.999Z</time></trkpt><trkpt lat="43.48704976800299" lon="13.589535090781714"><ele>8.0</ele><time>2026-05-02T13:53:01.999Z</time></trkpt><trkpt lat="43.48713399654984" lon="13.589471109865055"><ele>8.0</ele><time>2026-05-02T13:53:03.999Z</time></trkpt><trkpt lat="43.48720890707763" lon="13.589402042174209"><ele>8.0</ele><time>2026-05-02T13:53:05.999Z</time></trkpt><trkpt lat="43.487289374891965" lon="13.589327333460293"><ele>8.0</ele><time>2026-05-02T13:53:07.999Z</time></trkpt><trkpt lat="43.48736623690087" lon="13.589244264506904"><ele>8.200000000000001</ele><time>2026-05-02T13:53:09.999Z</time></trkpt><trkpt lat="43.48745265528497" lon="13.58916773871759"><ele>8.4</ele><time>2026-05-02T13:53:11.999Z</time></trkpt><trkpt lat="43.48754291716706" lon="13.589080412985126"><ele>8.600000000000001</ele><time>2026-05-02T13:53:13.999Z</time></trkpt><trkpt lat="43.48762779745617" lon="13.58899184957074"><ele>8.8</ele><time>2026-05-02T13:53:15.999Z</time></trkpt><trkpt lat="43.48770822861162" lon="13.588902743487576"><ele>9.0</ele><time>2026-05-02T13:53:17.999Z</time></trkpt><trkpt lat="43.48779625652147" lon="13.58881543810699"><ele>9.0</ele><time>2026-05-02T13:53:19.999Z</time></trkpt><trkpt lat="43.48787614563861" lon="13.588730692021741"><ele>9.0</ele><time>2026-05-02T13:53:21.999Z</time></trkpt><trkpt lat="43.48797068468019" lon="13.588651999024004"><ele>9.0</ele><time>2026-05-02T13:53:23.999Z</time></trkpt><trkpt lat="43.4880574229961" lon="13.588553065243547"><ele>9.0</ele><time>2026-05-02T13:53:25.999Z</time></trkpt><trkpt lat="43.48813378991611" lon="13.588457565939148"><ele>9.0</ele><time>2026-05-02T13:53:27.999Z</time></trkpt><trkpt lat="43.48821424486962" lon="13.588378847685792"><ele>9.0</ele><time>2026-05-02T13:53:29.999Z</time></trkpt><trkpt lat="43.48829638566378" lon="13.588306382820749"><ele>9.0</ele><time>2026-05-02T13:53:31.999Z</time></trkpt><trkpt lat="43.4883754335143" lon="13.588222424651187"><ele>9.0</ele><time>2026-05-02T13:53:33.999Z</time></trkpt><trkpt lat="43.48846681120625" lon="13.588132848256045"><ele>9.0</ele><time>2026-05-02T13:53:35.999Z</time></trkpt><trkpt lat="43.488557039515435" lon="13.588044136058457"><ele>9.0</ele><time>2026-05-02T13:53:37.999Z</time></trkpt><trkpt lat="43.48864294265973" lon="13.58794567698513"><ele>9.0</ele><time>2026-05-02T13:53:39.999Z</time></trkpt><trkpt lat="43.488721857707944" lon="13.587856553391092"><ele>9.0</ele><time>2026-05-02T13:53:41.999Z</time></trkpt><trkpt lat="43.48878340222614" lon="13.587817837896342"><ele>9.0</ele><time>2026-05-02T13:53:42.999Z</time></trkpt><trkpt lat="43.48886758714841" lon="13.587750065365748"><ele>9.0</ele><time>2026-05-02T13:53:44.999Z</time></trkpt><trkpt lat="43.488918734080876" lon="13.587688105073852"><ele>9.0</ele><time>2026-05-02T13:53:45.999Z</time></trkpt><trkpt lat="43.48900104801401" lon="13.587599596422086"><ele>9.0</ele><time>2026-05-02T13:53:47.999Z</time></trkpt><trkpt lat="43.48908749028823" lon="13.587508326203437"><ele>9.2</ele><time>2026-05-02T13:53:49.999Z</time></trkpt><trkpt lat="43.489172372832684" lon="13.587426908948027"><ele>9.4</ele><time>2026-05-02T13:53:51.999Z</time></trkpt><trkpt lat="43.48924251146091" lon="13.587326251347461"><ele>9.6</ele><time>2026-05-02T13:53:53.999Z</time></trkpt><trkpt lat="43.48932546943734" lon="13.587241294934612"><ele>9.8</ele><time>2026-05-02T13:53:55.999Z</time></trkpt><trkpt lat="43.48940377188503" lon="13.587163811279536"><ele>10.0</ele><time>2026-05-02T13:53:57.999Z</time></trkpt><trkpt lat="43.489486451073255" lon="13.587053398668038"><ele>10.0</ele><time>2026-05-02T13:53:59.999Z</time></trkpt><trkpt lat="43.48955647583336" lon="13.586969219010253"><ele>10.0</ele><time>2026-05-02T13:54:01.999Z</time></trkpt><trkpt lat="43.48962367946911" lon="13.586852370569177"><ele>10.0</ele><time>2026-05-02T13:54:03.998Z</time></trkpt><trkpt lat="43.489698057243665" lon="13.586768470255745"><ele>10.0</ele><time>2026-05-02T13:54:05.998Z</time></trkpt><trkpt lat="43.48977417110624" lon="13.586656603129684"><ele>10.0</ele><time>2026-05-02T13:54:07.998Z</time></trkpt><trkpt lat="43.48985450938701" lon="13.586546599557463"><ele>10.2</ele><time>2026-05-02T13:54:09.998Z</time></trkpt><trkpt lat="43.489936316256724" lon="13.586442992646056"><ele>10.4</ele><time>2026-05-02T13:54:11.998Z</time></trkpt><trkpt lat="43.49001147819476" lon="13.586330945674723"><ele>10.600000000000001</ele><time>2026-05-02T13:54:13.998Z</time></trkpt><trkpt lat="43.49007846986333" lon="13.586208290917721"><ele>10.8</ele><time>2026-05-02T13:54:16Z</time></trkpt><trkpt lat="43.49016365653852" lon="13.586137844609334"><ele>11.0</ele><time>2026-05-02T13:54:18Z</time></trkpt><trkpt lat="43.490240323925676" lon="13.586039332125662"><ele>11.0</ele><time>2026-05-02T13:54:20Z</time></trkpt><trkpt lat="43.49031250589946" lon="13.585925459334401"><ele>11.0</ele><time>2026-05-02T13:54:22Z</time></trkpt><trkpt lat="43.49037798776583" lon="13.585827336045853"><ele>11.0</ele><time>2026-05-02T13:54:24Z</time></trkpt><trkpt lat="43.49039107528797" lon="13.585688448532874"><ele>11.0</ele><time>2026-05-02T13:54:26Z</time></trkpt><trkpt lat="43.49036917854776" lon="13.585527555224653"><ele>11.0</ele><time>2026-05-02T13:54:28Z</time></trkpt><trkpt lat="43.490312758601384" lon="13.585379870463877"><ele>11.0</ele><time>2026-05-02T13:54:30Z</time></trkpt><trkpt lat="43.49025797963771" lon="13.585241060299749"><ele>11.0</ele><time>2026-05-02T13:54:32Z</time></trkpt><trkpt lat="43.49021034118856" lon="13.5850997768553"><ele>11.0</ele><time>2026-05-02T13:54:34Z</time></trkpt><trkpt lat="43.490155323965176" lon="13.584957754803849"><ele>11.0</ele><time>2026-05-02T13:54:36Z</time></trkpt><trkpt lat="43.490114181642916" lon="13.584884962082219"><ele>11.0</ele><time>2026-05-02T13:54:37Z</time></trkpt><trkpt lat="43.49006433149883" lon="13.584744517631306"><ele>11.0</ele><time>2026-05-02T13:54:39Z</time></trkpt><trkpt lat="43.48999355039493" lon="13.584612960955562"><ele>11.0</ele><time>2026-05-02T13:54:41Z</time></trkpt><trkpt lat="43.48994568464576" lon="13.584460110947141"><ele>11.0</ele><time>2026-05-02T13:54:43Z</time></trkpt><trkpt lat="43.48991618501498" lon="13.5843163601518"><ele>11.0</ele><time>2026-05-02T13:54:45Z</time></trkpt><trkpt lat="43.4898667942175" lon="13.584164421636586"><ele>11.0</ele><time>2026-05-02T13:54:47Z</time></trkpt><trkpt lat="43.489838978217506" lon="13.584018337431036"><ele>11.0</ele><time>2026-05-02T13:54:49Z</time></trkpt><trkpt lat="43.48979118553706" lon="13.583867999580635"><ele>11.0</ele><time>2026-05-02T13:54:51Z</time></trkpt><trkpt lat="43.489781115313335" lon="13.58371698722899"><ele>11.0</ele><time>2026-05-02T13:54:53Z</time></trkpt><trkpt lat="43.489833607793216" lon="13.583641802315247"><ele>11.0</ele><time>2026-05-02T13:54:57Z</time></trkpt><trkpt lat="43.48986581940089" lon="13.583800428939963"><ele>11.0</ele><time>2026-05-02T13:55:01Z</time></trkpt><trkpt lat="43.48988609087066" lon="13.583882655093527"><ele>11.0</ele><time>2026-05-02T13:55:03Z</time></trkpt><trkpt lat="43.489921385515416" lon="13.583954563009996"><ele>11.0</ele><time>2026-05-02T13:55:04.999Z</time></trkpt><trkpt lat="43.489951052590776" lon="13.584071313862415"><ele>11.0</ele><time>2026-05-02T13:55:07.999Z</time></trkpt><trkpt lat="43.48996546694365" lon="13.584174994296776"><ele>11.0</ele><time>2026-05-02T13:55:10.999Z</time></trkpt><trkpt lat="43.490100872702286" lon="13.584066974262864"><ele>11.0</ele><time>2026-05-02T13:55:13.999Z</time></trkpt><trkpt lat="43.49016200223468" lon="13.584098915563724"><ele>11.0</ele><time>2026-05-02T13:55:15.999Z</time></trkpt><trkpt lat="43.49020879923579" lon="13.58418193314166"><ele>11.0</ele><time>2026-05-02T13:55:17.999Z</time></trkpt><trkpt lat="43.490259552898415" lon="13.584293822146812"><ele>11.0</ele><time>2026-05-02T13:55:19.999Z</time></trkpt><trkpt lat="43.490331738571214" lon="13.58439516681572"><ele>11.0</ele><time>2026-05-02T13:55:21.999Z</time></trkpt><trkpt lat="43.49037490395252" lon="13.584501200609303"><ele>11.0</ele><time>2026-05-02T13:55:23.999Z</time></trkpt><trkpt lat="43.49042714895158" lon="13.584587579712116"><ele>11.0</ele><time>2026-05-02T13:55:25.999Z</time></trkpt><trkpt lat="43.490484845661676" lon="13.584687008736323"><ele>10.833333333333332</ele><time>2026-05-02T13:55:27.999Z</time></trkpt><trkpt lat="43.49052949370557" lon="13.58478698377487"><ele>10.666666666666666</ele><time>2026-05-02T13:55:29.999Z</time></trkpt><trkpt lat="43.49058725407449" lon="13.58488591371339"><ele>10.5</ele><time>2026-05-02T13:55:31.999Z</time></trkpt><trkpt lat="43.49063529619966" lon="13.584981085413915"><ele>10.333333333333334</ele><time>2026-05-02T13:55:33.999Z</time></trkpt><trkpt lat="43.490703272701204" lon="13.58506810242202"><ele>10.166666666666668</ele><time>2026-05-02T13:55:35.999Z</time></trkpt><trkpt lat="43.49078174182124" lon="13.585103750383887"><ele>10.0</ele><time>2026-05-02T13:55:37.999Z</time></trkpt><trkpt lat="43.49086891716121" lon="13.585025952477082"><ele>10.0</ele><time>2026-05-02T13:55:39.999Z</time></trkpt><trkpt lat="43.49092715570071" lon="13.584936814995928"><ele>10.0</ele><time>2026-05-02T13:55:41.999Z</time></trkpt><trkpt lat="43.49098132563538" lon="13.58484173163089"><ele>10.0</ele><time>2026-05-02T13:55:43.999Z</time></trkpt><trkpt lat="43.491038405473994" lon="13.584744211360823"><ele>10.0</ele><time>2026-05-02T13:55:45.999Z</time></trkpt><trkpt lat="43.49109804770849" lon="13.584645198220983"><ele>10.0</ele><time>2026-05-02T13:55:47.999Z</time></trkpt><trkpt lat="43.49115525876085" lon="13.584557352732121"><ele>10.0</ele><time>2026-05-02T13:55:49.999Z</time></trkpt><trkpt lat="43.49121251120435" lon="13.584452719528407"><ele>10.0</ele><time>2026-05-02T13:55:51.999Z</time></trkpt><trkpt lat="43.491272752581736" lon="13.584385646006053"><ele>10.0</ele><time>2026-05-02T13:55:53.999Z</time></trkpt><trkpt lat="43.49131611220279" lon="13.584283362219377"><ele>10.0</ele><time>2026-05-02T13:55:55.999Z</time></trkpt><trkpt lat="43.49136677311173" lon="13.584187395198775"><ele>10.0</ele><time>2026-05-02T13:55:57.999Z</time></trkpt><trkpt lat="43.491409453113846" lon="13.584094670692023"><ele>10.0</ele><time>2026-05-02T13:55:59.999Z</time></trkpt><trkpt lat="43.49144790777269" lon="13.583986208491975"><ele>10.0</ele><time>2026-05-02T13:56:01.999Z</time></trkpt><trkpt lat="43.49150418316633" lon="13.583902457003648"><ele>10.0</ele><time>2026-05-02T13:56:03.999Z</time></trkpt><trkpt lat="43.49155307455686" lon="13.58380897867269"><ele>10.0</ele><time>2026-05-02T13:56:05.999Z</time></trkpt><trkpt lat="43.491606844175195" lon="13.58370363923466"><ele>10.0</ele><time>2026-05-02T13:56:07.998Z</time></trkpt><trkpt lat="43.49166212496139" lon="13.583606550049902"><ele>10.0</ele><time>2026-05-02T13:56:09.998Z</time></trkpt><trkpt lat="43.491723742674495" lon="13.583528272944681"><ele>10.0</ele><time>2026-05-02T13:56:11.998Z</time></trkpt><trkpt lat="43.49176581941516" lon="13.5834311212786"><ele>10.0</ele><time>2026-05-02T13:56:13.998Z</time></trkpt><trkpt lat="43.491813751265376" lon="13.583342969349317"><ele>9.8</ele><time>2026-05-02T13:56:15.998Z</time></trkpt><trkpt lat="43.491853542452674" lon="13.583248542309613"><ele>9.6</ele><time>2026-05-02T13:56:17.998Z</time></trkpt><trkpt lat="43.491913499500555" lon="13.583146747880527"><ele>9.4</ele><time>2026-05-02T13:56:19.998Z</time></trkpt><trkpt lat="43.49196690420343" lon="13.583040704607747"><ele>9.2</ele><time>2026-05-02T13:56:22Z</time></trkpt><trkpt lat="43.49201420703471" lon="13.582947831337433"><ele>9.0</ele><time>2026-05-02T13:56:24Z</time></trkpt><trkpt lat="43.49207074759766" lon="13.58283481467847"><ele>9.166666666666666</ele><time>2026-05-02T13:56:26Z</time></trkpt><trkpt lat="43.49211608083667" lon="13.582734689750266"><ele>9.333333333333334</ele><time>2026-05-02T13:56:28Z</time></trkpt><trkpt lat="43.492162519083315" lon="13.582631482865038"><ele>9.5</ele><time>2026-05-02T13:56:30Z</time></trkpt><trkpt lat="43.49220380236036" lon="13.582533362242492"><ele>9.666666666666668</ele><time>2026-05-02T13:56:32Z</time></trkpt><trkpt lat="43.49224733411097" lon="13.582430754805513"><ele>9.833333333333334</ele><time>2026-05-02T13:56:34Z</time></trkpt><trkpt lat="43.492292105787186" lon="13.582324626048015"><ele>10.0</ele><time>2026-05-02T13:56:36Z</time></trkpt><trkpt lat="43.49233379910536" lon="13.582226866945534"><ele>10.0</ele><time>2026-05-02T13:56:38Z</time></trkpt><trkpt lat="43.492379378599" lon="13.582131831800105"><ele>10.0</ele><time>2026-05-02T13:56:40Z</time></trkpt><trkpt lat="43.49241448061767" lon="13.58202199899617"><ele>10.0</ele><time>2026-05-02T13:56:42Z</time></trkpt><trkpt lat="43.49246026172449" lon="13.581905510680572"><ele>10.0</ele><time>2026-05-02T13:56:44Z</time></trkpt><trkpt lat="43.49249120830203" lon="13.581791500990667"><ele>10.0</ele><time>2026-05-02T13:56:46Z</time></trkpt><trkpt lat="43.49260235415528" lon="13.58170614767732"><ele>10.0</ele><time>2026-05-02T13:56:48Z</time></trkpt><trkpt lat="43.49258994151227" lon="13.581573759817838"><ele>10.0</ele><time>2026-05-02T13:56:50Z</time></trkpt><trkpt lat="43.49263142631553" lon="13.581460452883794"><ele>10.0</ele><time>2026-05-02T13:56:52Z</time></trkpt><trkpt lat="43.492665907169375" lon="13.581354181539494"><ele>10.0</ele><time>2026-05-02T13:56:54Z</time></trkpt><trkpt lat="43.492713060126604" lon="13.58121892025401"><ele>10.0</ele><time>2026-05-02T13:56:56Z</time></trkpt><trkpt lat="43.49274561945853" lon="13.581109143726025"><ele>10.0</ele><time>2026-05-02T13:56:58Z</time></trkpt><trkpt lat="43.49278486941735" lon="13.580993666130436"><ele>10.0</ele><time>2026-05-02T13:57:00Z</time></trkpt><trkpt lat="43.49282814737399" lon="13.580862425136358"><ele>10.0</ele><time>2026-05-02T13:57:02Z</time></trkpt><trkpt lat="43.49287200411017" lon="13.580753915050838"><ele>10.0</ele><time>2026-05-02T13:57:04Z</time></trkpt><trkpt lat="43.4929016388528" lon="13.580636599636577"><ele>10.0</ele><time>2026-05-02T13:57:06Z</time></trkpt><trkpt lat="43.49294868171938" lon="13.58051382744281"><ele>10.0</ele><time>2026-05-02T13:57:07.999Z</time></trkpt><trkpt lat="43.49297793587829" lon="13.58040277035479"><ele>10.0</ele><time>2026-05-02T13:57:09.999Z</time></trkpt><trkpt lat="43.493015965594154" lon="13.580305326601179"><ele>10.0</ele><time>2026-05-02T13:57:11.999Z</time></trkpt><trkpt lat="43.49303614729057" lon="13.580221399959106"><ele>10.0</ele><time>2026-05-02T13:57:14.999Z</time></trkpt><trkpt lat="43.49312091605641" lon="13.580278767325845"><ele>10.0</ele><time>2026-05-02T13:57:17.999Z</time></trkpt><trkpt lat="43.493187298983294" lon="13.580343807977652"><ele>10.0</ele><time>2026-05-02T13:57:19.999Z</time></trkpt><trkpt lat="43.4932641590304" lon="13.580405818883703"><ele>10.0</ele><time>2026-05-02T13:57:21.999Z</time></trkpt><trkpt lat="43.49333379796682" lon="13.58047108853307"><ele>10.0</ele><time>2026-05-02T13:57:23.999Z</time></trkpt><trkpt lat="43.49340314455913" lon="13.58055451742823"><ele>10.0</ele><time>2026-05-02T13:57:25.999Z</time></trkpt><trkpt lat="43.493476572809115" lon="13.580520237376092"><ele>10.0</ele><time>2026-05-02T13:57:29.999Z</time></trkpt><trkpt lat="43.493531242024766" lon="13.580465488980922"><ele>10.0</ele><time>2026-05-02T13:57:31.999Z</time></trkpt><trkpt lat="43.49357137334317" lon="13.580359701504992"><ele>10.0</ele><time>2026-05-02T13:57:33.999Z</time></trkpt><trkpt lat="43.493448171236516" lon="13.58021366703344"><ele>10.166666666666668</ele><time>2026-05-02T13:57:34.999Z</time></trkpt><trkpt lat="43.493479911114704" lon="13.58010444690797"><ele>10.333333333333334</ele><time>2026-05-02T13:57:36.999Z</time></trkpt><trkpt lat="43.49351057053216" lon="13.579997363437807"><ele>10.5</ele><time>2026-05-02T13:57:38.999Z</time></trkpt><trkpt lat="43.49354405231851" lon="13.579874410320457"><ele>10.666666666666666</ele><time>2026-05-02T13:57:40.999Z</time></trkpt><trkpt lat="43.49357240556395" lon="13.57977029045542"><ele>10.833333333333332</ele><time>2026-05-02T13:57:42.999Z</time></trkpt><trkpt lat="43.493603935560294" lon="13.57965067905622"><ele>11.0</ele><time>2026-05-02T13:57:44.999Z</time></trkpt><trkpt lat="43.493634781054645" lon="13.579532037570592"><ele>11.166666666666666</ele><time>2026-05-02T13:57:46.999Z</time></trkpt><trkpt lat="43.49365853100041" lon="13.579440687478003"><ele>11.333333333333332</ele><time>2026-05-02T13:57:48.999Z</time></trkpt><trkpt lat="43.49368517700162" lon="13.57933698371612"><ele>11.5</ele><time>2026-05-02T13:57:50.999Z</time></trkpt><trkpt lat="43.49371021573045" lon="13.579237793446511"><ele>11.666666666666666</ele><time>2026-05-02T13:57:52.999Z</time></trkpt><trkpt lat="43.49374156629066" lon="13.579113372741636"><ele>11.833333333333334</ele><time>2026-05-02T13:57:54.999Z</time></trkpt><trkpt lat="43.49376531593398" lon="13.579018094125436"><ele>12.0</ele><time>2026-05-02T13:57:56.999Z</time></trkpt><trkpt lat="43.493795596096575" lon="13.578896616466682"><ele>12.0</ele><time>2026-05-02T13:57:58.999Z</time></trkpt><trkpt lat="43.49382347322768" lon="13.578784778760934"><ele>12.0</ele><time>2026-05-02T13:58:00.999Z</time></trkpt><trkpt lat="43.493850361358284" lon="13.578676909484045"><ele>12.0</ele><time>2026-05-02T13:58:02.999Z</time></trkpt><trkpt lat="43.49387836358541" lon="13.578565162821857"><ele>12.0</ele><time>2026-05-02T13:58:04.999Z</time></trkpt><trkpt lat="43.49390621332954" lon="13.57845416666378"><ele>12.0</ele><time>2026-05-02T13:58:06.999Z</time></trkpt><trkpt lat="43.49392791749863" lon="13.578367663847256"><ele>12.0</ele><time>2026-05-02T13:58:08.999Z</time></trkpt><trkpt lat="43.49395378671824" lon="13.578264561039258"><ele>12.0</ele><time>2026-05-02T13:58:11.998Z</time></trkpt><trkpt lat="43.49398145546758" lon="13.578154286244215"><ele>12.0</ele><time>2026-05-02T13:58:16.998Z</time></trkpt><trkpt lat="43.49400650590151" lon="13.5780544467074"><ele>12.0</ele><time>2026-05-02T13:58:18.998Z</time></trkpt><trkpt lat="43.49402863909828" lon="13.577966233908299"><ele>12.0</ele><time>2026-05-02T13:58:20.998Z</time></trkpt><trkpt lat="43.49405813967023" lon="13.57784865824033"><ele>12.0</ele><time>2026-05-02T13:58:22.998Z</time></trkpt><trkpt lat="43.4940863527609" lon="13.577736214011463"><ele>12.0</ele><time>2026-05-02T13:58:24.998Z</time></trkpt><trkpt lat="43.49411427101221" lon="13.57762494472758"><ele>12.0</ele><time>2026-05-02T13:58:26.998Z</time></trkpt><trkpt lat="43.49414596373038" lon="13.577498632180719"><ele>12.0</ele><time>2026-05-02T13:58:29Z</time></trkpt><trkpt lat="43.49417701091993" lon="13.57737489245327"><ele>12.0</ele><time>2026-05-02T13:58:31Z</time></trkpt><trkpt lat="43.49420944131737" lon="13.577245639974114"><ele>12.0</ele><time>2026-05-02T13:58:33Z</time></trkpt><trkpt lat="43.49424131493986" lon="13.57711860628082"><ele>12.0</ele><time>2026-05-02T13:58:35Z</time></trkpt><trkpt lat="43.494269818912116" lon="13.57700500264606"><ele>11.833333333333334</ele><time>2026-05-02T13:58:37Z</time></trkpt><trkpt lat="43.49429852783529" lon="13.576890582133345"><ele>11.666666666666666</ele><time>2026-05-02T13:58:39Z</time></trkpt><trkpt lat="43.49432644339566" lon="13.576779323617453"><ele>11.5</ele><time>2026-05-02T13:58:41Z</time></trkpt><trkpt lat="43.49435730545079" lon="13.576656321805032"><ele>11.333333333333332</ele><time>2026-05-02T13:58:43Z</time></trkpt><trkpt lat="43.49438695219894" lon="13.576537246125014"><ele>11.166666666666666</ele><time>2026-05-02T13:58:45Z</time></trkpt><trkpt lat="43.49441542574491" lon="13.57642167816667"><ele>11.0</ele><time>2026-05-02T13:58:47Z</time></trkpt><trkpt lat="43.49444419282259" lon="13.576304918908987"><ele>11.0</ele><time>2026-05-02T13:58:49Z</time></trkpt><trkpt lat="43.49447021733485" lon="13.576199290887159"><ele>11.0</ele><time>2026-05-02T13:58:51Z</time></trkpt><trkpt lat="43.494492269929644" lon="13.576109784076564"><ele>11.0</ele><time>2026-05-02T13:58:53Z</time></trkpt><trkpt lat="43.49451908742939" lon="13.576000937437177"><ele>11.0</ele><time>2026-05-02T13:58:55Z</time></trkpt><trkpt lat="43.49454954452857" lon="13.575878425191023"><ele>11.0</ele><time>2026-05-02T13:58:57Z</time></trkpt><trkpt lat="43.49457756813564" lon="13.575766976882464"><ele>11.0</ele><time>2026-05-02T13:58:59Z</time></trkpt><trkpt lat="43.49460779693611" lon="13.57564675859786"><ele>10.8</ele><time>2026-05-02T13:59:01Z</time></trkpt><trkpt lat="43.494641681006755" lon="13.57551200348346"><ele>10.600000000000001</ele><time>2026-05-02T13:59:03Z</time></trkpt><trkpt lat="43.494672331735416" lon="13.57539010712118"><ele>10.4</ele><time>2026-05-02T13:59:05Z</time></trkpt><trkpt lat="43.494704682109386" lon="13.575261451497195"><ele>10.2</ele><time>2026-05-02T13:59:07Z</time></trkpt><trkpt lat="43.49473596336007" lon="13.575137047762633"><ele>10.0</ele><time>2026-05-02T13:59:09Z</time></trkpt><trkpt lat="43.49476577467291" lon="13.575018489713239"><ele>10.5</ele><time>2026-05-02T13:59:10.999Z</time></trkpt><trkpt lat="43.494796268217584" lon="13.574897218620395"><ele>11.0</ele><time>2026-05-02T13:59:12.999Z</time></trkpt><trkpt lat="43.494843433315545" lon="13.574812339798328"><ele>11.5</ele><time>2026-05-02T13:59:14.999Z</time></trkpt><trkpt lat="43.49489515788326" lon="13.5747356997367"><ele>12.0</ele><time>2026-05-02T13:59:16.999Z</time></trkpt><trkpt lat="43.495453591116366" lon="13.574894509023885"><ele>12.0</ele><time>2026-05-02T13:59:18.999Z</time></trkpt><trkpt lat="43.49553081379202" lon="13.574833206594606"><ele>12.0</ele><time>2026-05-02T13:59:20.999Z</time></trkpt><trkpt lat="43.49561038026727" lon="13.574789906094342"><ele>12.0</ele><time>2026-05-02T13:59:22.999Z</time></trkpt><trkpt lat="43.495682602239164" lon="13.574736645474777"><ele>12.0</ele><time>2026-05-02T13:59:24.999Z</time></trkpt><trkpt lat="43.49576332285814" lon="13.57467548392581"><ele>12.0</ele><time>2026-05-02T13:59:26.999Z</time></trkpt><trkpt lat="43.49584275946887" lon="13.57462352430699"><ele>12.0</ele><time>2026-05-02T13:59:28.999Z</time></trkpt><trkpt lat="43.495925454508786" lon="13.57456435002967"><ele>12.0</ele><time>2026-05-02T13:59:30.999Z</time></trkpt><trkpt lat="43.49600653910759" lon="13.574505557270067"><ele>12.0</ele><time>2026-05-02T13:59:32.999Z</time></trkpt><trkpt lat="43.49608699717338" lon="13.574455426582798"><ele>12.0</ele><time>2026-05-02T13:59:34.999Z</time></trkpt><trkpt lat="43.49617022350559" lon="13.574385557895216"><ele>12.0</ele><time>2026-05-02T13:59:36.999Z</time></trkpt><trkpt lat="43.49626179194837" lon="13.574317306464158"><ele>12.0</ele><time>2026-05-02T13:59:38.999Z</time></trkpt><trkpt lat="43.496332907599886" lon="13.574278887263402"><ele>12.0</ele><time>2026-05-02T13:59:40.999Z</time></trkpt><trkpt lat="43.496403660633376" lon="13.574226240732505"><ele>12.0</ele><time>2026-05-02T13:59:42.999Z</time></trkpt><trkpt lat="43.49644143563471" lon="13.5741531518544"><ele>12.0</ele><time>2026-05-02T13:59:44.999Z</time></trkpt><trkpt lat="43.49643380948294" lon="13.574062428541094"><ele>12.0</ele><time>2026-05-02T13:59:46.999Z</time></trkpt><trkpt lat="43.496505905038816" lon="13.57399177658965"><ele>12.0</ele><time>2026-05-02T13:59:48.999Z</time></trkpt><trkpt lat="43.49656323859462" lon="13.573925052762627"><ele>12.0</ele><time>2026-05-02T13:59:50.999Z</time></trkpt><trkpt lat="43.49661270816246" lon="13.573823889858593"><ele>12.0</ele><time>2026-05-02T13:59:53.999Z</time></trkpt><trkpt lat="43.49667113584726" lon="13.573715862493593"><ele>12.0</ele><time>2026-05-02T13:59:56.999Z</time></trkpt><trkpt lat="43.49670024559191" lon="13.57363475877918"><ele>12.0</ele><time>2026-05-02T13:59:58.999Z</time></trkpt><trkpt lat="43.49673182649452" lon="13.573519378482132"><ele>12.0</ele><time>2026-05-02T14:00:01.999Z</time></trkpt><trkpt lat="43.496680636886445" lon="13.573435638637564"><ele>12.0</ele><time>2026-05-02T14:00:03.999Z</time></trkpt><trkpt lat="43.49661387998344" lon="13.573376737476345"><ele>12.0</ele><time>2026-05-02T14:00:05.999Z</time></trkpt><trkpt lat="43.49654733479102" lon="13.573326511053672"><ele>12.166666666666666</ele><time>2026-05-02T14:00:07.999Z</time></trkpt><trkpt lat="43.49647737731959" lon="13.573257386980405"><ele>12.333333333333332</ele><time>2026-05-02T14:00:09.999Z</time></trkpt><trkpt lat="43.496407711669" lon="13.573186436867289"><ele>12.5</ele><time>2026-05-02T14:00:11.999Z</time></trkpt><trkpt lat="43.49632681764828" lon="13.573113036320743"><ele>12.666666666666666</ele><time>2026-05-02T14:00:13.999Z</time></trkpt><trkpt lat="43.49626138051364" lon="13.573038816795425"><ele>12.833333333333332</ele><time>2026-05-02T14:00:15.998Z</time></trkpt><trkpt lat="43.49618960118103" lon="13.57296500448624"><ele>13.0</ele><time>2026-05-02T14:00:17.998Z</time></trkpt><trkpt lat="43.49619956566833" lon="13.572849647129214"><ele>13.333333333333332</ele><time>2026-05-02T14:00:19.998Z</time></trkpt><trkpt lat="43.496254888579166" lon="13.572772137565213"><ele>13.666666666666666</ele><time>2026-05-02T14:00:21.998Z</time></trkpt><trkpt lat="43.49630011099424" lon="13.572675667548078"><ele>14.0</ele><time>2026-05-02T14:00:23.998Z</time></trkpt><trkpt lat="43.4963602581609" lon="13.572607574881141"><ele>14.333333333333332</ele><time>2026-05-02T14:00:25.998Z</time></trkpt><trkpt lat="43.49641414885628" lon="13.572509435691503"><ele>14.666666666666666</ele><time>2026-05-02T14:00:28.998Z</time></trkpt><trkpt lat="43.496451758130156" lon="13.572404611623956"><ele>15.0</ele><time>2026-05-02T14:00:31.998Z</time></trkpt><trkpt lat="43.49651002816151" lon="13.572360186456963"><ele>15.0</ele><time>2026-05-02T14:00:34Z</time></trkpt><trkpt lat="43.496595852915576" lon="13.57241020081175"><ele>15.0</ele><time>2026-05-02T14:00:36Z</time></trkpt><trkpt lat="43.4966688493304" lon="13.572455619138982"><ele>15.0</ele><time>2026-05-02T14:00:38Z</time></trkpt><trkpt lat="43.49673598880035" lon="13.572522659161555"><ele>15.0</ele><time>2026-05-02T14:00:40Z</time></trkpt><trkpt lat="43.496818271017105" lon="13.572541125560104"><ele>15.0</ele><time>2026-05-02T14:00:42Z</time></trkpt><trkpt lat="43.49690838496258" lon="13.572579791461688"><ele>15.0</ele><time>2026-05-02T14:00:44Z</time></trkpt><trkpt lat="43.49698164722896" lon="13.572607012737603"><ele>15.0</ele><time>2026-05-02T14:00:46Z</time></trkpt><trkpt lat="43.49706120800442" lon="13.57264025750318"><ele>15.0</ele><time>2026-05-02T14:00:48Z</time></trkpt><trkpt lat="43.49714703177663" lon="13.57266986194638"><ele>15.0</ele><time>2026-05-02T14:00:50Z</time></trkpt><trkpt lat="43.49724029157123" lon="13.572692458433862"><ele>15.0</ele><time>2026-05-02T14:00:52Z</time></trkpt><trkpt lat="43.49731984629411" lon="13.572729327096683"><ele>15.0</ele><time>2026-05-02T14:00:54Z</time></trkpt><trkpt lat="43.49740092767137" lon="13.572770181669087"><ele>15.0</ele><time>2026-05-02T14:00:56Z</time></trkpt><trkpt lat="43.497501683496694" lon="13.572794111145132"><ele>15.0</ele><time>2026-05-02T14:00:58Z</time></trkpt><trkpt lat="43.49756522212162" lon="13.572813378829292"><ele>15.0</ele><time>2026-05-02T14:00:59Z</time></trkpt><trkpt lat="43.49763451062094" lon="13.572833117521867"><ele>15.0</ele><time>2026-05-02T14:01:01Z</time></trkpt><trkpt lat="43.49773621933892" lon="13.572882339632072"><ele>15.0</ele><time>2026-05-02T14:01:03Z</time></trkpt><trkpt lat="43.49783926749261" lon="13.572928396495996"><ele>15.0</ele><time>2026-05-02T14:01:05Z</time></trkpt><trkpt lat="43.49794055581036" lon="13.572974651629748"><ele>15.0</ele><time>2026-05-02T14:01:07Z</time></trkpt><trkpt lat="43.498020889199" lon="13.573030194742982"><ele>15.0</ele><time>2026-05-02T14:01:09Z</time></trkpt><trkpt lat="43.49810760962186" lon="13.57307014112972"><ele>15.0</ele><time>2026-05-02T14:01:11Z</time></trkpt><trkpt lat="43.49819215615261" lon="13.57313347599287"><ele>15.0</ele><time>2026-05-02T14:01:13Z</time></trkpt><trkpt lat="43.49827630592703" lon="13.57319275562854"><ele>15.0</ele><time>2026-05-02T14:01:15Z</time></trkpt><trkpt lat="43.49835677975971" lon="13.573262458194028"><ele>15.0</ele><time>2026-05-02T14:01:17Z</time></trkpt><trkpt lat="43.49843388826411" lon="13.573309633639855"><ele>15.0</ele><time>2026-05-02T14:01:19Z</time></trkpt><trkpt lat="43.498515492503536" lon="13.573346905206927"><ele>15.0</ele><time>2026-05-02T14:01:20.999Z</time></trkpt><trkpt lat="43.49860245854325" lon="13.573390513611445"><ele>15.0</ele><time>2026-05-02T14:01:22.999Z</time></trkpt><trkpt lat="43.49868936044249" lon="13.573468380693862"><ele>15.0</ele><time>2026-05-02T14:01:24.999Z</time></trkpt><trkpt lat="43.49877574984171" lon="13.573512881167563"><ele>15.0</ele><time>2026-05-02T14:01:26.999Z</time></trkpt><trkpt lat="43.49886160089589" lon="13.573580798624219"><ele>15.0</ele><time>2026-05-02T14:01:28.999Z</time></trkpt><trkpt lat="43.498944570120074" lon="13.5736262190577"><ele>15.0</ele><time>2026-05-02T14:01:30.999Z</time></trkpt><trkpt lat="43.499031915599645" lon="13.573684009159484"><ele>15.0</ele><time>2026-05-02T14:01:32.999Z</time></trkpt><trkpt lat="43.49911197482837" lon="13.57374387453331"><ele>15.0</ele><time>2026-05-02T14:01:34.999Z</time></trkpt><trkpt lat="43.49919526885949" lon="13.573797322199475"><ele>15.0</ele><time>2026-05-02T14:01:36.999Z</time></trkpt><trkpt lat="43.49928117711244" lon="13.57384026597806"><ele>15.0</ele><time>2026-05-02T14:01:38.999Z</time></trkpt><trkpt lat="43.499368581155686" lon="13.573901157803094"><ele>15.0</ele><time>2026-05-02T14:01:40.999Z</time></trkpt><trkpt lat="43.4994448564788" lon="13.573948010471021"><ele>15.0</ele><time>2026-05-02T14:01:42.999Z</time></trkpt><trkpt lat="43.49952821143979" lon="13.57399064186252"><ele>15.0</ele><time>2026-05-02T14:01:44.999Z</time></trkpt><trkpt lat="43.49963385935754" lon="13.574059314695333"><ele>15.4</ele><time>2026-05-02T14:01:46.999Z</time></trkpt><trkpt lat="43.49971853655772" lon="13.574122391974353"><ele>15.8</ele><time>2026-05-02T14:01:48.999Z</time></trkpt><trkpt lat="43.49979956551143" lon="13.574169449532578"><ele>16.2</ele><time>2026-05-02T14:01:50.999Z</time></trkpt><trkpt lat="43.499878395117555" lon="13.574217341952311"><ele>16.6</ele><time>2026-05-02T14:01:52.999Z</time></trkpt><trkpt lat="43.49997261065614" lon="13.574274274047152"><ele>17.0</ele><time>2026-05-02T14:01:54.999Z</time></trkpt><trkpt lat="43.50006243854688" lon="13.574335745905584"><ele>17.0</ele><time>2026-05-02T14:01:56.999Z</time></trkpt><trkpt lat="43.50014902956095" lon="13.574390138656984"><ele>17.0</ele><time>2026-05-02T14:01:58.999Z</time></trkpt><trkpt lat="43.50022678818083" lon="13.574449690319348"><ele>17.0</ele><time>2026-05-02T14:02:00.999Z</time></trkpt><trkpt lat="43.50031619245618" lon="13.574496712896726"><ele>17.0</ele><time>2026-05-02T14:02:02.999Z</time></trkpt><trkpt lat="43.50039169081234" lon="13.574525434253069"><ele>17.0</ele><time>2026-05-02T14:02:04.999Z</time></trkpt><trkpt lat="43.50047812427901" lon="13.574574054879085"><ele>16.8</ele><time>2026-05-02T14:02:06.999Z</time></trkpt><trkpt lat="43.50056027511269" lon="13.574647664826967"><ele>16.6</ele><time>2026-05-02T14:02:08.999Z</time></trkpt><trkpt lat="43.50063546607961" lon="13.574704887042028"><ele>16.400000000000002</ele><time>2026-05-02T14:02:10.999Z</time></trkpt><trkpt lat="43.50072676432371" lon="13.574748985178132"><ele>16.2</ele><time>2026-05-02T14:02:12.999Z</time></trkpt><trkpt lat="43.500822079669376" lon="13.574805800641261"><ele>16.0</ele><time>2026-05-02T14:02:14.999Z</time></trkpt><trkpt lat="43.500893697040794" lon="13.574860972407372"><ele>16.0</ele><time>2026-05-02T14:02:16.999Z</time></trkpt><trkpt lat="43.500981740498915" lon="13.574923403457253"><ele>16.0</ele><time>2026-05-02T14:02:18.999Z</time></trkpt><trkpt lat="43.5010804649395" lon="13.574963504079824"><ele>16.0</ele><time>2026-05-02T14:02:20.999Z</time></trkpt><trkpt lat="43.50116527259565" lon="13.575029435235397"><ele>16.0</ele><time>2026-05-02T14:02:22.999Z</time></trkpt><trkpt lat="43.50125564501435" lon="13.575094712805758"><ele>16.0</ele><time>2026-05-02T14:02:24.999Z</time></trkpt><trkpt lat="43.501352242397076" lon="13.575132773855206"><ele>16.6</ele><time>2026-05-02T14:02:26.998Z</time></trkpt><trkpt lat="43.50144233090052" lon="13.57514576293083"><ele>17.200000000000003</ele><time>2026-05-02T14:02:28.998Z</time></trkpt><trkpt lat="43.50152620414001" lon="13.575131881120049"><ele>17.799999999999997</ele><time>2026-05-02T14:02:30.998Z</time></trkpt><trkpt lat="43.501613024345936" lon="13.575109863376866"><ele>18.4</ele><time>2026-05-02T14:02:32.998Z</time></trkpt><trkpt lat="43.50170891908396" lon="13.575078356769636"><ele>19.0</ele><time>2026-05-02T14:02:34.998Z</time></trkpt><trkpt lat="43.501808109613606" lon="13.575040139650554"><ele>19.0</ele><time>2026-05-02T14:02:36.998Z</time></trkpt><trkpt lat="43.501923251615835" lon="13.57499443509959"><ele>19.0</ele><time>2026-05-02T14:02:38.998Z</time></trkpt><trkpt lat="43.502036184422906" lon="13.57497476284217"><ele>19.0</ele><time>2026-05-02T14:02:41Z</time></trkpt><trkpt lat="43.502099321117456" lon="13.574955113217037"><ele>19.0</ele><time>2026-05-02T14:02:42Z</time></trkpt><trkpt lat="43.50219632281436" lon="13.574940440193789"><ele>19.0</ele><time>2026-05-02T14:02:44Z</time></trkpt><trkpt lat="43.502327097020974" lon="13.574884543561119"><ele>18.8</ele><time>2026-05-02T14:02:47Z</time></trkpt><trkpt lat="43.502420902511766" lon="13.574867259626597"><ele>18.599999999999998</ele><time>2026-05-02T14:02:49Z</time></trkpt><trkpt lat="43.50251521610447" lon="13.574819300110425"><ele>18.4</ele><time>2026-05-02T14:02:51Z</time></trkpt><trkpt lat="43.5026043682194" lon="13.574757381485012"><ele>18.2</ele><time>2026-05-02T14:02:53Z</time></trkpt><trkpt lat="43.50269058597215" lon="13.5746808347061"><ele>18.0</ele><time>2026-05-02T14:02:55Z</time></trkpt><trkpt lat="43.50277347615016" lon="13.574618866161194"><ele>18.0</ele><time>2026-05-02T14:02:57Z</time></trkpt><trkpt lat="43.502854595455354" lon="13.57455768632705"><ele>18.0</ele><time>2026-05-02T14:02:59Z</time></trkpt><trkpt lat="43.50293423426325" lon="13.57449441318622"><ele>18.0</ele><time>2026-05-02T14:03:01Z</time></trkpt><trkpt lat="43.50300515804058" lon="13.574431506560067"><ele>18.0</ele><time>2026-05-02T14:03:03Z</time></trkpt><trkpt lat="43.50305679475754" lon="13.574365656289723"><ele>18.0</ele><time>2026-05-02T14:03:05Z</time></trkpt><trkpt lat="43.503114614534596" lon="13.574314444373334"><ele>18.0</ele><time>2026-05-02T14:03:07Z</time></trkpt><trkpt lat="43.503172616837446" lon="13.574264794877582"><ele>19.0</ele><time>2026-05-02T14:03:09Z</time></trkpt><trkpt lat="43.503229478712285" lon="13.574215117196212"><ele>20.0</ele><time>2026-05-02T14:03:11Z</time></trkpt><trkpt lat="43.503305788720624" lon="13.574254966016493"><ele>21.0</ele><time>2026-05-02T14:03:15Z</time></trkpt><trkpt lat="43.503484136724" lon="13.574028201465962"><ele>22.0</ele><time>2026-05-02T14:03:51.999Z</time></trkpt><trkpt lat="43.503535220859185" lon="13.573965012677053"><ele>22.0</ele><time>2026-05-02T14:03:53.999Z</time></trkpt><trkpt lat="43.50360862270512" lon="13.573902422324531"><ele>22.0</ele><time>2026-05-02T14:03:56.999Z</time></trkpt><trkpt lat="43.503664179653605" lon="13.573849289597897"><ele>22.0</ele><time>2026-05-02T14:03:59.999Z</time></trkpt><trkpt lat="43.503726769635314" lon="13.573814749832094"><ele>22.0</ele><time>2026-05-02T14:04:12.999Z</time></trkpt><trkpt lat="43.50378709698231" lon="13.573770081802328"><ele>22.0</ele><time>2026-05-02T14:04:37.998Z</time></trkpt><trkpt lat="43.50384850712478" lon="13.573712220171233"><ele>22.0</ele><time>2026-05-02T14:04:43.998Z</time></trkpt><trkpt lat="43.5039143816099" lon="13.573663977244701"><ele>22.0</ele><time>2026-05-02T14:04:50Z</time></trkpt><trkpt lat="43.50397795703007" lon="13.57363343844903"><ele>24.0</ele><time>2026-05-02T14:05:04Z</time></trkpt><trkpt lat="43.504049777756094" lon="13.573583922098486"><ele>26.0</ele><time>2026-05-02T14:05:08Z</time></trkpt><trkpt lat="43.50410809896384" lon="13.57353267224412"><ele>28.0</ele><time>2026-05-02T14:05:11Z</time></trkpt><trkpt lat="43.5041849576401" lon="13.573489528816822"><ele>30.0</ele><time>2026-05-02T14:05:14Z</time></trkpt><trkpt lat="43.504254045782325" lon="13.573429141831522"><ele>32.0</ele><time>2026-05-02T14:05:17Z</time></trkpt><trkpt lat="43.50432784526529" lon="13.573442737091407"><ele>34.0</ele><time>2026-05-02T14:05:21Z</time></trkpt><trkpt lat="43.50435795522424" lon="13.573550165803281"><ele>33.99999999999999</ele><time>2026-05-02T14:05:24Z</time></trkpt><trkpt lat="43.50438605693988" lon="13.573630209148938"><ele>34.0</ele><time>2026-05-02T14:05:26Z</time></trkpt><trkpt lat="43.50443150645708" lon="13.573709329909539"><ele>34.0</ele><time>2026-05-02T14:05:28Z</time></trkpt><trkpt lat="43.50447748551471" lon="13.573787756985961"><ele>34.0</ele><time>2026-05-02T14:05:30Z</time></trkpt><trkpt lat="43.504516446163365" lon="13.57387863437763"><ele>34.0</ele><time>2026-05-02T14:05:31.999Z</time></trkpt><trkpt lat="43.50456510546585" lon="13.57395514162912"><ele>33.99999999999999</ele><time>2026-05-02T14:05:33.999Z</time></trkpt><trkpt lat="43.504592103414545" lon="13.574052296221643"><ele>34.0</ele><time>2026-05-02T14:05:35.999Z</time></trkpt><trkpt lat="43.50464586866246" lon="13.574131683974421"><ele>34.14285714285714</ele><time>2026-05-02T14:05:37.999Z</time></trkpt><trkpt lat="43.504691036447895" lon="13.574198274426696"><ele>34.285714285714285</ele><time>2026-05-02T14:05:39.999Z</time></trkpt><trkpt lat="43.50473740917934" lon="13.574270439986384"><ele>34.42857142857143</ele><time>2026-05-02T14:05:41.999Z</time></trkpt><trkpt lat="43.5047857819895" lon="13.574335670382862"><ele>34.57142857142857</ele><time>2026-05-02T14:05:43.999Z</time></trkpt><trkpt lat="43.50482923307567" lon="13.574417830064197"><ele>34.714285714285715</ele><time>2026-05-02T14:05:45.999Z</time></trkpt><trkpt lat="43.50488126701625" lon="13.574498060260098"><ele>34.857142857142854</ele><time>2026-05-02T14:05:47.999Z</time></trkpt><trkpt lat="43.50494659115714" lon="13.574559936140954"><ele>35.0</ele><time>2026-05-02T14:05:49.999Z</time></trkpt><trkpt lat="43.50498967016482" lon="13.574650648646875"><ele>34.0</ele><time>2026-05-02T14:05:51.999Z</time></trkpt><trkpt lat="43.50505070669742" lon="13.574731667073209"><ele>33.0</ele><time>2026-05-02T14:05:53.999Z</time></trkpt><trkpt lat="43.5051166277773" lon="13.57480656289106"><ele>32.0</ele><time>2026-05-02T14:05:55.999Z</time></trkpt><trkpt lat="43.505167084604516" lon="13.574884484087924"><ele>31.0</ele><time>2026-05-02T14:05:57.999Z</time></trkpt><trkpt lat="43.50522361958999" lon="13.574955373010981"><ele>29.999999999999996</ele><time>2026-05-02T14:05:59.999Z</time></trkpt><trkpt lat="43.50527912173827" lon="13.57501817316829"><ele>29.0</ele><time>2026-05-02T14:06:01.999Z</time></trkpt><trkpt lat="43.50533875229789" lon="13.57507848878558"><ele>29.000000000000004</ele><time>2026-05-02T14:06:03.999Z</time></trkpt><trkpt lat="43.50540220934934" lon="13.575111575618248"><ele>29.0</ele><time>2026-05-02T14:06:05.999Z</time></trkpt><trkpt lat="43.50546730288556" lon="13.57519166503464"><ele>29.000000000000004</ele><time>2026-05-02T14:06:08.999Z</time></trkpt><trkpt lat="43.50552343854695" lon="13.575233250165319"><ele>29.000000000000004</ele><time>2026-05-02T14:06:10.999Z</time></trkpt><trkpt lat="43.50559607042608" lon="13.575261964550231"><ele>29.0</ele><time>2026-05-02T14:06:12.999Z</time></trkpt><trkpt lat="43.505661267975725" lon="13.57530572312144"><ele>29.000000000000004</ele><time>2026-05-02T14:06:14.999Z</time></trkpt><trkpt lat="43.50573817287198" lon="13.575339160268404"><ele>29.000000000000004</ele><time>2026-05-02T14:06:16.999Z</time></trkpt><trkpt lat="43.50582968579608" lon="13.575369089372396"><ele>29.0</ele><time>2026-05-02T14:06:18.999Z</time></trkpt><trkpt lat="43.50592528293317" lon="13.575393051980814"><ele>29.0</ele><time>2026-05-02T14:06:20.999Z</time></trkpt><trkpt lat="43.506023186796774" lon="13.57542522187124"><ele>29.0</ele><time>2026-05-02T14:06:22.999Z</time></trkpt><trkpt lat="43.5061247972934" lon="13.575457940174108"><ele>29.0</ele><time>2026-05-02T14:06:24.999Z</time></trkpt><trkpt lat="43.50623012601126" lon="13.575487053077207"><ele>29.0</ele><time>2026-05-02T14:06:26.999Z</time></trkpt><trkpt lat="43.50631848154213" lon="13.575497417930718"><ele>29.0</ele><time>2026-05-02T14:06:28.999Z</time></trkpt><trkpt lat="43.50641791665632" lon="13.57552766073407"><ele>29.0</ele><time>2026-05-02T14:06:30.999Z</time></trkpt><trkpt lat="43.5065240434138" lon="13.57555093938387"><ele>29.0</ele><time>2026-05-02T14:06:32.999Z</time></trkpt><trkpt lat="43.506630759699" lon="13.575591494856177"><ele>29.0</ele><time>2026-05-02T14:06:34.999Z</time></trkpt><trkpt lat="43.50673018889577" lon="13.575622264059845"><ele>29.0</ele><time>2026-05-02T14:06:36.998Z</time></trkpt><trkpt lat="43.50682329463276" lon="13.575639063760043"><ele>28.999999999999996</ele><time>2026-05-02T14:06:38.998Z</time></trkpt><trkpt lat="43.50690823494765" lon="13.57566498822009"><ele>29.0</ele><time>2026-05-02T14:06:40.998Z</time></trkpt><trkpt lat="43.506985539334934" lon="13.575701204431999"><ele>29.0</ele><time>2026-05-02T14:06:42.998Z</time></trkpt><trkpt lat="43.50706624912447" lon="13.575722630671645"><ele>29.0</ele><time>2026-05-02T14:06:44.998Z</time></trkpt><trkpt lat="43.50712953448633" lon="13.575751244214871"><ele>28.999999999999996</ele><time>2026-05-02T14:06:46.998Z</time></trkpt><trkpt lat="43.50723217688974" lon="13.575763719278212"><ele>29.0</ele><time>2026-05-02T14:06:48.998Z</time></trkpt><trkpt lat="43.50732117163997" lon="13.575793849290605"><ele>29.2</ele><time>2026-05-02T14:06:50.998Z</time></trkpt><trkpt lat="43.50741800565981" lon="13.575819214532535"><ele>29.4</ele><time>2026-05-02T14:06:53Z</time></trkpt><trkpt lat="43.50750346899432" lon="13.575866392803725"><ele>29.6</ele><time>2026-05-02T14:06:55Z</time></trkpt><trkpt lat="43.507586320368766" lon="13.57592866590774"><ele>29.8</ele><time>2026-05-02T14:06:57Z</time></trkpt><trkpt lat="43.50767017796159" lon="13.576001002278286"><ele>30.0</ele><time>2026-05-02T14:06:59Z</time></trkpt><trkpt lat="43.50774584964947" lon="13.576089804914039"><ele>30.0</ele><time>2026-05-02T14:07:01Z</time></trkpt><trkpt lat="43.507813834082135" lon="13.576191775525949"><ele>30.0</ele><time>2026-05-02T14:07:03Z</time></trkpt><trkpt lat="43.50789274616754" lon="13.576291274878189"><ele>30.0</ele><time>2026-05-02T14:07:05Z</time></trkpt><trkpt lat="43.507937050807364" lon="13.576407874109861"><ele>30.0</ele><time>2026-05-02T14:07:07Z</time></trkpt><trkpt lat="43.50798049511731" lon="13.576512580815196"><ele>30.0</ele><time>2026-05-02T14:07:09Z</time></trkpt><trkpt lat="43.50802064194156" lon="13.57661545468792"><ele>30.0</ele><time>2026-05-02T14:07:11Z</time></trkpt><trkpt lat="43.50806240169047" lon="13.576726442869452"><ele>30.0</ele><time>2026-05-02T14:07:13Z</time></trkpt><trkpt lat="43.50811550840353" lon="13.576835570902649"><ele>30.0</ele><time>2026-05-02T14:07:15Z</time></trkpt><trkpt lat="43.50815142457179" lon="13.576954909270434"><ele>30.0</ele><time>2026-05-02T14:07:17Z</time></trkpt><trkpt lat="43.50819369687916" lon="13.577076130892015"><ele>30.0</ele><time>2026-05-02T14:07:19Z</time></trkpt><trkpt lat="43.50823255502817" lon="13.577196444724308"><ele>29.6</ele><time>2026-05-02T14:07:21Z</time></trkpt><trkpt lat="43.50826797210263" lon="13.577321103133032"><ele>29.2</ele><time>2026-05-02T14:07:23Z</time></trkpt><trkpt lat="43.50831148369092" lon="13.5774482908373"><ele>28.799999999999997</ele><time>2026-05-02T14:07:25Z</time></trkpt><trkpt lat="43.50835393664055" lon="13.577574640073818"><ele>28.4</ele><time>2026-05-02T14:07:27Z</time></trkpt><trkpt lat="43.50839335979203" lon="13.577699515185273"><ele>28.0</ele><time>2026-05-02T14:07:29Z</time></trkpt><trkpt lat="43.50843367361718" lon="13.577822156156504"><ele>27.599999999999998</ele><time>2026-05-02T14:07:31Z</time></trkpt><trkpt lat="43.50847439141936" lon="13.577952972840437"><ele>27.199999999999996</ele><time>2026-05-02T14:07:33Z</time></trkpt><trkpt lat="43.50851295218403" lon="13.578084544580971"><ele>26.8</ele><time>2026-05-02T14:07:34.999Z</time></trkpt><trkpt lat="43.50854935838586" lon="13.578220800019453"><ele>26.4</ele><time>2026-05-02T14:07:36.999Z</time></trkpt><trkpt lat="43.50859724326208" lon="13.578357416915482"><ele>26.0</ele><time>2026-05-02T14:07:38.999Z</time></trkpt><trkpt lat="43.508626125531116" lon="13.578502800695361"><ele>25.999999999999996</ele><time>2026-05-02T14:07:40.999Z</time></trkpt><trkpt lat="43.50867929217781" lon="13.578628445758731"><ele>26.0</ele><time>2026-05-02T14:07:42.999Z</time></trkpt><trkpt lat="43.50872274526284" lon="13.578742314728329"><ele>26.0</ele><time>2026-05-02T14:07:44.999Z</time></trkpt><trkpt lat="43.50874679733702" lon="13.578857851188667"><ele>26.0</ele><time>2026-05-02T14:07:46.999Z</time></trkpt><trkpt lat="43.50876868563595" lon="13.578955559985124"><ele>25.999999999999996</ele><time>2026-05-02T14:07:48.999Z</time></trkpt><trkpt lat="43.50878855961614" lon="13.579058440180791"><ele>26.0</ele><time>2026-05-02T14:07:50.999Z</time></trkpt><trkpt lat="43.508808810648205" lon="13.579143179150948"><ele>26.200000000000003</ele><time>2026-05-02T14:07:51.999Z</time></trkpt><trkpt lat="43.50870074088801" lon="13.57918244995407"><ele>26.400000000000002</ele><time>2026-05-02T14:07:53.999Z</time></trkpt><trkpt lat="43.50859976223826" lon="13.57924825017546"><ele>26.6</ele><time>2026-05-02T14:07:55.999Z</time></trkpt><trkpt lat="43.508502291971546" lon="13.579325286655363"><ele>26.8</ele><time>2026-05-02T14:07:57.999Z</time></trkpt><trkpt lat="43.50842929351316" lon="13.579420509432007"><ele>27.0</ele><time>2026-05-02T14:07:59.999Z</time></trkpt><trkpt lat="43.50834669664164" lon="13.57950663213057"><ele>27.0</ele><time>2026-05-02T14:08:01.999Z</time></trkpt><trkpt lat="43.50827760198523" lon="13.579622558819027"><ele>27.000000000000004</ele><time>2026-05-02T14:08:03.999Z</time></trkpt><trkpt lat="43.508221856163686" lon="13.579760145041103"><ele>27.000000000000004</ele><time>2026-05-02T14:08:05.999Z</time></trkpt><trkpt lat="43.50817564664095" lon="13.579822121798681"><ele>27.0</ele><time>2026-05-02T14:08:06.999Z</time></trkpt><trkpt lat="43.5081040787026" lon="13.579966194847808"><ele>27.0</ele><time>2026-05-02T14:08:08.999Z</time></trkpt><trkpt lat="43.50804588680885" lon="13.58010927635777"><ele>27.0</ele><time>2026-05-02T14:08:10.999Z</time></trkpt><trkpt lat="43.50797561885265" lon="13.580248163762727"><ele>27.0</ele><time>2026-05-02T14:08:12.999Z</time></trkpt><trkpt lat="43.50790229943011" lon="13.580375799446413"><ele>27.0</ele><time>2026-05-02T14:08:14.999Z</time></trkpt><trkpt lat="43.50781855957588" lon="13.580491589274754"><ele>27.0</ele><time>2026-05-02T14:08:16.999Z</time></trkpt><trkpt lat="43.507760808111264" lon="13.580621049299223"><ele>27.0</ele><time>2026-05-02T14:08:18.999Z</time></trkpt><trkpt lat="43.50769135865961" lon="13.580713454219303"><ele>27.0</ele><time>2026-05-02T14:08:20.999Z</time></trkpt><trkpt lat="43.50763225977655" lon="13.580756938730763"><ele>27.0</ele><time>2026-05-02T14:08:22.999Z</time></trkpt><trkpt lat="43.50758788182684" lon="13.58083267082613"><ele>27.0</ele><time>2026-05-02T14:08:25.999Z</time></trkpt><trkpt lat="43.50755028548768" lon="13.580936034199675"><ele>27.0</ele><time>2026-05-02T14:08:28.999Z</time></trkpt><trkpt lat="43.50755222369067" lon="13.581060143480508"><ele>27.0</ele><time>2026-05-02T14:08:30.999Z</time></trkpt><trkpt lat="43.50755978978623" lon="13.581197877369483"><ele>26.666666666666668</ele><time>2026-05-02T14:08:33.999Z</time></trkpt><trkpt lat="43.50756573743357" lon="13.58130614922365"><ele>26.333333333333336</ele><time>2026-05-02T14:08:35.999Z</time></trkpt><trkpt lat="43.50757157210436" lon="13.581412364776742"><ele>26.0</ele><time>2026-05-02T14:08:37.999Z</time></trkpt><trkpt lat="43.507611448249996" lon="13.581529797069582"><ele>25.666666666666668</ele><time>2026-05-02T14:08:39.999Z</time></trkpt><trkpt lat="43.50761385178521" lon="13.581640449221442"><ele>25.333333333333336</ele><time>2026-05-02T14:08:41.999Z</time></trkpt><trkpt lat="43.50756504168784" lon="13.581734894139176"><ele>25.0</ele><time>2026-05-02T14:08:43.998Z</time></trkpt><trkpt lat="43.507772255159274" lon="13.581671944846004"><ele>25.0</ele><time>2026-05-02T14:08:46.998Z</time></trkpt><trkpt lat="43.50786915596847" lon="13.581593479373508"><ele>25.0</ele><time>2026-05-02T14:08:48.998Z</time></trkpt><trkpt lat="43.507933130908356" lon="13.58158298309431"><ele>25.0</ele><time>2026-05-02T14:08:49.998Z</time></trkpt><trkpt lat="43.50804521632196" lon="13.581640011572993"><ele>25.0</ele><time>2026-05-02T14:08:51.998Z</time></trkpt><trkpt lat="43.5081563782569" lon="13.581706542899337"><ele>25.0</ele><time>2026-05-02T14:08:53.998Z</time></trkpt><trkpt lat="43.508263014269595" lon="13.581774871182123"><ele>25.2</ele><time>2026-05-02T14:08:55.998Z</time></trkpt><trkpt lat="43.5083674714216" lon="13.581838070839476"><ele>25.4</ele><time>2026-05-02T14:08:58Z</time></trkpt><trkpt lat="43.508465448958454" lon="13.58189257304835"><ele>25.6</ele><time>2026-05-02T14:09:00Z</time></trkpt><trkpt lat="43.50856860709047" lon="13.58192024979452"><ele>25.8</ele><time>2026-05-02T14:09:02Z</time></trkpt><trkpt lat="43.50868123805184" lon="13.581937246289025"><ele>26.0</ele><time>2026-05-02T14:09:04Z</time></trkpt><trkpt lat="43.50878158931973" lon="13.581937898165652"><ele>26.200000000000003</ele><time>2026-05-02T14:09:06Z</time></trkpt><trkpt lat="43.50888311592644" lon="13.581906175734273"><ele>26.400000000000002</ele><time>2026-05-02T14:09:08Z</time></trkpt><trkpt lat="43.508984961021596" lon="13.581899414923154"><ele>26.6</ele><time>2026-05-02T14:09:10Z</time></trkpt><trkpt lat="43.5090855888038" lon="13.581866707076752"><ele>26.8</ele><time>2026-05-02T14:09:12Z</time></trkpt><trkpt lat="43.50918973274652" lon="13.581847662929855"><ele>27.0</ele><time>2026-05-02T14:09:14Z</time></trkpt><trkpt lat="43.50929572491268" lon="13.58182874202563"><ele>27.0</ele><time>2026-05-02T14:09:16Z</time></trkpt><trkpt lat="43.50940103910839" lon="13.581801052941788"><ele>27.000000000000004</ele><time>2026-05-02T14:09:18Z</time></trkpt><trkpt lat="43.509508748761064" lon="13.581770187321576"><ele>27.000000000000004</ele><time>2026-05-02T14:09:20Z</time></trkpt><trkpt lat="43.50961108386144" lon="13.58173520371893"><ele>27.0</ele><time>2026-05-02T14:09:22Z</time></trkpt><trkpt lat="43.509709535763676" lon="13.58170440332841"><ele>27.0</ele><time>2026-05-02T14:09:24Z</time></trkpt><trkpt lat="43.509818255729854" lon="13.581677210424463"><ele>27.200000000000003</ele><time>2026-05-02T14:09:26Z</time></trkpt><trkpt lat="43.509922905117605" lon="13.58165922743623"><ele>27.400000000000002</ele><time>2026-05-02T14:09:28Z</time></trkpt><trkpt lat="43.51001399015494" lon="13.581651116226228"><ele>27.599999999999998</ele><time>2026-05-02T14:09:30Z</time></trkpt><trkpt lat="43.510108042841814" lon="13.581604407263894"><ele>27.799999999999997</ele><time>2026-05-02T14:09:32Z</time></trkpt><trkpt lat="43.51020569806621" lon="13.581585655275479"><ele>28.0</ele><time>2026-05-02T14:09:34Z</time></trkpt><trkpt lat="43.51030903420577" lon="13.581578671612261"><ele>28.2</ele><time>2026-05-02T14:09:35.999Z</time></trkpt><trkpt lat="43.510410227655015" lon="13.581564481720855"><ele>28.4</ele><time>2026-05-02T14:09:37.999Z</time></trkpt><trkpt lat="43.51050666725525" lon="13.5815359537721"><ele>28.599999999999998</ele><time>2026-05-02T14:09:39.999Z</time></trkpt><trkpt lat="43.510604313175904" lon="13.58150822126475"><ele>28.799999999999997</ele><time>2026-05-02T14:09:41.999Z</time></trkpt><trkpt lat="43.510700437993115" lon="13.581488171283485"><ele>29.0</ele><time>2026-05-02T14:09:43.999Z</time></trkpt><trkpt lat="43.5107915569574" lon="13.581461481959728"><ele>29.0</ele><time>2026-05-02T14:09:45.999Z</time></trkpt><trkpt lat="43.51088506493598" lon="13.581437805151388"><ele>29.0</ele><time>2026-05-02T14:09:47.999Z</time></trkpt><trkpt lat="43.510980841752584" lon="13.581410986245487"><ele>29.0</ele><time>2026-05-02T14:09:49.999Z</time></trkpt><trkpt lat="43.51107089719093" lon="13.58138246404701"><ele>29.0</ele><time>2026-05-02T14:09:51.999Z</time></trkpt><trkpt lat="43.511166891792456" lon="13.581359122921388"><ele>29.0</ele><time>2026-05-02T14:09:53.999Z</time></trkpt><trkpt lat="43.51126794112593" lon="13.581335481279433"><ele>29.4</ele><time>2026-05-02T14:09:55.999Z</time></trkpt><trkpt lat="43.511363686134565" lon="13.581310662064029"><ele>29.799999999999997</ele><time>2026-05-02T14:09:57.999Z</time></trkpt><trkpt lat="43.511461518301005" lon="13.58129351976341"><ele>30.200000000000003</ele><time>2026-05-02T14:09:59.999Z</time></trkpt><trkpt lat="43.51155653870588" lon="13.581262045775407"><ele>30.6</ele><time>2026-05-02T14:10:01.999Z</time></trkpt><trkpt lat="43.51165068287561" lon="13.581231993395491"><ele>31.0</ele><time>2026-05-02T14:10:03.999Z</time></trkpt><trkpt lat="43.511755770125426" lon="13.581201601997911"><ele>31.0</ele><time>2026-05-02T14:10:05.999Z</time></trkpt><trkpt lat="43.511853943877746" lon="13.581200729359962"><ele>31.0</ele><time>2026-05-02T14:10:07.999Z</time></trkpt><trkpt lat="43.51194586737075" lon="13.581260862031584"><ele>31.0</ele><time>2026-05-02T14:10:09.999Z</time></trkpt><trkpt lat="43.511962554424976" lon="13.581402171094217"><ele>31.0</ele><time>2026-05-02T14:10:11.999Z</time></trkpt><trkpt lat="43.51199699839309" lon="13.581533985038163"><ele>31.0</ele><time>2026-05-02T14:10:13.999Z</time></trkpt><trkpt lat="43.51204209153963" lon="13.58166290547168"><ele>31.0</ele><time>2026-05-02T14:10:15.999Z</time></trkpt><trkpt lat="43.51207137420277" lon="13.581805579045236"><ele>31.0</ele><time>2026-05-02T14:10:17.999Z</time></trkpt><trkpt lat="43.51210225566887" lon="13.581948866967334"><ele>31.0</ele><time>2026-05-02T14:10:19.999Z</time></trkpt><trkpt lat="43.512140483478646" lon="13.582092791404087"><ele>31.0</ele><time>2026-05-02T14:10:21.999Z</time></trkpt><trkpt lat="43.512180938081414" lon="13.58223194370507"><ele>31.0</ele><time>2026-05-02T14:10:23.999Z</time></trkpt><trkpt lat="43.5122168491799" lon="13.582369904832056"><ele>30.8</ele><time>2026-05-02T14:10:25.999Z</time></trkpt><trkpt lat="43.51225375380575" lon="13.582510196736342"><ele>30.6</ele><time>2026-05-02T14:10:27.999Z</time></trkpt><trkpt lat="43.512288327247454" lon="13.582649195516865"><ele>30.4</ele><time>2026-05-02T14:10:29.999Z</time></trkpt><trkpt lat="43.512326815805324" lon="13.582786440616946"><ele>30.2</ele><time>2026-05-02T14:10:31.999Z</time></trkpt><trkpt lat="43.51236475599119" lon="13.582916195075162"><ele>30.0</ele><time>2026-05-02T14:10:33.999Z</time></trkpt><trkpt lat="43.512401280952275" lon="13.583062469170764"><ele>30.0</ele><time>2026-05-02T14:10:35.999Z</time></trkpt><trkpt lat="43.5124275602021" lon="13.58320031391548"><ele>30.0</ele><time>2026-05-02T14:10:37.999Z</time></trkpt><trkpt lat="43.5124798573206" lon="13.583330608949357"><ele>30.0</ele><time>2026-05-02T14:10:39.999Z</time></trkpt><trkpt lat="43.512512781821194" lon="13.583465126614726"><ele>30.0</ele><time>2026-05-02T14:10:41.999Z</time></trkpt><trkpt lat="43.51255164702996" lon="13.58361051749536"><ele>30.0</ele><time>2026-05-02T14:10:43.999Z</time></trkpt><trkpt lat="43.51257680127067" lon="13.58374955646717"><ele>30.4</ele><time>2026-05-02T14:10:45.999Z</time></trkpt><trkpt lat="43.51261107233877" lon="13.583889563756456"><ele>30.8</ele><time>2026-05-02T14:10:47.998Z</time></trkpt><trkpt lat="43.5126537850749" lon="13.58401704606685"><ele>31.200000000000003</ele><time>2026-05-02T14:10:49.998Z</time></trkpt><trkpt lat="43.512733969301706" lon="13.584090477301393"><ele>31.6</ele><time>2026-05-02T14:10:51.998Z</time></trkpt><trkpt lat="43.51282897922278" lon="13.584068087552911"><ele>32.0</ele><time>2026-05-02T14:10:53.998Z</time></trkpt><trkpt lat="43.51291302998783" lon="13.584035230150128"><ele>32.166666666666664</ele><time>2026-05-02T14:10:55.998Z</time></trkpt><trkpt lat="43.5129778594747" lon="13.584032524581465"><ele>32.33333333333333</ele><time>2026-05-02T14:10:58.998Z</time></trkpt><trkpt lat="43.51306049804275" lon="13.58398394567515"><ele>32.5</ele><time>2026-05-02T14:11:09Z</time></trkpt><trkpt lat="43.51312686476335" lon="13.583976744161296"><ele>32.666666666666664</ele><time>2026-05-02T14:11:11Z</time></trkpt><trkpt lat="43.51319655639881" lon="13.583949185982094"><ele>32.833333333333336</ele><time>2026-05-02T14:11:13Z</time></trkpt><trkpt lat="43.51327153255987" lon="13.583919752496703"><ele>33.0</ele><time>2026-05-02T14:11:15Z</time></trkpt><trkpt lat="43.51335572770849" lon="13.58389594981442"><ele>33.0</ele><time>2026-05-02T14:11:17Z</time></trkpt><trkpt lat="43.51345030456188" lon="13.583864510631747"><ele>33.0</ele><time>2026-05-02T14:11:19Z</time></trkpt><trkpt lat="43.51354641966657" lon="13.583832175469968"><ele>33.0</ele><time>2026-05-02T14:11:21Z</time></trkpt><trkpt lat="43.5136363763874" lon="13.583804829388281"><ele>33.0</ele><time>2026-05-02T14:11:23Z</time></trkpt><trkpt lat="43.513736293988615" lon="13.583782536702637"><ele>33.0</ele><time>2026-05-02T14:11:25Z</time></trkpt><trkpt lat="43.51383217755351" lon="13.58374907957711"><ele>33.6</ele><time>2026-05-02T14:11:27Z</time></trkpt><trkpt lat="43.51393531134798" lon="13.583715228960797"><ele>34.199999999999996</ele><time>2026-05-02T14:11:29Z</time></trkpt><trkpt lat="43.51403479096" lon="13.583700628642005"><ele>34.8</ele><time>2026-05-02T14:11:31Z</time></trkpt><trkpt lat="43.514139403028956" lon="13.58365287856667"><ele>35.4</ele><time>2026-05-02T14:11:33Z</time></trkpt><trkpt lat="43.51422605210567" lon="13.583616277917175"><ele>36.0</ele><time>2026-05-02T14:11:35Z</time></trkpt><trkpt lat="43.51430194983393" lon="13.58359414424256"><ele>36.0</ele><time>2026-05-02T14:11:38Z</time></trkpt><trkpt lat="43.5143621821295" lon="13.583567453110668"><ele>36.0</ele><time>2026-05-02T14:11:40Z</time></trkpt><trkpt lat="43.51443116946784" lon="13.583557899233444"><ele>36.0</ele><time>2026-05-02T14:11:42Z</time></trkpt><trkpt lat="43.51450288490866" lon="13.58352642947195"><ele>36.0</ele><time>2026-05-02T14:11:44Z</time></trkpt><trkpt lat="43.5145835914927" lon="13.583481399003295"><ele>36.0</ele><time>2026-05-02T14:11:47Z</time></trkpt><trkpt lat="43.51465816612071" lon="13.583406608325955"><ele>36.0</ele><time>2026-05-02T14:11:50Z</time></trkpt><trkpt lat="43.51470294660108" lon="13.583333713063242"><ele>36.5</ele><time>2026-05-02T14:11:52Z</time></trkpt><trkpt lat="43.5147473772463" lon="13.583237967975965"><ele>37.0</ele><time>2026-05-02T14:11:54Z</time></trkpt><trkpt lat="43.5147977753273" lon="13.583136272165971"><ele>37.5</ele><time>2026-05-02T14:11:55.999Z</time></trkpt><trkpt lat="43.51484964018655" lon="13.583053360387284"><ele>38.0</ele><time>2026-05-02T14:11:57.999Z</time></trkpt><trkpt lat="43.51489621058141" lon="13.582949562716612"><ele>38.5</ele><time>2026-05-02T14:11:59.999Z</time></trkpt><trkpt lat="43.5149338654783" lon="13.582829378670375"><ele>39.0</ele><time>2026-05-02T14:12:01.999Z</time></trkpt><trkpt lat="43.51499341991293" lon="13.582717446043647"><ele>39.0</ele><time>2026-05-02T14:12:03.999Z</time></trkpt><trkpt lat="43.51505885542087" lon="13.582603866848489"><ele>39.0</ele><time>2026-05-02T14:12:05.999Z</time></trkpt><trkpt lat="43.51515539030591" lon="13.582515675872578"><ele>39.0</ele><time>2026-05-02T14:12:07.999Z</time></trkpt><trkpt lat="43.515199186445706" lon="13.582452890569101"><ele>39.0</ele><time>2026-05-02T14:12:08.999Z</time></trkpt><trkpt lat="43.51524919486984" lon="13.582320954540487"><ele>39.0</ele><time>2026-05-02T14:12:10.999Z</time></trkpt><trkpt lat="43.51529586101099" lon="13.58218879579124"><ele>39.0</ele><time>2026-05-02T14:12:12.999Z</time></trkpt><trkpt lat="43.515333841804974" lon="13.5820402193813"><ele>39.0</ele><time>2026-05-02T14:12:14.999Z</time></trkpt><trkpt lat="43.515383314312906" lon="13.581912195330233"><ele>39.0</ele><time>2026-05-02T14:12:16.999Z</time></trkpt><trkpt lat="43.51543698505948" lon="13.581791648150785"><ele>39.0</ele><time>2026-05-02T14:12:18.999Z</time></trkpt><trkpt lat="43.515486614586116" lon="13.581654354416381"><ele>39.0</ele><time>2026-05-02T14:12:20.999Z</time></trkpt><trkpt lat="43.51553520757027" lon="13.581525585580884"><ele>38.6</ele><time>2026-05-02T14:12:22.999Z</time></trkpt><trkpt lat="43.51558586754269" lon="13.581391668457522"><ele>38.2</ele><time>2026-05-02T14:12:24.999Z</time></trkpt><trkpt lat="43.51563782647552" lon="13.581257419430985"><ele>37.800000000000004</ele><time>2026-05-02T14:12:26.999Z</time></trkpt><trkpt lat="43.515693996739884" lon="13.58113735579075"><ele>37.4</ele><time>2026-05-02T14:12:28.999Z</time></trkpt><trkpt lat="43.515740817722005" lon="13.58099124263716"><ele>37.0</ele><time>2026-05-02T14:12:30.999Z</time></trkpt><trkpt lat="43.5157933673957" lon="13.580883097545257"><ele>36.75</ele><time>2026-05-02T14:12:32.999Z</time></trkpt><trkpt lat="43.51584101946463" lon="13.580754009087672"><ele>36.5</ele><time>2026-05-02T14:12:34.999Z</time></trkpt><trkpt lat="43.515902530418195" lon="13.580622505867426"><ele>36.25</ele><time>2026-05-02T14:12:36.999Z</time></trkpt><trkpt lat="43.51595904056877" lon="13.580485586582762"><ele>36.0</ele><time>2026-05-02T14:12:38.999Z</time></trkpt><trkpt lat="43.516014810934195" lon="13.580343615171104"><ele>35.6</ele><time>2026-05-02T14:12:40.999Z</time></trkpt><trkpt lat="43.51604312997834" lon="13.580265345863875"><ele>35.2</ele><time>2026-05-02T14:12:41.999Z</time></trkpt><trkpt lat="43.516095191473816" lon="13.580119083059861"><ele>34.8</ele><time>2026-05-02T14:12:43.999Z</time></trkpt><trkpt lat="43.516143127226535" lon="13.579977476261137"><ele>34.4</ele><time>2026-05-02T14:12:45.999Z</time></trkpt><trkpt lat="43.51619319845354" lon="13.579843605370593"><ele>34.0</ele><time>2026-05-02T14:12:47.999Z</time></trkpt><trkpt lat="43.51623401476632" lon="13.579711127629974"><ele>35.0</ele><time>2026-05-02T14:12:49.999Z</time></trkpt><trkpt lat="43.51627619070363" lon="13.579583703697667"><ele>36.0</ele><time>2026-05-02T14:12:51.999Z</time></trkpt><trkpt lat="43.516307962026964" lon="13.579447026775465"><ele>37.0</ele><time>2026-05-02T14:12:53.999Z</time></trkpt><trkpt lat="43.516363389646735" lon="13.579330126092154"><ele>38.0</ele><time>2026-05-02T14:12:55.999Z</time></trkpt><trkpt lat="43.51640353151592" lon="13.579184612406355"><ele>39.0</ele><time>2026-05-02T14:12:57.999Z</time></trkpt><trkpt lat="43.51644898966615" lon="13.579051859906171"><ele>39.0</ele><time>2026-05-02T14:12:59.999Z</time></trkpt><trkpt lat="43.51650278626733" lon="13.578931432307513"><ele>39.0</ele><time>2026-05-02T14:13:01.999Z</time></trkpt><trkpt lat="43.51655195487903" lon="13.578804446980081"><ele>39.0</ele><time>2026-05-02T14:13:03.999Z</time></trkpt><trkpt lat="43.516597581348194" lon="13.5786734306234"><ele>39.0</ele><time>2026-05-02T14:13:05.998Z</time></trkpt><trkpt lat="43.51665091925196" lon="13.578539684800703"><ele>39.0</ele><time>2026-05-02T14:13:07.998Z</time></trkpt><trkpt lat="43.51666679324877" lon="13.5784550830337"><ele>38.6</ele><time>2026-05-02T14:13:08.998Z</time></trkpt><trkpt lat="43.516722951587965" lon="13.578354639562619"><ele>38.2</ele><time>2026-05-02T14:13:11Z</time></trkpt><trkpt lat="43.51676321972543" lon="13.578206024952504"><ele>37.800000000000004</ele><time>2026-05-02T14:13:13Z</time></trkpt><trkpt lat="43.51681457432417" lon="13.57807611262429"><ele>37.4</ele><time>2026-05-02T14:13:15Z</time></trkpt><trkpt lat="43.51686254378093" lon="13.57796712520934"><ele>37.0</ele><time>2026-05-02T14:13:17Z</time></trkpt><trkpt lat="43.51690196549265" lon="13.577829472167908"><ele>36.800000000000004</ele><time>2026-05-02T14:13:19Z</time></trkpt><trkpt lat="43.51695787205392" lon="13.577718109555605"><ele>36.6</ele><time>2026-05-02T14:13:21Z</time></trkpt><trkpt lat="43.51701603743821" lon="13.577584009933483"><ele>36.400000000000006</ele><time>2026-05-02T14:13:23Z</time></trkpt><trkpt lat="43.517074640574954" lon="13.577464183929179"><ele>36.2</ele><time>2026-05-02T14:13:25Z</time></trkpt><trkpt lat="43.517123137347994" lon="13.577324481820462"><ele>36.0</ele><time>2026-05-02T14:13:27Z</time></trkpt><trkpt lat="43.517181139362094" lon="13.577205026323762"><ele>36.6</ele><time>2026-05-02T14:13:29Z</time></trkpt><trkpt lat="43.51724098284447" lon="13.577079194902613"><ele>37.2</ele><time>2026-05-02T14:13:31Z</time></trkpt><trkpt lat="43.517289239426184" lon="13.576959648231893"><ele>37.8</ele><time>2026-05-02T14:13:33Z</time></trkpt><trkpt lat="43.51735042446419" lon="13.57683635346112"><ele>38.4</ele><time>2026-05-02T14:13:35Z</time></trkpt><trkpt lat="43.517401570480644" lon="13.57672256815033"><ele>39.0</ele><time>2026-05-02T14:13:37Z</time></trkpt><trkpt lat="43.5174549503793" lon="13.576629737860838"><ele>39.0</ele><time>2026-05-02T14:13:39Z</time></trkpt><trkpt lat="43.51750418629746" lon="13.576566160881356"><ele>39.0</ele><time>2026-05-02T14:13:42Z</time></trkpt><trkpt lat="43.517420566146605" lon="13.576452093678311"><ele>39.0</ele><time>2026-05-02T14:13:43Z</time></trkpt><trkpt lat="43.51734414516728" lon="13.57638361126777"><ele>39.0</ele><time>2026-05-02T14:13:45Z</time></trkpt><trkpt lat="43.51726473992721" lon="13.57631232484792"><ele>39.0</ele><time>2026-05-02T14:13:47Z</time></trkpt><trkpt lat="43.51720635649261" lon="13.576228053799586"><ele>39.166666666666664</ele><time>2026-05-02T14:13:49Z</time></trkpt><trkpt lat="43.5171495256046" lon="13.57616216597624"><ele>39.333333333333336</ele><time>2026-05-02T14:13:51Z</time></trkpt><trkpt lat="43.51708810206584" lon="13.576069735951634"><ele>39.5</ele><time>2026-05-02T14:13:54Z</time></trkpt><trkpt lat="43.51718599790554" lon="13.576021236361484"><ele>39.66666666666667</ele><time>2026-05-02T14:13:59Z</time></trkpt><trkpt lat="43.517256222454044" lon="13.57601570583783"><ele>39.833333333333336</ele><time>2026-05-02T14:14:01Z</time></trkpt><trkpt lat="43.51732978195848" lon="13.575951593692533"><ele>40.0</ele><time>2026-05-02T14:14:02.999Z</time></trkpt><trkpt lat="43.517393477288955" lon="13.575918245133535"><ele>40.0</ele><time>2026-05-02T14:14:04.999Z</time></trkpt><trkpt lat="43.517482450413986" lon="13.575869293049001"><ele>40.0</ele><time>2026-05-02T14:14:06.999Z</time></trkpt><trkpt lat="43.51756450456295" lon="13.575831432622122"><ele>40.0</ele><time>2026-05-02T14:14:08.999Z</time></trkpt><trkpt lat="43.51763799596487" lon="13.575766801086191"><ele>40.0</ele><time>2026-05-02T14:14:10.999Z</time></trkpt><trkpt lat="43.51772100875508" lon="13.575713908398727"><ele>40.0</ele><time>2026-05-02T14:14:12.999Z</time></trkpt><trkpt lat="43.51780023758131" lon="13.575672363567243"><ele>40.0</ele><time>2026-05-02T14:14:14.999Z</time></trkpt><trkpt lat="43.51787653392502" lon="13.575612701183356"><ele>40.4</ele><time>2026-05-02T14:14:16.999Z</time></trkpt><trkpt lat="43.51796648101078" lon="13.575567559101657"><ele>40.8</ele><time>2026-05-02T14:14:18.999Z</time></trkpt><trkpt lat="43.51805877817281" lon="13.575533148971534"><ele>41.2</ele><time>2026-05-02T14:14:20.999Z</time></trkpt><trkpt lat="43.518144149501275" lon="13.57549274727598"><ele>41.6</ele><time>2026-05-02T14:14:22.999Z</time></trkpt><trkpt lat="43.51824457222679" lon="13.575460382612988"><ele>42.0</ele><time>2026-05-02T14:14:24.999Z</time></trkpt><trkpt lat="43.518335917857556" lon="13.57543072368924"><ele>42.0</ele><time>2026-05-02T14:14:26.999Z</time></trkpt><trkpt lat="43.518435250678955" lon="13.575396360689496"><ele>42.0</ele><time>2026-05-02T14:14:28.999Z</time></trkpt><trkpt lat="43.51851518008358" lon="13.575353040248322"><ele>42.0</ele><time>2026-05-02T14:14:30.999Z</time></trkpt><trkpt lat="43.51861739874959" lon="13.575345548719667"><ele>42.0</ele><time>2026-05-02T14:14:32.999Z</time></trkpt><trkpt lat="43.51872127009125" lon="13.57530993696449"><ele>42.0</ele><time>2026-05-02T14:14:34.999Z</time></trkpt><trkpt lat="43.51881406549311" lon="13.575290673081708"><ele>42.2</ele><time>2026-05-02T14:14:36.999Z</time></trkpt><trkpt lat="43.51890384118501" lon="13.575231643345303"><ele>42.400000000000006</ele><time>2026-05-02T14:14:38.999Z</time></trkpt><trkpt lat="43.51899973229923" lon="13.575171270362132"><ele>42.599999999999994</ele><time>2026-05-02T14:14:40.999Z</time></trkpt><trkpt lat="43.519091075387124" lon="13.575154451719786"><ele>42.8</ele><time>2026-05-02T14:14:42.999Z</time></trkpt><trkpt lat="43.51917644140033" lon="13.575049328689786"><ele>43.0</ele><time>2026-05-02T14:14:44.999Z</time></trkpt><trkpt lat="43.51923616313934" lon="13.57500707992716"><ele>43.0</ele><time>2026-05-02T14:14:45.999Z</time></trkpt><trkpt lat="43.5193049861395" lon="13.57495402080774"><ele>43.0</ele><time>2026-05-02T14:14:47.999Z</time></trkpt><trkpt lat="43.51938594357915" lon="13.574872611728157"><ele>43.0</ele><time>2026-05-02T14:14:49.999Z</time></trkpt><trkpt lat="43.51945573919774" lon="13.57477296851066"><ele>43.0</ele><time>2026-05-02T14:14:51.999Z</time></trkpt><trkpt lat="43.519520108365015" lon="13.574684037733984"><ele>43.0</ele><time>2026-05-02T14:14:53.999Z</time></trkpt><trkpt lat="43.51958138942384" lon="13.574566026520742"><ele>43.2</ele><time>2026-05-02T14:14:55.999Z</time></trkpt><trkpt lat="43.51963809510476" lon="13.574469808407192"><ele>43.4</ele><time>2026-05-02T14:14:57.999Z</time></trkpt><trkpt lat="43.51969457536725" lon="13.57436038963012"><ele>43.6</ele><time>2026-05-02T14:14:59.999Z</time></trkpt><trkpt lat="43.519759050919504" lon="13.574260728330197"><ele>43.800000000000004</ele><time>2026-05-02T14:15:01.999Z</time></trkpt><trkpt lat="43.51981519704767" lon="13.574178065641092"><ele>44.0</ele><time>2026-05-02T14:15:03.999Z</time></trkpt><trkpt lat="43.519856434822124" lon="13.574058706285525"><ele>44.0</ele><time>2026-05-02T14:15:05.999Z</time></trkpt><trkpt lat="43.51991587000873" lon="13.573983438172114"><ele>44.0</ele><time>2026-05-02T14:15:07.999Z</time></trkpt><trkpt lat="43.51998494870639" lon="13.573904856376132"><ele>44.0</ele><time>2026-05-02T14:15:09.998Z</time></trkpt><trkpt lat="43.52005690177731" lon="13.5738444957818"><ele>44.0</ele><time>2026-05-02T14:15:11.998Z</time></trkpt><trkpt lat="43.5201224906244" lon="13.573740559548703"><ele>44.0</ele><time>2026-05-02T14:15:13.998Z</time></trkpt><trkpt lat="43.5202090871771" lon="13.573682228640847"><ele>44.400000000000006</ele><time>2026-05-02T14:15:16Z</time></trkpt><trkpt lat="43.52028465259301" lon="13.573631537673633"><ele>44.8</ele><time>2026-05-02T14:15:18Z</time></trkpt><trkpt lat="43.520372356133116" lon="13.57358127040283"><ele>45.2</ele><time>2026-05-02T14:15:20Z</time></trkpt><trkpt lat="43.52046352683306" lon="13.573509848414487"><ele>45.599999999999994</ele><time>2026-05-02T14:15:22Z</time></trkpt><trkpt lat="43.52053964486871" lon="13.5734519745708"><ele>46.0</ele><time>2026-05-02T14:15:24Z</time></trkpt><trkpt lat="43.52061303909731" lon="13.573363808905958"><ele>46.0</ele><time>2026-05-02T14:15:26Z</time></trkpt><trkpt lat="43.52067852599061" lon="13.5732860965757"><ele>46.0</ele><time>2026-05-02T14:15:28Z</time></trkpt><trkpt lat="43.520725024380404" lon="13.57321574053159"><ele>46.0</ele><time>2026-05-02T14:15:30Z</time></trkpt><trkpt lat="43.52077654637224" lon="13.573148106339389"><ele>46.0</ele><time>2026-05-02T14:15:32Z</time></trkpt><trkpt lat="43.520829240547215" lon="13.573087357012183"><ele>46.0</ele><time>2026-05-02T14:15:34Z</time></trkpt><trkpt lat="43.520767246950214" lon="13.573178261786415"><ele>46.0</ele><time>2026-05-02T14:15:50Z</time></trkpt><trkpt lat="43.520714167187165" lon="13.573243684322552"><ele>46.0</ele><time>2026-05-02T14:15:52Z</time></trkpt><trkpt lat="43.52063820464653" lon="13.57333705931014"><ele>46.0</ele><time>2026-05-02T14:15:54Z</time></trkpt><trkpt lat="43.520799192499204" lon="13.573467374337138"><ele>46.0</ele><time>2026-05-02T14:16:04Z</time></trkpt><trkpt lat="43.52086880502445" lon="13.573468348786136"><ele>46.0</ele><time>2026-05-02T14:16:06Z</time></trkpt><trkpt lat="43.52093801585714" lon="13.573492812932928"><ele>46.0</ele><time>2026-05-02T14:16:08Z</time></trkpt><trkpt lat="43.52100684563034" lon="13.57350426163052"><ele>46.0</ele><time>2026-05-02T14:16:09.999Z</time></trkpt><trkpt lat="43.52108170827383" lon="13.573504552994121"><ele>46.0</ele><time>2026-05-02T14:16:11.999Z</time></trkpt><trkpt lat="43.521172669398574" lon="13.573497946030322"><ele>46.0</ele><time>2026-05-02T14:16:14.999Z</time></trkpt><trkpt lat="43.521245018865514" lon="13.573485692652167"><ele>46.0</ele><time>2026-05-02T14:16:16.999Z</time></trkpt><trkpt lat="43.521314734427484" lon="13.573457665302445"><ele>46.0</ele><time>2026-05-02T14:16:18.999Z</time></trkpt><trkpt lat="43.52137963928591" lon="13.573438419434545"><ele>46.0</ele><time>2026-05-02T14:16:20.999Z</time></trkpt><trkpt lat="43.52144578718254" lon="13.573407165660866"><ele>46.0</ele><time>2026-05-02T14:16:22.999Z</time></trkpt><trkpt lat="43.52153437684853" lon="13.573360066222218"><ele>46.333333333333336</ele><time>2026-05-02T14:16:25.999Z</time></trkpt><trkpt lat="43.5216107081262" lon="13.573307953156759"><ele>46.66666666666667</ele><time>2026-05-02T14:16:27.999Z</time></trkpt><trkpt lat="43.52168128202502" lon="13.573265995565693"><ele>47.0</ele><time>2026-05-02T14:16:29.999Z</time></trkpt><trkpt lat="43.521756446086165" lon="13.573224851932771"><ele>47.333333333333336</ele><time>2026-05-02T14:16:31.999Z</time></trkpt><trkpt lat="43.52182650275523" lon="13.573183132201258"><ele>47.666666666666664</ele><time>2026-05-02T14:16:33.999Z</time></trkpt><trkpt lat="43.52189697518618" lon="13.573133424101604"><ele>48.0</ele><time>2026-05-02T14:16:35.999Z</time></trkpt><trkpt lat="43.521979860636414" lon="13.573089792380665"><ele>48.0</ele><time>2026-05-02T14:16:37.999Z</time></trkpt><trkpt lat="43.52205477423311" lon="13.573045510223078"><ele>48.0</ele><time>2026-05-02T14:16:39.999Z</time></trkpt><trkpt lat="43.52213108324887" lon="13.57299393576793"><ele>48.0</ele><time>2026-05-02T14:16:41.999Z</time></trkpt><trkpt lat="43.52219828125283" lon="13.57294269487949"><ele>48.0</ele><time>2026-05-02T14:16:43.999Z</time></trkpt><trkpt lat="43.52227556454699" lon="13.572900666534984"><ele>48.0</ele><time>2026-05-02T14:16:45.999Z</time></trkpt><trkpt lat="43.52236119132574" lon="13.572855845540692"><ele>48.0</ele><time>2026-05-02T14:16:47.999Z</time></trkpt><trkpt lat="43.52242806067251" lon="13.572813189741884"><ele>48.833333333333336</ele><time>2026-05-02T14:16:49.999Z</time></trkpt><trkpt lat="43.5224993658012" lon="13.572767619995036"><ele>49.66666666666667</ele><time>2026-05-02T14:16:51.999Z</time></trkpt><trkpt lat="43.52257998883995" lon="13.572734486457065"><ele>50.5</ele><time>2026-05-02T14:16:53.999Z</time></trkpt><trkpt lat="43.52265422935048" lon="13.572712957082825"><ele>51.333333333333336</ele><time>2026-05-02T14:16:55.999Z</time></trkpt><trkpt lat="43.522735981448555" lon="13.572706284548186"><ele>52.16666666666667</ele><time>2026-05-02T14:16:57.999Z</time></trkpt><trkpt lat="43.52281631424679" lon="13.572698416041847"><ele>53.0</ele><time>2026-05-02T14:16:59.999Z</time></trkpt><trkpt lat="43.5228908105552" lon="13.572693049464847"><ele>53.333333333333336</ele><time>2026-05-02T14:17:01.999Z</time></trkpt><trkpt lat="43.52297215727315" lon="13.572690163911906"><ele>53.66666666666667</ele><time>2026-05-02T14:17:03.999Z</time></trkpt><trkpt lat="43.52305027676189" lon="13.572698409222143"><ele>54.0</ele><time>2026-05-02T14:17:05.999Z</time></trkpt><trkpt lat="43.523133328335796" lon="13.572695886723553"><ele>54.33333333333333</ele><time>2026-05-02T14:17:07.999Z</time></trkpt><trkpt lat="43.523215815632334" lon="13.572722139052031"><ele>54.666666666666664</ele><time>2026-05-02T14:17:09.999Z</time></trkpt><trkpt lat="43.523285446384996" lon="13.57272268744941"><ele>55.0</ele><time>2026-05-02T14:17:11.999Z</time></trkpt><trkpt lat="43.52336596778368" lon="13.572759962695002"><ele>54.99999999999999</ele><time>2026-05-02T14:17:13.999Z</time></trkpt><trkpt lat="43.52343261409207" lon="13.572794463821536"><ele>55.0</ele><time>2026-05-02T14:17:15.998Z</time></trkpt><trkpt lat="43.523510833669256" lon="13.572814082871428"><ele>55.0</ele><time>2026-05-02T14:17:17.998Z</time></trkpt><trkpt lat="43.52360093609398" lon="13.572824610737312"><ele>55.0</ele><time>2026-05-02T14:17:19.998Z</time></trkpt><trkpt lat="43.523683350406756" lon="13.572844581068942"><ele>54.99999999999999</ele><time>2026-05-02T14:17:22Z</time></trkpt><trkpt lat="43.523755475452234" lon="13.57286645698624"><ele>55.0</ele><time>2026-05-02T14:17:24Z</time></trkpt><trkpt lat="43.52383139903307" lon="13.572879647184108"><ele>54.666666666666664</ele><time>2026-05-02T14:17:26Z</time></trkpt><trkpt lat="43.523912081038" lon="13.57289530163454"><ele>54.33333333333333</ele><time>2026-05-02T14:17:28Z</time></trkpt><trkpt lat="43.52399768947527" lon="13.572881216039502"><ele>54.0</ele><time>2026-05-02T14:17:30Z</time></trkpt><trkpt lat="43.52407469498159" lon="13.572883720444914"><ele>53.66666666666667</ele><time>2026-05-02T14:17:32Z</time></trkpt><trkpt lat="43.52416010014723" lon="13.572880188562069"><ele>53.333333333333336</ele><time>2026-05-02T14:17:34Z</time></trkpt><trkpt lat="43.524241549462666" lon="13.572883149354162"><ele>53.0</ele><time>2026-05-02T14:17:36Z</time></trkpt><trkpt lat="43.52433020254937" lon="13.572868760387045"><ele>53.333333333333336</ele><time>2026-05-02T14:17:38Z</time></trkpt><trkpt lat="43.52441526941542" lon="13.572831405982148"><ele>53.66666666666667</ele><time>2026-05-02T14:17:40Z</time></trkpt><trkpt lat="43.52449639097139" lon="13.572810046185523"><ele>54.0</ele><time>2026-05-02T14:17:42Z</time></trkpt><trkpt lat="43.524577149728444" lon="13.572791767195437"><ele>54.33333333333333</ele><time>2026-05-02T14:17:44Z</time></trkpt><trkpt lat="43.52466256171222" lon="13.572784633214345"><ele>54.666666666666664</ele><time>2026-05-02T14:17:46Z</time></trkpt><trkpt lat="43.52475107515972" lon="13.572734499876045"><ele>55.0</ele><time>2026-05-02T14:17:48Z</time></trkpt><trkpt lat="43.524830089175815" lon="13.572710068837212"><ele>54.99999999999999</ele><time>2026-05-02T14:17:50Z</time></trkpt><trkpt lat="43.524898115213524" lon="13.572673338161978"><ele>55.0</ele><time>2026-05-02T14:17:52Z</time></trkpt><trkpt lat="43.524970040537" lon="13.572605776900325"><ele>55.0</ele><time>2026-05-02T14:17:54Z</time></trkpt><trkpt lat="43.52503507958317" lon="13.572559109276536"><ele>55.0</ele><time>2026-05-02T14:17:56Z</time></trkpt><trkpt lat="43.52511247651246" lon="13.572527334573318"><ele>54.99999999999999</ele><time>2026-05-02T14:17:58Z</time></trkpt><trkpt lat="43.52518197326229" lon="13.572492815226028"><ele>55.0</ele><time>2026-05-02T14:18:00Z</time></trkpt><trkpt lat="43.525244913482695" lon="13.572464397168547"><ele>54.99999999999999</ele><time>2026-05-02T14:18:02Z</time></trkpt><trkpt lat="43.52530743855939" lon="13.57242402419298"><ele>55.0</ele><time>2026-05-02T14:18:04Z</time></trkpt><trkpt lat="43.525386395103645" lon="13.572384226251378"><ele>55.0</ele><time>2026-05-02T14:18:06Z</time></trkpt><trkpt lat="43.525472523567906" lon="13.572376937282977"><ele>55.0</ele><time>2026-05-02T14:18:08Z</time></trkpt><trkpt lat="43.52554920125091" lon="13.572356560072365"><ele>54.99999999999999</ele><time>2026-05-02T14:18:10Z</time></trkpt><trkpt lat="43.5256288561359" lon="13.572341264435796"><ele>55.0</ele><time>2026-05-02T14:18:12Z</time></trkpt><trkpt lat="43.52571639707042" lon="13.572332624538051"><ele>54.99999999999999</ele><time>2026-05-02T14:18:13.999Z</time></trkpt><trkpt lat="43.52577472512825" lon="13.572281256234538"><ele>55.0</ele><time>2026-05-02T14:18:15.999Z</time></trkpt><trkpt lat="43.52587940051004" lon="13.57227584129855"><ele>55.0</ele><time>2026-05-02T14:18:17.999Z</time></trkpt><trkpt lat="43.525945415255975" lon="13.572311845041888"><ele>55.0</ele><time>2026-05-02T14:18:18.999Z</time></trkpt><trkpt lat="43.525981793176236" lon="13.57222298332087"><ele>54.99999999999999</ele><time>2026-05-02T14:18:20.999Z</time></trkpt><trkpt lat="43.526066259491145" lon="13.572191452043223"><ele>55.0</ele><time>2026-05-02T14:18:23.999Z</time></trkpt><trkpt lat="43.5261580121099" lon="13.57215083987129"><ele>55.33333333333333</ele><time>2026-05-02T14:18:25.999Z</time></trkpt><trkpt lat="43.5262712527993" lon="13.572096863941875"><ele>55.666666666666664</ele><time>2026-05-02T14:18:28.999Z</time></trkpt><trkpt lat="43.52632955961868" lon="13.572060755518338"><ele>56.0</ele><time>2026-05-02T14:18:30.999Z</time></trkpt><trkpt lat="43.52641111859132" lon="13.57199035486124"><ele>56.33333333333333</ele><time>2026-05-02T14:18:33.999Z</time></trkpt><trkpt lat="43.52647651824717" lon="13.571955373935394"><ele>56.666666666666664</ele><time>2026-05-02T14:18:35.999Z</time></trkpt><trkpt lat="43.526545213069824" lon="13.571927955280998"><ele>57.0</ele><time>2026-05-02T14:18:37.999Z</time></trkpt><trkpt lat="43.52662184004697" lon="13.571875057412218"><ele>57.166666666666664</ele><time>2026-05-02T14:18:39.999Z</time></trkpt><trkpt lat="43.52668993435291" lon="13.571819791429974"><ele>57.33333333333333</ele><time>2026-05-02T14:18:41.999Z</time></trkpt><trkpt lat="43.52676048761625" lon="13.571742329966455"><ele>57.5</ele><time>2026-05-02T14:18:43.999Z</time></trkpt><trkpt lat="43.526830459265106" lon="13.571684596122388"><ele>57.666666666666664</ele><time>2026-05-02T14:18:45.999Z</time></trkpt><trkpt lat="43.52690871509161" lon="13.571656020880225"><ele>57.83333333333333</ele><time>2026-05-02T14:18:47.999Z</time></trkpt><trkpt lat="43.52697731044245" lon="13.571606437313228"><ele>58.0</ele><time>2026-05-02T14:18:49.999Z</time></trkpt><trkpt lat="43.52705591106502" lon="13.57156459525765"><ele>57.99999999999999</ele><time>2026-05-02T14:18:51.999Z</time></trkpt><trkpt lat="43.52713559873954" lon="13.57158330300073"><ele>58.0</ele><time>2026-05-02T14:18:53.999Z</time></trkpt><trkpt lat="43.527215398244124" lon="13.57155673060365"><ele>58.0</ele><time>2026-05-02T14:18:55.999Z</time></trkpt><trkpt lat="43.5272995117932" lon="13.571519921918773"><ele>58.0</ele><time>2026-05-02T14:18:57.999Z</time></trkpt><trkpt lat="43.527377897918115" lon="13.571475398700574"><ele>57.99999999999999</ele><time>2026-05-02T14:18:59.999Z</time></trkpt><trkpt lat="43.52746480694267" lon="13.571420776164283"><ele>58.0</ele><time>2026-05-02T14:19:01.999Z</time></trkpt><trkpt lat="43.52756069839266" lon="13.571414811773513"><ele>57.99999999999999</ele><time>2026-05-02T14:19:03.999Z</time></trkpt><trkpt lat="43.52764634231508" lon="13.571410282591467"><ele>58.0</ele><time>2026-05-02T14:19:05.999Z</time></trkpt><trkpt lat="43.52773889445362" lon="13.571383685473894"><ele>58.0</ele><time>2026-05-02T14:19:07.999Z</time></trkpt><trkpt lat="43.527822869087885" lon="13.57136431602671"><ele>58.0</ele><time>2026-05-02T14:19:09.999Z</time></trkpt><trkpt lat="43.527921777807414" lon="13.571380671394245"><ele>57.99999999999999</ele><time>2026-05-02T14:19:11.999Z</time></trkpt><trkpt lat="43.527984140449014" lon="13.571452046652487"><ele>58.0</ele><time>2026-05-02T14:19:13.999Z</time></trkpt><trkpt lat="43.52801633429299" lon="13.571543592735173"><ele>58.49999999999999</ele><time>2026-05-02T14:19:15.999Z</time></trkpt><trkpt lat="43.52803800635573" lon="13.57162724691678"><ele>59.0</ele><time>2026-05-02T14:19:18.998Z</time></trkpt><trkpt lat="43.52809017103607" lon="13.571708891558195"><ele>59.5</ele><time>2026-05-02T14:19:22.998Z</time></trkpt><trkpt lat="43.528173562176406" lon="13.571780650678722"><ele>60.0</ele><time>2026-05-02T14:19:25.998Z</time></trkpt><trkpt lat="43.52823742947156" lon="13.57184501998286"><ele>60.49999999999999</ele><time>2026-05-02T14:19:28Z</time></trkpt><trkpt lat="43.528289457634465" lon="13.571911306303136"><ele>61.0</ele><time>2026-05-02T14:19:30Z</time></trkpt><trkpt lat="43.528338916550204" lon="13.571995180479297"><ele>60.99999999999999</ele><time>2026-05-02T14:19:32Z</time></trkpt><trkpt lat="43.52837978004766" lon="13.572092193350262"><ele>61.0</ele><time>2026-05-02T14:19:34Z</time></trkpt><trkpt lat="43.528441806966036" lon="13.572149694372262"><ele>60.99999999999999</ele><time>2026-05-02T14:19:36Z</time></trkpt><trkpt lat="43.52850831706885" lon="13.572202059963207"><ele>60.99999999999999</ele><time>2026-05-02T14:19:38Z</time></trkpt><trkpt lat="43.528562005143215" lon="13.572255628606055"><ele>61.0</ele><time>2026-05-02T14:19:40Z</time></trkpt><trkpt lat="43.528613948048644" lon="13.572317110132605"><ele>60.99999999999999</ele><time>2026-05-02T14:19:42Z</time></trkpt><trkpt lat="43.52865753916705" lon="13.572385689600965"><ele>60.99999999999999</ele><time>2026-05-02T14:19:44Z</time></trkpt><trkpt lat="43.52869854295373" lon="13.5724662505633"><ele>61.49999999999999</ele><time>2026-05-02T14:19:46Z</time></trkpt><trkpt lat="43.52873222021181" lon="13.572542632682653"><ele>62.0</ele><time>2026-05-02T14:19:48Z</time></trkpt><trkpt lat="43.52878979704804" lon="13.572653866377962"><ele>62.5</ele><time>2026-05-02T14:19:51Z</time></trkpt><trkpt lat="43.52882320407352" lon="13.572730853502643"><ele>63.0</ele><time>2026-05-02T14:19:53Z</time></trkpt><trkpt lat="43.52886282670515" lon="13.572812053534992"><ele>63.49999999999999</ele><time>2026-05-02T14:19:55Z</time></trkpt><trkpt lat="43.52890750748022" lon="13.572904335012398"><ele>64.0</ele><time>2026-05-02T14:19:57Z</time></trkpt><trkpt lat="43.52894868950177" lon="13.57298959677597"><ele>64.57142857142857</ele><time>2026-05-02T14:19:59Z</time></trkpt><trkpt lat="43.52898133997245" lon="13.573076347779708"><ele>65.14285714285714</ele><time>2026-05-02T14:20:01Z</time></trkpt><trkpt lat="43.52902124259114" lon="13.573168228021666"><ele>65.71428571428571</ele><time>2026-05-02T14:20:03Z</time></trkpt><trkpt lat="43.529067189907465" lon="13.573257780428635"><ele>66.28571428571428</ele><time>2026-05-02T14:20:05Z</time></trkpt><trkpt lat="43.52910485836684" lon="13.573345075029584"><ele>66.85714285714286</ele><time>2026-05-02T14:20:07Z</time></trkpt><trkpt lat="43.52914287222258" lon="13.573430025230984"><ele>67.42857142857142</ele><time>2026-05-02T14:20:09Z</time></trkpt><trkpt lat="43.52918700300674" lon="13.573506792685906"><ele>68.0</ele><time>2026-05-02T14:20:11Z</time></trkpt><trkpt lat="43.52922387315658" lon="13.57358767710969"><ele>67.99999999999999</ele><time>2026-05-02T14:20:13Z</time></trkpt><trkpt lat="43.52925871811385" lon="13.573669701877343"><ele>68.0</ele><time>2026-05-02T14:20:14.999Z</time></trkpt><trkpt lat="43.52929540456586" lon="13.573749554941164"><ele>68.0</ele><time>2026-05-02T14:20:16.999Z</time></trkpt><trkpt lat="43.52933496307441" lon="13.573834016942511"><ele>68.0</ele><time>2026-05-02T14:20:18.999Z</time></trkpt><trkpt lat="43.52937148911364" lon="13.573918155322941"><ele>68.0</ele><time>2026-05-02T14:20:20.999Z</time></trkpt><trkpt lat="43.52940382682819" lon="13.573997066010197"><ele>67.99999999999999</ele><time>2026-05-02T14:20:22.999Z</time></trkpt><trkpt lat="43.52945832592576" lon="13.574053069759652"><ele>68.0</ele><time>2026-05-02T14:20:24.999Z</time></trkpt><trkpt lat="43.52953798329443" lon="13.574041966045339"><ele>68.42857142857142</ele><time>2026-05-02T14:20:28.999Z</time></trkpt><trkpt lat="43.529598543979574" lon="13.573975214518955"><ele>68.85714285714286</ele><time>2026-05-02T14:20:32.999Z</time></trkpt><trkpt lat="43.52965206288402" lon="13.573902638352733"><ele>69.28571428571428</ele><time>2026-05-02T14:20:35.999Z</time></trkpt><trkpt lat="43.529706001782394" lon="13.57385716312715"><ele>69.71428571428571</ele><time>2026-05-02T14:20:37.999Z</time></trkpt><trkpt lat="43.52975685997911" lon="13.573800392063832"><ele>70.14285714285714</ele><time>2026-05-02T14:20:39.999Z</time></trkpt><trkpt lat="43.52981184593672" lon="13.573755234218106"><ele>70.57142857142857</ele><time>2026-05-02T14:20:41.999Z</time></trkpt><trkpt lat="43.529890079506785" lon="13.573679795592806"><ele>71.0</ele><time>2026-05-02T14:20:44.999Z</time></trkpt><trkpt lat="43.52997440896543" lon="13.57363196474297"><ele>71.0</ele><time>2026-05-02T14:20:47.999Z</time></trkpt><trkpt lat="43.53004030537413" lon="13.573612467893945"><ele>71.0</ele><time>2026-05-02T14:20:49.999Z</time></trkpt><trkpt lat="43.53013597394926" lon="13.573602892385942"><ele>71.0</ele><time>2026-05-02T14:20:52.999Z</time></trkpt><trkpt lat="43.53021682177972" lon="13.57357357158223"><ele>71.0</ele><time>2026-05-02T14:20:55.999Z</time></trkpt><trkpt lat="43.53030585814468" lon="13.573582897565876"><ele>71.0</ele><time>2026-05-02T14:20:58.999Z</time></trkpt><trkpt lat="43.53038885467989" lon="13.573566132339312"><ele>71.0</ele><time>2026-05-02T14:21:01.999Z</time></trkpt><trkpt lat="43.53047360143622" lon="13.573555278523251"><ele>72.16666666666667</ele><time>2026-05-02T14:21:04.999Z</time></trkpt><trkpt lat="43.530561453085234" lon="13.573527448865239"><ele>73.33333333333334</ele><time>2026-05-02T14:21:07.999Z</time></trkpt><trkpt lat="43.53065353143344" lon="13.573514221383462"><ele>74.5</ele><time>2026-05-02T14:21:10.999Z</time></trkpt><trkpt lat="43.53071726124484" lon="13.573508836419917"><ele>75.66666666666667</ele><time>2026-05-02T14:21:12.999Z</time></trkpt><trkpt lat="43.53080232742491" lon="13.573507324533363"><ele>76.83333333333333</ele><time>2026-05-02T14:21:15.999Z</time></trkpt><trkpt lat="43.53088680333317" lon="13.573483728565968"><ele>78.0</ele><time>2026-05-02T14:21:18.998Z</time></trkpt><trkpt lat="43.530957391307474" lon="13.573476390791916"><ele>78.0</ele><time>2026-05-02T14:21:21.998Z</time></trkpt><trkpt lat="43.53099889926575" lon="13.573388715200037"><ele>78.0</ele><time>2026-05-02T14:21:27.998Z</time></trkpt><trkpt lat="43.53095225801364" lon="13.573273354231423"><ele>78.0</ele><time>2026-05-02T14:21:29.998Z</time></trkpt><trkpt lat="43.53092305286473" lon="13.573162839853671"><ele>78.0</ele><time>2026-05-02T14:21:31.998Z</time></trkpt><trkpt lat="43.53088926781061" lon="13.573008339663444"><ele>78.0</ele><time>2026-05-02T14:21:34Z</time></trkpt><trkpt lat="43.53086644640454" lon="13.572923297969819"><ele>78.0</ele><time>2026-05-02T14:21:35Z</time></trkpt><trkpt lat="43.53084311329299" lon="13.572837969011118"><ele>77.0</ele><time>2026-05-02T14:21:36Z</time></trkpt><trkpt lat="43.53081925852213" lon="13.57273671070596"><ele>76.0</ele><time>2026-05-02T14:21:37Z</time></trkpt><trkpt lat="43.530797258547686" lon="13.572632357927048"><ele>75.0</ele><time>2026-05-02T14:21:38Z</time></trkpt><trkpt lat="43.53077099282464" lon="13.572525449148538"><ele>74.0</ele><time>2026-05-02T14:21:39Z</time></trkpt><trkpt lat="43.530741807183574" lon="13.57240431607147"><ele>73.0</ele><time>2026-05-02T14:21:40Z</time></trkpt><trkpt lat="43.53070971492477" lon="13.572285661119587"><ele>72.0</ele><time>2026-05-02T14:21:41Z</time></trkpt><trkpt lat="43.53067261515101" lon="13.572160773000729"><ele>72.0</ele><time>2026-05-02T14:21:42Z</time></trkpt><trkpt lat="43.53064247923551" lon="13.572040455026256"><ele>72.0</ele><time>2026-05-02T14:21:43Z</time></trkpt><trkpt lat="43.530613517693034" lon="13.571913271053523"><ele>72.0</ele><time>2026-05-02T14:21:44Z</time></trkpt><trkpt lat="43.53058947381633" lon="13.571829383600695"><ele>72.0</ele><time>2026-05-02T14:21:45Z</time></trkpt><trkpt lat="43.53056229653294" lon="13.571705498840856"><ele>72.0</ele><time>2026-05-02T14:21:47Z</time></trkpt><trkpt lat="43.53055009346779" lon="13.571593193874916"><ele>72.0</ele><time>2026-05-02T14:21:49Z</time></trkpt><trkpt lat="43.53059578800282" lon="13.571488319928852"><ele>71.33333333333333</ele><time>2026-05-02T14:21:51Z</time></trkpt><trkpt lat="43.530628356389514" lon="13.57138822955634"><ele>70.66666666666667</ele><time>2026-05-02T14:21:53Z</time></trkpt><trkpt lat="43.530673831150054" lon="13.571296507862739"><ele>70.0</ele><time>2026-05-02T14:21:55Z</time></trkpt><trkpt lat="43.530729139156314" lon="13.571188811434583"><ele>69.33333333333334</ele><time>2026-05-02T14:21:57Z</time></trkpt><trkpt lat="43.53080197081856" lon="13.57111189930927"><ele>68.66666666666667</ele><time>2026-05-02T14:21:59Z</time></trkpt><trkpt lat="43.53086165935466" lon="13.571017887198924"><ele>68.0</ele><time>2026-05-02T14:22:01Z</time></trkpt><trkpt lat="43.530922750299624" lon="13.570918281941612"><ele>67.83333333333334</ele><time>2026-05-02T14:22:03Z</time></trkpt><trkpt lat="43.530969997986986" lon="13.570807874774166"><ele>67.66666666666667</ele><time>2026-05-02T14:22:05Z</time></trkpt><trkpt lat="43.53101275359824" lon="13.570702681475721"><ele>67.5</ele><time>2026-05-02T14:22:07Z</time></trkpt><trkpt lat="43.531044780353966" lon="13.570588850064246"><ele>67.33333333333333</ele><time>2026-05-02T14:22:09Z</time></trkpt><trkpt lat="43.53109011440229" lon="13.570492246905932"><ele>67.16666666666666</ele><time>2026-05-02T14:22:11Z</time></trkpt><trkpt lat="43.53111502277974" lon="13.570378650126383"><ele>67.0</ele><time>2026-05-02T14:22:13Z</time></trkpt><trkpt lat="43.53116793031137" lon="13.570288035133508"><ele>67.0</ele><time>2026-05-02T14:22:15Z</time></trkpt><trkpt lat="43.53121683117039" lon="13.570197086868445"><ele>67.0</ele><time>2026-05-02T14:22:17Z</time></trkpt><trkpt lat="43.531253264269544" lon="13.570085566131397"><ele>67.0</ele><time>2026-05-02T14:22:18.999Z</time></trkpt><trkpt lat="43.531315170662154" lon="13.569991067436677"><ele>67.0</ele><time>2026-05-02T14:22:20.999Z</time></trkpt><trkpt lat="43.53136014387207" lon="13.569885132854843"><ele>67.0</ele><time>2026-05-02T14:22:22.999Z</time></trkpt><trkpt lat="43.531409164075384" lon="13.569785728855019"><ele>67.0</ele><time>2026-05-02T14:22:24.999Z</time></trkpt><trkpt lat="43.531461122223476" lon="13.569687922550534"><ele>67.33333333333333</ele><time>2026-05-02T14:22:26.999Z</time></trkpt><trkpt lat="43.53151037831862" lon="13.56956648614798"><ele>67.66666666666666</ele><time>2026-05-02T14:22:28.999Z</time></trkpt><trkpt lat="43.53154687324496" lon="13.56948259154657"><ele>68.0</ele><time>2026-05-02T14:22:30.999Z</time></trkpt><trkpt lat="43.53157948822875" lon="13.569373953644208"><ele>68.33333333333333</ele><time>2026-05-02T14:22:32.999Z</time></trkpt><trkpt lat="43.53161079258621" lon="13.569277099049529"><ele>68.66666666666667</ele><time>2026-05-02T14:22:34.999Z</time></trkpt><trkpt lat="43.531646155641404" lon="13.569190722163105"><ele>69.0</ele><time>2026-05-02T14:22:36.999Z</time></trkpt><trkpt lat="43.53169158894222" lon="13.569119277778901"><ele>69.5</ele><time>2026-05-02T14:22:38.999Z</time></trkpt><trkpt lat="43.53172703978519" lon="13.569046001310538"><ele>70.0</ele><time>2026-05-02T14:22:40.999Z</time></trkpt><trkpt lat="43.53177832007068" lon="13.568955998704812"><ele>70.5</ele><time>2026-05-02T14:22:43.999Z</time></trkpt><trkpt lat="43.531835770743704" lon="13.568867612083805"><ele>71.0</ele><time>2026-05-02T14:22:46.999Z</time></trkpt><trkpt lat="43.53189284753147" lon="13.568792232804839"><ele>71.5</ele><time>2026-05-02T14:22:49.999Z</time></trkpt><trkpt lat="43.53195886046212" lon="13.568716724706789"><ele>72.0</ele><time>2026-05-02T14:22:52.999Z</time></trkpt><trkpt lat="43.53201492874959" lon="13.568637555749946"><ele>72.33333333333333</ele><time>2026-05-02T14:22:55.999Z</time></trkpt><trkpt lat="43.53207222889753" lon="13.568560803032744"><ele>72.66666666666667</ele><time>2026-05-02T14:22:58.999Z</time></trkpt><trkpt lat="43.5321180674628" lon="13.568464436060363"><ele>73.0</ele><time>2026-05-02T14:23:01.999Z</time></trkpt><trkpt lat="43.53217630392705" lon="13.56836401112069"><ele>73.33333333333334</ele><time>2026-05-02T14:23:04.999Z</time></trkpt><trkpt lat="43.532218223167554" lon="13.568297397273417"><ele>73.66666666666667</ele><time>2026-05-02T14:23:06.999Z</time></trkpt><trkpt lat="43.53224909983398" lon="13.568216029786297"><ele>74.0</ele><time>2026-05-02T14:23:08.999Z</time></trkpt><trkpt lat="43.53229523182539" lon="13.568107927399605"><ele>74.0</ele><time>2026-05-02T14:23:11.999Z</time></trkpt><trkpt lat="43.53232657885115" lon="13.567985574014516"><ele>74.0</ele><time>2026-05-02T14:23:14.999Z</time></trkpt><trkpt lat="43.53236102745841" lon="13.567876447383819"><ele>74.0</ele><time>2026-05-02T14:23:17.999Z</time></trkpt><trkpt lat="43.53240581639822" lon="13.567787466935908"><ele>74.0</ele><time>2026-05-02T14:23:20.999Z</time></trkpt><trkpt lat="43.53246366199091" lon="13.567845415583337"><ele>74.0</ele><time>2026-05-02T14:23:25.998Z</time></trkpt><trkpt lat="43.53253951990078" lon="13.567963681555948"><ele>74.0</ele><time>2026-05-02T14:23:27.998Z</time></trkpt><trkpt lat="43.53258973099442" lon="13.568016546078496"><ele>74.0</ele><time>2026-05-02T14:23:28.998Z</time></trkpt><trkpt lat="43.532646015307975" lon="13.568091965660768"><ele>74.0</ele><time>2026-05-02T14:23:29.998Z</time></trkpt><trkpt lat="43.53268757354784" lon="13.568186721186116"><ele>74.0</ele><time>2026-05-02T14:23:30.998Z</time></trkpt><trkpt lat="43.53274651874538" lon="13.568276881952643"><ele>74.0</ele><time>2026-05-02T14:23:31.998Z</time></trkpt><trkpt lat="43.53281756377746" lon="13.568354379616602"><ele>74.0</ele><time>2026-05-02T14:23:32.998Z</time></trkpt><trkpt lat="43.53287071234824" lon="13.568442527230737"><ele>74.0</ele><time>2026-05-02T14:23:33.998Z</time></trkpt><trkpt lat="43.53292331182858" lon="13.568526074917044"><ele>73.5</ele><time>2026-05-02T14:23:34.998Z</time></trkpt><trkpt lat="43.53297950094566" lon="13.568616319828644"><ele>73.0</ele><time>2026-05-02T14:23:35.998Z</time></trkpt><trkpt lat="43.533023199187184" lon="13.568707292395603"><ele>72.5</ele><time>2026-05-02T14:23:36.998Z</time></trkpt><trkpt lat="43.533085478054524" lon="13.568775294765869"><ele>72.0</ele><time>2026-05-02T14:23:37.998Z</time></trkpt><trkpt lat="43.533135555525625" lon="13.568864984996237"><ele>71.5</ele><time>2026-05-02T14:23:38.998Z</time></trkpt><trkpt lat="43.533190529699944" lon="13.568937251860953"><ele>71.0</ele><time>2026-05-02T14:23:40Z</time></trkpt><trkpt lat="43.53323367831689" lon="13.569013499455906"><ele>71.0</ele><time>2026-05-02T14:23:41Z</time></trkpt><trkpt lat="43.533281869148304" lon="13.569088855209248"><ele>71.0</ele><time>2026-05-02T14:23:42Z</time></trkpt><trkpt lat="43.53333137697986" lon="13.569156282152806"><ele>71.0</ele><time>2026-05-02T14:23:43Z</time></trkpt><trkpt lat="43.53340903286712" lon="13.569289075486232"><ele>71.0</ele><time>2026-05-02T14:23:45Z</time></trkpt><trkpt lat="43.53345147696536" lon="13.569430337812408"><ele>71.0</ele><time>2026-05-02T14:23:47Z</time></trkpt><trkpt lat="43.53348372874931" lon="13.569556458165316"><ele>71.5</ele><time>2026-05-02T14:23:49Z</time></trkpt><trkpt lat="43.5334991719973" lon="13.569671438267813"><ele>72.0</ele><time>2026-05-02T14:23:51Z</time></trkpt><trkpt lat="43.53350324899208" lon="13.569790524313248"><ele>72.5</ele><time>2026-05-02T14:23:53Z</time></trkpt><trkpt lat="43.53349511596103" lon="13.56990560596046"><ele>73.0</ele><time>2026-05-02T14:23:55Z</time></trkpt><trkpt lat="43.533469770319556" lon="13.570001769177015"><ele>73.5</ele><time>2026-05-02T14:23:57Z</time></trkpt><trkpt lat="43.5334301584854" lon="13.57013248965306"><ele>74.0</ele><time>2026-05-02T14:23:59Z</time></trkpt><trkpt lat="43.53339384025348" lon="13.57027312793329"><ele>74.33333333333334</ele><time>2026-05-02T14:24:01Z</time></trkpt><trkpt lat="43.53336078626183" lon="13.570405370059028"><ele>74.66666666666667</ele><time>2026-05-02T14:24:03Z</time></trkpt><trkpt lat="43.53333289891083" lon="13.570516941584279"><ele>75.0</ele><time>2026-05-02T14:24:05Z</time></trkpt><trkpt lat="43.53330940974735" lon="13.570610916788764"><ele>75.33333333333333</ele><time>2026-05-02T14:24:07Z</time></trkpt><trkpt lat="43.53327761825316" lon="13.570737724198851"><ele>75.66666666666666</ele><time>2026-05-02T14:24:10Z</time></trkpt><trkpt lat="43.53325464521453" lon="13.570828625932284"><ele>76.0</ele><time>2026-05-02T14:24:12Z</time></trkpt><trkpt lat="43.53322157296058" lon="13.570959489740906"><ele>76.0</ele><time>2026-05-02T14:24:14Z</time></trkpt><trkpt lat="43.53318118650481" lon="13.57112493322094"><ele>76.0</ele><time>2026-05-02T14:24:16Z</time></trkpt><trkpt lat="43.533144497724386" lon="13.571282764885877"><ele>76.0</ele><time>2026-05-02T14:24:18Z</time></trkpt><trkpt lat="43.533128203161844" lon="13.57140202314032"><ele>76.0</ele><time>2026-05-02T14:24:19Z</time></trkpt><trkpt lat="43.53313870224726" lon="13.571502612737573"><ele>76.0</ele><time>2026-05-02T14:24:20Z</time></trkpt><trkpt lat="43.53315929483421" lon="13.571585589221707"><ele>75.8</ele><time>2026-05-02T14:24:21Z</time></trkpt><trkpt lat="43.533213427578524" lon="13.571634867286614"><ele>75.6</ele><time>2026-05-02T14:24:22Z</time></trkpt><trkpt lat="43.53328283901787" lon="13.571761063359096"><ele>75.4</ele><time>2026-05-02T14:24:24Z</time></trkpt><trkpt lat="43.533345029457124" lon="13.571853015672328"><ele>75.2</ele><time>2026-05-02T14:24:25.999Z</time></trkpt><trkpt lat="43.53341705546411" lon="13.571954792938033"><ele>75.0</ele><time>2026-05-02T14:24:27.999Z</time></trkpt><trkpt lat="43.533487447545625" lon="13.572056104911596"><ele>75.0</ele><time>2026-05-02T14:24:29.999Z</time></trkpt><trkpt lat="43.53355749934538" lon="13.57215841479454"><ele>75.0</ele><time>2026-05-02T14:24:31.999Z</time></trkpt><trkpt lat="43.53362844150095" lon="13.572262024815766"><ele>75.0</ele><time>2026-05-02T14:24:33.999Z</time></trkpt><trkpt lat="43.53369709865956" lon="13.572359163888686"><ele>75.0</ele><time>2026-05-02T14:24:35.999Z</time></trkpt><trkpt lat="43.53378576470774" lon="13.572443754136538"><ele>75.0</ele><time>2026-05-02T14:24:37.999Z</time></trkpt><trkpt lat="43.53386058355509" lon="13.572529703945108"><ele>75.6</ele><time>2026-05-02T14:24:39.999Z</time></trkpt><trkpt lat="43.53392711521536" lon="13.572602544943093"><ele>76.2</ele><time>2026-05-02T14:24:41.999Z</time></trkpt><trkpt lat="43.53397817792877" lon="13.572670144720973"><ele>76.8</ele><time>2026-05-02T14:24:43.999Z</time></trkpt><trkpt lat="43.53381688479162" lon="13.572880578836665"><ele>77.4</ele><time>2026-05-02T14:25:33.998Z</time></trkpt><trkpt lat="43.53376966006821" lon="13.572950607595697"><ele>78.0</ele><time>2026-05-02T14:25:35.998Z</time></trkpt><trkpt lat="43.53370480683901" lon="13.573046351720784"><ele>78.42857142857143</ele><time>2026-05-02T14:25:38.998Z</time></trkpt><trkpt lat="43.53366700850999" lon="13.573118280285987"><ele>78.85714285714285</ele><time>2026-05-02T14:25:40.998Z</time></trkpt><trkpt lat="43.53362637082063" lon="13.573187759746116"><ele>79.28571428571428</ele><time>2026-05-02T14:25:42.998Z</time></trkpt><trkpt lat="43.53355487213112" lon="13.573269518363219"><ele>79.71428571428572</ele><time>2026-05-02T14:25:46Z</time></trkpt><trkpt lat="43.5335101252592" lon="13.573337813654176"><ele>80.14285714285714</ele><time>2026-05-02T14:25:48Z</time></trkpt><trkpt lat="43.53346996664937" lon="13.573424820753628"><ele>80.57142857142857</ele><time>2026-05-02T14:25:50Z</time></trkpt><trkpt lat="43.53345543492155" lon="13.573523603926645"><ele>81.0</ele><time>2026-05-02T14:25:52Z</time></trkpt><trkpt lat="43.533481252893125" lon="13.573631749004576"><ele>82.14285714285714</ele><time>2026-05-02T14:25:54Z</time></trkpt><trkpt lat="43.533505812305805" lon="13.573726337068523"><ele>83.28571428571428</ele><time>2026-05-02T14:25:57Z</time></trkpt><trkpt lat="43.533547681932085" lon="13.57381279558013"><ele>84.42857142857142</ele><time>2026-05-02T14:26:00Z</time></trkpt><trkpt lat="43.53356461908647" lon="13.57389816898486"><ele>85.57142857142857</ele><time>2026-05-02T14:26:03Z</time></trkpt><trkpt lat="43.53360139975605" lon="13.573993090130243"><ele>86.71428571428571</ele><time>2026-05-02T14:26:07Z</time></trkpt><trkpt lat="43.53363782278109" lon="13.57406591834896"><ele>87.85714285714285</ele><time>2026-05-02T14:26:09Z</time></trkpt><trkpt lat="43.533659358640314" lon="13.574159661726688"><ele>89.0</ele><time>2026-05-02T14:26:11Z</time></trkpt><trkpt lat="43.53368410935603" lon="13.5742536050385"><ele>89.0</ele><time>2026-05-02T14:26:13Z</time></trkpt><trkpt lat="43.53370847859656" lon="13.574348531147214"><ele>89.0</ele><time>2026-05-02T14:26:15Z</time></trkpt><trkpt lat="43.533733356293986" lon="13.57444789664793"><ele>89.0</ele><time>2026-05-02T14:26:17Z</time></trkpt><trkpt lat="43.533744767305414" lon="13.574550165004727"><ele>89.0</ele><time>2026-05-02T14:26:19Z</time></trkpt><trkpt lat="43.533791440634786" lon="13.574658767451313"><ele>89.0</ele><time>2026-05-02T14:26:22Z</time></trkpt><trkpt lat="43.533816990568944" lon="13.574755972395478"><ele>89.0</ele><time>2026-05-02T14:26:24Z</time></trkpt><trkpt lat="43.533829794156034" lon="13.574868744048054"><ele>90.28571428571428</ele><time>2026-05-02T14:26:26Z</time></trkpt><trkpt lat="43.53386962927329" lon="13.574962915388117"><ele>91.57142857142857</ele><time>2026-05-02T14:26:28Z</time></trkpt><trkpt lat="43.53388295346225" lon="13.575071277375544"><ele>92.85714285714286</ele><time>2026-05-02T14:26:30Z</time></trkpt><trkpt lat="43.53392054866199" lon="13.575153566753377"><ele>94.14285714285714</ele><time>2026-05-02T14:26:32Z</time></trkpt><trkpt lat="43.533946184433134" lon="13.575249733764931"><ele>95.42857142857143</ele><time>2026-05-02T14:26:34Z</time></trkpt><trkpt lat="43.533955944920784" lon="13.575349676436202"><ele>96.71428571428571</ele><time>2026-05-02T14:26:35.999Z</time></trkpt><trkpt lat="43.53398016043039" lon="13.575439551233245"><ele>98.0</ele><time>2026-05-02T14:26:37.999Z</time></trkpt><trkpt lat="43.53401913841286" lon="13.57552964044563"><ele>99.33333333333333</ele><time>2026-05-02T14:26:39.999Z</time></trkpt><trkpt lat="43.53406417725287" lon="13.575644356466125"><ele>100.66666666666666</ele><time>2026-05-02T14:26:42.999Z</time></trkpt><trkpt lat="43.53408145177174" lon="13.57573443099186"><ele>102.0</ele><time>2026-05-02T14:26:44.999Z</time></trkpt><trkpt lat="43.534060175297114" lon="13.575847406762678"><ele>103.33333333333334</ele><time>2026-05-02T14:26:46.999Z</time></trkpt><trkpt lat="43.53407220551358" lon="13.575968838006075"><ele>104.66666666666667</ele><time>2026-05-02T14:26:48.999Z</time></trkpt><trkpt lat="43.53409133715925" lon="13.576100862325825"><ele>106.0</ele><time>2026-05-02T14:26:50.999Z</time></trkpt><trkpt lat="43.53412532071399" lon="13.57621077794403"><ele>107.16666666666667</ele><time>2026-05-02T14:26:52.999Z</time></trkpt><trkpt lat="43.534136256535376" lon="13.576307802401953"><ele>108.33333333333334</ele><time>2026-05-02T14:26:54.999Z</time></trkpt><trkpt lat="43.534162968037045" lon="13.576417392325617"><ele>109.5</ele><time>2026-05-02T14:26:56.999Z</time></trkpt><trkpt lat="43.534199642933864" lon="13.576515793916009"><ele>110.66666666666666</ele><time>2026-05-02T14:26:59.999Z</time></trkpt><trkpt lat="43.53421791143343" lon="13.57663323591435"><ele>111.83333333333333</ele><time>2026-05-02T14:27:02.999Z</time></trkpt><trkpt lat="43.534241770149784" lon="13.576759832527284"><ele>113.0</ele><time>2026-05-02T14:27:05.999Z</time></trkpt><trkpt lat="43.534253776550955" lon="13.576855128976682"><ele>112.99999999999999</ele><time>2026-05-02T14:27:07.999Z</time></trkpt><trkpt lat="43.534266183444" lon="13.576941348451335"><ele>113.0</ele><time>2026-05-02T14:27:09.999Z</time></trkpt><trkpt lat="43.53428369785772" lon="13.577040178381877"><ele>113.0</ele><time>2026-05-02T14:27:11.999Z</time></trkpt><trkpt lat="43.534314419921344" lon="13.577148201464356"><ele>113.0</ele><time>2026-05-02T14:27:14.999Z</time></trkpt><trkpt lat="43.53432844831774" lon="13.577263789487068"><ele>112.99999999999999</ele><time>2026-05-02T14:27:17.999Z</time></trkpt><trkpt lat="43.53432949393451" lon="13.577391487092692"><ele>113.0</ele><time>2026-05-02T14:27:20.999Z</time></trkpt><trkpt lat="43.53433723256373" lon="13.577485328773914"><ele>114.14285714285714</ele><time>2026-05-02T14:27:22.999Z</time></trkpt><trkpt lat="43.53435713076602" lon="13.577599175395813"><ele>115.28571428571428</ele><time>2026-05-02T14:27:25.999Z</time></trkpt><trkpt lat="43.534377404182315" lon="13.577684532731585"><ele>116.42857142857142</ele><time>2026-05-02T14:27:27.999Z</time></trkpt><trkpt lat="43.53441359509487" lon="13.577760724925994"><ele>117.57142857142857</ele><time>2026-05-02T14:27:29.999Z</time></trkpt><trkpt lat="43.53442940540082" lon="13.577892649319388"><ele>118.7142857142857</ele><time>2026-05-02T14:27:32.999Z</time></trkpt><trkpt lat="43.53446571869076" lon="13.577968611983906"><ele>119.85714285714285</ele><time>2026-05-02T14:27:34.999Z</time></trkpt><trkpt lat="43.53446773126733" lon="13.578059628562258"><ele>121.0</ele><time>2026-05-02T14:27:36.999Z</time></trkpt><trkpt lat="43.53449098039405" lon="13.57818342236275"><ele>122.16666666666667</ele><time>2026-05-02T14:27:39.998Z</time></trkpt><trkpt lat="43.53448924916678" lon="13.5782987783569"><ele>123.33333333333334</ele><time>2026-05-02T14:27:42.998Z</time></trkpt><trkpt lat="43.53444417188036" lon="13.578394979809696"><ele>124.5</ele><time>2026-05-02T14:27:45.998Z</time></trkpt><trkpt lat="43.53440661185205" lon="13.578477379068227"><ele>125.66666666666666</ele><time>2026-05-02T14:27:47.998Z</time></trkpt><trkpt lat="43.534388167315605" lon="13.57858891770426"><ele>126.83333333333333</ele><time>2026-05-02T14:27:49.998Z</time></trkpt><trkpt lat="43.53438424917092" lon="13.578706179607437"><ele>128.0</ele><time>2026-05-02T14:27:52Z</time></trkpt><trkpt lat="43.53439173045746" lon="13.578815298450841"><ele>129.33333333333331</ele><time>2026-05-02T14:27:54Z</time></trkpt><trkpt lat="43.53441131483996" lon="13.578913060258099"><ele>130.66666666666666</ele><time>2026-05-02T14:27:56Z</time></trkpt><trkpt lat="43.534407295287075" lon="13.579022528924922"><ele>132.0</ele><time>2026-05-02T14:27:59Z</time></trkpt><trkpt lat="43.5343963266552" lon="13.579166549395437"><ele>133.33333333333334</ele><time>2026-05-02T14:28:01Z</time></trkpt><trkpt lat="43.53440716996377" lon="13.579299856055458"><ele>134.66666666666669</ele><time>2026-05-02T14:28:03Z</time></trkpt><trkpt lat="43.5344459116228" lon="13.579399446433795"><ele>136.0</ele><time>2026-05-02T14:28:05Z</time></trkpt><trkpt lat="43.5344856817023" lon="13.579496348762516"><ele>137.66666666666669</ele><time>2026-05-02T14:28:07Z</time></trkpt><trkpt lat="43.53452594635765" lon="13.579597527710012"><ele>139.33333333333334</ele><time>2026-05-02T14:28:09Z</time></trkpt><trkpt lat="43.53456812412164" lon="13.579698922075949"><ele>141.0</ele><time>2026-05-02T14:28:12Z</time></trkpt><trkpt lat="43.53461532518052" lon="13.579770995645902"><ele>142.66666666666666</ele><time>2026-05-02T14:28:14Z</time></trkpt><trkpt lat="43.53466099947455" lon="13.579872047329431"><ele>144.33333333333331</ele><time>2026-05-02T14:28:17Z</time></trkpt><trkpt lat="43.53468032644855" lon="13.579956282736086"><ele>146.0</ele><time>2026-05-02T14:28:19Z</time></trkpt><trkpt lat="43.53472625088945" lon="13.580025308498781"><ele>148.0</ele><time>2026-05-02T14:28:22Z</time></trkpt><trkpt lat="43.53476283669553" lon="13.580100731330226"><ele>150.0</ele><time>2026-05-02T14:28:24Z</time></trkpt><trkpt lat="43.5348129615799" lon="13.580217439778185"><ele>152.0</ele><time>2026-05-02T14:28:27Z</time></trkpt><trkpt lat="43.534860888577114" lon="13.580325128154673"><ele>154.0</ele><time>2026-05-02T14:28:30Z</time></trkpt><trkpt lat="43.5349062766893" lon="13.580426083054453"><ele>156.0</ele><time>2026-05-02T14:28:33Z</time></trkpt><trkpt lat="43.5349418435943" lon="13.58050457557482"><ele>158.0</ele><time>2026-05-02T14:28:35Z</time></trkpt><trkpt lat="43.53497973116525" lon="13.580586221682884"><ele>158.00000000000003</ele><time>2026-05-02T14:28:37Z</time></trkpt><trkpt lat="43.53500053159852" lon="13.580670000076044"><ele>158.0</ele><time>2026-05-02T14:28:38.999Z</time></trkpt><trkpt lat="43.53503632854741" lon="13.580754490743086"><ele>158.0</ele><time>2026-05-02T14:28:40.999Z</time></trkpt><trkpt lat="43.535070830229515" lon="13.580842231288662"><ele>158.0</ele><time>2026-05-02T14:28:42.999Z</time></trkpt><trkpt lat="43.535106124859865" lon="13.580936272219125"><ele>158.0</ele><time>2026-05-02T14:28:44.999Z</time></trkpt><trkpt lat="43.53514157783069" lon="13.581034121543341"><ele>158.00000000000003</ele><time>2026-05-02T14:28:46.999Z</time></trkpt><trkpt lat="43.535169829594984" lon="13.581137693949987"><ele>158.0</ele><time>2026-05-02T14:28:49.999Z</time></trkpt><trkpt lat="43.53518034575454" lon="13.581229495838931"><ele>157.66666666666666</ele><time>2026-05-02T14:28:52.999Z</time></trkpt><trkpt lat="43.535185527842586" lon="13.581320791914568"><ele>157.33333333333331</ele><time>2026-05-02T14:28:54.999Z</time></trkpt><trkpt lat="43.53516677191591" lon="13.581423949939687"><ele>157.0</ele><time>2026-05-02T14:28:56.999Z</time></trkpt><trkpt lat="43.53513956522581" lon="13.581518806772078"><ele>156.66666666666666</ele><time>2026-05-02T14:28:58.999Z</time></trkpt><trkpt lat="43.5350937464983" lon="13.581611299395245"><ele>156.33333333333334</ele><time>2026-05-02T14:29:00.999Z</time></trkpt><trkpt lat="43.53504023757209" lon="13.581689509145946"><ele>156.0</ele><time>2026-05-02T14:29:02.999Z</time></trkpt><trkpt lat="43.534997951248236" lon="13.581774879252647"><ele>156.0</ele><time>2026-05-02T14:29:04.999Z</time></trkpt><trkpt lat="43.534939401526294" lon="13.581864128377026"><ele>156.0</ele><time>2026-05-02T14:29:07.999Z</time></trkpt><trkpt lat="43.53489763699527" lon="13.581934312352901"><ele>156.0</ele><time>2026-05-02T14:29:09.999Z</time></trkpt><trkpt lat="43.53483873497818" lon="13.5819886745972"><ele>156.0</ele><time>2026-05-02T14:29:11.999Z</time></trkpt><trkpt lat="43.5347901177062" lon="13.582102042473917"><ele>156.0</ele><time>2026-05-02T14:29:14.999Z</time></trkpt><trkpt lat="43.53474314995796" lon="13.58218695069267"><ele>156.0</ele><time>2026-05-02T14:29:17.999Z</time></trkpt><trkpt lat="43.534690488217656" lon="13.582275574642333"><ele>157.33333333333334</ele><time>2026-05-02T14:29:20.999Z</time></trkpt><trkpt lat="43.53463334762349" lon="13.582355378488195"><ele>158.66666666666666</ele><time>2026-05-02T14:29:24.999Z</time></trkpt><trkpt lat="43.53458938819286" lon="13.582460679260738"><ele>160.0</ele><time>2026-05-02T14:29:28.999Z</time></trkpt><trkpt lat="43.53465595938044" lon="13.582576623337015"><ele>161.33333333333331</ele><time>2026-05-02T14:29:29.999Z</time></trkpt><trkpt lat="43.5346785616857" lon="13.582674475349048"><ele>162.66666666666666</ele><time>2026-05-02T14:29:31.999Z</time></trkpt><trkpt lat="43.53469821008572" lon="13.582769166158684"><ele>164.0</ele><time>2026-05-02T14:29:33.999Z</time></trkpt><trkpt lat="43.5347183878446" lon="13.582866408069227"><ele>165.28571428571428</ele><time>2026-05-02T14:29:35.999Z</time></trkpt><trkpt lat="43.53473874031366" lon="13.58296449200296"><ele>166.57142857142856</ele><time>2026-05-02T14:29:37.999Z</time></trkpt><trkpt lat="43.53475775632586" lon="13.58305602687814"><ele>167.85714285714283</ele><time>2026-05-02T14:29:39.999Z</time></trkpt><trkpt lat="43.5347801679392" lon="13.583158465613757"><ele>169.14285714285714</ele><time>2026-05-02T14:29:41.999Z</time></trkpt><trkpt lat="43.53480269070205" lon="13.58326141253469"><ele>170.42857142857144</ele><time>2026-05-02T14:29:43.998Z</time></trkpt><trkpt lat="43.53482482434743" lon="13.583362580684538"><ele>171.7142857142857</ele><time>2026-05-02T14:29:45.998Z</time></trkpt><trkpt lat="43.53484558235102" lon="13.583457461163169"><ele>173.0</ele><time>2026-05-02T14:29:47.998Z</time></trkpt><trkpt lat="43.53486805106351" lon="13.583560160825671"><ele>173.0</ele><time>2026-05-02T14:29:49.998Z</time></trkpt><trkpt lat="43.534889425014455" lon="13.58365785669197"><ele>173.0</ele><time>2026-05-02T14:29:51.998Z</time></trkpt><trkpt lat="43.53491929102461" lon="13.583752233393927"><ele>173.0</ele><time>2026-05-02T14:29:53.998Z</time></trkpt><trkpt lat="43.53494322479817" lon="13.583842865145392"><ele>173.0</ele><time>2026-05-02T14:29:55.998Z</time></trkpt><trkpt lat="43.53496343829988" lon="13.583931680414205"><ele>173.0</ele><time>2026-05-02T14:29:58Z</time></trkpt><trkpt lat="43.53498356748587" lon="13.584052768450393"><ele>173.0</ele><time>2026-05-02T14:30:01Z</time></trkpt><trkpt lat="43.535020680047396" lon="13.584133953396305"><ele>173.0</ele><time>2026-05-02T14:30:04Z</time></trkpt><trkpt lat="43.53506677363565" lon="13.584207622754665"><ele>173.85714285714286</ele><time>2026-05-02T14:30:07Z</time></trkpt><trkpt lat="43.535075696949725" lon="13.584311266469427"><ele>174.71428571428572</ele><time>2026-05-02T14:30:09Z</time></trkpt><trkpt lat="43.53506361097469" lon="13.58442239147415"><ele>175.57142857142858</ele><time>2026-05-02T14:30:11Z</time></trkpt><trkpt lat="43.53508615482175" lon="13.584511177584806"><ele>176.42857142857144</ele><time>2026-05-02T14:30:13Z</time></trkpt><trkpt lat="43.535099081515575" lon="13.584604296727743"><ele>177.28571428571428</ele><time>2026-05-02T14:30:15Z</time></trkpt><trkpt lat="43.53510217818174" lon="13.584697192086198"><ele>178.14285714285717</ele><time>2026-05-02T14:30:17Z</time></trkpt><trkpt lat="43.535097299265765" lon="13.584794111656969"><ele>179.0</ele><time>2026-05-02T14:30:19Z</time></trkpt><trkpt lat="43.535081224904765" lon="13.58490454625636"><ele>179.5</ele><time>2026-05-02T14:30:21Z</time></trkpt><trkpt lat="43.53505366367014" lon="13.585042913394746"><ele>180.0</ele><time>2026-05-02T14:30:23Z</time></trkpt><trkpt lat="43.535039593061974" lon="13.585173134952301"><ele>180.5</ele><time>2026-05-02T14:30:25Z</time></trkpt><trkpt lat="43.535043174738895" lon="13.585274671429783"><ele>181.0</ele><time>2026-05-02T14:30:28Z</time></trkpt><trkpt lat="43.5350453522726" lon="13.585178109304264"><ele>181.5</ele><time>2026-05-02T14:30:41Z</time></trkpt><trkpt lat="43.53505866236603" lon="13.58506151950351"><ele>182.0</ele><time>2026-05-02T14:30:44Z</time></trkpt><trkpt lat="43.535066974905746" lon="13.584964590302366"><ele>182.0</ele><time>2026-05-02T14:30:45.999Z</time></trkpt><trkpt lat="43.53508979072222" lon="13.584850116065692"><ele>182.0</ele><time>2026-05-02T14:30:48.999Z</time></trkpt><trkpt lat="43.53509889363766" lon="13.584753156803712"><ele>182.0</ele><time>2026-05-02T14:30:51.999Z</time></trkpt><trkpt lat="43.53510593751192" lon="13.584660871806015"><ele>182.0</ele><time>2026-05-02T14:30:53.999Z</time></trkpt><trkpt lat="43.53509809615639" lon="13.58452281450442"><ele>182.0</ele><time>2026-05-02T14:30:55.999Z</time></trkpt><trkpt lat="43.53507360906868" lon="13.584369438670999"><ele>182.0</ele><time>2026-05-02T14:30:57.999Z</time></trkpt><trkpt lat="43.535044117982174" lon="13.584251815448251"><ele>181.5</ele><time>2026-05-02T14:30:59.999Z</time></trkpt><trkpt lat="43.53503744183778" lon="13.584124636260233"><ele>181.0</ele><time>2026-05-02T14:31:02.999Z</time></trkpt><trkpt lat="43.53509581859436" lon="13.584086007349862"><ele>180.5</ele><time>2026-05-02T14:31:04.999Z</time></trkpt><trkpt lat="43.535163447244386" lon="13.584106293837383"><ele>180.0</ele><time>2026-05-02T14:31:07.999Z</time></trkpt><trkpt lat="43.53524429881216" lon="13.584084128092417"><ele>179.5</ele><time>2026-05-02T14:31:10.999Z</time></trkpt><trkpt lat="43.535319344414475" lon="13.584068366181674"><ele>179.0</ele><time>2026-05-02T14:31:13.999Z</time></trkpt><trkpt lat="43.535391716982836" lon="13.584074890895067"><ele>182.0</ele><time>2026-05-02T14:31:16.999Z</time></trkpt><trkpt lat="43.53546010262012" lon="13.58405306374802"><ele>185.0</ele><time>2026-05-02T14:31:19.999Z</time></trkpt><trkpt lat="43.53553563717056" lon="13.58405975649347"><ele>188.0</ele><time>2026-05-02T14:31:22.999Z</time></trkpt><trkpt lat="43.53562132452047" lon="13.584056544326149"><ele>191.0</ele><time>2026-05-02T14:31:25.999Z</time></trkpt><trkpt lat="43.53569583557407" lon="13.584058615282316"><ele>194.00000000000003</ele><time>2026-05-02T14:31:28.999Z</time></trkpt><trkpt lat="43.53578712697579" lon="13.584065508537815"><ele>197.0</ele><time>2026-05-02T14:31:31.999Z</time></trkpt><trkpt lat="43.53587919217181" lon="13.584083086374656"><ele>197.00000000000003</ele><time>2026-05-02T14:31:34.999Z</time></trkpt><trkpt lat="43.535945993799594" lon="13.584053890078597"><ele>197.0</ele><time>2026-05-02T14:31:37.999Z</time></trkpt><trkpt lat="43.53603327182858" lon="13.584049148409237"><ele>197.0</ele><time>2026-05-02T14:31:40.999Z</time></trkpt><trkpt lat="43.536103005147545" lon="13.58402660804348"><ele>197.0</ele><time>2026-05-02T14:31:42.999Z</time></trkpt><trkpt lat="43.53616431693232" lon="13.584004474932577"><ele>197.00000000000003</ele><time>2026-05-02T14:31:44.999Z</time></trkpt><trkpt lat="43.536253370757315" lon="13.583952031323948"><ele>197.0</ele><time>2026-05-02T14:31:47.998Z</time></trkpt><trkpt lat="43.53633806622055" lon="13.583936349829747"><ele>197.16666666666669</ele><time>2026-05-02T14:31:50.998Z</time></trkpt><trkpt lat="43.53639844844061" lon="13.583907139729272"><ele>197.33333333333334</ele><time>2026-05-02T14:31:52.998Z</time></trkpt><trkpt lat="43.53647249554221" lon="13.583860787979889"><ele>197.5</ele><time>2026-05-02T14:31:55.998Z</time></trkpt><trkpt lat="43.53654182111053" lon="13.583787993192828"><ele>197.66666666666669</ele><time>2026-05-02T14:31:58.998Z</time></trkpt><trkpt lat="43.536616826162266" lon="13.58373337974251"><ele>197.83333333333334</ele><time>2026-05-02T14:32:01.998Z</time></trkpt><trkpt lat="43.53666089693197" lon="13.583671291685725"><ele>198.0</ele><time>2026-05-02T14:32:04Z</time></trkpt><trkpt lat="43.536705820966695" lon="13.583574053043888"><ele>198.0</ele><time>2026-05-02T14:32:07Z</time></trkpt><trkpt lat="43.536766276452184" lon="13.58349368492254"><ele>198.0</ele><time>2026-05-02T14:32:10Z</time></trkpt><trkpt lat="43.536833612448305" lon="13.5834052927822"><ele>198.0</ele><time>2026-05-02T14:32:13Z</time></trkpt><trkpt lat="43.53688534847556" lon="13.583352487603893"><ele>198.0</ele><time>2026-05-02T14:32:15Z</time></trkpt><trkpt lat="43.53693985812937" lon="13.58330749593984"><ele>198.0</ele><time>2026-05-02T14:32:17Z</time></trkpt><trkpt lat="43.537029022617865" lon="13.583267522071097"><ele>198.0</ele><time>2026-05-02T14:32:20Z</time></trkpt><trkpt lat="43.537090077659585" lon="13.583318784661254"><ele>198.5</ele><time>2026-05-02T14:32:22Z</time></trkpt><trkpt lat="43.537156702437805" lon="13.583374640072138"><ele>199.0</ele><time>2026-05-02T14:32:25Z</time></trkpt><trkpt lat="43.53714057259364" lon="13.583462603809952"><ele>199.5</ele><time>2026-05-02T14:32:28Z</time></trkpt><trkpt lat="43.537147722422446" lon="13.58358515748014"><ele>200.0</ele><time>2026-05-02T14:32:31Z</time></trkpt><trkpt lat="43.537155492435794" lon="13.583698306195414"><ele>200.5</ele><time>2026-05-02T14:32:34Z</time></trkpt><trkpt lat="43.53716403704635" lon="13.583822734743329"><ele>201.0</ele><time>2026-05-02T14:32:37Z</time></trkpt><trkpt lat="43.53717170743223" lon="13.58393443255956"><ele>202.5</ele><time>2026-05-02T14:32:40Z</time></trkpt><trkpt lat="43.537177787595766" lon="13.584022973323194"><ele>204.0</ele><time>2026-05-02T14:32:42Z</time></trkpt><trkpt lat="43.53718574962605" lon="13.584148650749016"><ele>205.5</ele><time>2026-05-02T14:32:45Z</time></trkpt><trkpt lat="43.5371900186911" lon="13.584235381188332"><ele>207.0</ele><time>2026-05-02T14:32:47Z</time></trkpt><trkpt lat="43.53719293182093" lon="13.584351101894493"><ele>208.5</ele><time>2026-05-02T14:32:49.999Z</time></trkpt><trkpt lat="43.53718997310979" lon="13.584469146867953"><ele>210.0</ele><time>2026-05-02T14:32:52.999Z</time></trkpt><trkpt lat="43.53717874037141" lon="13.58457906354677"><ele>211.85714285714286</ele><time>2026-05-02T14:32:55.999Z</time></trkpt><trkpt lat="43.537162973510036" lon="13.584685922991772"><ele>213.71428571428572</ele><time>2026-05-02T14:32:58.999Z</time></trkpt><trkpt lat="43.53714489042227" lon="13.58479568559422"><ele>215.57142857142856</ele><time>2026-05-02T14:33:01.999Z</time></trkpt><trkpt lat="43.53710422922861" lon="13.584881471636493"><ele>217.42857142857144</ele><time>2026-05-02T14:33:04.999Z</time></trkpt><trkpt lat="43.53705175890142" lon="13.584943730185664"><ele>219.28571428571428</ele><time>2026-05-02T14:33:07.999Z</time></trkpt><trkpt lat="43.537002714400316" lon="13.585013661414017"><ele>221.14285714285714</ele><time>2026-05-02T14:33:11.999Z</time></trkpt><trkpt lat="43.536965283931565" lon="13.585086062227447"><ele>223.0</ele><time>2026-05-02T14:33:14.999Z</time></trkpt><trkpt lat="43.5369224934338" lon="13.585180642315967"><ele>223.66666666666666</ele><time>2026-05-02T14:33:17.999Z</time></trkpt><trkpt lat="43.53693433442906" lon="13.585307829880609"><ele>224.33333333333331</ele><time>2026-05-02T14:33:20.999Z</time></trkpt><trkpt lat="43.53692304698195" lon="13.585400399188275"><ele>225.0</ele><time>2026-05-02T14:33:22.999Z</time></trkpt><trkpt lat="43.536906450439815" lon="13.58550311622576"><ele>225.66666666666669</ele><time>2026-05-02T14:33:25.999Z</time></trkpt><trkpt lat="43.53688099993375" lon="13.585605546540027"><ele>226.33333333333334</ele><time>2026-05-02T14:33:28.999Z</time></trkpt><trkpt lat="43.536872106754295" lon="13.585729358944196"><ele>227.0</ele><time>2026-05-02T14:33:31.999Z</time></trkpt><trkpt lat="43.53687939705421" lon="13.58585311941062"><ele>229.33333333333334</ele><time>2026-05-02T14:33:34.999Z</time></trkpt><trkpt lat="43.53688320804188" lon="13.585957108447012"><ele>231.66666666666669</ele><time>2026-05-02T14:33:37.999Z</time></trkpt><trkpt lat="43.536890575323326" lon="13.586069909365955"><ele>234.0</ele><time>2026-05-02T14:33:40.999Z</time></trkpt><trkpt lat="43.53685723603862" lon="13.586143661849206"><ele>236.33333333333331</ele><time>2026-05-02T14:33:42.999Z</time></trkpt><trkpt lat="43.53686754542957" lon="13.586260025633488"><ele>238.66666666666666</ele><time>2026-05-02T14:33:45.999Z</time></trkpt><trkpt lat="43.536884121228205" lon="13.586365658589258"><ele>241.0</ele><time>2026-05-02T14:33:48.999Z</time></trkpt><trkpt lat="43.53692746948678" lon="13.586475392405687"><ele>240.99999999999997</ele><time>2026-05-02T14:33:51.998Z</time></trkpt><trkpt lat="43.53697264511301" lon="13.586567280337041"><ele>241.0</ele><time>2026-05-02T14:33:54.998Z</time></trkpt><trkpt lat="43.53702574922005" lon="13.586639989426144"><ele>241.0</ele><time>2026-05-02T14:33:57.998Z</time></trkpt><trkpt lat="43.537090161320634" lon="13.586704491575702"><ele>241.0</ele><time>2026-05-02T14:34:00.998Z</time></trkpt><trkpt lat="43.53714347236488" lon="13.586757728413149"><ele>240.99999999999997</ele><time>2026-05-02T14:34:03.998Z</time></trkpt><trkpt lat="43.537209801655116" lon="13.58684818528566"><ele>241.0</ele><time>2026-05-02T14:34:06.998Z</time></trkpt><trkpt lat="43.53725925820118" lon="13.586922561815078"><ele>242.42857142857144</ele><time>2026-05-02T14:34:08.998Z</time></trkpt><trkpt lat="43.53730778632283" lon="13.5869976853439"><ele>243.8571428571429</ele><time>2026-05-02T14:34:11Z</time></trkpt><trkpt lat="43.53736662017281" lon="13.587074695148846"><ele>245.28571428571428</ele><time>2026-05-02T14:34:13Z</time></trkpt><trkpt lat="43.537420322713686" lon="13.587141969130126"><ele>246.71428571428572</ele><time>2026-05-02T14:34:15Z</time></trkpt><trkpt lat="43.53746878545604" lon="13.587203829972768"><ele>248.14285714285714</ele><time>2026-05-02T14:34:17Z</time></trkpt><trkpt lat="43.53751185164186" lon="13.587273323632246"><ele>249.57142857142856</ele><time>2026-05-02T14:34:19Z</time></trkpt><trkpt lat="43.5375591621287" lon="13.587367869746856"><ele>250.99999999999997</ele><time>2026-05-02T14:34:22Z</time></trkpt><trkpt lat="43.537610462482405" lon="13.58747038967275"><ele>251.00000000000003</ele><time>2026-05-02T14:34:25Z</time></trkpt><trkpt lat="43.53764971189736" lon="13.587548826718738"><ele>251.0</ele><time>2026-05-02T14:34:27Z</time></trkpt><trkpt lat="43.53769606131551" lon="13.58764145266846"><ele>251.0</ele><time>2026-05-02T14:34:30Z</time></trkpt><trkpt lat="43.53774127130219" lon="13.587735626135856"><ele>251.0</ele><time>2026-05-02T14:34:32Z</time></trkpt><trkpt lat="43.53776340235783" lon="13.587868061914238"><ele>251.00000000000003</ele><time>2026-05-02T14:34:34Z</time></trkpt><trkpt lat="43.537763888189886" lon="13.588008538731424"><ele>251.0</ele><time>2026-05-02T14:34:36Z</time></trkpt><trkpt lat="43.537732762962875" lon="13.588131211943764"><ele>249.00000000000003</ele><time>2026-05-02T14:34:38Z</time></trkpt><trkpt lat="43.53770516804866" lon="13.58825552009846"><ele>247.0</ele><time>2026-05-02T14:34:40Z</time></trkpt><trkpt lat="43.53769954750166" lon="13.588371260069046"><ele>245.0</ele><time>2026-05-02T14:34:42Z</time></trkpt><trkpt lat="43.537751598450924" lon="13.58847740348706"><ele>243.0</ele><time>2026-05-02T14:34:44Z</time></trkpt><trkpt lat="43.537810458839985" lon="13.588552365306802"><ele>241.00000000000003</ele><time>2026-05-02T14:34:46Z</time></trkpt><trkpt lat="43.53788132232019" lon="13.58863315564675"><ele>239.0</ele><time>2026-05-02T14:34:49Z</time></trkpt><trkpt lat="43.537926909427746" lon="13.588725882971165"><ele>237.00000000000003</ele><time>2026-05-02T14:34:51Z</time></trkpt><trkpt lat="43.5379519049966" lon="13.58880709858726"><ele>235.0</ele><time>2026-05-02T14:34:52Z</time></trkpt><trkpt lat="43.53798631146625" lon="13.588907437535198"><ele>233.0</ele><time>2026-05-02T14:34:52.999Z</time></trkpt><trkpt lat="43.53802603160442" lon="13.589017903941205"><ele>231.0</ele><time>2026-05-02T14:34:53.999Z</time></trkpt><trkpt lat="43.53808164050216" lon="13.589124680186016"><ele>229.00000000000003</ele><time>2026-05-02T14:34:54.999Z</time></trkpt><trkpt lat="43.53811671953283" lon="13.589273521203515"><ele>227.0</ele><time>2026-05-02T14:34:55.999Z</time></trkpt><trkpt lat="43.53815958351924" lon="13.589404739493892"><ele>228.2</ele><time>2026-05-02T14:34:56.999Z</time></trkpt><trkpt lat="43.53820433446468" lon="13.589516080975814"><ele>229.39999999999998</ele><time>2026-05-02T14:34:57.999Z</time></trkpt><trkpt lat="43.53820981218786" lon="13.589622919182013"><ele>230.60000000000002</ele><time>2026-05-02T14:34:58.999Z</time></trkpt><trkpt lat="43.53821975059949" lon="13.589743255453987"><ele>231.8</ele><time>2026-05-02T14:35:00.999Z</time></trkpt><trkpt lat="43.53808190953858" lon="13.589825080326735"><ele>233.0</ele><time>2026-05-02T14:35:04.999Z</time></trkpt><trkpt lat="43.53800107202709" lon="13.589868651184554"><ele>233.00000000000003</ele><time>2026-05-02T14:35:06.999Z</time></trkpt><trkpt lat="43.5379200960829" lon="13.589901927279234"><ele>233.0</ele><time>2026-05-02T14:35:08.999Z</time></trkpt><trkpt lat="43.53784469391194" lon="13.589954828166121"><ele>233.0</ele><time>2026-05-02T14:35:10.999Z</time></trkpt><trkpt lat="43.537763690471635" lon="13.59001545263859"><ele>233.0</ele><time>2026-05-02T14:35:12.999Z</time></trkpt><trkpt lat="43.537685329236496" lon="13.590092377607082"><ele>233.00000000000003</ele><time>2026-05-02T14:35:14.999Z</time></trkpt><trkpt lat="43.537616836098614" lon="13.59016202668492"><ele>233.0</ele><time>2026-05-02T14:35:16.999Z</time></trkpt><trkpt lat="43.537534990877575" lon="13.59024951721922"><ele>233.0</ele><time>2026-05-02T14:35:18.999Z</time></trkpt><trkpt lat="43.53748168142375" lon="13.590298439668068"><ele>233.0</ele><time>2026-05-02T14:35:19.999Z</time></trkpt><trkpt lat="43.537430547527755" lon="13.59037020950275"><ele>233.0</ele><time>2026-05-02T14:35:20.999Z</time></trkpt><trkpt lat="43.53737336077559" lon="13.590432123444717"><ele>233.0</ele><time>2026-05-02T14:35:21.999Z</time></trkpt><trkpt lat="43.537326721002074" lon="13.590491649981418"><ele>233.0</ele><time>2026-05-02T14:35:22.999Z</time></trkpt><trkpt lat="43.53728439490945" lon="13.590570126556672"><ele>233.0</ele><time>2026-05-02T14:35:23.999Z</time></trkpt><trkpt lat="43.53723622315965" lon="13.590651049199563"><ele>233.0</ele><time>2026-05-02T14:35:24.999Z</time></trkpt><trkpt lat="43.53719114216725" lon="13.590737150706167"><ele>233.00000000000003</ele><time>2026-05-02T14:35:25.999Z</time></trkpt><trkpt lat="43.53715304289878" lon="13.590828465368551"><ele>233.0</ele><time>2026-05-02T14:35:26.999Z</time></trkpt><trkpt lat="43.53711760822061" lon="13.590922629724087"><ele>233.0</ele><time>2026-05-02T14:35:27.999Z</time></trkpt><trkpt lat="43.537082137495595" lon="13.591016451678257"><ele>233.0</ele><time>2026-05-02T14:35:28.999Z</time></trkpt><trkpt lat="43.537047918658494" lon="13.591113557974058"><ele>233.00000000000003</ele><time>2026-05-02T14:35:29.999Z</time></trkpt><trkpt lat="43.53701301065479" lon="13.591207037872463"><ele>233.0</ele><time>2026-05-02T14:35:30.999Z</time></trkpt><trkpt lat="43.53697046650932" lon="13.59129599869432"><ele>231.83333333333334</ele><time>2026-05-02T14:35:31.999Z</time></trkpt><trkpt lat="43.53691993717803" lon="13.591378351598456"><ele>230.66666666666669</ele><time>2026-05-02T14:35:32.999Z</time></trkpt><trkpt lat="43.53686153541484" lon="13.591454944813194"><ele>229.5</ele><time>2026-05-02T14:35:33.999Z</time></trkpt><trkpt lat="43.53679775126626" lon="13.591525951244568"><ele>228.33333333333331</ele><time>2026-05-02T14:35:34.999Z</time></trkpt><trkpt lat="43.53674542846081" lon="13.591594196057331"><ele>227.16666666666666</ele><time>2026-05-02T14:35:35.999Z</time></trkpt><trkpt lat="43.53668943786403" lon="13.591654149252058"><ele>226.0</ele><time>2026-05-02T14:35:36.999Z</time></trkpt><trkpt lat="43.536627534298646" lon="13.591702525822308"><ele>225.99999999999997</ele><time>2026-05-02T14:35:37.999Z</time></trkpt><trkpt lat="43.53655549038195" lon="13.591748334771816"><ele>226.0</ele><time>2026-05-02T14:35:38.999Z</time></trkpt><trkpt lat="43.53648155250749" lon="13.591773383739387"><ele>226.0</ele><time>2026-05-02T14:35:39.999Z</time></trkpt><trkpt lat="43.53641149289821" lon="13.591797961406419"><ele>226.0</ele><time>2026-05-02T14:35:40.999Z</time></trkpt><trkpt lat="43.5363429502929" lon="13.591804403082987"><ele>225.99999999999997</ele><time>2026-05-02T14:35:41.999Z</time></trkpt><trkpt lat="43.53627678230561" lon="13.591811079752963"><ele>226.0</ele><time>2026-05-02T14:35:42.999Z</time></trkpt><trkpt lat="43.536155391387695" lon="13.591821343864341"><ele>225.71428571428572</ele><time>2026-05-02T14:35:44.999Z</time></trkpt><trkpt lat="43.5360920806232" lon="13.591828237464947"><ele>225.42857142857142</ele><time>2026-05-02T14:35:45.999Z</time></trkpt><trkpt lat="43.53602874075488" lon="13.59184353521602"><ele>225.14285714285714</ele><time>2026-05-02T14:35:46.999Z</time></trkpt><trkpt lat="43.53596721849154" lon="13.591869902011172"><ele>224.85714285714286</ele><time>2026-05-02T14:35:47.999Z</time></trkpt><trkpt lat="43.53590570659228" lon="13.591901645738771"><ele>224.57142857142856</ele><time>2026-05-02T14:35:48.999Z</time></trkpt><trkpt lat="43.535843265690204" lon="13.591931384895059"><ele>224.28571428571428</ele><time>2026-05-02T14:35:49.999Z</time></trkpt><trkpt lat="43.535786418780525" lon="13.591969216101882"><ele>224.0</ele><time>2026-05-02T14:35:50.999Z</time></trkpt><trkpt lat="43.53573255660899" lon="13.592016709233562"><ele>224.0</ele><time>2026-05-02T14:35:51.999Z</time></trkpt><trkpt lat="43.535646828640374" lon="13.59213931421059"><ele>223.99999999999997</ele><time>2026-05-02T14:35:53.999Z</time></trkpt><trkpt lat="43.5356060907185" lon="13.592295782944404"><ele>223.99999999999997</ele><time>2026-05-02T14:35:55.998Z</time></trkpt><trkpt lat="43.53557668495498" lon="13.592463590371038"><ele>224.0</ele><time>2026-05-02T14:35:57.998Z</time></trkpt><trkpt lat="43.535559356583406" lon="13.592549084072946"><ele>224.0</ele><time>2026-05-02T14:35:58.998Z</time></trkpt><trkpt lat="43.53553918435518" lon="13.592636364520292"><ele>224.0</ele><time>2026-05-02T14:35:59.998Z</time></trkpt><trkpt lat="43.535520904890596" lon="13.592724946387102"><ele>224.0</ele><time>2026-05-02T14:36:00.998Z</time></trkpt><trkpt lat="43.53550247257019" lon="13.59281012155092"><ele>224.0</ele><time>2026-05-02T14:36:01.998Z</time></trkpt><trkpt lat="43.535481083949016" lon="13.592909878258272"><ele>224.0</ele><time>2026-05-02T14:36:02.998Z</time></trkpt><trkpt lat="43.53545670968643" lon="13.593002117836107"><ele>224.0</ele><time>2026-05-02T14:36:03.998Z</time></trkpt><trkpt lat="43.53542255131338" lon="13.593091962172357"><ele>224.0</ele><time>2026-05-02T14:36:04.998Z</time></trkpt><trkpt lat="43.5353728641899" lon="13.593175378492255"><ele>224.0</ele><time>2026-05-02T14:36:05.998Z</time></trkpt><trkpt lat="43.535317178707984" lon="13.593252110186043"><ele>222.66666666666669</ele><time>2026-05-02T14:36:06.998Z</time></trkpt><trkpt lat="43.53524756937628" lon="13.593311915886659"><ele>221.33333333333334</ele><time>2026-05-02T14:36:07.998Z</time></trkpt><trkpt lat="43.5351761471855" lon="13.593372152056931"><ele>220.0</ele><time>2026-05-02T14:36:08.998Z</time></trkpt><trkpt lat="43.53510372251355" lon="13.59342865071472"><ele>218.66666666666669</ele><time>2026-05-02T14:36:09.998Z</time></trkpt><trkpt lat="43.53503933591544" lon="13.593475563190452"><ele>217.33333333333334</ele><time>2026-05-02T14:36:10.998Z</time></trkpt><trkpt lat="43.53497525635776" lon="13.593494879080017"><ele>216.0</ele><time>2026-05-02T14:36:11.998Z</time></trkpt><trkpt lat="43.53490779110557" lon="13.593509243466148"><ele>216.0</ele><time>2026-05-02T14:36:12.998Z</time></trkpt><trkpt lat="43.53484425005529" lon="13.59353241225985"><ele>216.0</ele><time>2026-05-02T14:36:13.998Z</time></trkpt><trkpt lat="43.5347717920593" lon="13.593549236228352"><ele>216.0</ele><time>2026-05-02T14:36:14.998Z</time></trkpt><trkpt lat="43.53469843543339" lon="13.593541368294915"><ele>216.0</ele><time>2026-05-02T14:36:16Z</time></trkpt><trkpt lat="43.53463047251309" lon="13.593521798143778"><ele>216.0</ele><time>2026-05-02T14:36:17Z</time></trkpt><trkpt lat="43.534568138578976" lon="13.59349757069817"><ele>216.0</ele><time>2026-05-02T14:36:18Z</time></trkpt><trkpt lat="43.534506051873585" lon="13.593458941178"><ele>216.0</ele><time>2026-05-02T14:36:19Z</time></trkpt><trkpt lat="43.534442937102995" lon="13.59342384714675"><ele>215.0</ele><time>2026-05-02T14:36:20Z</time></trkpt><trkpt lat="43.53438034640955" lon="13.593384078352512"><ele>214.0</ele><time>2026-05-02T14:36:21Z</time></trkpt><trkpt lat="43.53432940939274" lon="13.593309966012002"><ele>213.0</ele><time>2026-05-02T14:36:23Z</time></trkpt><trkpt lat="43.53430814139005" lon="13.593216035679896"><ele>212.0</ele><time>2026-05-02T14:36:25Z</time></trkpt><trkpt lat="43.5342915508923" lon="13.593112568483289"><ele>211.0</ele><time>2026-05-02T14:36:26Z</time></trkpt><trkpt lat="43.5342603965644" lon="13.592994098821901"><ele>210.0</ele><time>2026-05-02T14:36:27Z</time></trkpt><trkpt lat="43.53421245217789" lon="13.592868293009635"><ele>207.6</ele><time>2026-05-02T14:36:28Z</time></trkpt><trkpt lat="43.534156703957876" lon="13.592742208058965"><ele>205.2</ele><time>2026-05-02T14:36:29Z</time></trkpt><trkpt lat="43.53409156845636" lon="13.592631705358636"><ele>202.8</ele><time>2026-05-02T14:36:30Z</time></trkpt><trkpt lat="43.53402818792875" lon="13.592524599283298"><ele>200.4</ele><time>2026-05-02T14:36:31Z</time></trkpt><trkpt lat="43.533980572980475" lon="13.592444757645442"><ele>198.0</ele><time>2026-05-02T14:36:32Z</time></trkpt><trkpt lat="43.533923482983" lon="13.592393829696988"><ele>198.0</ele><time>2026-05-02T14:36:33Z</time></trkpt><trkpt lat="43.53383423004368" lon="13.592352971447857"><ele>198.0</ele><time>2026-05-02T14:36:34Z</time></trkpt><trkpt lat="43.53373218678706" lon="13.592335157575587"><ele>198.0</ele><time>2026-05-02T14:36:35Z</time></trkpt><trkpt lat="43.53363691967889" lon="13.592298305327237"><ele>198.0</ele><time>2026-05-02T14:36:36Z</time></trkpt><trkpt lat="43.533552046735736" lon="13.592254700624101"><ele>198.0</ele><time>2026-05-02T14:36:37Z</time></trkpt><trkpt lat="43.53347544015926" lon="13.592208511129996"><ele>198.0</ele><time>2026-05-02T14:36:38Z</time></trkpt><trkpt lat="43.53339469977797" lon="13.592166511406106"><ele>198.0</ele><time>2026-05-02T14:36:39Z</time></trkpt><trkpt lat="43.533326055361776" lon="13.592086738381653"><ele>198.0</ele><time>2026-05-02T14:36:40Z</time></trkpt><trkpt lat="43.533266199004" lon="13.592015347102118"><ele>198.0</ele><time>2026-05-02T14:36:41Z</time></trkpt><trkpt lat="43.53320032293634" lon="13.591948578321498"><ele>198.0</ele><time>2026-05-02T14:36:42Z</time></trkpt><trkpt lat="43.53313610111336" lon="13.591896398517708"><ele>198.0</ele><time>2026-05-02T14:36:43Z</time></trkpt><trkpt lat="43.53306300615263" lon="13.591802505081391"><ele>197.16666666666666</ele><time>2026-05-02T14:36:44Z</time></trkpt><trkpt lat="43.53299641308151" lon="13.591744296524384"><ele>196.33333333333331</ele><time>2026-05-02T14:36:45Z</time></trkpt><trkpt lat="43.532934774336326" lon="13.591689566289984"><ele>195.5</ele><time>2026-05-02T14:36:46Z</time></trkpt><trkpt lat="43.53287181840467" lon="13.591633666316994"><ele>194.66666666666666</ele><time>2026-05-02T14:36:47Z</time></trkpt><trkpt lat="43.53280091178073" lon="13.591565650953735"><ele>193.83333333333331</ele><time>2026-05-02T14:36:48Z</time></trkpt><trkpt lat="43.53273984008426" lon="13.591512311879498"><ele>193.0</ele><time>2026-05-02T14:36:49Z</time></trkpt><trkpt lat="43.53263874737291" lon="13.591423290824956"><ele>193.0</ele><time>2026-05-02T14:36:51Z</time></trkpt><trkpt lat="43.53258381525619" lon="13.591376705735676"><ele>193.0</ele><time>2026-05-02T14:36:52Z</time></trkpt><trkpt lat="43.53248438532692" lon="13.591321461423155"><ele>193.0</ele><time>2026-05-02T14:36:54Z</time></trkpt><trkpt lat="43.532388845662794" lon="13.59127388459861"><ele>193.0</ele><time>2026-05-02T14:36:56Z</time></trkpt><trkpt lat="43.53229552958238" lon="13.591247954950626"><ele>193.0</ele><time>2026-05-02T14:36:58Z</time></trkpt><trkpt lat="43.53220994162592" lon="13.59122461446106"><ele>193.0</ele><time>2026-05-02T14:36:59.999Z</time></trkpt><trkpt lat="43.5321280705338" lon="13.591220140102525"><ele>193.0</ele><time>2026-05-02T14:37:01.999Z</time></trkpt><trkpt lat="43.53201678294654" lon="13.59121492629785"><ele>193.0</ele><time>2026-05-02T14:37:03.999Z</time></trkpt><trkpt lat="43.531884152977845" lon="13.591263174551989"><ele>193.0</ele><time>2026-05-02T14:37:05.999Z</time></trkpt><trkpt lat="43.53181512153286" lon="13.591282207667952"><ele>193.0</ele><time>2026-05-02T14:37:06.999Z</time></trkpt><trkpt lat="43.53174459661584" lon="13.59129062701612"><ele>191.60000000000002</ele><time>2026-05-02T14:37:08.999Z</time></trkpt><trkpt lat="43.53167932085795" lon="13.591285716187269"><ele>190.20000000000002</ele><time>2026-05-02T14:37:09.999Z</time></trkpt><trkpt lat="43.53158932399815" lon="13.591256095298668"><ele>188.8</ele><time>2026-05-02T14:37:10.999Z</time></trkpt><trkpt lat="43.53150071209033" lon="13.591214727558407"><ele>187.4</ele><time>2026-05-02T14:37:11.999Z</time></trkpt><trkpt lat="43.53141134926827" lon="13.591167858992838"><ele>186.0</ele><time>2026-05-02T14:37:12.999Z</time></trkpt><trkpt lat="43.53128177915035" lon="13.59109950619133"><ele>182.83333333333334</ele><time>2026-05-02T14:37:13.999Z</time></trkpt><trkpt lat="43.53118299078671" lon="13.591075544276446"><ele>179.66666666666666</ele><time>2026-05-02T14:37:15.999Z</time></trkpt><trkpt lat="43.53109906041912" lon="13.591042797410989"><ele>176.5</ele><time>2026-05-02T14:37:16.999Z</time></trkpt><trkpt lat="43.531000731336356" lon="13.591003528691619"><ele>173.33333333333331</ele><time>2026-05-02T14:37:18.999Z</time></trkpt><trkpt lat="43.53093904194089" lon="13.590956497325967"><ele>170.16666666666666</ele><time>2026-05-02T14:37:19.999Z</time></trkpt><trkpt lat="43.53087368588125" lon="13.590921981378289"><ele>167.0</ele><time>2026-05-02T14:37:21.999Z</time></trkpt><trkpt lat="43.530806687801075" lon="13.59087454561991"><ele>167.0</ele><time>2026-05-02T14:37:25.999Z</time></trkpt><trkpt lat="43.53074290479927" lon="13.590906352821746"><ele>167.0</ele><time>2026-05-02T14:37:27.999Z</time></trkpt><trkpt lat="43.53064670157433" lon="13.59116185481996"><ele>167.0</ele><time>2026-05-02T14:37:29.999Z</time></trkpt><trkpt lat="43.5305912783784" lon="13.5912030639689"><ele>167.0</ele><time>2026-05-02T14:37:31.999Z</time></trkpt><trkpt lat="43.530510947653276" lon="13.591238591777445"><ele>167.0</ele><time>2026-05-02T14:37:33.999Z</time></trkpt><trkpt lat="43.530431752350154" lon="13.591326434300745"><ele>167.0</ele><time>2026-05-02T14:37:36.999Z</time></trkpt><trkpt lat="43.53036032017638" lon="13.591360838812053"><ele>167.0</ele><time>2026-05-02T14:37:39.999Z</time></trkpt><trkpt lat="43.53029311065419" lon="13.591342421094746"><ele>167.0</ele><time>2026-05-02T14:37:41.999Z</time></trkpt><trkpt lat="43.53020528584087" lon="13.59130873782269"><ele>167.0</ele><time>2026-05-02T14:37:44.999Z</time></trkpt><trkpt lat="43.53014535091796" lon="13.591267903891135"><ele>167.0</ele><time>2026-05-02T14:37:46.999Z</time></trkpt><trkpt lat="43.53008355953962" lon="13.59122582559006"><ele>167.0</ele><time>2026-05-02T14:37:50.999Z</time></trkpt><trkpt lat="43.53003179105763" lon="13.591122989071454"><ele>167.0</ele><time>2026-05-02T14:37:54.999Z</time></trkpt><trkpt lat="43.53000841500762" lon="13.591025116042216"><ele>167.0</ele><time>2026-05-02T14:37:57.999Z</time></trkpt><trkpt lat="43.529971851534526" lon="13.590883258021027"><ele>167.0</ele><time>2026-05-02T14:37:59.999Z</time></trkpt><trkpt lat="43.52992181509017" lon="13.590722825756048"><ele>167.0</ele><time>2026-05-02T14:38:01.999Z</time></trkpt><trkpt lat="43.52985986938604" lon="13.59058691802691"><ele>167.0</ele><time>2026-05-02T14:38:03.998Z</time></trkpt><trkpt lat="43.52980998385656" lon="13.590462483488125"><ele>167.0</ele><time>2026-05-02T14:38:05.998Z</time></trkpt><trkpt lat="43.52976732945705" lon="13.59034626993617"><ele>167.0</ele><time>2026-05-02T14:38:07.998Z</time></trkpt><trkpt lat="43.52972786138105" lon="13.590229241243975"><ele>167.0</ele><time>2026-05-02T14:38:09.998Z</time></trkpt><trkpt lat="43.52966171672885" lon="13.59015055491864"><ele>167.0</ele><time>2026-05-02T14:38:11.998Z</time></trkpt><trkpt lat="43.52958722938225" lon="13.590055889831286"><ele>167.0</ele><time>2026-05-02T14:38:13.998Z</time></trkpt><trkpt lat="43.52954598040353" lon="13.589976308780429"><ele>167.0</ele><time>2026-05-02T14:38:14.998Z</time></trkpt><trkpt lat="43.5294505333445" lon="13.589869361758106"><ele>166.33333333333331</ele><time>2026-05-02T14:38:16.998Z</time></trkpt><trkpt lat="43.529378283747725" lon="13.589796459233838"><ele>165.66666666666666</ele><time>2026-05-02T14:38:22Z</time></trkpt><trkpt lat="43.52928054513819" lon="13.589749661544534"><ele>165.0</ele><time>2026-05-02T14:38:25Z</time></trkpt><trkpt lat="43.52920130207795" lon="13.589708993351746"><ele>164.33333333333334</ele><time>2026-05-02T14:38:29Z</time></trkpt><trkpt lat="43.52914170586731" lon="13.589630668983304"><ele>163.66666666666669</ele><time>2026-05-02T14:38:32Z</time></trkpt><trkpt lat="43.52907270621595" lon="13.589599429180183"><ele>163.0</ele><time>2026-05-02T14:38:34Z</time></trkpt><trkpt lat="43.5290026491336" lon="13.589588249623917"><ele>163.0</ele><time>2026-05-02T14:38:36Z</time></trkpt><trkpt lat="43.52893018593744" lon="13.589552469685179"><ele>163.0</ele><time>2026-05-02T14:38:38Z</time></trkpt><trkpt lat="43.52888193634949" lon="13.589487816182265"><ele>163.0</ele><time>2026-05-02T14:38:40Z</time></trkpt><trkpt lat="43.528742082389165" lon="13.589450691957742"><ele>163.0</ele><time>2026-05-02T14:38:42Z</time></trkpt><trkpt lat="43.52860686232157" lon="13.589295128065562"><ele>159.83333333333334</ele><time>2026-05-02T14:38:45Z</time></trkpt><trkpt lat="43.528522541327874" lon="13.58926081722969"><ele>156.66666666666669</ele><time>2026-05-02T14:38:48Z</time></trkpt><trkpt lat="43.52844102984767" lon="13.589207451558902"><ele>153.5</ele><time>2026-05-02T14:38:50Z</time></trkpt><trkpt lat="43.52835767342977" lon="13.589173412724492"><ele>150.33333333333334</ele><time>2026-05-02T14:38:52Z</time></trkpt><trkpt lat="43.52828069754039" lon="13.589124214901505"><ele>147.16666666666666</ele><time>2026-05-02T14:38:54Z</time></trkpt><trkpt lat="43.52820708982982" lon="13.589099418574847"><ele>144.0</ele><time>2026-05-02T14:38:56Z</time></trkpt><trkpt lat="43.528135466695936" lon="13.589081367511294"><ele>144.0</ele><time>2026-05-02T14:38:58Z</time></trkpt><trkpt lat="43.52806160177078" lon="13.589090810185807"><ele>144.0</ele><time>2026-05-02T14:39:00Z</time></trkpt><trkpt lat="43.52799156132637" lon="13.589124315852217"><ele>144.0</ele><time>2026-05-02T14:39:02Z</time></trkpt><trkpt lat="43.52793506870621" lon="13.589167933353611"><ele>144.0</ele><time>2026-05-02T14:39:04Z</time></trkpt><trkpt lat="43.527880794958335" lon="13.589262839484832"><ele>144.0</ele><time>2026-05-02T14:39:07.999Z</time></trkpt><trkpt lat="43.52779657233503" lon="13.589333423059795"><ele>144.0</ele><time>2026-05-02T14:39:10.999Z</time></trkpt><trkpt lat="43.527724745712206" lon="13.589369010651595"><ele>144.16666666666666</ele><time>2026-05-02T14:39:13.999Z</time></trkpt><trkpt lat="43.527656483414994" lon="13.589301335485434"><ele>144.33333333333334</ele><time>2026-05-02T14:39:16.999Z</time></trkpt><trkpt lat="43.52760834471642" lon="13.589242376708537"><ele>144.5</ele><time>2026-05-02T14:39:18.999Z</time></trkpt><trkpt lat="43.52754170227269" lon="13.589176148116385"><ele>144.66666666666669</ele><time>2026-05-02T14:39:20.999Z</time></trkpt><trkpt lat="43.5274823307413" lon="13.5891290942914"><ele>144.83333333333334</ele><time>2026-05-02T14:39:22.999Z</time></trkpt><trkpt lat="43.52740578228222" lon="13.589060757929804"><ele>145.0</ele><time>2026-05-02T14:39:24.999Z</time></trkpt><trkpt lat="43.527348114627024" lon="13.588988037811644"><ele>145.0</ele><time>2026-05-02T14:39:26.999Z</time></trkpt><trkpt lat="43.52726968626457" lon="13.588955600895869"><ele>145.0</ele><time>2026-05-02T14:39:29.999Z</time></trkpt><trkpt lat="43.527200176466245" lon="13.588995103162958"><ele>145.0</ele><time>2026-05-02T14:39:32.999Z</time></trkpt><trkpt lat="43.5271391107433" lon="13.589044350969143"><ele>145.0</ele><time>2026-05-02T14:39:34.999Z</time></trkpt><trkpt lat="43.527090937007294" lon="13.589113240658735"><ele>145.0</ele><time>2026-05-02T14:39:36.999Z</time></trkpt><trkpt lat="43.52703264612189" lon="13.58915530824567"><ele>145.0</ele><time>2026-05-02T14:39:38.999Z</time></trkpt><trkpt lat="43.52697102342271" lon="13.589181793560556"><ele>145.0</ele><time>2026-05-02T14:39:41.999Z</time></trkpt><trkpt lat="43.52689906542376" lon="13.589212232976198"><ele>144.57142857142858</ele><time>2026-05-02T14:39:52.999Z</time></trkpt><trkpt lat="43.52685439155002" lon="13.589287011978474"><ele>144.14285714285717</ele><time>2026-05-02T14:39:56.999Z</time></trkpt><trkpt lat="43.52678800692707" lon="13.589369292711591"><ele>143.71428571428572</ele><time>2026-05-02T14:39:59.999Z</time></trkpt><trkpt lat="43.526712851814544" lon="13.589366184268481"><ele>143.28571428571428</ele><time>2026-05-02T14:40:02.999Z</time></trkpt><trkpt lat="43.52664802496861" lon="13.589378183593418"><ele>142.85714285714283</ele><time>2026-05-02T14:40:38Z</time></trkpt><trkpt lat="43.526655896523394" lon="13.589289580612517"><ele>142.42857142857142</ele><time>2026-05-02T14:41:03Z</time></trkpt><trkpt lat="43.526628945573634" lon="13.589203309351282"><ele>142.0</ele><time>2026-05-02T14:41:11Z</time></trkpt><trkpt lat="43.52661670625262" lon="13.589113844091194"><ele>142.0</ele><time>2026-05-02T14:41:15Z</time></trkpt><trkpt lat="43.52659035180424" lon="13.58902273753894"><ele>142.0</ele><time>2026-05-02T14:41:17.999Z</time></trkpt><trkpt lat="43.52658587136241" lon="13.588926340180475"><ele>142.0</ele><time>2026-05-02T14:41:20.999Z</time></trkpt><trkpt lat="43.526588130719055" lon="13.588791858244889"><ele>142.0</ele><time>2026-05-02T14:41:23.999Z</time></trkpt><trkpt lat="43.52655175477233" lon="13.588688040693125"><ele>142.0</ele><time>2026-05-02T14:41:25.999Z</time></trkpt><trkpt lat="43.526508426695386" lon="13.588589905378333"><ele>142.0</ele><time>2026-05-02T14:41:27.999Z</time></trkpt><trkpt lat="43.52645914701048" lon="13.588528487301028"><ele>140.66666666666669</ele><time>2026-05-02T14:41:29.999Z</time></trkpt><trkpt lat="43.526385058790126" lon="13.588478630521776"><ele>139.33333333333334</ele><time>2026-05-02T14:41:33.999Z</time></trkpt><trkpt lat="43.52632608531576" lon="13.588391977110946"><ele>138.0</ele><time>2026-05-02T14:41:36.999Z</time></trkpt><trkpt lat="43.526334340435234" lon="13.588297446619743"><ele>136.66666666666666</ele><time>2026-05-02T14:41:39.999Z</time></trkpt><trkpt lat="43.52635067727016" lon="13.588198970733874"><ele>135.33333333333331</ele><time>2026-05-02T14:41:42.999Z</time></trkpt><trkpt lat="43.52629361072956" lon="13.588091723257014"><ele>134.0</ele><time>2026-05-02T14:41:45.999Z</time></trkpt><trkpt lat="43.52625046168463" lon="13.588014663481408"><ele>134.66666666666666</ele><time>2026-05-02T14:41:47.999Z</time></trkpt><trkpt lat="43.526188069632255" lon="13.587935707362176"><ele>135.33333333333331</ele><time>2026-05-02T14:41:49.999Z</time></trkpt><trkpt lat="43.52609853332172" lon="13.58785979263669"><ele>136.0</ele><time>2026-05-02T14:41:52.999Z</time></trkpt><trkpt lat="43.52603846257748" lon="13.587798692582364"><ele>136.66666666666666</ele><time>2026-05-02T14:41:54.999Z</time></trkpt><trkpt lat="43.5259850634581" lon="13.587725835650158"><ele>137.33333333333334</ele><time>2026-05-02T14:41:56.999Z</time></trkpt><trkpt lat="43.52590626046687" lon="13.587674748950315"><ele>138.0</ele><time>2026-05-02T14:41:58.999Z</time></trkpt><trkpt lat="43.525843448092886" lon="13.587622394270278"><ele>138.0</ele><time>2026-05-02T14:42:00.999Z</time></trkpt><trkpt lat="43.52577849188107" lon="13.587580881679688"><ele>138.0</ele><time>2026-05-02T14:42:02.999Z</time></trkpt><trkpt lat="43.5256838039371" lon="13.587507574946065"><ele>138.0</ele><time>2026-05-02T14:42:05.999Z</time></trkpt><trkpt lat="43.52559085400829" lon="13.587457314185231"><ele>138.0</ele><time>2026-05-02T14:42:08.999Z</time></trkpt><trkpt lat="43.52552014866567" lon="13.587424264045119"><ele>138.0</ele><time>2026-05-02T14:42:10.999Z</time></trkpt><trkpt lat="43.52541664897478" lon="13.587374152070625"><ele>139.5</ele><time>2026-05-02T14:42:13.999Z</time></trkpt><trkpt lat="43.52533251602662" lon="13.587325428243414"><ele>141.0</ele><time>2026-05-02T14:42:15.999Z</time></trkpt><trkpt lat="43.52525075835155" lon="13.587282706691335"><ele>142.5</ele><time>2026-05-02T14:42:18.999Z</time></trkpt><trkpt lat="43.52516048682232" lon="13.587243977442176"><ele>144.0</ele><time>2026-05-02T14:42:21.998Z</time></trkpt><trkpt lat="43.52509371128075" lon="13.58723837068736"><ele>145.5</ele><time>2026-05-02T14:42:23.998Z</time></trkpt><trkpt lat="43.525024983041966" lon="13.587237977044932"><ele>147.0</ele><time>2026-05-02T14:42:25.998Z</time></trkpt><trkpt lat="43.52494655644103" lon="13.587257864052921"><ele>147.0</ele><time>2026-05-02T14:42:28.998Z</time></trkpt><trkpt lat="43.52487510461762" lon="13.587275385607358"><ele>147.0</ele><time>2026-05-02T14:42:31.998Z</time></trkpt><trkpt lat="43.52480381656437" lon="13.587261197951348"><ele>147.0</ele><time>2026-05-02T14:42:35Z</time></trkpt><trkpt lat="43.52473412416762" lon="13.58726269935386"><ele>147.0</ele><time>2026-05-02T14:42:38Z</time></trkpt><trkpt lat="43.52465651848635" lon="13.58725978906962"><ele>147.0</ele><time>2026-05-02T14:42:41Z</time></trkpt><trkpt lat="43.52457256354098" lon="13.587268389958139"><ele>147.0</ele><time>2026-05-02T14:42:44Z</time></trkpt><trkpt lat="43.52447878057061" lon="13.587278176296572"><ele>147.16666666666666</ele><time>2026-05-02T14:42:47Z</time></trkpt><trkpt lat="43.52441073973516" lon="13.587288654587796"><ele>147.33333333333334</ele><time>2026-05-02T14:42:49Z</time></trkpt><trkpt lat="43.52432980680992" lon="13.587316460464203"><ele>147.5</ele><time>2026-05-02T14:42:52Z</time></trkpt><trkpt lat="43.5242604104816" lon="13.587328850932376"><ele>147.66666666666669</ele><time>2026-05-02T14:42:55Z</time></trkpt><trkpt lat="43.52417570107913" lon="13.587358294443456"><ele>147.83333333333334</ele><time>2026-05-02T14:42:58Z</time></trkpt><trkpt lat="43.52409787562172" lon="13.587370873474077"><ele>148.0</ele><time>2026-05-02T14:43:00Z</time></trkpt><trkpt lat="43.524032335292915" lon="13.587369623650721"><ele>148.0</ele><time>2026-05-02T14:43:02Z</time></trkpt><trkpt lat="43.52395829684398" lon="13.587389333155015"><ele>148.0</ele><time>2026-05-02T14:43:05Z</time></trkpt><trkpt lat="43.52389588314578" lon="13.587440549453124"><ele>148.0</ele><time>2026-05-02T14:43:08Z</time></trkpt><trkpt lat="43.52381217628754" lon="13.587476856537513"><ele>148.0</ele><time>2026-05-02T14:43:11Z</time></trkpt><trkpt lat="43.52374316740521" lon="13.587516283148757"><ele>148.0</ele><time>2026-05-02T14:43:14Z</time></trkpt><trkpt lat="43.5236593728903" lon="13.5875696576203"><ele>148.0</ele><time>2026-05-02T14:43:17Z</time></trkpt><trkpt lat="43.52359550699401" lon="13.587603018084447"><ele>147.16666666666669</ele><time>2026-05-02T14:43:19Z</time></trkpt><trkpt lat="43.52354441497279" lon="13.587668257832185"><ele>146.33333333333334</ele><time>2026-05-02T14:43:28.999Z</time></trkpt><trkpt lat="43.523536574501165" lon="13.587772721757565"><ele>145.5</ele><time>2026-05-02T14:43:31.999Z</time></trkpt><trkpt lat="43.52348695861319" lon="13.58788505437492"><ele>144.66666666666666</ele><time>2026-05-02T14:43:35.999Z</time></trkpt><trkpt lat="43.523448734649165" lon="13.588006441599735"><ele>143.83333333333331</ele><time>2026-05-02T14:43:38.999Z</time></trkpt><trkpt lat="43.5233820993865" lon="13.588103876090301"><ele>143.0</ele><time>2026-05-02T14:43:41.999Z</time></trkpt><trkpt lat="43.52331908889346" lon="13.588168615728039"><ele>145.33333333333331</ele><time>2026-05-02T14:43:44.999Z</time></trkpt><trkpt lat="43.52325234874769" lon="13.588225102800372"><ele>147.66666666666666</ele><time>2026-05-02T14:43:46.999Z</time></trkpt><trkpt lat="43.52319067411289" lon="13.588305862400087"><ele>150.0</ele><time>2026-05-02T14:43:48.999Z</time></trkpt><trkpt lat="43.523126636842775" lon="13.588377488258367"><ele>152.33333333333334</ele><time>2026-05-02T14:43:50.999Z</time></trkpt><trkpt lat="43.52307379706151" lon="13.588444226680897"><ele>154.66666666666669</ele><time>2026-05-02T14:43:52.999Z</time></trkpt><trkpt lat="43.52300964566136" lon="13.588527622107579"><ele>157.0</ele><time>2026-05-02T14:43:54.999Z</time></trkpt><trkpt lat="43.52295305403323" lon="13.588603765707267"><ele>155.33333333333334</ele><time>2026-05-02T14:43:56.999Z</time></trkpt><trkpt lat="43.522912691259556" lon="13.588688076387168"><ele>153.66666666666669</ele><time>2026-05-02T14:43:58.999Z</time></trkpt><trkpt lat="43.52288177911475" lon="13.588807030078444"><ele>152.0</ele><time>2026-05-02T14:44:00.999Z</time></trkpt><trkpt lat="43.5228177678299" lon="13.588846406371923"><ele>150.33333333333334</ele><time>2026-05-02T14:44:02.999Z</time></trkpt><trkpt lat="43.52276467227487" lon="13.58892275082435"><ele>148.66666666666666</ele><time>2026-05-02T14:44:05.999Z</time></trkpt><trkpt lat="43.5227146574055" lon="13.588987490166957"><ele>147.0</ele><time>2026-05-02T14:44:07.999Z</time></trkpt><trkpt lat="43.52265426370345" lon="13.589081997796166"><ele>147.0</ele><time>2026-05-02T14:44:09.999Z</time></trkpt><trkpt lat="43.522613900971564" lon="13.58920298989549"><ele>147.0</ele><time>2026-05-02T14:44:11.999Z</time></trkpt><trkpt lat="43.52255352708759" lon="13.589305946042543"><ele>147.0</ele><time>2026-05-02T14:44:13.999Z</time></trkpt><trkpt lat="43.52251854518979" lon="13.589411008006904"><ele>147.0</ele><time>2026-05-02T14:44:15.999Z</time></trkpt><trkpt lat="43.52245280637863" lon="13.589522974194526"><ele>147.0</ele><time>2026-05-02T14:44:17.999Z</time></trkpt><trkpt lat="43.52242766091645" lon="13.589637973504365"><ele>149.4</ele><time>2026-05-02T14:44:19.999Z</time></trkpt><trkpt lat="43.52239812407594" lon="13.589778411130265"><ele>151.79999999999998</ele><time>2026-05-02T14:44:21.999Z</time></trkpt><trkpt lat="43.52235526476987" lon="13.589915290313064"><ele>154.2</ele><time>2026-05-02T14:44:23.999Z</time></trkpt><trkpt lat="43.52232895572397" lon="13.590052554882153"><ele>156.6</ele><time>2026-05-02T14:44:25.998Z</time></trkpt><trkpt lat="43.522299927003075" lon="13.590172453110425"><ele>159.0</ele><time>2026-05-02T14:44:27.998Z</time></trkpt><trkpt lat="43.522257120429984" lon="13.590290264501007"><ele>158.0</ele><time>2026-05-02T14:44:29.998Z</time></trkpt><trkpt lat="43.52219358409144" lon="13.590403877237213"><ele>157.0</ele><time>2026-05-02T14:44:31.998Z</time></trkpt><trkpt lat="43.522100006124695" lon="13.590445073246386"><ele>156.0</ele><time>2026-05-02T14:44:33.998Z</time></trkpt><trkpt lat="43.522020539707604" lon="13.590464415325274"><ele>155.0</ele><time>2026-05-02T14:44:34.998Z</time></trkpt><trkpt lat="43.52191013741579" lon="13.590518294879676"><ele>154.0</ele><time>2026-05-02T14:44:36.998Z</time></trkpt><trkpt lat="43.521843140348466" lon="13.590515095346769"><ele>154.0</ele><time>2026-05-02T14:44:37.998Z</time></trkpt><trkpt lat="43.52172191077634" lon="13.590551732097286"><ele>154.0</ele><time>2026-05-02T14:44:40Z</time></trkpt><trkpt lat="43.52164030076048" lon="13.590578480877364"><ele>154.0</ele><time>2026-05-02T14:44:41Z</time></trkpt><trkpt lat="43.52156101632061" lon="13.590596917705112"><ele>154.0</ele><time>2026-05-02T14:44:42Z</time></trkpt><trkpt lat="43.52149154371084" lon="13.590601397227369"><ele>154.0</ele><time>2026-05-02T14:44:43Z</time></trkpt><trkpt lat="43.52141436391392" lon="13.59059467285778"><ele>154.0</ele><time>2026-05-02T14:44:44Z</time></trkpt><trkpt lat="43.521294107854494" lon="13.59058214452855"><ele>150.16666666666669</ele><time>2026-05-02T14:44:46Z</time></trkpt><trkpt lat="43.52117617297146" lon="13.590588882219446"><ele>146.33333333333334</ele><time>2026-05-02T14:44:48Z</time></trkpt><trkpt lat="43.52111050556509" lon="13.590630761531344"><ele>142.5</ele><time>2026-05-02T14:44:49Z</time></trkpt><trkpt lat="43.52100356953677" lon="13.590678696261579"><ele>138.66666666666666</ele><time>2026-05-02T14:44:51Z</time></trkpt><trkpt lat="43.52095429195268" lon="13.590736902942561"><ele>134.83333333333331</ele><time>2026-05-02T14:44:52Z</time></trkpt><trkpt lat="43.520897016429444" lon="13.59078166078719"><ele>131.0</ele><time>2026-05-02T14:44:53Z</time></trkpt><trkpt lat="43.520841127930495" lon="13.590842945924841"><ele>131.0</ele><time>2026-05-02T14:44:54Z</time></trkpt><trkpt lat="43.52075736445458" lon="13.590914020033138"><ele>131.0</ele><time>2026-05-02T14:44:55Z</time></trkpt><trkpt lat="43.52064152660485" lon="13.591079409352556"><ele>131.0</ele><time>2026-05-02T14:44:57Z</time></trkpt><trkpt lat="43.52058798196923" lon="13.59115319980185"><ele>131.0</ele><time>2026-05-02T14:44:58Z</time></trkpt><trkpt lat="43.52053717354727" lon="13.591240073542126"><ele>131.0</ele><time>2026-05-02T14:44:59Z</time></trkpt><trkpt lat="43.5204809037313" lon="13.591325679892499"><ele>130.16666666666666</ele><time>2026-05-02T14:45:00Z</time></trkpt><trkpt lat="43.52042563252303" lon="13.591400407245755"><ele>129.33333333333331</ele><time>2026-05-02T14:45:01Z</time></trkpt><trkpt lat="43.520378017836116" lon="13.591486576742799"><ele>128.5</ele><time>2026-05-02T14:45:02Z</time></trkpt><trkpt lat="43.52032145882515" lon="13.591565146405273"><ele>127.66666666666666</ele><time>2026-05-02T14:45:03Z</time></trkpt><trkpt lat="43.52026500410261" lon="13.591636783605825"><ele>126.83333333333333</ele><time>2026-05-02T14:45:04Z</time></trkpt><trkpt lat="43.52015454130846" lon="13.591724796457603"><ele>126.0</ele><time>2026-05-02T14:45:06Z</time></trkpt><trkpt lat="43.52002097767364" lon="13.591750488465477"><ele>126.0</ele><time>2026-05-02T14:45:08Z</time></trkpt><trkpt lat="43.51991351515987" lon="13.591765263434704"><ele>126.0</ele><time>2026-05-02T14:45:10Z</time></trkpt><trkpt lat="43.519837975098504" lon="13.591826732421811"><ele>126.0</ele><time>2026-05-02T14:45:12Z</time></trkpt><trkpt lat="43.51977908962935" lon="13.59191689880983"><ele>126.0</ele><time>2026-05-02T14:45:14Z</time></trkpt><trkpt lat="43.5197270133365" lon="13.591977433699116"><ele>126.0</ele><time>2026-05-02T14:45:16Z</time></trkpt><trkpt lat="43.51967816607091" lon="13.592076436623897"><ele>126.0</ele><time>2026-05-02T14:45:19Z</time></trkpt><trkpt lat="43.519619073757475" lon="13.592124259282173"><ele>126.0</ele><time>2026-05-02T14:45:21Z</time></trkpt><trkpt lat="43.51957501302975" lon="13.592202071206533"><ele>126.0</ele><time>2026-05-02T14:45:23Z</time></trkpt><trkpt lat="43.519506254104506" lon="13.592273559577054"><ele>126.0</ele><time>2026-05-02T14:45:25Z</time></trkpt><trkpt lat="43.51941487050842" lon="13.592382702267694"><ele>126.0</ele><time>2026-05-02T14:45:26.999Z</time></trkpt><trkpt lat="43.51932033212566" lon="13.592491729822171"><ele>126.0</ele><time>2026-05-02T14:45:28.999Z</time></trkpt><trkpt lat="43.51924889403043" lon="13.592605250592376"><ele>126.0</ele><time>2026-05-02T14:45:30.999Z</time></trkpt><trkpt lat="43.51919921261553" lon="13.592703580149374"><ele>126.0</ele><time>2026-05-02T14:45:33.999Z</time></trkpt><trkpt lat="43.51913920956415" lon="13.592778037141956"><ele>126.0</ele><time>2026-05-02T14:45:35.999Z</time></trkpt><trkpt lat="43.51908449699522" lon="13.592863950934976"><ele>126.0</ele><time>2026-05-02T14:45:37.999Z</time></trkpt><trkpt lat="43.519025338025166" lon="13.592956141380624"><ele>126.0</ele><time>2026-05-02T14:45:39.999Z</time></trkpt><trkpt lat="43.518983613886405" lon="13.593055296499571"><ele>126.0</ele><time>2026-05-02T14:45:41.999Z</time></trkpt><trkpt lat="43.51891907276867" lon="13.59315248657814"><ele>125.5</ele><time>2026-05-02T14:45:43.999Z</time></trkpt><trkpt lat="43.518863642087815" lon="13.593239304835484"><ele>125.0</ele><time>2026-05-02T14:45:45.999Z</time></trkpt><trkpt lat="43.51880472818809" lon="13.593336194006847"><ele>124.5</ele><time>2026-05-02T14:45:47.999Z</time></trkpt><trkpt lat="43.51874770479223" lon="13.593422183827194"><ele>124.0</ele><time>2026-05-02T14:45:49.999Z</time></trkpt><trkpt lat="43.51868245423545" lon="13.593508347441093"><ele>123.5</ele><time>2026-05-02T14:45:51.999Z</time></trkpt><trkpt lat="43.51863324892908" lon="13.593595558470145"><ele>123.0</ele><time>2026-05-02T14:45:53.999Z</time></trkpt><trkpt lat="43.518573937206945" lon="13.59370181710308"><ele>124.0</ele><time>2026-05-02T14:45:55.999Z</time></trkpt><trkpt lat="43.51851899801203" lon="13.59382447926143"><ele>125.0</ele><time>2026-05-02T14:45:57.999Z</time></trkpt><trkpt lat="43.51843677840047" lon="13.59395819192601"><ele>126.0</ele><time>2026-05-02T14:45:59.999Z</time></trkpt><trkpt lat="43.51839566656876" lon="13.59403198890279"><ele>127.0</ele><time>2026-05-02T14:46:00.999Z</time></trkpt><trkpt lat="43.51835367800267" lon="13.59411159747332"><ele>128.0</ele><time>2026-05-02T14:46:01.999Z</time></trkpt><trkpt lat="43.51828846326287" lon="13.594164951869857"><ele>129.0</ele><time>2026-05-02T14:46:02.999Z</time></trkpt><trkpt lat="43.51823634797636" lon="13.59421689375751"><ele>129.0</ele><time>2026-05-02T14:46:03.999Z</time></trkpt><trkpt lat="43.51813351052462" lon="13.594295029132228"><ele>129.0</ele><time>2026-05-02T14:46:05.999Z</time></trkpt><trkpt lat="43.518081006299305" lon="13.594353283510081"><ele>129.0</ele><time>2026-05-02T14:46:06.999Z</time></trkpt><trkpt lat="43.51801352351126" lon="13.594382109920998"><ele>129.0</ele><time>2026-05-02T14:46:07.999Z</time></trkpt><trkpt lat="43.5179136463224" lon="13.594453180233755"><ele>129.0</ele><time>2026-05-02T14:46:09.999Z</time></trkpt><trkpt lat="43.5178591493585" lon="13.594515257743492"><ele>129.0</ele><time>2026-05-02T14:46:10.999Z</time></trkpt><trkpt lat="43.51779547237022" lon="13.594512879612424"><ele>128.0</ele><time>2026-05-02T14:46:11.999Z</time></trkpt><trkpt lat="43.51773121540457" lon="13.59450181208619"><ele>127.0</ele><time>2026-05-02T14:46:12.999Z</time></trkpt><trkpt lat="43.51765990665164" lon="13.594496474440467"><ele>126.0</ele><time>2026-05-02T14:46:13.999Z</time></trkpt><trkpt lat="43.517534619979735" lon="13.59451985171454"><ele>125.0</ele><time>2026-05-02T14:46:15.999Z</time></trkpt><trkpt lat="43.51747971840206" lon="13.59460802823281"><ele>124.0</ele><time>2026-05-02T14:46:16.999Z</time></trkpt><trkpt lat="43.51743201410585" lon="13.59468589426912"><ele>123.0</ele><time>2026-05-02T14:46:17.999Z</time></trkpt><trkpt lat="43.517304462744576" lon="13.59478667866131"><ele>123.0</ele><time>2026-05-02T14:46:19.999Z</time></trkpt><trkpt lat="43.51724385114355" lon="13.594850612256526"><ele>123.0</ele><time>2026-05-02T14:46:22.999Z</time></trkpt><trkpt lat="43.517257613897534" lon="13.594967679595895"><ele>123.0</ele><time>2026-05-02T14:46:26.998Z</time></trkpt><trkpt lat="43.517219321624005" lon="13.595092646408926"><ele>123.0</ele><time>2026-05-02T14:46:29.998Z</time></trkpt><trkpt lat="43.51719077105169" lon="13.5951826127018"><ele>123.0</ele><time>2026-05-02T14:46:31.998Z</time></trkpt><trkpt lat="43.51714894450657" lon="13.595274136763857"><ele>123.0</ele><time>2026-05-02T14:46:33.998Z</time></trkpt><trkpt lat="43.51713554360042" lon="13.595372880670395"><ele>123.33333333333333</ele><time>2026-05-02T14:46:35.998Z</time></trkpt><trkpt lat="43.51714404483294" lon="13.595479993684533"><ele>123.66666666666666</ele><time>2026-05-02T14:46:37.998Z</time></trkpt><trkpt lat="43.51714775690728" lon="13.595586710587833"><ele>124.0</ele><time>2026-05-02T14:46:39.998Z</time></trkpt><trkpt lat="43.51715147165169" lon="13.59569538178394"><ele>124.33333333333333</ele><time>2026-05-02T14:46:41.998Z</time></trkpt><trkpt lat="43.517136915552136" lon="13.595795268837076"><ele>124.66666666666666</ele><time>2026-05-02T14:46:43.998Z</time></trkpt><trkpt lat="43.51714674371028" lon="13.595898617323416"><ele>125.0</ele><time>2026-05-02T14:46:46Z</time></trkpt><trkpt lat="43.517143582864996" lon="13.59600215595244"><ele>124.99999999999999</ele><time>2026-05-02T14:46:48Z</time></trkpt><trkpt lat="43.517142871629225" lon="13.596102977515109"><ele>125.0</ele><time>2026-05-02T14:46:50Z</time></trkpt><trkpt lat="43.517141129422335" lon="13.596197640026507"><ele>125.0</ele><time>2026-05-02T14:46:52Z</time></trkpt><trkpt lat="43.517138052039996" lon="13.596290578873655"><ele>125.0</ele><time>2026-05-02T14:46:54Z</time></trkpt><trkpt lat="43.517132122482366" lon="13.596393962773844"><ele>124.99999999999999</ele><time>2026-05-02T14:46:56Z</time></trkpt><trkpt lat="43.51712610704013" lon="13.59649582183863"><ele>125.0</ele><time>2026-05-02T14:46:58Z</time></trkpt><trkpt lat="43.517115588938005" lon="13.596635288128969"><ele>124.83333333333333</ele><time>2026-05-02T14:47:01Z</time></trkpt><trkpt lat="43.517094211608786" lon="13.596720106924916"><ele>124.66666666666666</ele><time>2026-05-02T14:47:03Z</time></trkpt><trkpt lat="43.51710337492171" lon="13.596820473141085"><ele>124.5</ele><time>2026-05-02T14:47:05Z</time></trkpt><trkpt lat="43.51707908756425" lon="13.596928193773005"><ele>124.33333333333334</ele><time>2026-05-02T14:47:07Z</time></trkpt><trkpt lat="43.51708329967851" lon="13.597062723092648"><ele>124.16666666666667</ele><time>2026-05-02T14:47:09Z</time></trkpt><trkpt lat="43.51707059385226" lon="13.597217211163768"><ele>124.0</ele><time>2026-05-02T14:47:11Z</time></trkpt><trkpt lat="43.51706403131016" lon="13.597305213719244"><ele>122.83333333333334</ele><time>2026-05-02T14:47:12Z</time></trkpt><trkpt lat="43.51705057197558" lon="13.59739058027604"><ele>121.66666666666667</ele><time>2026-05-02T14:47:13Z</time></trkpt><trkpt lat="43.5170446573974" lon="13.597479272909318"><ele>120.5</ele><time>2026-05-02T14:47:14Z</time></trkpt><trkpt lat="43.51704493771402" lon="13.597645878332681"><ele>119.33333333333334</ele><time>2026-05-02T14:47:16Z</time></trkpt><trkpt lat="43.51703840388143" lon="13.597737074458623"><ele>118.16666666666667</ele><time>2026-05-02T14:47:17Z</time></trkpt><trkpt lat="43.51701506784402" lon="13.59791169026135"><ele>117.0</ele><time>2026-05-02T14:47:19Z</time></trkpt><trkpt lat="43.5169997167957" lon="13.598004984304637"><ele>116.5</ele><time>2026-05-02T14:47:20Z</time></trkpt><trkpt lat="43.51697875883964" lon="13.598097141279181"><ele>116.0</ele><time>2026-05-02T14:47:21Z</time></trkpt><trkpt lat="43.51696136303095" lon="13.598184051370795"><ele>115.5</ele><time>2026-05-02T14:47:22Z</time></trkpt><trkpt lat="43.51692956221136" lon="13.59826678500917"><ele>115.0</ele><time>2026-05-02T14:47:23Z</time></trkpt><trkpt lat="43.51690891705158" lon="13.598358926773255"><ele>114.5</ele><time>2026-05-02T14:47:24Z</time></trkpt><trkpt lat="43.51688219803668" lon="13.598528066466134"><ele>114.0</ele><time>2026-05-02T14:47:26Z</time></trkpt><trkpt lat="43.51684876522844" lon="13.59863868188843"><ele>114.0</ele><time>2026-05-02T14:47:27Z</time></trkpt><trkpt lat="43.516824785755446" lon="13.598725772638028"><ele>113.99999999999999</ele><time>2026-05-02T14:47:28Z</time></trkpt><trkpt lat="43.51679477744345" lon="13.59881602164335"><ele>114.0</ele><time>2026-05-02T14:47:29Z</time></trkpt><trkpt lat="43.51676956325828" lon="13.598919891198108"><ele>114.0</ele><time>2026-05-02T14:47:30Z</time></trkpt><trkpt lat="43.51674534869072" lon="13.599019385090548"><ele>113.99999999999999</ele><time>2026-05-02T14:47:30.999Z</time></trkpt><trkpt lat="43.516720639879374" lon="13.599115465385065"><ele>114.0</ele><time>2026-05-02T14:47:31.999Z</time></trkpt><trkpt lat="43.5166979847775" lon="13.599196631512099"><ele>114.0</ele><time>2026-05-02T14:47:32.999Z</time></trkpt><trkpt lat="43.51666638552506" lon="13.599313609650737"><ele>114.0</ele><time>2026-05-02T14:47:34.999Z</time></trkpt><trkpt lat="43.516596279309624" lon="13.599427686866106"><ele>114.0</ele><time>2026-05-02T14:47:36.999Z</time></trkpt><trkpt lat="43.51655388679192" lon="13.599496679563286"><ele>114.0</ele><time>2026-05-02T14:47:37.999Z</time></trkpt><trkpt lat="43.51650214472947" lon="13.599564048168908"><ele>114.0</ele><time>2026-05-02T14:47:38.999Z</time></trkpt><trkpt lat="43.516426255586175" lon="13.59961534800386"><ele>114.0</ele><time>2026-05-02T14:47:39.999Z</time></trkpt><trkpt lat="43.51636196519696" lon="13.599677012447744"><ele>114.0</ele><time>2026-05-02T14:47:40.999Z</time></trkpt><trkpt lat="43.516287985579375" lon="13.599747013880476"><ele>112.0</ele><time>2026-05-02T14:47:41.999Z</time></trkpt><trkpt lat="43.516212344644316" lon="13.599817008351849"><ele>110.0</ele><time>2026-05-02T14:47:42.999Z</time></trkpt><trkpt lat="43.516132716511756" lon="13.599892014165771"><ele>108.0</ele><time>2026-05-02T14:47:43.999Z</time></trkpt><trkpt lat="43.51606641957568" lon="13.59999373151823"><ele>106.0</ele><time>2026-05-02T14:47:44.999Z</time></trkpt><trkpt lat="43.51598753888757" lon="13.600074514570624"><ele>104.0</ele><time>2026-05-02T14:47:45.999Z</time></trkpt><trkpt lat="43.51593683616896" lon="13.600152312666891"><ele>103.99999999999999</ele><time>2026-05-02T14:47:46.999Z</time></trkpt><trkpt lat="43.51588756947721" lon="13.600251915733544"><ele>104.0</ele><time>2026-05-02T14:47:47.999Z</time></trkpt><trkpt lat="43.5158527999453" lon="13.600354720310344"><ele>104.0</ele><time>2026-05-02T14:47:48.999Z</time></trkpt><trkpt lat="43.5158439101177" lon="13.600477017835729"><ele>104.0</ele><time>2026-05-02T14:47:49.999Z</time></trkpt><trkpt lat="43.5158531628239" lon="13.60058799759748"><ele>103.99999999999999</ele><time>2026-05-02T14:47:50.999Z</time></trkpt><trkpt lat="43.51587771501488" lon="13.600688431687152"><ele>104.0</ele><time>2026-05-02T14:47:51.999Z</time></trkpt><trkpt lat="43.51591122286703" lon="13.600779749334485"><ele>103.6</ele><time>2026-05-02T14:47:52.999Z</time></trkpt><trkpt lat="43.515941189222445" lon="13.60086908971101"><ele>103.2</ele><time>2026-05-02T14:47:53.999Z</time></trkpt><trkpt lat="43.51597137846998" lon="13.6009607391893"><ele>102.8</ele><time>2026-05-02T14:47:54.999Z</time></trkpt><trkpt lat="43.51603004821141" lon="13.601116028413093"><ele>102.39999999999999</ele><time>2026-05-02T14:47:56.999Z</time></trkpt><trkpt lat="43.516060040144815" lon="13.601195332410073"><ele>102.0</ele><time>2026-05-02T14:47:57.999Z</time></trkpt><trkpt lat="43.516117875589785" lon="13.601343659006627"><ele>101.16666666666667</ele><time>2026-05-02T14:47:59.999Z</time></trkpt><trkpt lat="43.51616763090789" lon="13.601488898668967"><ele>100.33333333333334</ele><time>2026-05-02T14:48:01.999Z</time></trkpt><trkpt lat="43.51620981971076" lon="13.601647610652156"><ele>99.5</ele><time>2026-05-02T14:48:03.999Z</time></trkpt><trkpt lat="43.51625164956825" lon="13.601720349147454"><ele>98.66666666666667</ele><time>2026-05-02T14:48:04.999Z</time></trkpt><trkpt lat="43.516268294895575" lon="13.601808257907704"><ele>97.83333333333334</ele><time>2026-05-02T14:48:05.999Z</time></trkpt><trkpt lat="43.51630289815372" lon="13.601895767703626"><ele>97.0</ele><time>2026-05-02T14:48:06.999Z</time></trkpt><trkpt lat="43.5163282614712" lon="13.601985906500882"><ele>98.14285714285714</ele><time>2026-05-02T14:48:07.999Z</time></trkpt><trkpt lat="43.516346962729344" lon="13.602085347091212"><ele>99.28571428571429</ele><time>2026-05-02T14:48:08.999Z</time></trkpt><trkpt lat="43.51635176408594" lon="13.602191039869854"><ele>100.42857142857143</ele><time>2026-05-02T14:48:09.999Z</time></trkpt><trkpt lat="43.51637944358707" lon="13.602284265004041"><ele>101.57142857142857</ele><time>2026-05-02T14:48:10.999Z</time></trkpt><trkpt lat="43.51639490875118" lon="13.602382632764275"><ele>102.71428571428572</ele><time>2026-05-02T14:48:11.999Z</time></trkpt><trkpt lat="43.51641105943269" lon="13.602470204188636"><ele>103.85714285714286</ele><time>2026-05-02T14:48:12.999Z</time></trkpt><trkpt lat="43.51643504663287" lon="13.602562550765757"><ele>105.0</ele><time>2026-05-02T14:48:13.999Z</time></trkpt><trkpt lat="43.51645624172897" lon="13.602658278726102"><ele>105.0</ele><time>2026-05-02T14:48:14.999Z</time></trkpt><trkpt lat="43.51648172327961" lon="13.602751122612618"><ele>105.0</ele><time>2026-05-02T14:48:15.999Z</time></trkpt><trkpt lat="43.51651296794209" lon="13.602844084540846"><ele>105.0</ele><time>2026-05-02T14:48:16.999Z</time></trkpt><trkpt lat="43.51654500131657" lon="13.60294208024086"><ele>105.0</ele><time>2026-05-02T14:48:17.999Z</time></trkpt><trkpt lat="43.51656618442486" lon="13.603042175914663"><ele>105.0</ele><time>2026-05-02T14:48:18.999Z</time></trkpt><trkpt lat="43.51658951269876" lon="13.603138439793948"><ele>105.0</ele><time>2026-05-02T14:48:19.999Z</time></trkpt><trkpt lat="43.516613610339334" lon="13.60323723364197"><ele>105.0</ele><time>2026-05-02T14:48:20.999Z</time></trkpt><trkpt lat="43.51663102037672" lon="13.603340460264294"><ele>104.33333333333333</ele><time>2026-05-02T14:48:21.999Z</time></trkpt><trkpt lat="43.51664713262301" lon="13.603442982650275"><ele>103.66666666666666</ele><time>2026-05-02T14:48:22.999Z</time></trkpt><trkpt lat="43.51666756124166" lon="13.603544518140774"><ele>103.0</ele><time>2026-05-02T14:48:23.999Z</time></trkpt><trkpt lat="43.51666086469656" lon="13.603653216366165"><ele>102.33333333333333</ele><time>2026-05-02T14:48:24.999Z</time></trkpt><trkpt lat="43.51668190898846" lon="13.603755721749572"><ele>101.66666666666666</ele><time>2026-05-02T14:48:25.999Z</time></trkpt><trkpt lat="43.51667764537735" lon="13.603863761715951"><ele>101.0</ele><time>2026-05-02T14:48:26.999Z</time></trkpt><trkpt lat="43.5166851727283" lon="13.603958167877098"><ele>100.33333333333333</ele><time>2026-05-02T14:48:27.999Z</time></trkpt><trkpt lat="43.51669295221788" lon="13.604067788053033"><ele>99.66666666666666</ele><time>2026-05-02T14:48:28.999Z</time></trkpt><trkpt lat="43.51669803782908" lon="13.604174763121257"><ele>99.0</ele><time>2026-05-02T14:48:29.999Z</time></trkpt><trkpt lat="43.51668939050094" lon="13.604294900720593"><ele>98.33333333333334</ele><time>2026-05-02T14:48:30.999Z</time></trkpt><trkpt lat="43.51667275409369" lon="13.6044011727934"><ele>97.66666666666667</ele><time>2026-05-02T14:48:31.998Z</time></trkpt><trkpt lat="43.516662550411695" lon="13.604517261208866"><ele>97.0</ele><time>2026-05-02T14:48:32.998Z</time></trkpt><trkpt lat="43.516646533604764" lon="13.604626082328508"><ele>96.83333333333334</ele><time>2026-05-02T14:48:33.998Z</time></trkpt><trkpt lat="43.51663348350471" lon="13.604724685238738"><ele>96.66666666666667</ele><time>2026-05-02T14:48:34.998Z</time></trkpt><trkpt lat="43.516609861419624" lon="13.604835623516333"><ele>96.5</ele><time>2026-05-02T14:48:35.998Z</time></trkpt><trkpt lat="43.51658406121908" lon="13.604950456217829"><ele>96.33333333333334</ele><time>2026-05-02T14:48:36.998Z</time></trkpt><trkpt lat="43.51654987173112" lon="13.605078763623284"><ele>96.16666666666667</ele><time>2026-05-02T14:48:37.998Z</time></trkpt><trkpt lat="43.51651603669541" lon="13.605199231314456"><ele>96.0</ele><time>2026-05-02T14:48:38.998Z</time></trkpt><trkpt lat="43.51646634255511" lon="13.605311434096874"><ele>95.0</ele><time>2026-05-02T14:48:39.998Z</time></trkpt><trkpt lat="43.51642688350858" lon="13.605427673470851"><ele>94.0</ele><time>2026-05-02T14:48:40.998Z</time></trkpt><trkpt lat="43.516391433914" lon="13.60553979297595"><ele>93.0</ele><time>2026-05-02T14:48:41.998Z</time></trkpt><trkpt lat="43.51636411908829" lon="13.605655680685969"><ele>92.0</ele><time>2026-05-02T14:48:42.998Z</time></trkpt><trkpt lat="43.51632956818057" lon="13.60575085334077"><ele>91.0</ele><time>2026-05-02T14:48:43.998Z</time></trkpt><trkpt lat="43.51632106078423" lon="13.605863705168861"><ele>90.0</ele><time>2026-05-02T14:48:44.998Z</time></trkpt><trkpt lat="43.516336988197594" lon="13.605994727678649"><ele>90.0</ele><time>2026-05-02T14:48:45.998Z</time></trkpt><trkpt lat="43.51637374993515" lon="13.606107347345283"><ele>90.0</ele><time>2026-05-02T14:48:46.998Z</time></trkpt><trkpt lat="43.516399238117295" lon="13.606201137888425"><ele>90.0</ele><time>2026-05-02T14:48:47.998Z</time></trkpt><trkpt lat="43.51642397046362" lon="13.606323986453859"><ele>90.0</ele><time>2026-05-02T14:48:48.998Z</time></trkpt><trkpt lat="43.51645056137033" lon="13.606442705191123"><ele>90.0</ele><time>2026-05-02T14:48:49.998Z</time></trkpt><trkpt lat="43.51646269780543" lon="13.60655766083808"><ele>90.0</ele><time>2026-05-02T14:48:50.998Z</time></trkpt><trkpt lat="43.51647029261886" lon="13.606660164883253"><ele>88.83333333333333</ele><time>2026-05-02T14:48:52Z</time></trkpt><trkpt lat="43.51648385167716" lon="13.60676965082009"><ele>87.66666666666667</ele><time>2026-05-02T14:48:53Z</time></trkpt><trkpt lat="43.51649969117216" lon="13.606885896513642"><ele>86.5</ele><time>2026-05-02T14:48:54Z</time></trkpt><trkpt lat="43.5165102698858" lon="13.606981630309408"><ele>85.33333333333334</ele><time>2026-05-02T14:48:55Z</time></trkpt><trkpt lat="43.51653458727999" lon="13.60708985676854"><ele>84.16666666666667</ele><time>2026-05-02T14:48:56Z</time></trkpt><trkpt lat="43.51655459284389" lon="13.607184953617656"><ele>83.0</ele><time>2026-05-02T14:48:57Z</time></trkpt><trkpt lat="43.516562155169986" lon="13.607288005056912"><ele>82.4</ele><time>2026-05-02T14:48:58Z</time></trkpt><trkpt lat="43.516573966586215" lon="13.607377915857647"><ele>81.80000000000001</ele><time>2026-05-02T14:48:59Z</time></trkpt><trkpt lat="43.51658417581353" lon="13.607469695510122"><ele>81.2</ele><time>2026-05-02T14:49:00Z</time></trkpt><trkpt lat="43.51660560506931" lon="13.607640153069493"><ele>80.6</ele><time>2026-05-02T14:49:02Z</time></trkpt><trkpt lat="43.51665065486756" lon="13.6077738764898"><ele>80.0</ele><time>2026-05-02T14:49:04Z</time></trkpt><trkpt lat="43.516696567356206" lon="13.607909903610668"><ele>80.0</ele><time>2026-05-02T14:49:06Z</time></trkpt><trkpt lat="43.516746498238696" lon="13.608049193645579"><ele>80.0</ele><time>2026-05-02T14:49:08Z</time></trkpt><trkpt lat="43.5167860853008" lon="13.60812372245009"><ele>80.0</ele><time>2026-05-02T14:49:09Z</time></trkpt><trkpt lat="43.516815821056795" lon="13.608210574948023"><ele>80.0</ele><time>2026-05-02T14:49:10Z</time></trkpt><trkpt lat="43.51686212021541" lon="13.608281411917476"><ele>80.0</ele><time>2026-05-02T14:49:11Z</time></trkpt><trkpt lat="43.51690005118689" lon="13.608353016929723"><ele>80.0</ele><time>2026-05-02T14:49:12Z</time></trkpt><trkpt lat="43.51694298296785" lon="13.608424262684997"><ele>80.0</ele><time>2026-05-02T14:49:13Z</time></trkpt><trkpt lat="43.516997827280626" lon="13.608512689641618"><ele>80.0</ele><time>2026-05-02T14:49:14Z</time></trkpt><trkpt lat="43.517048906621724" lon="13.60859968599662"><ele>80.0</ele><time>2026-05-02T14:49:15Z</time></trkpt><trkpt lat="43.517090223888914" lon="13.608671129541673"><ele>80.0</ele><time>2026-05-02T14:49:16Z</time></trkpt><trkpt lat="43.51709983545284" lon="13.60877190574209"><ele>80.0</ele><time>2026-05-02T14:49:18Z</time></trkpt><trkpt lat="43.51699157614574" lon="13.60882506352893"><ele>80.0</ele><time>2026-05-02T14:49:20Z</time></trkpt><trkpt lat="43.516889648859305" lon="13.608836450025807"><ele>79.25</ele><time>2026-05-02T14:49:22Z</time></trkpt><trkpt lat="43.51678355420112" lon="13.608849594936773"><ele>78.5</ele><time>2026-05-02T14:49:24Z</time></trkpt><trkpt lat="43.516670814006915" lon="13.60886351754963"><ele>77.75</ele><time>2026-05-02T14:49:26Z</time></trkpt><trkpt lat="43.5165447125716" lon="13.608876971083117"><ele>77.0</ele><time>2026-05-02T14:49:28Z</time></trkpt><trkpt lat="43.5164302835981" lon="13.60888031886487"><ele>77.0</ele><time>2026-05-02T14:49:30Z</time></trkpt><trkpt lat="43.516361594500395" lon="13.608875505878466"><ele>77.0</ele><time>2026-05-02T14:49:31Z</time></trkpt><trkpt lat="43.51624673995862" lon="13.60883000922103"><ele>77.0</ele><time>2026-05-02T14:49:33Z</time></trkpt><trkpt lat="43.51618641129028" lon="13.608798208796161"><ele>77.0</ele><time>2026-05-02T14:49:34Z</time></trkpt><trkpt lat="43.51607632304792" lon="13.608759905699268"><ele>77.0</ele><time>2026-05-02T14:49:36Z</time></trkpt><trkpt lat="43.516012898088015" lon="13.608714248635414"><ele>77.0</ele><time>2026-05-02T14:49:38Z</time></trkpt><trkpt lat="43.51593717399471" lon="13.608719700192205"><ele>76.83333333333334</ele><time>2026-05-02T14:49:41.999Z</time></trkpt><trkpt lat="43.51585817029748" lon="13.608667091821337"><ele>76.66666666666667</ele><time>2026-05-02T14:49:44.999Z</time></trkpt><trkpt lat="43.51579807801736" lon="13.608596202191299"><ele>76.5</ele><time>2026-05-02T14:49:46.999Z</time></trkpt><trkpt lat="43.515731362168346" lon="13.608515895601851"><ele>76.33333333333333</ele><time>2026-05-02T14:49:48.999Z</time></trkpt><trkpt lat="43.515652244741375" lon="13.60843919341161"><ele>76.16666666666666</ele><time>2026-05-02T14:49:50.999Z</time></trkpt><trkpt lat="43.515579109660024" lon="13.608355378181868"><ele>76.0</ele><time>2026-05-02T14:49:52.999Z</time></trkpt><trkpt lat="43.51550350664357" lon="13.608271651246692"><ele>75.83333333333333</ele><time>2026-05-02T14:49:54.999Z</time></trkpt><trkpt lat="43.51543335465726" lon="13.608186417993636"><ele>75.66666666666666</ele><time>2026-05-02T14:49:56.999Z</time></trkpt><trkpt lat="43.51536806848636" lon="13.608110604062965"><ele>75.5</ele><time>2026-05-02T14:49:58.999Z</time></trkpt><trkpt lat="43.51530027306658" lon="13.608025034186259"><ele>75.33333333333333</ele><time>2026-05-02T14:50:00.999Z</time></trkpt><trkpt lat="43.515287916818714" lon="13.6079216992253"><ele>75.16666666666667</ele><time>2026-05-02T14:50:02.999Z</time></trkpt><trkpt lat="43.515294178568865" lon="13.608032602577184"><ele>75.0</ele><time>2026-05-02T14:50:09.999Z</time></trkpt><trkpt lat="43.51534338668364" lon="13.608088370342271"><ele>74.99999999999999</ele><time>2026-05-02T14:50:11.999Z</time></trkpt><trkpt lat="43.51539923967773" lon="13.608151669091386"><ele>75.0</ele><time>2026-05-02T14:50:13.999Z</time></trkpt><trkpt lat="43.51545357011642" lon="13.608213242547269"><ele>75.0</ele><time>2026-05-02T14:50:15.999Z</time></trkpt><trkpt lat="43.515507012261295" lon="13.60827380905034"><ele>75.0</ele><time>2026-05-02T14:50:17.999Z</time></trkpt><trkpt lat="43.515557296732744" lon="13.608330797176846"><ele>75.0</ele><time>2026-05-02T14:50:19.999Z</time></trkpt><trkpt lat="43.515609435153934" lon="13.608391005610711"><ele>74.99999999999999</ele><time>2026-05-02T14:50:21.999Z</time></trkpt><trkpt lat="43.5156661943466" lon="13.60845659760785"><ele>75.0</ele><time>2026-05-02T14:50:23.999Z</time></trkpt><trkpt lat="43.51572383131896" lon="13.608523203721335"><ele>75.16666666666667</ele><time>2026-05-02T14:50:25.999Z</time></trkpt><trkpt lat="43.51578059229225" lon="13.608588797737314"><ele>75.33333333333333</ele><time>2026-05-02T14:50:27.999Z</time></trkpt><trkpt lat="43.51583680990534" lon="13.608653129959235"><ele>75.5</ele><time>2026-05-02T14:50:29.999Z</time></trkpt><trkpt lat="43.51589649828015" lon="13.608720633386078"><ele>75.66666666666666</ele><time>2026-05-02T14:50:31.999Z</time></trkpt><trkpt lat="43.515957939231754" lon="13.608790118506958"><ele>75.83333333333333</ele><time>2026-05-02T14:50:33.999Z</time></trkpt><trkpt lat="43.516027457446114" lon="13.608878449169493"><ele>76.0</ele><time>2026-05-02T14:50:35.999Z</time></trkpt><trkpt lat="43.51603243921498" lon="13.608970957577661"><ele>76.0</ele><time>2026-05-02T14:50:36.999Z</time></trkpt><trkpt lat="43.516107793120256" lon="13.609053620457425"><ele>76.0</ele><time>2026-05-02T14:50:38.999Z</time></trkpt><trkpt lat="43.5161867208093" lon="13.609148448654025"><ele>76.0</ele><time>2026-05-02T14:50:40.998Z</time></trkpt><trkpt lat="43.51625151560909" lon="13.609238073070228"><ele>76.0</ele><time>2026-05-02T14:50:42.998Z</time></trkpt><trkpt lat="43.51628877157246" lon="13.609331296770355"><ele>76.0</ele><time>2026-05-02T14:50:44.998Z</time></trkpt><trkpt lat="43.51635919343796" lon="13.609333793572292"><ele>76.0</ele><time>2026-05-02T14:50:49.998Z</time></trkpt><trkpt lat="43.5163105814574" lon="13.609254570058534"><ele>76.0</ele><time>2026-05-02T14:50:53.998Z</time></trkpt><trkpt lat="43.51624854476543" lon="13.609183413482157"><ele>76.0</ele><time>2026-05-02T14:50:55.998Z</time></trkpt><trkpt lat="43.51617376320465" lon="13.609097638250962"><ele>76.0</ele><time>2026-05-02T14:50:58Z</time></trkpt><trkpt lat="43.51610042089914" lon="13.609013513991076"><ele>76.0</ele><time>2026-05-02T14:51:00Z</time></trkpt><trkpt lat="43.51602527543735" lon="13.608927321051626"><ele>76.0</ele><time>2026-05-02T14:51:02Z</time></trkpt><trkpt lat="43.515940281330344" lon="13.608829831851795"><ele>76.0</ele><time>2026-05-02T14:51:04Z</time></trkpt><trkpt lat="43.51586697369039" lon="13.608745746988097"><ele>76.0</ele><time>2026-05-02T14:51:06Z</time></trkpt><trkpt lat="43.51584366860504" lon="13.608639844579363"><ele>76.0</ele><time>2026-05-02T14:51:07Z</time></trkpt><trkpt lat="43.51572916849798" lon="13.608577296493408"><ele>76.0</ele><time>2026-05-02T14:51:10Z</time></trkpt><trkpt lat="43.515732061052006" lon="13.608681955798644"><ele>76.0</ele><time>2026-05-02T14:51:12Z</time></trkpt><trkpt lat="43.51568893132591" lon="13.60877970709489"><ele>76.0</ele><time>2026-05-02T14:51:30Z</time></trkpt><trkpt lat="43.51563839769431" lon="13.60888214008865"><ele>76.0</ele><time>2026-05-02T14:51:33Z</time></trkpt><trkpt lat="43.51558400617166" lon="13.60895825336656"><ele>76.0</ele><time>2026-05-02T14:51:35Z</time></trkpt><trkpt lat="43.515529813181566" lon="13.609036567953595"><ele>76.0</ele><time>2026-05-02T14:51:37Z</time></trkpt><trkpt lat="43.51550118831919" lon="13.6091381604757"><ele>76.0</ele><time>2026-05-02T14:51:39Z</time></trkpt><trkpt lat="43.51546148401649" lon="13.60925431255196"><ele>76.0</ele><time>2026-05-02T14:51:41Z</time></trkpt><trkpt lat="43.515444122218504" lon="13.609370698722831"><ele>76.0</ele><time>2026-05-02T14:51:43Z</time></trkpt><trkpt lat="43.515430804263325" lon="13.609490694923059"><ele>76.0</ele><time>2026-05-02T14:51:44.999Z</time></trkpt><trkpt lat="43.515412571783855" lon="13.609627696415199"><ele>76.0</ele><time>2026-05-02T14:51:46.999Z</time></trkpt><trkpt lat="43.515367527953636" lon="13.609770249142944"><ele>76.0</ele><time>2026-05-02T14:51:48.999Z</time></trkpt><trkpt lat="43.51534401520647" lon="13.609923474906857"><ele>76.0</ele><time>2026-05-02T14:51:50.999Z</time></trkpt><trkpt lat="43.515317854321594" lon="13.610080172343459"><ele>75.5</ele><time>2026-05-02T14:51:52.999Z</time></trkpt><trkpt lat="43.51528328227025" lon="13.61023369746067"><ele>75.0</ele><time>2026-05-02T14:51:54.999Z</time></trkpt><trkpt lat="43.51526067213893" lon="13.610315574563206"><ele>74.5</ele><time>2026-05-02T14:51:55.999Z</time></trkpt><trkpt lat="43.51523497651396" lon="13.610403728127434"><ele>74.0</ele><time>2026-05-02T14:51:56.999Z</time></trkpt><trkpt lat="43.51520467863165" lon="13.61049878565004"><ele>73.5</ele><time>2026-05-02T14:51:57.999Z</time></trkpt><trkpt lat="43.515172311148795" lon="13.61058317298388"><ele>73.0</ele><time>2026-05-02T14:51:58.999Z</time></trkpt><trkpt lat="43.51513889440393" lon="13.610659835996849"><ele>71.6</ele><time>2026-05-02T14:51:59.999Z</time></trkpt><trkpt lat="43.51506436844918" lon="13.610781787698825"><ele>70.19999999999999</ele><time>2026-05-02T14:52:01.999Z</time></trkpt><trkpt lat="43.51499161980688" lon="13.610854677755118"><ele>68.8</ele><time>2026-05-02T14:52:03.999Z</time></trkpt><trkpt lat="43.514900808107946" lon="13.610947319976116"><ele>67.39999999999999</ele><time>2026-05-02T14:52:05.999Z</time></trkpt><trkpt lat="43.5148512077743" lon="13.61101682827794"><ele>66.0</ele><time>2026-05-02T14:52:06.999Z</time></trkpt><trkpt lat="43.51481544043851" lon="13.611118960718168"><ele>64.85714285714286</ele><time>2026-05-02T14:52:07.999Z</time></trkpt><trkpt lat="43.51480138312395" lon="13.611227547747895"><ele>63.71428571428572</ele><time>2026-05-02T14:52:08.999Z</time></trkpt><trkpt lat="43.51480075430691" lon="13.611319002627095"><ele>62.57142857142858</ele><time>2026-05-02T14:52:09.999Z</time></trkpt><trkpt lat="43.51477959336734" lon="13.611415218646995"><ele>61.42857142857143</ele><time>2026-05-02T14:52:10.999Z</time></trkpt><trkpt lat="43.51480312940652" lon="13.61150312907127"><ele>60.28571428571429</ele><time>2026-05-02T14:52:12.999Z</time></trkpt><trkpt lat="43.514811476829145" lon="13.611398556632496"><ele>59.14285714285715</ele><time>2026-05-02T14:52:37.999Z</time></trkpt><trkpt lat="43.51476172878603" lon="13.611330576376984"><ele>58.00000000000001</ele><time>2026-05-02T14:52:41.999Z</time></trkpt><trkpt lat="43.51467832490878" lon="13.611370740339055"><ele>58.0</ele><time>2026-05-02T14:52:44.998Z</time></trkpt><trkpt lat="43.514797004601476" lon="13.611397941421396"><ele>58.0</ele><time>2026-05-02T14:52:45.998Z</time></trkpt><trkpt lat="43.51461320117387" lon="13.611389981579933"><ele>58.0</ele><time>2026-05-02T14:52:46.998Z</time></trkpt><trkpt lat="43.51451600130249" lon="13.611412492444394"><ele>58.0</ele><time>2026-05-02T14:52:48.998Z</time></trkpt><trkpt lat="43.51443831450329" lon="13.611446459406595"><ele>58.33333333333333</ele><time>2026-05-02T14:52:50.998Z</time></trkpt><trkpt lat="43.51436663164261" lon="13.611484376879273"><ele>58.666666666666664</ele><time>2026-05-02T14:52:52.998Z</time></trkpt><trkpt lat="43.514295268072935" lon="13.611537192589942"><ele>59.0</ele><time>2026-05-02T14:52:54.998Z</time></trkpt><trkpt lat="43.51420217977847" lon="13.611575185208451"><ele>59.33333333333333</ele><time>2026-05-02T14:52:56.998Z</time></trkpt><trkpt lat="43.51413251249048" lon="13.611623684463549"><ele>59.666666666666664</ele><time>2026-05-02T14:52:58.998Z</time></trkpt><trkpt lat="43.51405119299677" lon="13.611660802748847"><ele>60.0</ele><time>2026-05-02T14:53:00.998Z</time></trkpt><trkpt lat="43.51397687942196" lon="13.611690106661674"><ele>60.0</ele><time>2026-05-02T14:53:02.998Z</time></trkpt><trkpt lat="43.513892778127286" lon="13.611670283534778"><ele>60.0</ele><time>2026-05-02T14:53:05Z</time></trkpt><trkpt lat="43.513797775617164" lon="13.61170128452735"><ele>60.0</ele><time>2026-05-02T14:53:07Z</time></trkpt><trkpt lat="43.51369783599406" lon="13.61176447107699"><ele>60.0</ele><time>2026-05-02T14:53:09Z</time></trkpt><trkpt lat="43.513614155963886" lon="13.611870958031652"><ele>60.0</ele><time>2026-05-02T14:53:11Z</time></trkpt><trkpt lat="43.513531280652735" lon="13.611963483554074"><ele>59.4</ele><time>2026-05-02T14:53:13Z</time></trkpt><trkpt lat="43.51344316551533" lon="13.612048069143171"><ele>58.8</ele><time>2026-05-02T14:53:15Z</time></trkpt><trkpt lat="43.513345878398574" lon="13.612142765471557"><ele>58.2</ele><time>2026-05-02T14:53:17Z</time></trkpt><trkpt lat="43.51325181171296" lon="13.612255728007547"><ele>57.6</ele><time>2026-05-02T14:53:19Z</time></trkpt><trkpt lat="43.513197856326705" lon="13.612301507627796"><ele>57.0</ele><time>2026-05-02T14:53:20Z</time></trkpt><trkpt lat="43.51310259524792" lon="13.612421925905839"><ele>57.0</ele><time>2026-05-02T14:53:22Z</time></trkpt><trkpt lat="43.513048648488635" lon="13.61249600237219"><ele>56.99999999999999</ele><time>2026-05-02T14:53:23Z</time></trkpt><trkpt lat="43.51299562994604" lon="13.612562083144873"><ele>57.0</ele><time>2026-05-02T14:53:24Z</time></trkpt><trkpt lat="43.51294579038069" lon="13.612633414361065"><ele>57.0</ele><time>2026-05-02T14:53:25Z</time></trkpt><trkpt lat="43.512900110243834" lon="13.612714084016625"><ele>56.99999999999999</ele><time>2026-05-02T14:53:26Z</time></trkpt><trkpt lat="43.51283949449015" lon="13.612780973221742"><ele>57.0</ele><time>2026-05-02T14:53:27Z</time></trkpt><trkpt lat="43.51279262417132" lon="13.612843470087842"><ele>57.0</ele><time>2026-05-02T14:53:28Z</time></trkpt><trkpt lat="43.51271046855507" lon="13.612872417660622"><ele>56.6</ele><time>2026-05-02T14:53:30Z</time></trkpt><trkpt lat="43.512620574272894" lon="13.612836408638724"><ele>56.2</ele><time>2026-05-02T14:53:32Z</time></trkpt><trkpt lat="43.512540430916786" lon="13.612729842438817"><ele>55.8</ele><time>2026-05-02T14:53:34Z</time></trkpt><trkpt lat="43.512468309952716" lon="13.612633065600217"><ele>55.4</ele><time>2026-05-02T14:53:36Z</time></trkpt><trkpt lat="43.512422212032945" lon="13.612531421487962"><ele>55.0</ele><time>2026-05-02T14:53:38Z</time></trkpt><trkpt lat="43.51235069724856" lon="13.61241164411269"><ele>55.0</ele><time>2026-05-02T14:53:40Z</time></trkpt><trkpt lat="43.5122690405959" lon="13.612308648231112"><ele>55.0</ele><time>2026-05-02T14:53:42Z</time></trkpt><trkpt lat="43.51219541952378" lon="13.612266755811545"><ele>55.0</ele><time>2026-05-02T14:53:43Z</time></trkpt><trkpt lat="43.51211626972296" lon="13.61223814187828"><ele>55.0</ele><time>2026-05-02T14:53:44Z</time></trkpt><trkpt lat="43.51202879846186" lon="13.61220991906653"><ele>55.0</ele><time>2026-05-02T14:53:45Z</time></trkpt><trkpt lat="43.51193674606318" lon="13.61218459742977"><ele>53.33333333333333</ele><time>2026-05-02T14:53:46Z</time></trkpt><trkpt lat="43.51183996268134" lon="13.612158439756897"><ele>51.666666666666664</ele><time>2026-05-02T14:53:47Z</time></trkpt><trkpt lat="43.51175040696252" lon="13.612131908461155"><ele>50.0</ele><time>2026-05-02T14:53:47.999Z</time></trkpt><trkpt lat="43.51165958392748" lon="13.61211240376325"><ele>48.33333333333333</ele><time>2026-05-02T14:53:48.999Z</time></trkpt><trkpt lat="43.51157775249454" lon="13.612084759571607"><ele>46.666666666666664</ele><time>2026-05-02T14:53:49.999Z</time></trkpt><trkpt lat="43.51150054291697" lon="13.612051798432319"><ele>45.0</ele><time>2026-05-02T14:53:50.999Z</time></trkpt><trkpt lat="43.51141908244186" lon="13.612020518706707"><ele>45.0</ele><time>2026-05-02T14:53:51.999Z</time></trkpt><trkpt lat="43.51134341322558" lon="13.611990984858979"><ele>45.0</ele><time>2026-05-02T14:53:52.999Z</time></trkpt><trkpt lat="43.511264765256804" lon="13.611969528145943"><ele>45.0</ele><time>2026-05-02T14:53:53.999Z</time></trkpt><trkpt lat="43.51119417089631" lon="13.611942880161902"><ele>45.0</ele><time>2026-05-02T14:53:54.999Z</time></trkpt><trkpt lat="43.51113086589454" lon="13.611925533500969"><ele>45.0</ele><time>2026-05-02T14:53:55.999Z</time></trkpt><trkpt lat="43.51106750651584" lon="13.611898729842562"><ele>45.0</ele><time>2026-05-02T14:53:56.999Z</time></trkpt><trkpt lat="43.51094988228083" lon="13.611863836672574"><ele>43.6</ele><time>2026-05-02T14:53:58.999Z</time></trkpt><trkpt lat="43.51088600382835" lon="13.611828125673503"><ele>42.2</ele><time>2026-05-02T14:54:00.999Z</time></trkpt><trkpt lat="43.51082981205648" lon="13.61162855318985"><ele>40.8</ele><time>2026-05-02T14:54:07.999Z</time></trkpt><trkpt lat="43.51082862545168" lon="13.61153645280717"><ele>39.4</ele><time>2026-05-02T14:54:09.999Z</time></trkpt><trkpt lat="43.51079959514209" lon="13.611614125952405"><ele>38.0</ele><time>2026-05-02T14:54:14.999Z</time></trkpt><trkpt lat="43.51086987470473" lon="13.611713794740108"><ele>38.0</ele><time>2026-05-02T14:54:16.999Z</time></trkpt><trkpt lat="43.51085526191563" lon="13.611821400078602"><ele>38.0</ele><time>2026-05-02T14:54:18.999Z</time></trkpt><trkpt lat="43.51080083232997" lon="13.611929806083026"><ele>38.0</ele><time>2026-05-02T14:54:20.999Z</time></trkpt><trkpt lat="43.51073933709878" lon="13.611952964284171"><ele>38.0</ele><time>2026-05-02T14:54:21.999Z</time></trkpt><trkpt lat="43.510679496250546" lon="13.612067180597807"><ele>38.0</ele><time>2026-05-02T14:54:23.999Z</time></trkpt><trkpt lat="43.51059435725499" lon="13.612165444452351"><ele>37.6</ele><time>2026-05-02T14:54:25.999Z</time></trkpt><trkpt lat="43.5105403187848" lon="13.612282352980746"><ele>37.199999999999996</ele><time>2026-05-02T14:54:27.999Z</time></trkpt><trkpt lat="43.510517586747696" lon="13.612424360224333"><ele>36.8</ele><time>2026-05-02T14:54:29.999Z</time></trkpt><trkpt lat="43.51052269164101" lon="13.612544032609915"><ele>36.4</ele><time>2026-05-02T14:54:31.999Z</time></trkpt><trkpt lat="43.510524931503674" lon="13.612639925316083"><ele>36.0</ele><time>2026-05-02T14:54:33.999Z</time></trkpt><trkpt lat="43.510528109168796" lon="13.612776643078908"><ele>35.8</ele><time>2026-05-02T14:54:36.999Z</time></trkpt><trkpt lat="43.510542956202876" lon="13.612917038037759"><ele>35.6</ele><time>2026-05-02T14:54:38.999Z</time></trkpt><trkpt lat="43.51054420627158" lon="13.613050003525574"><ele>35.4</ele><time>2026-05-02T14:54:40.999Z</time></trkpt><trkpt lat="43.51050858124727" lon="13.613221734531985"><ele>35.2</ele><time>2026-05-02T14:54:42.999Z</time></trkpt><trkpt lat="43.51044980399847" lon="13.613290321462692"><ele>35.0</ele><time>2026-05-02T14:54:43.999Z</time></trkpt><trkpt lat="43.510354974216554" lon="13.613385567735685"><ele>34.83333333333333</ele><time>2026-05-02T14:54:45.999Z</time></trkpt><trkpt lat="43.51029983547274" lon="13.613456854680546"><ele>34.666666666666664</ele><time>2026-05-02T14:54:46.999Z</time></trkpt><trkpt lat="43.510246604788215" lon="13.613523829927269"><ele>34.5</ele><time>2026-05-02T14:54:47.999Z</time></trkpt><trkpt lat="43.51018949489346" lon="13.613593143142166"><ele>34.333333333333336</ele><time>2026-05-02T14:54:48.999Z</time></trkpt><trkpt lat="43.510141693854244" lon="13.61367194613609"><ele>34.16666666666667</ele><time>2026-05-02T14:54:49.998Z</time></trkpt><trkpt lat="43.51006789343199" lon="13.613725458168483"><ele>34.0</ele><time>2026-05-02T14:54:50.998Z</time></trkpt><trkpt lat="43.50999710626203" lon="13.613821659222547"><ele>34.0</ele><time>2026-05-02T14:54:52.998Z</time></trkpt><trkpt lat="43.50993233970924" lon="13.613722318782674"><ele>34.0</ele><time>2026-05-02T14:54:56.998Z</time></trkpt><trkpt lat="43.50986699360547" lon="13.613643077064598"><ele>34.0</ele><time>2026-05-02T14:54:58.998Z</time></trkpt><trkpt lat="43.509795137978436" lon="13.61355789948397"><ele>34.0</ele><time>2026-05-02T14:55:00.998Z</time></trkpt><trkpt lat="43.5097310055632" lon="13.61348457717741"><ele>34.0</ele><time>2026-05-02T14:55:02.998Z</time></trkpt><trkpt lat="43.50965561820831" lon="13.613554361291587"><ele>33.8</ele><time>2026-05-02T14:55:03.998Z</time></trkpt><trkpt lat="43.509596882905186" lon="13.613657450210141"><ele>33.599999999999994</ele><time>2026-05-02T14:55:05.998Z</time></trkpt><trkpt lat="43.509527376645785" lon="13.61357443284383"><ele>33.4</ele><time>2026-05-02T14:55:07.998Z</time></trkpt><trkpt lat="43.50941576344771" lon="13.613690346111223"><ele>33.199999999999996</ele><time>2026-05-02T14:55:10Z</time></trkpt><trkpt lat="43.509346723333785" lon="13.613819030546965"><ele>33.0</ele><time>2026-05-02T14:55:12Z</time></trkpt><trkpt lat="43.509264229229174" lon="13.613943077001451"><ele>33.666666666666664</ele><time>2026-05-02T14:55:14Z</time></trkpt><trkpt lat="43.509203617943264" lon="13.6140691858849"><ele>34.333333333333336</ele><time>2026-05-02T14:55:16Z</time></trkpt><trkpt lat="43.509165646168505" lon="13.614171295341913"><ele>35.0</ele><time>2026-05-02T14:55:18Z</time></trkpt><trkpt lat="43.509132845602586" lon="13.614255558445022"><ele>35.66666666666667</ele><time>2026-05-02T14:55:20Z</time></trkpt><trkpt lat="43.50911570935603" lon="13.614356843470803"><ele>36.333333333333336</ele><time>2026-05-02T14:55:22Z</time></trkpt><trkpt lat="43.50912139726138" lon="13.6144713438632"><ele>37.0</ele><time>2026-05-02T14:55:24Z</time></trkpt><trkpt lat="43.509093376098505" lon="13.614564093954524"><ele>37.0</ele><time>2026-05-02T14:55:26Z</time></trkpt><trkpt lat="43.50907369272337" lon="13.614668121515876"><ele>37.0</ele><time>2026-05-02T14:55:28Z</time></trkpt><trkpt lat="43.5090544035887" lon="13.6147647509661"><ele>37.0</ele><time>2026-05-02T14:55:30Z</time></trkpt><trkpt lat="43.509041927870456" lon="13.61486856270237"><ele>37.0</ele><time>2026-05-02T14:55:32Z</time></trkpt><trkpt lat="43.50900282796059" lon="13.61496248524642"><ele>37.0</ele><time>2026-05-02T14:55:34Z</time></trkpt><trkpt lat="43.50897015180193" lon="13.615070022824186"><ele>37.0</ele><time>2026-05-02T14:55:36Z</time></trkpt><trkpt lat="43.50893430585825" lon="13.615170900505587"><ele>37.0</ele><time>2026-05-02T14:55:38Z</time></trkpt><trkpt lat="43.50889858722446" lon="13.615270514466951"><ele>37.0</ele><time>2026-05-02T14:55:40Z</time></trkpt><trkpt lat="43.508861772830656" lon="13.615376309434595"><ele>37.0</ele><time>2026-05-02T14:55:42Z</time></trkpt><trkpt lat="43.50880963153877" lon="13.615474411972915"><ele>37.0</ele><time>2026-05-02T14:55:44Z</time></trkpt><trkpt lat="43.50877114455211" lon="13.61559375242371"><ele>37.0</ele><time>2026-05-02T14:55:46Z</time></trkpt><trkpt lat="43.5087148614518" lon="13.615716122177869"><ele>37.2</ele><time>2026-05-02T14:55:48Z</time></trkpt><trkpt lat="43.50866102619034" lon="13.615842342991147"><ele>37.400000000000006</ele><time>2026-05-02T14:55:50Z</time></trkpt><trkpt lat="43.50861933450989" lon="13.615948846652048"><ele>37.599999999999994</ele><time>2026-05-02T14:55:51.999Z</time></trkpt><trkpt lat="43.508567679740906" lon="13.616051647351298"><ele>37.8</ele><time>2026-05-02T14:55:53.999Z</time></trkpt><trkpt lat="43.508525678104746" lon="13.616156155326367"><ele>38.0</ele><time>2026-05-02T14:55:55.999Z</time></trkpt><trkpt lat="43.5084816207202" lon="13.616261537841313"><ele>38.0</ele><time>2026-05-02T14:55:57.999Z</time></trkpt><trkpt lat="43.508436393634504" lon="13.616368108110928"><ele>38.0</ele><time>2026-05-02T14:55:59.999Z</time></trkpt><trkpt lat="43.50838224700607" lon="13.616493321435428"><ele>38.0</ele><time>2026-05-02T14:56:01.999Z</time></trkpt><trkpt lat="43.5083197542709" lon="13.616634833265081"><ele>38.0</ele><time>2026-05-02T14:56:03.999Z</time></trkpt><trkpt lat="43.50825782375509" lon="13.616757310784662"><ele>38.0</ele><time>2026-05-02T14:56:05.999Z</time></trkpt><trkpt lat="43.508195452586556" lon="13.61683985991443"><ele>38.0</ele><time>2026-05-02T14:56:07.999Z</time></trkpt><trkpt lat="43.508129103553095" lon="13.616910571575938"><ele>38.0</ele><time>2026-05-02T14:56:09.999Z</time></trkpt><trkpt lat="43.5080803392161" lon="13.616992838584231"><ele>38.0</ele><time>2026-05-02T14:56:11.999Z</time></trkpt><trkpt lat="43.508021584894934" lon="13.617057259430585"><ele>38.0</ele><time>2026-05-02T14:56:13.999Z</time></trkpt><trkpt lat="43.50795628212836" lon="13.617135378529337"><ele>38.0</ele><time>2026-05-02T14:56:16.999Z</time></trkpt><trkpt lat="43.507884895061586" lon="13.617176526748118"><ele>38.0</ele><time>2026-05-02T14:56:19.999Z</time></trkpt><trkpt lat="43.507827162324595" lon="13.617252692503204"><ele>39.166666666666664</ele><time>2026-05-02T14:56:22.999Z</time></trkpt><trkpt lat="43.50776179415259" lon="13.617303196417181"><ele>40.33333333333333</ele><time>2026-05-02T14:56:25.999Z</time></trkpt><trkpt lat="43.50768913990694" lon="13.617352026711032"><ele>41.5</ele><time>2026-05-02T14:56:28.999Z</time></trkpt><trkpt lat="43.50763195147736" lon="13.617398729619394"><ele>42.666666666666664</ele><time>2026-05-02T14:56:31.999Z</time></trkpt><trkpt lat="43.50755952119901" lon="13.61745256455564"><ele>43.833333333333336</ele><time>2026-05-02T14:56:34.999Z</time></trkpt><trkpt lat="43.507485503524016" lon="13.617503280207659"><ele>45.0</ele><time>2026-05-02T14:56:37.999Z</time></trkpt><trkpt lat="43.507405435726035" lon="13.617544553033095"><ele>45.0</ele><time>2026-05-02T14:56:40.999Z</time></trkpt><trkpt lat="43.50732482065067" lon="13.617564692774321"><ele>45.0</ele><time>2026-05-02T14:56:43.999Z</time></trkpt><trkpt lat="43.50726093477948" lon="13.617482069825668"><ele>45.0</ele><time>2026-05-02T14:56:46.999Z</time></trkpt><trkpt lat="43.50721357059506" lon="13.617398048801212"><ele>45.0</ele><time>2026-05-02T14:56:50.999Z</time></trkpt><trkpt lat="43.50715938955435" lon="13.6173451955776"><ele>45.0</ele><time>2026-05-02T14:56:53.998Z</time></trkpt><trkpt lat="43.507089101996904" lon="13.617333330371544"><ele>45.0</ele><time>2026-05-02T14:56:56.998Z</time></trkpt><trkpt lat="43.507022715121735" lon="13.617342597655037"><ele>46.5</ele><time>2026-05-02T14:56:59.998Z</time></trkpt><trkpt lat="43.50695199323681" lon="13.617383827779442"><ele>48.0</ele><time>2026-05-02T14:57:02.998Z</time></trkpt><trkpt lat="43.506883520863944" lon="13.617444908899099"><ele>49.5</ele><time>2026-05-02T14:57:05.998Z</time></trkpt><trkpt lat="43.50682513317414" lon="13.61751999161976"><ele>51.0</ele><time>2026-05-02T14:57:08.998Z</time></trkpt><trkpt lat="43.506766402015735" lon="13.617600478995893"><ele>52.5</ele><time>2026-05-02T14:57:11.998Z</time></trkpt><trkpt lat="43.506706359258075" lon="13.617692120020115"><ele>54.0</ele><time>2026-05-02T14:57:14.998Z</time></trkpt><trkpt lat="43.50664705693944" lon="13.617762952922016"><ele>53.666666666666664</ele><time>2026-05-02T14:57:18Z</time></trkpt><trkpt lat="43.50659520862287" lon="13.617830847050262"><ele>53.33333333333333</ele><time>2026-05-02T14:57:21Z</time></trkpt><trkpt lat="43.50654014007002" lon="13.617904559301689"><ele>53.0</ele><time>2026-05-02T14:57:24Z</time></trkpt><trkpt lat="43.50648446425145" lon="13.617973985689195"><ele>52.666666666666664</ele><time>2026-05-02T14:57:27Z</time></trkpt><trkpt lat="43.50642351638559" lon="13.618049420178252"><ele>52.33333333333333</ele><time>2026-05-02T14:57:30Z</time></trkpt><trkpt lat="43.506356509974246" lon="13.618120472150881"><ele>52.0</ele><time>2026-05-02T14:57:33Z</time></trkpt><trkpt lat="43.50629614864477" lon="13.61819255092728"><ele>53.166666666666664</ele><time>2026-05-02T14:57:36Z</time></trkpt><trkpt lat="43.506225733834945" lon="13.618254975844502"><ele>54.33333333333333</ele><time>2026-05-02T14:57:39Z</time></trkpt><trkpt lat="43.506152913965636" lon="13.61830528946484"><ele>55.5</ele><time>2026-05-02T14:57:42Z</time></trkpt><trkpt lat="43.50607428906391" lon="13.618359666317357"><ele>56.66666666666667</ele><time>2026-05-02T14:57:45Z</time></trkpt><trkpt lat="43.506003898850096" lon="13.618429831391405"><ele>57.833333333333336</ele><time>2026-05-02T14:57:48Z</time></trkpt><trkpt lat="43.505922561390996" lon="13.618496493826854"><ele>59.0</ele><time>2026-05-02T14:57:51Z</time></trkpt><trkpt lat="43.505843054182094" lon="13.618551348672607"><ele>59.0</ele><time>2026-05-02T14:57:54Z</time></trkpt><trkpt lat="43.50575792161961" lon="13.618599021965526"><ele>59.0</ele><time>2026-05-02T14:57:57Z</time></trkpt><trkpt lat="43.5056894374772" lon="13.618623498743878"><ele>59.0</ele><time>2026-05-02T14:57:59Z</time></trkpt><trkpt lat="43.50562167462994" lon="13.61861450209809"><ele>59.0</ele><time>2026-05-02T14:58:00.999Z</time></trkpt><trkpt lat="43.50555400044338" lon="13.618590079525472"><ele>59.0</ele><time>2026-05-02T14:58:02.999Z</time></trkpt><trkpt lat="43.50549105954401" lon="13.618551357765242"><ele>59.0</ele><time>2026-05-02T14:58:04.999Z</time></trkpt><trkpt lat="43.505426589764404" lon="13.618529030948313"><ele>59.0</ele><time>2026-05-02T14:58:07.999Z</time></trkpt><trkpt lat="43.50537620320506" lon="13.618472148504495"><ele>58.400000000000006</ele><time>2026-05-02T14:58:09.999Z</time></trkpt><trkpt lat="43.505313329379526" lon="13.618433555322813"><ele>57.800000000000004</ele><time>2026-05-02T14:58:11.999Z</time></trkpt><trkpt lat="43.505243767539476" lon="13.618374165920477"><ele>57.199999999999996</ele><time>2026-05-02T14:58:13.999Z</time></trkpt><trkpt lat="43.505163568194355" lon="13.618305694624292"><ele>56.599999999999994</ele><time>2026-05-02T14:58:15.999Z</time></trkpt><trkpt lat="43.5050704737288" lon="13.618230006371165"><ele>56.0</ele><time>2026-05-02T14:58:17.999Z</time></trkpt><trkpt lat="43.50496974039507" lon="13.618155066682553"><ele>56.0</ele><time>2026-05-02T14:58:19.999Z</time></trkpt><trkpt lat="43.50487473612314" lon="13.618095451600709"><ele>55.99999999999999</ele><time>2026-05-02T14:58:21.999Z</time></trkpt><trkpt lat="43.50477007258389" lon="13.618043484826774"><ele>55.99999999999999</ele><time>2026-05-02T14:58:23.999Z</time></trkpt><trkpt lat="43.50466858848931" lon="13.617995430038771"><ele>56.0</ele><time>2026-05-02T14:58:25.999Z</time></trkpt><trkpt lat="43.5045647106658" lon="13.617948575380643"><ele>56.0</ele><time>2026-05-02T14:58:27.999Z</time></trkpt><trkpt lat="43.50447178884715" lon="13.617911321537377"><ele>55.8</ele><time>2026-05-02T14:58:29.999Z</time></trkpt><trkpt lat="43.50437714939452" lon="13.617874677878307"><ele>55.599999999999994</ele><time>2026-05-02T14:58:31.999Z</time></trkpt><trkpt lat="43.504290702715075" lon="13.61784312654614"><ele>55.4</ele><time>2026-05-02T14:58:33.999Z</time></trkpt><trkpt lat="43.504206020119604" lon="13.617814894627747"><ele>55.2</ele><time>2026-05-02T14:58:35.999Z</time></trkpt><trkpt lat="43.50411685165756" lon="13.617787552464142"><ele>55.0</ele><time>2026-05-02T14:58:37.999Z</time></trkpt><trkpt lat="43.5039732210959" lon="13.617769234045682"><ele>55.0</ele><time>2026-05-02T14:58:40.999Z</time></trkpt><trkpt lat="43.503866172893666" lon="13.617779533890882"><ele>55.0</ele><time>2026-05-02T14:58:42.999Z</time></trkpt><trkpt lat="43.50369566662154" lon="13.61772646876768"><ele>55.0</ele><time>2026-05-02T14:58:44.999Z</time></trkpt><trkpt lat="43.5037405256227" lon="13.61753618497289"><ele>55.0</ele><time>2026-05-02T14:58:45.999Z</time></trkpt><trkpt lat="43.50375636161462" lon="13.617412633928451"><ele>55.0</ele><time>2026-05-02T14:58:48.999Z</time></trkpt><trkpt lat="43.50371402404502" lon="13.6173467140707"><ele>55.0</ele><time>2026-05-02T14:58:49.999Z</time></trkpt><trkpt lat="43.50382268061042" lon="13.617316392814883"><ele>55.0</ele><time>2026-05-02T14:58:51.999Z</time></trkpt><trkpt lat="43.5037077277062" lon="13.617346463729861"><ele>55.0</ele><time>2026-05-02T14:58:57.999Z</time></trkpt><trkpt lat="43.50361974962883" lon="13.617429207568827"><ele>55.0</ele><time>2026-05-02T14:58:59.999Z</time></trkpt><trkpt lat="43.50350507624649" lon="13.6174883554304"><ele>54.75</ele><time>2026-05-02T14:59:01.998Z</time></trkpt><trkpt lat="43.50339253798054" lon="13.617508609064467"><ele>54.5</ele><time>2026-05-02T14:59:03.998Z</time></trkpt><trkpt lat="43.50328487289122" lon="13.617575296528909"><ele>54.25</ele><time>2026-05-02T14:59:05.998Z</time></trkpt><trkpt lat="43.50321534514581" lon="13.617675086950118"><ele>54.0</ele><time>2026-05-02T14:59:07.998Z</time></trkpt><trkpt lat="43.50309546478737" lon="13.61757337806762"><ele>54.0</ele><time>2026-05-02T14:59:08.998Z</time></trkpt><trkpt lat="43.50303209228038" lon="13.617549498679129"><ele>54.00000000000001</ele><time>2026-05-02T14:59:09.998Z</time></trkpt><trkpt lat="43.50291816824544" lon="13.617478575576193"><ele>54.00000000000001</ele><time>2026-05-02T14:59:11.998Z</time></trkpt><trkpt lat="43.502864242362875" lon="13.617427373160423"><ele>54.0</ele><time>2026-05-02T14:59:12.998Z</time></trkpt><trkpt lat="43.50274916455458" lon="13.61737745796591"><ele>54.0</ele><time>2026-05-02T14:59:14.998Z</time></trkpt><trkpt lat="43.5026357639822" lon="13.617333039824326"><ele>53.0</ele><time>2026-05-02T14:59:16.998Z</time></trkpt><trkpt lat="43.502528445070446" lon="13.61744052283763"><ele>52.00000000000001</ele><time>2026-05-02T14:59:18.998Z</time></trkpt><trkpt lat="43.50245252004022" lon="13.617484693819772"><ele>51.0</ele><time>2026-05-02T14:59:20.998Z</time></trkpt><trkpt lat="43.50242285752315" lon="13.61757226702312"><ele>50.0</ele><time>2026-05-02T14:59:24Z</time></trkpt><trkpt lat="43.5023448683444" lon="13.617572565993676"><ele>49.0</ele><time>2026-05-02T14:59:26Z</time></trkpt><trkpt lat="43.5022648144791" lon="13.617515081291861"><ele>49.0</ele><time>2026-05-02T14:59:28Z</time></trkpt><trkpt lat="43.502263034361235" lon="13.617759561735337"><ele>49.0</ele><time>2026-05-02T14:59:30Z</time></trkpt><trkpt lat="43.50225030885746" lon="13.617872726227425"><ele>49.0</ele><time>2026-05-02T14:59:32Z</time></trkpt><trkpt lat="43.50224820982622" lon="13.617969497025404"><ele>49.0</ele><time>2026-05-02T14:59:34Z</time></trkpt><trkpt lat="43.502244183325615" lon="13.618067004544402"><ele>49.0</ele><time>2026-05-02T14:59:36Z</time></trkpt><trkpt lat="43.50223100780249" lon="13.618162422602719"><ele>48.400000000000006</ele><time>2026-05-02T14:59:38Z</time></trkpt><trkpt lat="43.50220817240892" lon="13.61825685013043"><ele>47.8</ele><time>2026-05-02T14:59:40Z</time></trkpt><trkpt lat="43.50217140447539" lon="13.618361291647437"><ele>47.2</ele><time>2026-05-02T14:59:42Z</time></trkpt><trkpt lat="43.50211167054369" lon="13.61846219807094"><ele>46.599999999999994</ele><time>2026-05-02T14:59:44Z</time></trkpt><trkpt lat="43.50203746776669" lon="13.61855321165759"><ele>46.0</ele><time>2026-05-02T14:59:46Z</time></trkpt><trkpt lat="43.501956661993596" lon="13.618644559360398"><ele>45.4</ele><time>2026-05-02T14:59:48Z</time></trkpt><trkpt lat="43.50186745207798" lon="13.618738417784808"><ele>44.8</ele><time>2026-05-02T14:59:50Z</time></trkpt><trkpt lat="43.50178203148351" lon="13.618838944519057"><ele>44.199999999999996</ele><time>2026-05-02T14:59:52Z</time></trkpt><trkpt lat="43.50169937310324" lon="13.618926632391588"><ele>43.599999999999994</ele><time>2026-05-02T14:59:54Z</time></trkpt><trkpt lat="43.50160761460086" lon="13.618991960675926"><ele>43.0</ele><time>2026-05-02T14:59:56Z</time></trkpt><trkpt lat="43.50153008352646" lon="13.61908973619211"><ele>43.0</ele><time>2026-05-02T14:59:58Z</time></trkpt><trkpt lat="43.50144256308895" lon="13.619178376255212"><ele>43.0</ele><time>2026-05-02T15:00:00Z</time></trkpt><trkpt lat="43.50134654101505" lon="13.619269736404055"><ele>43.0</ele><time>2026-05-02T15:00:02Z</time></trkpt><trkpt lat="43.50124309381901" lon="13.619345768304402"><ele>43.0</ele><time>2026-05-02T15:00:03.999Z</time></trkpt><trkpt lat="43.50114616177575" lon="13.619442350123059"><ele>42.0</ele><time>2026-05-02T15:00:05.999Z</time></trkpt><trkpt lat="43.50104769631092" lon="13.619554169463058"><ele>41.0</ele><time>2026-05-02T15:00:07.999Z</time></trkpt><trkpt lat="43.50097922360917" lon="13.619651280927851"><ele>40.0</ele><time>2026-05-02T15:00:09.999Z</time></trkpt><trkpt lat="43.500912563510276" lon="13.619784017163376"><ele>39.0</ele><time>2026-05-02T15:00:11.999Z</time></trkpt><trkpt lat="43.50086148694105" lon="13.619932745712322"><ele>39.0</ele><time>2026-05-02T15:00:13.999Z</time></trkpt><trkpt lat="43.50083674967442" lon="13.62001582639044"><ele>39.0</ele><time>2026-05-02T15:00:14.999Z</time></trkpt><trkpt lat="43.500805102727995" lon="13.620120467115301"><ele>39.0</ele><time>2026-05-02T15:00:15.999Z</time></trkpt><trkpt lat="43.500752496488644" lon="13.620290738618436"><ele>39.0</ele><time>2026-05-02T15:00:17.999Z</time></trkpt><trkpt lat="43.500721334440236" lon="13.6203858652345"><ele>39.0</ele><time>2026-05-02T15:00:18.999Z</time></trkpt><trkpt lat="43.5006864281575" lon="13.620472984129941"><ele>39.0</ele><time>2026-05-02T15:00:19.999Z</time></trkpt><trkpt lat="43.500638325939164" lon="13.620550726040086"><ele>37.833333333333336</ele><time>2026-05-02T15:00:20.999Z</time></trkpt><trkpt lat="43.50058425797972" lon="13.6206107210635"><ele>36.666666666666664</ele><time>2026-05-02T15:00:21.999Z</time></trkpt><trkpt lat="43.50052147881849" lon="13.620667817748135"><ele>35.5</ele><time>2026-05-02T15:00:22.999Z</time></trkpt><trkpt lat="43.50044836457121" lon="13.620698653619238"><ele>34.33333333333333</ele><time>2026-05-02T15:00:23.999Z</time></trkpt><trkpt lat="43.500383331381904" lon="13.620736313795282"><ele>33.166666666666664</ele><time>2026-05-02T15:00:24.999Z</time></trkpt><trkpt lat="43.50026455900137" lon="13.620842818667818"><ele>32.0</ele><time>2026-05-02T15:00:26.999Z</time></trkpt><trkpt lat="43.50016311801613" lon="13.620829724229823"><ele>32.0</ele><time>2026-05-02T15:00:28.999Z</time></trkpt><trkpt lat="43.50005897871699" lon="13.620824810295641"><ele>32.0</ele><time>2026-05-02T15:00:30.999Z</time></trkpt><trkpt lat="43.499991789300275" lon="13.620822779183621"><ele>32.0</ele><time>2026-05-02T15:00:32.999Z</time></trkpt><trkpt lat="43.499927401479134" lon="13.6208020188499"><ele>32.0</ele><time>2026-05-02T15:00:35.999Z</time></trkpt><trkpt lat="43.49983254278967" lon="13.621013639678601"><ele>32.0</ele><time>2026-05-02T15:00:37.999Z</time></trkpt><trkpt lat="43.499745513589254" lon="13.621103026569719"><ele>30.6</ele><time>2026-05-02T15:00:39.999Z</time></trkpt><trkpt lat="43.499646077259655" lon="13.621204570977651"><ele>29.200000000000003</ele><time>2026-05-02T15:00:41.999Z</time></trkpt><trkpt lat="43.49955461848324" lon="13.62129579133478"><ele>27.8</ele><time>2026-05-02T15:00:43.999Z</time></trkpt><trkpt lat="43.49949734420611" lon="13.6213405720492"><ele>26.4</ele><time>2026-05-02T15:00:44.999Z</time></trkpt><trkpt lat="43.49941932480693" lon="13.621440537842348"><ele>25.0</ele><time>2026-05-02T15:00:46.999Z</time></trkpt><trkpt lat="43.49937002004319" lon="13.621495574557267"><ele>25.000000000000004</ele><time>2026-05-02T15:00:47.999Z</time></trkpt><trkpt lat="43.49931034527585" lon="13.621543594814714"><ele>25.0</ele><time>2026-05-02T15:00:48.999Z</time></trkpt><trkpt lat="43.499214696108474" lon="13.621625314167762"><ele>25.0</ele><time>2026-05-02T15:00:50.999Z</time></trkpt><trkpt lat="43.49915702659268" lon="13.621675842149873"><ele>25.0</ele><time>2026-05-02T15:00:51.999Z</time></trkpt><trkpt lat="43.499095816008904" lon="13.621742777459023"><ele>25.000000000000004</ele><time>2026-05-02T15:00:52.999Z</time></trkpt><trkpt lat="43.49904232761613" lon="13.621801303753324"><ele>25.0</ele><time>2026-05-02T15:00:53.999Z</time></trkpt><trkpt lat="43.49898051747894" lon="13.621858592496276"><ele>25.000000000000004</ele><time>2026-05-02T15:00:54.999Z</time></trkpt><trkpt lat="43.49892144523994" lon="13.621905963143556"><ele>25.0</ele><time>2026-05-02T15:00:55.999Z</time></trkpt><trkpt lat="43.4988666023874" lon="13.621961774131716"><ele>25.0</ele><time>2026-05-02T15:00:56.999Z</time></trkpt><trkpt lat="43.49880722790086" lon="13.622021391515819"><ele>25.0</ele><time>2026-05-02T15:00:57.999Z</time></trkpt><trkpt lat="43.498746395385936" lon="13.622084877560034"><ele>25.0</ele><time>2026-05-02T15:00:58.999Z</time></trkpt><trkpt lat="43.498700316432725" lon="13.622150166509973"><ele>25.000000000000004</ele><time>2026-05-02T15:00:59.999Z</time></trkpt><trkpt lat="43.49863582069061" lon="13.622225425774818"><ele>25.0</ele><time>2026-05-02T15:01:00.999Z</time></trkpt><trkpt lat="43.49857143889188" lon="13.622292756066946"><ele>24.42857142857143</ele><time>2026-05-02T15:01:01.999Z</time></trkpt><trkpt lat="43.498510939331815" lon="13.622355611200508"><ele>23.857142857142858</ele><time>2026-05-02T15:01:02.999Z</time></trkpt><trkpt lat="43.49845103177892" lon="13.622417603399644"><ele>23.285714285714285</ele><time>2026-05-02T15:01:03.999Z</time></trkpt><trkpt lat="43.498397795189774" lon="13.622485681896991"><ele>22.714285714285715</ele><time>2026-05-02T15:01:04.999Z</time></trkpt><trkpt lat="43.49834028188234" lon="13.622547989306842"><ele>22.142857142857142</ele><time>2026-05-02T15:01:05.999Z</time></trkpt><trkpt lat="43.498284896945336" lon="13.622598719955818"><ele>21.571428571428573</ele><time>2026-05-02T15:01:06.998Z</time></trkpt><trkpt lat="43.49822099441148" lon="13.622661613622071"><ele>21.0</ele><time>2026-05-02T15:01:08.998Z</time></trkpt><trkpt lat="43.49825451304279" lon="13.622763372121412"><ele>19.8</ele><time>2026-05-02T15:01:11.998Z</time></trkpt><trkpt lat="43.49832730597692" lon="13.62289396416266"><ele>18.6</ele><time>2026-05-02T15:01:13.998Z</time></trkpt><trkpt lat="43.498370863661826" lon="13.622962840532432"><ele>17.4</ele><time>2026-05-02T15:01:14.998Z</time></trkpt><trkpt lat="43.49843117773307" lon="13.623094415031087"><ele>16.2</ele><time>2026-05-02T15:01:16.998Z</time></trkpt><trkpt lat="43.49850194609465" lon="13.623235703599313"><ele>15.0</ele><time>2026-05-02T15:01:18.998Z</time></trkpt><trkpt lat="43.49853977464537" lon="13.623305893633027"><ele>15.0</ele><time>2026-05-02T15:01:19.998Z</time></trkpt><trkpt lat="43.49858270984493" lon="13.623456725933703"><ele>15.0</ele><time>2026-05-02T15:01:21.998Z</time></trkpt><trkpt lat="43.498594692842694" lon="13.623546906396905"><ele>15.0</ele><time>2026-05-02T15:01:22.998Z</time></trkpt><trkpt lat="43.49865380255425" lon="13.623677730671776"><ele>15.0</ele><time>2026-05-02T15:01:24.998Z</time></trkpt><trkpt lat="43.49875536859269" lon="13.623674393742874"><ele>15.0</ele><time>2026-05-02T15:01:26.998Z</time></trkpt><trkpt lat="43.49881811304585" lon="13.623628446643908"><ele>14.833333333333334</ele><time>2026-05-02T15:01:29Z</time></trkpt><trkpt lat="43.498888102652955" lon="13.623573116236573"><ele>14.666666666666668</ele><time>2026-05-02T15:01:31Z</time></trkpt><trkpt lat="43.49895927468352" lon="13.623527989700952"><ele>14.5</ele><time>2026-05-02T15:01:33Z</time></trkpt><trkpt lat="43.49902837758938" lon="13.623479302478744"><ele>14.333333333333334</ele><time>2026-05-02T15:01:35Z</time></trkpt><trkpt lat="43.49909054788713" lon="13.623441087739478"><ele>14.166666666666668</ele><time>2026-05-02T15:01:37Z</time></trkpt><trkpt lat="43.49917090321477" lon="13.623447553272273"><ele>14.0</ele><time>2026-05-02T15:01:40Z</time></trkpt><trkpt lat="43.49915067696534" lon="13.623546856579743"><ele>14.000000000000002</ele><time>2026-05-02T15:01:43Z</time></trkpt><trkpt lat="43.49908506408592" lon="13.623592539737448"><ele>14.0</ele><time>2026-05-02T15:01:47Z</time></trkpt><trkpt lat="43.49902835691211" lon="13.623652872693292"><ele>14.0</ele><time>2026-05-02T15:01:52Z</time></trkpt><trkpt lat="43.49896402877912" lon="13.623714112655621"><ele>14.0</ele><time>2026-05-02T15:01:55Z</time></trkpt><trkpt lat="43.4988830017457" lon="13.62378031644708"><ele>14.000000000000002</ele><time>2026-05-02T15:01:57Z</time></trkpt><trkpt lat="43.498784273585166" lon="13.623874789566733"><ele>14.0</ele><time>2026-05-02T15:01:59Z</time></trkpt><trkpt lat="43.498706300360055" lon="13.623942048759128"><ele>13.166666666666668</ele><time>2026-05-02T15:02:01Z</time></trkpt><trkpt lat="43.49864989360062" lon="13.6240425514224"><ele>12.333333333333334</ele><time>2026-05-02T15:02:03Z</time></trkpt><trkpt lat="43.498616745499206" lon="13.624130432785439"><ele>11.5</ele><time>2026-05-02T15:02:05Z</time></trkpt><trkpt lat="43.498566150375964" lon="13.624187129769755"><ele>10.666666666666668</ele><time>2026-05-02T15:02:07Z</time></trkpt><trkpt lat="43.49851119229633" lon="13.624245832501854"><ele>9.833333333333334</ele><time>2026-05-02T15:02:08.999Z</time></trkpt><trkpt lat="43.498427843611495" lon="13.624283200772537"><ele>9.0</ele><time>2026-05-02T15:02:11.999Z</time></trkpt><trkpt lat="43.498351886604866" lon="13.624332330211608"><ele>9.0</ele><time>2026-05-02T15:02:14.999Z</time></trkpt><trkpt lat="43.49828551226656" lon="13.624380137974333"><ele>9.0</ele><time>2026-05-02T15:02:17.999Z</time></trkpt></trkseg></trk></gpx>